GFSMA_sfc_wetblb_000.txt.gz
Wetbulb
63.12 63.28 60.00 60.16 59.15 60.33 60.19 59.40 60.66 61.57 61.44 62.01 61.91 61.54 61.72 60.75 59.45 58.99 58.22 58.38 61.23 62.12 64.22 66.10 66.59 66.34 65.26 64.67 63.68 62.96 61.79 61.54 61.30 61.64 61.11 60.61 61.51 61.46 61.42 61.18 60.98 60.77 60.68
62.72 63.13 60.06 59.15 60.78 61.49 61.80 60.78 60.77 60.90 61.40 61.77 62.01 63.05 62.75 62.61 60.75 60.53 60.81 58.62 57.50 59.16 60.92 64.22 65.73 66.02 65.77 64.74 63.27 63.03 62.91 61.53 61.09 61.02 60.69 60.75 60.82 60.80 60.87 60.79 60.49 60.47 60.50
60.44 60.10 59.21 57.65 57.86 59.75 60.52 61.28 61.09 61.73 62.36 62.18 61.54 61.78 61.61 61.93 61.90 60.64 61.00 59.17 57.29 57.18 58.35 61.42 64.20 65.18 66.04 65.27 63.90 63.02 62.95 62.49 61.89 61.19 60.87 60.59 60.78 60.68 60.36 60.45 60.43 60.27 60.48
57.02 56.99 57.03 56.57 57.14 57.49 56.67 55.53 54.48 55.68 58.28 59.11 59.26 59.69 60.14 61.35 61.82 61.99 60.78 59.34 57.81 56.80 56.64 58.27 61.29 63.80 64.30 65.31 64.59 63.10 62.37 62.98 62.32 62.18 61.72 61.08 60.85 60.73 60.55 60.34 60.41 60.30 60.21
54.07 53.81 54.18 54.65 54.40 53.61 54.06 53.37 52.87 55.17 54.75 54.79 56.02 60.28 59.22 58.51 61.70 60.72 60.03 57.85 57.23 56.60 56.00 56.84 58.27 59.90 62.84 64.35 65.11 64.15 63.14 62.70 63.18 62.71 62.22 61.45 60.98 60.88 60.66 60.49 60.75 60.62 60.43
52.90 52.98 52.88 53.16 52.41 51.04 49.93 50.13 50.13 51.18 52.38 53.86 51.98 55.00 59.42 61.43 61.53 60.42 60.75 58.81 57.94 57.45 56.48 57.18 58.64 60.48 60.49 63.19 64.12 64.98 63.85 62.82 62.62 62.60 62.61 62.21 61.37 60.88 60.75 60.43 60.73 60.82 60.71
51.99 52.67 51.87 51.02 51.56 50.65 50.18 49.85 49.05 48.54 48.61 50.96 48.99 51.60 54.78 58.99 60.15 59.05 59.58 61.36 59.27 56.58 56.60 56.41 57.84 59.57 62.17 61.88 63.20 64.41 64.38 63.39 62.08 62.93 62.91 62.35 61.61 60.82 60.82 60.79 60.60 60.58 60.51
51.71 51.23 50.43 50.22 50.60 49.46 49.80 49.80 49.16 47.34 47.15 48.91 45.99 45.74 48.87 54.63 57.73 57.53 58.69 59.22 60.23 59.07 56.23 55.50 57.54 58.85 60.17 63.91 63.31 62.51 63.80 64.62 63.84 63.05 62.52 61.28 61.03 60.71 60.79 60.77 60.79 60.73 60.66
52.10 51.99 51.40 50.78 50.53 50.25 48.90 49.18 49.15 47.93 45.59 47.08 47.35 46.02 42.42 45.02 46.87 54.23 57.81 57.91 58.56 57.80 58.07 56.05 55.87 57.76 58.65 60.90 62.33 61.63 58.86 60.17 62.88 63.01 62.01 61.37 61.16 60.79 60.60 60.66 60.60 60.38 60.73
51.48 51.66 51.56 51.58 51.44 50.76 49.43 48.92 48.43 48.41 47.59 45.52 46.63 46.62 48.48 45.71 41.12 41.79 49.88 51.03 56.25 56.34 58.15 57.61 55.60 56.53 58.52 60.23 59.54 58.18 55.76 55.73 59.04 61.53 61.93 61.65 61.37 61.18 60.82 60.51 60.15 60.17 60.64
50.26 50.36 50.59 51.09 51.02 50.73 50.09 49.68 49.31 48.28 47.73 46.46 45.72 45.58 45.62 45.26 45.04 43.32 40.25 45.02 50.14 51.94 54.59 57.91 57.15 54.81 57.38 59.85 60.81 60.00 54.07 54.01 55.17 59.24 60.85 61.45 61.52 61.31 60.84 60.56 60.19 59.91 60.08
47.92 48.22 48.35 48.45 48.60 48.60 48.43 48.56 48.92 48.73 48.16 47.46 46.62 45.97 44.42 42.89 42.36 42.23 42.92 43.83 43.15 46.35 48.80 52.98 54.40 53.72 54.28 57.52 58.93 55.16 52.76 52.62 53.62 56.71 59.03 60.08 60.60 61.01 60.97 60.73 60.32 59.69 59.69
44.60 45.30 45.53 45.30 45.18 45.42 45.57 45.80 45.96 46.17 46.69 46.02 46.17 45.43 45.62 44.70 44.72 43.25 41.87 40.96 40.72 44.71 46.34 49.29 53.70 54.00 53.52 53.59 55.33 53.64 52.67 50.93 52.29 53.75 56.20 57.88 58.93 59.33 59.91 60.68 60.10 59.25 59.50
41.77 43.11 42.76 43.10 43.59 43.65 43.80 43.88 43.67 44.30 44.93 46.37 45.85 46.40 45.67 44.71 44.68 43.92 42.03 40.79 39.14 40.77 43.32 45.79 49.94 52.82 53.19 53.02 52.72 50.89 57.00 49.04 50.09 51.30 52.63 54.44 56.33 57.13 57.32 58.08 58.28 57.65 58.18
41.82 41.89 42.03 41.83 42.10 42.28 42.48 42.75 42.30 43.00 44.06 45.55 46.22 46.31 46.08 46.89 45.53 44.50 43.93 43.05 40.19 36.49 38.51 42.38 46.20 48.83 51.19 52.87 51.60 52.71 52.65 50.50 48.44 48.68 49.48 51.19 53.07 55.05 55.45 55.96 56.03 56.07 57.05
41.41 41.06 40.74 40.90 40.84 40.90 41.24 41.28 41.08 42.22 41.76 43.77 44.30 43.88 44.45 45.45 45.18 44.67 43.55 43.23 42.76 40.44 37.51 42.36 42.76 48.62 48.69 49.02 50.07 50.79 51.21 49.97 46.53 46.44 46.78 48.40 50.04 51.67 53.10 53.87 53.97 54.38 54.91
40.32 39.68 39.55 39.38 39.09 39.11 39.70 39.56 39.75 40.12 39.82 40.61 42.19 43.18 43.40 44.20 44.20 44.31 43.74 42.77 41.74 41.80 39.30 41.94 44.00 45.64 46.62 46.76 47.03 48.72 50.23 50.52 49.74 44.55 44.74 46.47 47.81 48.99 50.12 50.55 50.55 51.22 51.20
39.57 39.11 38.60 37.99 37.73 37.74 38.03 37.69 37.46 38.20 38.06 38.34 39.35 39.95 40.80 42.20 42.71 43.73 43.45 41.52 41.28 42.34 40.36 39.73 42.74 43.54 43.97 46.20 46.97 45.72 47.01 49.07 49.75 45.94 44.64 46.01 47.40 48.25 47.49 46.92 46.47 46.53 46.42
38.34 37.95 37.24 36.48 36.36 36.34 36.40 36.78 36.83 36.79 37.13 37.56 38.30 38.56 39.13 39.68 40.43 41.82 41.67 41.51 41.55 40.87 41.98 41.68 40.75 43.32 43.88 45.74 44.70 44.62 43.77 44.82 47.31 47.03 44.11 44.49 46.05 46.56 45.60 45.01 44.22 43.70 43.56
36.40 36.03 36.10 35.76 35.63 35.55 35.45 35.63 35.72 35.37 35.22 34.98 35.59 36.25 36.65 37.35 37.90 38.84 39.68 39.98 40.51 40.38 41.16 40.88 40.11 40.86 42.43 43.78 43.36 41.32 39.40 41.45 40.06 43.12 44.89 44.92 44.43 44.09 44.05 43.76 42.88 42.69 42.63
35.41 35.54 34.74 34.77 34.96 34.79 34.57 34.92 34.23 32.92 32.18 31.69 33.17 33.33 34.54 35.04 35.47 36.17 36.99 38.63 39.48 39.17 39.39 39.44 39.90 40.90 40.98 41.38 39.78 40.90 39.91 37.58 36.72 37.20 37.88 40.36 43.82 43.21 42.74 41.68 41.92 41.94 41.37
34.60 34.61 33.91 33.71 33.83 33.66 32.39 31.51 30.19 29.75 29.41 29.85 30.80 32.30 33.41 34.14 34.30 33.65 33.81 34.30 35.74 36.09 35.86 38.35 38.53 39.15 40.13 41.98 42.18 40.17 36.80 34.45 34.12 34.59 34.20 32.69 37.35 40.21 40.68 41.20 40.59 39.81 39.72
33.68 33.08 33.23 33.44 32.78 33.05 31.52 30.11 29.50 29.70 30.11 30.48 31.09 32.03 32.45 33.67 33.52 33.92 33.70 33.01 32.94 33.40 32.73 35.41 36.30 39.37 39.80 42.61 43.32 39.89 37.33 38.32 35.90 33.84 35.75 29.74 31.97 32.34 36.21 38.18 38.36 38.36 38.30
32.11 32.09 32.33 32.32 31.59 31.31 29.96 29.44 28.88 29.91 30.39 30.84 31.05 31.72 31.96 32.93 33.70 33.46 33.72 33.87 34.72 36.11 35.88 35.21 36.93 39.04 42.30 43.67 43.82 42.65 39.04 36.91 33.70 33.30 32.37 28.26 30.08 28.33 31.57 32.63 36.79 37.37 36.69
31.37 31.42 31.39 30.74 29.48 29.97 29.40 28.78 28.75 30.11 29.90 30.15 31.04 31.75 31.96 32.11 32.45 33.05 32.46 32.14 32.66 34.27 36.09 35.84 36.02 36.47 36.30 37.17 38.58 43.92 36.07 34.33 30.04 30.48 29.52 28.24 27.68 27.65 30.51 31.89 32.74 35.78 35.60
30.65 30.66 29.32 29.44 28.96 29.52 28.95 28.67 29.03 29.90 29.36 29.74 31.04 32.26 31.20 31.72 31.26 31.31 32.14 31.85 31.29 32.37 34.84 34.71 35.31 36.25 36.77 37.94 35.74 40.26 38.61 35.80 31.32 29.05 30.58 25.56 26.20 25.66 22.66 28.26 31.91 33.29 34.25

GFSMA_sfc_wetblb_003.txt.gz
Wetbulb
62.66 63.57 62.09 61.67 61.04 61.72 60.96 60.80 59.14 58.05 59.85 60.30 60.62 59.69 60.94 62.27 62.32 61.94 61.21 59.50 60.25 61.52 62.05 63.59 65.88 66.43 66.15 66.01 64.84 64.23 62.79 61.94 61.84 61.63 62.87 62.63 62.32 62.63 62.45 62.28 61.78 61.41 61.32
62.23 61.92 61.83 60.90 59.93 61.14 61.93 62.08 61.38 61.03 60.90 60.75 60.14 61.13 61.80 61.87 62.77 62.78 61.86 61.25 59.02 59.31 60.42 60.59 63.74 65.73 66.14 66.23 64.96 64.29 63.66 63.08 62.04 61.75 62.82 62.21 61.85 61.96 61.78 61.67 61.44 61.33 61.28
58.99 58.21 57.92 57.67 57.93 58.97 59.13 58.21 56.59 59.38 61.15 61.45 61.26 61.22 61.27 62.20 62.96 62.44 62.38 61.84 61.25 57.69 58.90 60.28 60.88 63.92 65.75 65.90 65.54 64.21 63.76 62.79 62.68 62.29 61.82 62.14 61.59 61.37 61.20 61.14 60.88 60.83 60.83
56.85 57.12 56.67 56.00 55.84 56.36 56.15 55.29 55.43 55.58 57.03 58.51 57.36 59.41 60.84 61.06 61.32 61.74 62.06 61.06 61.88 61.82 58.50 58.57 60.09 60.66 63.61 64.61 65.50 64.53 63.59 63.47 62.75 62.47 62.10 61.82 61.35 61.11 61.07 60.90 60.51 60.49 60.49
54.41 54.66 54.40 54.35 53.94 52.83 52.21 51.09 50.84 52.40 51.68 54.12 54.95 54.71 56.38 60.42 61.31 60.76 60.71 61.53 62.11 61.41 61.38 58.30 58.20 58.86 60.72 63.49 64.64 65.57 64.31 63.24 63.51 62.53 62.32 61.63 61.19 60.92 60.75 60.55 60.45 60.34 60.38
53.22 53.40 53.70 53.73 52.89 51.85 51.13 50.92 50.25 50.21 49.63 50.31 50.09 50.07 53.63 58.58 60.64 61.25 60.82 61.72 61.53 61.04 60.14 60.40 59.31 56.79 57.75 61.48 63.59 64.66 65.47 64.36 63.25 62.88 62.73 62.52 61.44 60.89 60.30 60.32 60.36 60.40 60.49
52.65 53.10 52.21 52.04 52.36 51.03 51.09 51.39 50.50 49.82 48.82 49.89 48.08 49.38 50.32 53.58 56.77 60.97 62.13 60.64 61.03 60.76 60.60 60.41 60.62 59.93 57.90 59.04 61.55 64.32 65.16 65.32 64.46 64.07 63.58 62.50 61.65 60.61 60.32 60.14 60.27 60.34 60.47
53.17 52.37 51.95 51.38 51.44 50.73 51.41 51.10 50.24 48.31 49.10 50.39 46.20 45.52 44.47 48.10 52.34 54.30 57.69 59.89 61.33 61.53 59.98 59.79 59.93 59.24 57.74 58.13 59.46 61.81 64.23 65.63 65.72 64.38 63.52 62.47 61.87 60.81 60.47 60.58 60.60 60.85 60.85
53.30 52.97 52.56 51.89 51.71 51.35 49.79 50.76 50.11 48.89 46.27 49.13 50.85 46.11 41.68 41.68 46.50 48.61 53.40 54.17 57.77 59.80 60.04 58.81 58.65 59.05 58.54 56.69 57.35 60.29 59.32 60.59 63.87 63.99 63.24 62.70 62.17 61.44 60.73 60.62 60.83 60.68 60.92
52.54 52.55 52.19 51.66 51.36 50.93 50.34 50.64 50.07 50.44 49.58 46.36 48.82 48.49 50.13 47.41 41.78 40.88 47.12 48.70 53.75 53.42 54.68 57.74 57.69 58.52 58.49 58.87 57.18 55.67 55.81 56.32 59.01 61.82 62.53 62.23 62.28 61.90 61.18 60.62 60.92 60.58 60.81
51.58 51.09 51.17 50.90 50.52 50.20 50.63 51.45 51.11 50.81 49.83 48.88 47.85 47.38 48.18 47.80 47.95 44.64 41.52 44.17 48.12 52.51 53.92 53.10 53.33 58.28 58.38 58.28 57.94 56.31 53.45 53.75 55.85 59.14 61.25 61.62 62.06 61.61 61.31 60.94 60.90 60.79 60.70
49.63 49.96 48.43 48.89 48.79 48.46 48.04 49.34 50.28 49.63 49.21 49.03 49.06 48.11 46.89 45.62 44.07 44.81 43.67 44.59 44.35 48.13 50.44 50.73 51.66 54.56 56.96 57.24 56.66 54.27 52.10 52.39 54.13 56.87 59.15 60.36 61.02 61.33 61.27 61.09 60.99 60.96 60.60
45.54 45.99 46.57 46.67 45.35 45.54 45.66 46.05 46.56 46.79 46.25 45.63 46.70 46.83 47.34 46.94 47.36 46.36 44.74 43.77 43.09 45.52 46.60 48.90 52.03 52.63 54.33 55.89 57.31 53.66 54.11 49.97 51.78 54.68 56.59 58.36 59.11 59.65 60.21 60.49 60.47 60.49 60.29
44.57 44.96 44.48 44.22 43.82 43.84 43.87 44.67 44.75 45.04 45.70 45.53 45.80 45.93 45.96 46.92 47.61 47.06 45.46 43.77 41.55 42.67 44.92 45.69 49.55 52.68 52.65 54.30 54.24 51.47 54.66 49.75 49.23 51.67 53.97 55.33 56.57 57.26 57.71 58.42 58.67 58.49 58.69
43.65 43.92 43.48 42.80 42.81 42.93 42.83 42.72 43.54 43.49 44.53 45.14 45.88 46.49 45.78 46.18 47.18 47.59 47.74 46.25 42.94 38.88 40.01 44.21 44.95 50.37 52.72 52.35 51.90 53.20 53.39 52.33 49.35 48.44 49.65 51.79 54.31 55.54 55.81 56.51 56.66 56.50 56.73
42.92 42.50 42.01 41.71 41.57 41.58 41.73 41.94 42.22 42.52 43.00 43.49 43.74 44.29 44.57 45.30 45.64 46.61 46.59 45.85 45.39 42.32 39.11 43.40 44.45 47.36 51.21 51.57 51.98 51.31 51.90 50.36 49.28 46.66 46.80 48.15 50.61 53.51 53.99 54.54 54.96 54.82 55.12
41.76 41.03 40.67 40.64 40.59 40.34 40.64 40.60 40.60 41.11 40.95 41.30 42.29 42.41 42.58 43.98 43.30 44.04 44.54 44.59 43.20 43.16 39.76 42.80 44.98 46.60 47.07 49.86 49.63 49.98 50.26 49.70 50.65 46.27 44.79 46.07 47.16 48.85 51.06 51.33 52.06 52.94 52.86
41.14 40.52 40.47 39.92 39.46 39.28 39.33 38.69 38.60 38.84 39.00 38.89 40.03 40.64 40.76 41.57 42.27 43.27 43.15 42.92 43.03 43.55 41.30 39.28 43.06 43.73 45.27 47.87 48.46 48.60 47.95 49.26 48.84 47.74 45.17 44.71 45.59 46.12 47.40 48.54 48.77 49.32 49.91
40.27 40.16 39.58 38.55 38.26 38.17 37.87 38.19 37.69 37.73 37.92 38.39 38.88 39.10 39.39 39.95 39.74 40.79 41.39 41.57 42.44 42.59 42.38 40.36 40.18 43.30 43.70 45.67 46.35 47.48 47.34 47.75 47.21 46.70 44.56 42.73 44.11 45.19 46.10 46.80 47.34 47.70 47.51
39.28 38.77 38.41 37.76 37.53 37.35 37.21 37.00 36.70 36.66 37.20 37.14 37.39 37.12 36.37 36.88 37.15 37.94 38.80 39.63 40.80 40.57 40.86 40.20 39.96 40.40 42.14 43.84 44.90 44.22 42.03 43.31 43.25 43.19 44.19 42.76 42.94 44.72 45.53 46.31 46.58 47.09 46.55
38.22 37.58 36.86 36.97 37.01 36.89 36.20 36.18 35.78 34.89 34.50 33.71 33.82 33.24 34.10 34.72 34.77 34.89 35.20 35.56 36.53 37.88 39.04 38.86 38.40 39.26 39.67 39.97 40.56 43.64 42.24 41.48 38.80 39.91 39.65 38.22 41.26 44.35 46.59 45.94 47.81 46.64 45.34
36.68 36.46 35.95 35.83 35.32 35.29 34.27 33.88 33.21 32.71 31.53 30.22 30.01 31.28 32.59 32.86 33.19 33.15 33.23 33.36 33.67 34.37 33.88 35.68 37.49 37.40 38.87 40.41 42.07 41.87 41.71 36.75 35.65 37.18 37.07 35.14 37.92 38.01 42.86 46.91 45.14 44.11 43.54
35.85 35.26 35.00 34.83 34.11 34.64 33.68 33.08 31.79 31.05 30.26 30.03 29.78 31.01 31.70 32.56 32.99 33.57 33.18 32.89 32.67 32.61 31.55 33.63 31.93 35.28 38.06 40.79 41.79 40.85 41.11 38.27 38.21 36.37 36.18 31.66 33.47 32.74 32.65 37.75 41.79 41.54 41.74
34.41 33.95 33.75 33.66 33.19 33.13 31.96 31.47 30.92 30.16 29.54 29.74 30.27 31.06 31.38 32.02 32.67 33.03 33.44 33.63 34.08 34.96 35.10 34.14 34.14 35.34 37.38 40.59 40.40 40.52 41.59 39.89 33.99 35.18 35.76 29.69 30.17 30.87 32.49 33.77 39.34 40.88 40.29
33.36 32.96 32.60 31.93 30.71 30.58 30.44 30.63 29.85 30.87 30.29 30.43 30.98 31.56 32.07 32.12 32.19 32.46 31.78 31.00 31.93 33.61 35.56 35.33 35.51 35.40 35.25 35.44 36.22 37.57 37.39 35.35 30.63 31.46 31.83 29.75 28.34 28.49 31.47 31.40 32.11 36.81 38.57
32.10 32.38 30.44 30.66 29.80 29.85 30.85 31.14 31.31 31.37 30.78 30.90 31.33 31.99 31.09 30.77 31.05 31.40 31.48 31.05 30.10 31.63 32.77 33.91 35.43 35.14 35.37 36.21 34.22 36.16 35.91 36.48 32.95 29.57 31.58 28.01 28.12 27.87 25.70 30.31 31.37 31.69 31.72

GFSMA_sfc_wetblb_006.txt.gz
Wetbulb
60.27 60.31 59.13 58.68 58.61 58.89 58.35 58.49 57.53 56.95 56.48 57.65 58.13 58.25 57.74 58.15 60.15 60.82 60.70 61.25 60.35 61.60 64.21 65.90 66.61 66.95 67.26 66.91 66.25 65.71 65.15 63.86 63.16 63.08 63.92 64.30 63.75 63.69 63.71 63.21 62.79 62.46 62.22
59.61 59.46 58.13 57.65 56.73 57.33 57.61 58.63 58.53 58.99 58.94 59.00 58.52 59.58 59.17 57.99 59.06 60.43 61.31 60.72 59.65 60.16 61.15 62.78 64.86 66.54 67.29 67.34 66.24 65.48 64.96 64.08 63.40 62.59 62.97 63.59 63.25 63.05 63.03 62.64 62.20 62.18 61.92
56.16 55.53 55.09 54.53 54.87 55.46 55.23 55.44 55.23 55.54 56.75 59.17 58.98 59.57 59.91 59.81 59.87 60.51 61.12 61.25 60.34 59.14 59.50 60.19 62.16 63.26 65.84 67.32 66.72 65.66 64.97 64.01 63.56 63.37 63.01 63.03 62.79 62.20 62.64 62.27 61.83 61.57 61.48
55.30 54.31 53.51 53.04 52.44 52.95 52.05 50.42 50.09 50.62 52.78 54.18 55.94 55.76 56.01 57.89 59.49 59.58 60.04 60.94 60.31 60.57 59.45 59.48 60.06 61.28 62.20 64.38 66.12 65.95 65.27 64.35 63.70 63.31 62.98 62.78 61.71 61.89 62.01 61.39 61.53 59.95 59.91
53.68 52.01 51.98 52.15 51.21 50.05 49.30 48.29 47.49 47.26 46.48 47.29 48.14 50.88 50.40 51.97 54.75 58.47 59.22 59.30 59.98 59.88 60.02 59.56 58.61 58.89 60.04 61.93 64.97 65.76 65.98 65.18 64.18 63.88 63.03 62.70 62.22 61.69 61.51 61.22 59.61 59.56 60.47
52.26 50.91 51.39 50.80 50.45 49.28 48.58 48.22 47.58 47.45 47.21 46.67 47.35 46.36 46.65 48.36 53.03 56.42 58.09 59.78 59.69 60.06 59.92 59.07 58.42 56.37 57.50 59.97 61.41 64.69 65.43 66.15 64.63 63.81 63.73 62.92 62.67 61.79 60.85 59.50 59.28 59.85 60.48
52.26 51.05 50.33 49.77 50.14 49.08 48.34 48.09 47.41 46.25 45.86 47.09 45.08 43.82 44.40 45.85 46.32 49.33 54.66 58.30 59.05 59.41 59.19 59.24 58.82 58.62 55.93 58.25 60.06 62.34 63.70 65.01 66.50 64.98 63.84 63.01 62.45 61.40 60.57 60.20 60.33 60.27 60.46
51.78 51.32 50.45 48.90 49.12 47.93 47.93 48.16 47.54 45.26 45.86 45.98 43.79 42.80 39.67 41.90 45.57 46.09 47.80 52.86 54.35 57.23 58.41 59.16 58.66 58.65 58.60 57.71 56.17 60.10 62.72 64.73 66.03 65.91 64.13 62.67 61.75 61.27 60.61 60.57 60.55 60.49 60.40
52.21 51.74 50.85 49.71 48.83 48.46 47.44 46.91 46.05 45.60 43.33 44.73 44.87 42.62 39.03 37.71 41.06 43.87 44.26 45.47 46.90 51.00 55.28 56.99 58.51 58.68 58.41 58.17 57.30 57.04 57.18 59.00 63.84 65.30 64.86 62.94 62.02 61.63 60.77 60.42 60.53 60.55 60.81
51.28 51.12 50.73 50.41 49.07 48.33 47.28 47.51 47.94 46.74 44.93 42.42 44.31 46.41 43.95 42.91 39.60 38.38 42.15 43.31 44.18 44.76 48.78 53.79 55.58 57.26 57.63 57.33 56.90 54.94 52.93 54.18 57.78 62.70 64.06 63.69 62.53 61.98 61.31 60.83 60.60 60.70 60.77
50.08 50.03 49.87 49.45 47.91 47.54 47.03 45.96 45.57 45.44 45.27 43.91 43.35 42.90 42.64 43.14 43.04 40.69 38.24 40.72 42.77 43.56 44.41 51.34 51.87 52.27 53.48 56.33 56.59 55.56 52.60 51.27 53.86 58.74 61.45 63.03 62.85 62.16 61.66 61.18 60.72 60.83 60.94
47.35 48.27 47.25 45.96 45.75 45.14 44.21 43.61 43.24 43.09 42.96 42.88 42.66 42.72 41.91 40.33 40.03 39.71 38.55 39.71 39.97 41.67 43.03 43.61 48.08 49.61 52.01 53.74 55.25 53.55 52.13 50.74 51.60 54.90 58.75 61.02 61.93 62.41 62.11 61.51 61.16 60.88 61.09
44.25 44.21 44.44 43.79 43.24 43.00 43.08 42.69 41.62 40.97 41.10 40.90 40.48 40.45 41.11 41.02 41.82 40.97 39.25 37.64 37.53 40.45 41.81 42.45 42.86 45.78 49.94 51.60 52.28 51.36 52.87 49.76 50.26 52.15 54.61 57.50 59.22 60.18 60.74 61.11 61.14 61.22 61.07
43.24 44.02 43.04 43.00 42.86 42.76 41.96 41.42 40.74 40.35 40.15 40.00 39.67 40.46 40.81 41.06 41.41 41.13 39.96 38.57 36.44 37.87 40.17 39.39 41.95 43.16 48.16 49.20 51.32 51.23 54.29 50.42 48.53 49.66 51.03 53.41 55.92 57.18 57.85 58.83 59.50 59.69 59.82
43.11 43.24 42.64 42.09 41.94 41.52 41.01 40.28 39.24 39.06 39.71 39.52 39.49 39.79 39.88 40.62 41.41 41.34 41.21 40.39 37.59 34.07 35.71 39.49 38.57 41.63 42.39 48.72 49.80 50.32 50.78 50.81 49.29 47.94 48.32 49.60 52.07 54.42 55.68 56.61 57.20 57.67 58.12
42.02 41.81 41.33 41.01 40.38 39.86 39.66 38.87 37.68 38.25 38.30 38.45 38.96 38.53 38.77 39.48 39.78 40.23 40.30 40.60 40.84 38.82 35.07 39.58 40.61 39.58 40.83 43.63 48.41 48.21 49.25 49.48 48.33 47.34 46.87 47.18 49.01 51.38 53.39 54.55 55.12 55.61 56.11
41.10 40.82 40.27 39.33 39.11 38.59 38.35 37.34 36.96 37.39 36.77 36.66 37.34 37.16 37.11 38.11 37.70 38.23 38.87 38.96 38.61 38.76 35.89 38.31 40.72 40.93 39.08 39.43 41.33 46.57 47.76 47.45 49.05 46.46 44.90 45.52 46.04 47.13 48.47 52.12 52.55 53.31 54.08
40.92 40.27 39.60 39.07 38.49 37.95 37.45 36.51 35.79 36.26 35.71 35.04 35.47 35.59 35.68 37.90 36.27 37.08 37.43 37.03 37.45 38.20 37.15 35.40 38.40 39.22 38.65 38.45 39.33 39.91 45.50 46.95 45.54 46.24 45.10 44.84 44.77 45.12 45.59 45.82 48.75 50.34 51.15
39.57 39.27 38.94 37.76 37.31 36.76 36.21 35.87 35.70 35.26 34.78 34.76 34.71 34.29 34.59 35.04 34.30 35.15 35.80 35.95 36.64 38.18 37.39 36.58 36.37 38.85 39.10 37.73 36.73 37.80 39.56 43.36 45.41 46.11 43.79 42.89 43.56 44.23 44.59 44.53 45.53 48.21 49.02
38.77 37.94 37.53 36.89 36.22 35.65 35.74 35.53 35.14 34.12 33.75 34.02 34.31 34.14 33.96 33.46 32.96 32.90 33.43 33.30 34.46 34.04 34.92 34.99 35.75 36.47 37.26 37.99 36.18 34.18 34.53 38.45 39.30 43.74 43.58 42.73 42.60 43.65 43.98 44.10 43.99 45.61 48.79
37.88 37.02 35.78 34.98 34.94 35.12 35.45 33.76 33.31 31.97 31.26 31.16 31.77 32.02 31.62 32.23 34.05 33.30 32.19 31.29 31.46 31.63 32.42 33.15 33.66 34.73 34.89 34.81 33.42 34.50 34.01 34.91 37.00 37.65 39.06 40.52 39.89 43.17 44.06 43.54 44.47 44.87 46.86
35.48 34.69 33.75 33.63 33.02 34.61 34.59 34.72 33.39 30.33 30.06 29.67 29.16 29.99 30.08 31.54 31.41 32.44 32.47 32.67 32.09 29.69 29.24 30.12 31.33 32.38 33.13 34.43 34.78 33.67 32.92 31.33 34.58 33.89 35.96 37.45 35.33 38.18 38.54 43.64 44.38 43.79 44.56
33.55 32.32 32.28 32.41 31.66 31.98 34.33 33.89 32.59 29.46 28.54 28.37 28.00 28.28 28.96 30.63 31.11 30.83 31.46 32.23 32.27 32.55 31.13 30.08 27.90 29.30 31.04 32.25 34.68 32.78 32.13 32.09 35.43 34.08 34.79 32.88 32.85 33.98 33.87 37.91 40.81 42.13 43.67
31.47 31.16 31.01 31.18 30.32 31.23 32.18 31.95 31.26 28.83 28.60 28.58 28.52 28.58 28.38 28.52 29.60 30.26 30.11 30.15 31.25 32.25 32.69 32.29 30.86 30.78 31.29 32.77 33.67 35.10 34.27 33.42 34.17 33.21 31.71 32.22 30.28 30.23 32.64 33.87 39.64 40.97 42.73
30.59 30.24 29.97 29.45 28.86 28.70 31.33 31.12 30.44 29.11 29.49 29.12 29.70 29.68 29.71 29.06 30.57 32.09 30.35 29.79 29.45 30.05 33.72 35.09 34.93 34.48 34.24 33.94 33.94 33.19 31.27 32.23 31.97 31.43 31.75 29.04 28.47 28.24 29.81 30.71 32.86 38.45 39.56
29.11 29.25 28.94 29.46 30.26 28.15 30.65 31.59 31.43 30.57 29.79 29.61 30.46 31.21 31.72 31.68 31.60 31.39 29.92 29.27 28.03 28.82 30.19 30.49 31.03 32.88 34.49 33.74 34.28 33.42 31.62 30.19 31.10 29.59 31.58 26.19 27.45 27.99 25.83 30.12 30.94 32.67 33.39

GFSMA_sfc_wetblb_009.txt.gz
Wetbulb
57.43 57.17 56.53 55.48 56.42 56.34 56.84 55.71 55.36 54.71 54.53 55.01 55.79 55.93 56.53 57.37 57.69 58.47 59.58 60.89 61.51 62.53 63.36 65.07 66.14 66.75 67.08 67.42 67.14 66.93 67.02 66.40 65.98 65.54 65.48 65.14 64.87 64.74 64.81 64.45 63.73 63.29 62.89
55.61 55.90 55.60 55.00 54.23 54.66 54.97 54.32 53.64 55.51 55.64 57.05 57.71 57.38 57.70 57.76 57.12 57.77 58.91 59.87 60.56 61.73 62.67 63.18 64.27 65.67 66.22 67.37 66.72 66.27 66.31 66.22 65.93 65.75 65.10 64.76 64.30 63.92 63.97 63.72 63.13 62.72 62.43
52.52 51.85 51.40 51.14 50.95 52.36 53.02 51.89 51.69 51.91 52.23 54.16 55.05 57.09 57.98 59.36 59.15 58.46 59.16 59.91 60.34 60.00 60.69 61.98 62.63 62.94 63.96 64.77 66.74 66.19 65.65 65.32 65.31 64.97 64.43 64.25 64.19 63.62 63.16 63.07 62.74 62.43 62.22
52.56 50.91 50.38 49.16 48.73 49.07 48.73 45.49 45.24 44.14 45.13 44.97 46.23 50.16 54.07 54.05 54.46 55.15 58.39 59.78 60.35 61.14 59.77 60.24 61.01 61.84 62.03 62.54 64.09 66.00 66.43 65.85 65.16 64.40 63.66 63.36 63.84 63.35 62.74 62.61 62.37 62.26 61.80
50.99 48.14 49.31 48.58 48.09 47.54 46.21 46.19 44.91 44.46 43.10 43.18 43.89 43.56 43.53 44.42 47.17 50.42 52.82 56.64 58.23 60.14 60.13 59.85 59.82 60.12 60.91 61.75 62.20 62.89 64.33 66.24 65.52 64.64 63.92 63.14 63.15 62.85 62.41 62.35 62.19 61.44 60.32
49.87 47.41 48.06 48.16 47.61 46.37 45.81 45.47 44.48 44.97 44.43 43.66 46.20 45.13 42.58 44.69 44.82 46.13 50.93 52.93 56.12 58.20 59.16 59.24 58.94 58.35 58.58 60.77 61.65 62.16 63.32 64.83 66.38 65.17 64.62 63.71 63.17 62.54 61.69 61.58 61.63 61.10 59.76
48.84 47.39 46.36 47.11 47.06 45.76 45.41 45.08 44.82 43.56 42.75 43.86 42.13 41.89 41.88 42.99 43.12 43.58 46.49 48.35 52.63 50.63 57.46 58.73 58.61 58.03 56.95 58.87 59.86 61.06 62.01 62.13 64.05 65.88 65.05 63.99 62.99 62.04 61.37 61.15 60.96 60.89 59.84
48.42 47.54 46.94 45.71 45.63 44.92 44.27 44.45 44.99 43.21 43.29 43.09 41.53 39.87 37.12 40.14 41.66 43.46 43.93 45.36 45.08 50.81 48.89 52.86 58.40 58.16 57.90 57.46 54.71 58.42 60.52 61.11 61.89 64.23 65.34 64.06 62.76 62.04 61.52 61.00 60.49 60.26 60.32
48.48 48.04 47.12 46.37 45.58 45.07 44.01 44.26 43.44 42.57 40.62 42.58 42.21 40.53 37.58 35.86 39.26 41.69 41.79 42.51 42.79 44.20 47.63 50.61 54.12 55.36 55.31 58.20 58.09 57.72 55.81 57.53 61.12 62.89 63.19 63.84 62.70 62.03 61.89 61.21 60.41 60.39 60.76
48.53 48.86 48.37 47.13 45.93 45.21 43.86 43.94 45.57 43.90 42.49 40.16 41.92 44.57 42.09 41.25 38.75 37.45 40.08 40.96 42.08 43.04 43.20 46.78 51.61 53.33 55.89 57.66 56.92 54.77 52.85 52.94 55.66 59.53 61.04 62.23 63.20 62.22 62.23 61.43 60.80 60.57 60.80
47.93 48.36 46.95 46.35 45.39 45.00 43.89 42.25 40.84 40.98 42.08 41.31 41.03 40.52 40.25 40.82 40.32 38.72 36.01 39.33 40.63 41.43 42.87 43.50 46.31 50.10 52.21 53.33 53.31 53.06 53.02 51.08 52.02 55.52 58.82 60.22 61.60 62.24 61.95 61.67 61.02 60.67 60.63
44.78 44.39 44.08 42.39 42.35 41.19 41.39 40.37 39.81 39.77 38.31 39.00 40.09 40.18 39.18 37.73 37.63 37.54 36.24 37.16 37.77 39.06 40.13 41.69 41.92 45.05 47.43 49.63 53.39 52.78 51.51 50.32 50.87 53.02 55.74 57.56 59.28 61.13 61.52 62.03 61.38 61.09 60.83
41.91 41.64 41.88 41.50 41.25 41.73 41.48 41.34 40.52 39.64 38.69 37.80 37.46 38.47 39.25 39.10 39.17 38.13 36.77 35.35 34.90 37.77 38.24 39.18 40.87 42.52 44.27 47.09 49.19 50.11 50.61 48.17 48.97 51.65 53.59 55.03 56.17 57.88 59.50 61.04 61.35 61.21 61.02
41.51 41.42 41.16 41.14 40.88 40.93 40.99 40.96 40.29 39.44 38.32 37.37 36.68 36.59 38.25 38.86 39.77 39.26 37.41 36.01 33.75 35.14 37.23 37.62 39.03 40.54 41.80 43.92 46.69 48.83 50.07 48.03 47.96 48.95 50.55 52.05 53.25 54.01 55.17 56.97 59.39 59.74 59.87
41.36 40.67 40.50 39.98 40.43 40.76 40.75 40.32 39.12 37.84 37.12 37.33 37.27 37.42 37.71 38.28 38.92 39.07 39.05 38.21 35.31 31.41 32.88 37.16 37.11 40.31 41.87 42.99 46.77 46.83 48.86 49.62 48.89 47.78 47.37 48.78 50.40 51.74 52.30 53.71 54.96 57.97 58.50
40.26 40.11 40.10 40.27 40.25 39.95 39.58 38.50 37.36 37.28 36.43 36.44 37.32 35.84 36.25 37.28 37.90 37.79 38.13 38.29 37.51 35.10 32.05 37.04 38.35 39.42 40.22 41.71 43.06 44.88 46.07 48.35 47.60 46.61 46.05 46.41 47.29 48.81 49.75 50.18 51.74 53.25 56.53
39.93 40.15 40.10 39.75 39.34 38.32 38.39 37.52 36.44 36.07 35.18 35.00 34.79 34.41 34.52 35.40 35.37 35.94 36.40 36.43 35.89 35.89 32.56 34.98 37.57 38.88 38.50 39.61 40.82 40.25 44.00 45.49 46.07 45.48 44.31 44.85 45.19 45.54 45.90 46.21 46.61 48.65 51.34
39.68 39.11 39.20 38.80 38.35 37.97 37.49 35.86 35.05 34.98 34.13 33.63 33.90 32.63 33.36 35.69 33.53 33.74 34.11 33.73 34.03 34.93 33.67 31.63 34.59 36.10 36.52 38.04 38.13 38.14 39.43 44.02 44.50 45.39 44.96 43.13 43.54 44.45 44.24 43.94 43.76 44.14 45.11
38.53 38.25 38.19 37.51 37.24 36.65 35.73 34.74 34.17 33.75 33.25 33.00 32.85 32.42 32.76 32.60 31.81 32.31 32.25 32.42 33.35 34.93 34.19 32.96 32.61 35.20 35.67 36.10 36.75 36.34 36.59 37.53 43.08 45.34 43.51 41.17 41.61 42.22 43.91 43.89 44.08 44.08 44.29
36.86 36.51 36.49 36.45 36.06 34.74 34.40 33.94 33.75 32.49 31.38 31.28 31.21 30.99 30.82 30.55 29.68 29.66 30.18 30.21 31.42 30.87 31.60 31.17 31.06 31.96 33.57 35.42 34.76 34.79 33.59 33.57 34.83 42.37 43.20 42.23 40.83 42.50 43.17 43.53 43.24 43.64 43.73
36.34 35.85 34.97 33.61 32.93 33.02 33.79 31.90 30.79 29.74 28.46 28.41 29.28 29.98 30.36 31.52 33.76 33.02 31.06 29.74 29.39 28.87 29.49 29.59 28.92 29.78 31.12 31.34 32.98 32.45 32.16 31.42 32.46 35.13 35.65 36.61 36.65 37.60 39.47 42.48 43.40 43.96 43.83
34.09 32.73 31.43 31.07 30.40 32.65 33.98 34.35 32.05 28.35 28.20 27.84 27.01 28.20 28.99 30.89 30.82 32.10 32.11 32.14 30.96 27.88 27.17 27.16 27.38 27.28 28.84 30.77 34.22 33.36 32.27 30.27 27.11 32.58 31.80 34.31 34.43 36.47 36.49 40.16 41.50 41.70 43.19
30.78 29.40 29.08 29.08 28.52 28.37 33.15 32.94 32.40 29.07 27.65 26.96 26.54 26.80 27.57 29.14 30.10 29.00 30.12 30.93 30.74 31.59 30.46 29.41 27.40 27.21 27.65 29.81 31.26 29.46 31.55 31.93 30.25 31.61 32.29 33.39 25.32 32.12 31.04 35.08 37.11 38.55 39.69
28.28 27.76 27.59 27.45 27.10 28.75 31.91 32.27 31.65 29.04 27.66 27.54 27.67 27.85 27.63 27.63 28.43 28.58 28.15 27.31 28.18 29.14 30.54 30.86 30.36 30.06 30.33 30.43 29.94 30.53 30.22 32.63 32.88 33.73 32.95 31.51 24.21 25.23 24.87 28.82 35.32 37.04 39.37
26.88 26.19 27.06 26.80 26.30 26.95 31.01 31.33 30.62 28.58 27.94 27.85 29.26 29.52 30.21 29.58 30.84 31.99 29.90 28.80 28.02 28.43 31.69 33.18 33.67 33.95 34.00 33.66 32.76 29.92 28.09 27.74 27.63 31.19 32.12 31.01 27.98 27.57 23.64 23.38 28.17 34.83 36.38
26.05 26.62 26.98 27.24 28.80 26.55 29.25 30.63 30.36 29.03 27.02 27.24 27.84 28.45 30.00 29.30 30.86 31.71 30.41 29.37 27.67 28.16 28.91 29.37 29.76 31.48 33.32 33.51 33.82 32.44 31.07 27.63 27.18 26.55 27.78 31.08 27.38 28.00 25.60 21.02 24.16 31.84 33.03

GFSMA_sfc_wetblb_012.txt.gz
Wetbulb
56.59 56.83 56.16 54.02 54.90 55.17 54.82 54.23 56.83 56.81 55.38 54.00 54.98 54.92 54.87 55.66 56.29 56.91 57.76 59.27 60.37 61.87 63.17 64.53 64.89 65.78 66.28 66.65 66.78 66.88 66.93 67.22 66.83 66.64 66.22 65.80 65.54 65.41 65.36 65.01 64.70 63.97 63.64
55.66 55.84 54.86 54.64 53.75 53.86 53.27 52.41 51.74 51.31 51.77 53.00 54.62 56.19 56.33 56.39 57.73 57.78 57.28 58.00 59.17 60.32 61.41 62.34 63.98 64.87 65.21 65.92 66.15 66.18 66.48 66.50 66.49 66.29 66.08 65.47 65.16 64.87 64.79 64.61 64.21 63.77 63.44
51.83 52.99 51.95 51.74 51.86 52.47 52.36 50.33 48.96 47.56 47.18 48.44 47.25 49.60 53.41 54.37 53.57 54.67 57.01 58.20 59.08 59.62 60.40 61.55 62.26 63.52 63.88 64.29 65.31 65.93 66.05 65.70 66.05 66.15 65.75 65.23 64.87 64.56 64.34 64.12 63.97 63.77 63.44
51.84 49.99 49.35 48.45 47.79 49.10 48.36 43.86 43.75 42.65 42.81 42.87 42.28 43.39 47.31 46.77 46.52 47.51 49.70 53.24 57.75 59.80 60.24 60.79 61.90 62.25 62.76 63.31 63.67 64.46 65.36 65.99 65.48 65.27 65.08 65.23 64.65 64.39 63.88 63.77 63.63 63.39 63.07
50.80 48.33 49.04 47.95 46.78 46.89 44.95 44.56 43.40 42.99 41.78 42.38 43.10 43.00 42.19 41.92 43.71 46.29 45.97 48.52 53.51 55.73 57.46 59.60 60.14 60.59 61.48 62.19 63.09 63.73 64.22 65.30 65.78 65.87 65.12 64.89 64.57 64.12 63.60 63.35 63.19 63.24 62.85
49.87 46.58 47.71 47.23 46.34 45.53 44.66 43.87 42.94 43.36 42.99 42.05 44.72 43.45 41.81 42.45 42.14 42.44 43.31 47.62 49.54 52.67 50.37 57.13 58.34 59.09 59.07 61.11 61.88 62.96 63.80 63.82 65.01 63.97 65.21 64.98 64.08 63.60 63.18 62.87 62.81 62.76 62.54
49.10 46.56 46.05 46.91 46.53 44.56 44.42 43.97 43.30 42.90 41.53 42.12 40.69 40.41 40.45 41.13 41.66 42.79 42.90 43.36 45.67 46.46 50.05 47.69 52.64 57.77 58.62 58.96 60.55 62.15 62.87 63.46 63.44 64.03 64.91 64.06 63.73 62.74 62.67 62.56 62.35 62.20 62.09
47.67 46.74 45.59 45.52 45.17 44.50 43.92 43.96 44.08 42.08 42.03 41.97 40.29 38.11 36.04 38.92 40.07 41.95 43.02 42.87 42.76 44.11 45.85 46.99 48.52 52.33 55.66 56.68 57.24 59.05 61.14 62.18 62.57 62.78 63.20 63.01 63.06 62.78 62.43 62.50 61.95 62.00 62.00
48.08 47.05 46.09 45.28 44.02 43.96 42.92 42.65 42.67 41.42 39.62 41.28 40.97 39.43 35.71 33.60 38.98 40.92 40.91 42.39 42.23 41.97 42.81 44.45 46.61 49.05 53.27 54.63 56.21 56.31 53.01 52.53 58.36 60.54 61.62 61.44 62.00 62.99 62.54 62.41 61.89 61.72 61.63
47.36 47.32 46.38 45.64 44.50 44.23 43.07 42.87 43.27 41.36 40.57 38.79 40.50 42.92 40.73 39.05 35.45 34.83 39.52 41.33 42.78 42.33 41.82 42.36 43.17 45.76 49.71 53.96 55.66 53.02 50.44 49.90 51.66 56.62 59.05 60.29 60.83 61.61 62.21 62.44 61.79 61.48 61.41
46.23 46.87 46.22 45.73 44.64 43.87 41.72 40.22 39.10 37.48 39.87 38.07 38.06 37.50 37.64 37.44 37.71 35.04 32.52 35.50 39.55 41.13 41.60 42.06 42.04 42.48 44.44 46.06 49.30 52.04 51.14 50.10 50.25 54.65 56.58 58.24 59.74 59.89 60.13 61.74 62.12 61.72 60.94
42.69 43.56 43.82 42.70 42.11 41.56 40.81 39.68 39.14 38.13 37.89 39.05 38.27 36.99 36.83 34.33 34.39 33.67 33.03 33.52 34.13 37.54 39.99 40.70 40.06 39.67 40.15 41.97 46.21 48.68 50.82 49.89 49.94 51.11 54.98 56.42 57.65 58.65 59.25 59.65 62.09 61.86 61.44
41.12 39.84 40.24 39.97 39.99 40.09 40.52 40.77 40.95 40.36 40.08 38.95 37.74 37.04 37.60 37.25 37.51 36.82 35.00 33.96 33.77 36.67 38.22 39.88 39.73 40.26 41.44 40.89 42.77 46.68 48.63 48.58 48.23 49.27 50.87 53.01 55.32 56.76 57.42 58.14 58.55 60.40 61.76
40.43 40.49 40.10 40.30 40.94 41.48 41.35 41.74 40.69 40.11 39.60 38.08 37.05 36.69 36.84 37.12 37.63 37.04 35.31 33.90 32.19 33.26 35.35 36.53 39.50 39.94 40.48 40.58 41.59 45.67 45.67 47.45 47.70 48.35 49.55 51.00 52.19 53.19 53.98 54.94 54.86 56.59 60.23
40.69 40.06 40.64 41.24 42.07 42.07 41.53 40.59 38.99 38.44 38.70 37.97 36.91 36.52 36.11 36.99 37.25 37.45 36.92 35.93 33.41 29.73 31.22 35.58 36.50 39.96 40.35 41.03 41.86 42.05 44.15 47.34 47.72 47.54 47.18 47.89 49.56 50.68 51.01 51.66 52.34 52.00 54.17
40.68 41.04 41.87 42.42 42.11 41.01 39.95 39.16 38.18 37.59 36.43 36.08 36.22 34.83 35.28 36.04 36.33 36.49 36.53 36.10 35.23 32.94 29.51 34.25 35.46 37.71 39.58 40.67 42.30 42.08 40.97 44.69 45.35 45.82 45.40 45.51 46.50 47.96 47.91 49.10 49.44 49.99 49.87
41.08 41.20 40.97 40.45 39.91 39.26 39.24 37.79 36.36 36.05 35.00 34.44 34.31 34.10 33.91 34.36 34.00 34.32 34.67 34.84 33.98 33.58 30.68 32.90 35.77 37.34 37.20 37.66 39.37 40.88 42.03 40.90 41.71 43.69 42.38 43.29 43.34 44.17 43.56 44.30 45.65 45.92 47.80
39.01 39.82 39.35 38.79 38.67 38.20 36.96 35.74 34.37 34.54 32.79 31.97 32.24 32.44 32.57 34.29 32.20 32.16 31.98 32.00 32.43 32.73 31.29 29.18 32.18 33.86 34.69 36.61 37.61 38.26 39.86 41.32 40.87 42.71 43.04 43.52 43.55 43.11 41.78 43.42 41.83 42.34 43.55
38.35 37.60 37.73 36.54 36.55 36.23 35.22 34.33 33.50 32.66 32.05 32.18 31.89 31.30 31.46 31.37 30.04 29.87 29.82 29.93 30.67 32.69 31.86 30.54 30.06 32.44 33.79 34.78 35.29 36.26 37.23 38.04 39.18 41.95 41.90 41.99 41.96 42.92 42.19 41.83 41.42 42.96 43.06
35.93 35.32 35.61 35.44 35.49 34.58 33.39 32.89 32.49 30.74 29.56 29.63 29.44 29.24 29.61 29.42 29.08 28.85 29.03 28.87 29.46 28.76 29.12 28.62 28.68 29.63 31.59 33.11 33.41 32.40 32.63 34.76 34.58 37.56 41.17 41.74 41.63 41.06 41.11 41.85 42.28 42.60 43.00
36.33 34.94 33.87 32.19 31.47 31.48 32.14 30.60 30.06 28.66 27.74 27.60 28.35 28.52 28.79 30.14 32.38 32.22 30.53 29.28 28.90 27.83 27.21 26.59 26.03 27.13 28.18 28.90 29.21 30.83 31.05 30.99 32.55 33.10 34.55 37.00 37.33 37.25 38.31 40.70 41.66 42.29 42.03
34.36 32.42 30.71 29.96 29.25 31.05 32.69 33.37 31.75 27.92 27.96 27.36 26.55 27.25 27.61 29.50 29.16 30.85 31.84 31.96 30.85 27.82 26.64 26.43 26.19 25.54 26.22 28.04 29.74 29.59 31.22 30.60 28.99 29.47 31.63 31.50 33.58 33.61 35.75 35.63 39.75 40.21 40.67
29.88 28.64 28.06 27.80 27.31 27.74 31.75 32.56 32.46 28.67 27.60 27.24 27.04 26.97 27.06 28.29 29.48 28.52 29.69 30.87 30.49 31.21 29.91 28.11 26.63 26.90 27.05 28.43 28.55 27.66 28.29 28.32 28.41 32.08 33.10 31.83 31.08 32.81 32.03 35.31 38.04 38.01 38.32
27.51 26.80 26.76 27.22 26.42 27.48 31.09 31.68 31.63 28.32 27.31 27.35 27.66 27.63 27.81 27.99 28.94 28.73 28.51 28.16 28.30 28.27 28.58 28.93 28.98 29.52 30.09 30.56 30.01 29.42 28.82 28.58 28.73 31.16 34.05 30.03 30.67 28.56 22.22 26.98 35.22 37.10 37.67
25.89 25.30 26.36 25.71 25.95 26.14 29.92 30.49 29.73 26.17 26.47 27.40 28.26 28.15 28.20 28.41 29.93 31.43 29.09 28.66 28.65 28.39 30.87 32.26 32.35 32.20 32.53 32.99 32.35 30.16 28.08 26.99 25.25 26.53 30.47 31.55 31.51 24.57 23.82 22.34 26.82 34.07 35.05
24.97 25.91 26.21 25.83 26.67 24.90 28.39 29.17 28.32 27.03 25.40 25.43 26.33 27.28 28.95 28.63 29.72 30.31 28.84 27.96 27.03 27.96 28.54 28.41 29.19 31.06 32.22 31.80 32.78 32.60 30.25 26.85 26.38 23.32 26.54 29.56 27.68 26.64 28.69 17.23 20.45 22.38 24.78

GFSMA_sfc_wetblb_015.txt.gz
Wetbulb
55.53 55.59 55.27 53.93 53.81 54.07 53.63 53.18 53.39 53.63 52.72 53.06 53.85 54.36 54.84 54.83 55.39 55.77 56.23 58.94 59.24 59.52 62.00 63.54 63.70 64.11 64.80 65.93 65.70 65.91 66.40 66.77 66.69 66.48 66.39 65.98 65.92 65.54 65.43 65.39 65.07 64.63 64.14
55.35 55.03 54.15 53.30 53.11 53.35 52.32 51.03 49.98 49.30 49.01 50.02 50.27 51.04 53.04 54.31 54.04 54.15 53.85 54.61 57.78 58.71 59.47 60.59 62.69 63.92 64.06 64.77 65.33 65.69 65.64 66.15 66.28 66.35 65.79 65.47 65.43 65.25 64.90 64.83 64.74 64.30 64.10
53.10 54.44 53.58 52.64 52.40 51.81 51.01 49.13 47.22 44.21 43.83 44.60 43.68 44.81 48.46 50.52 47.23 47.42 48.23 50.52 53.78 57.36 59.10 60.42 59.27 60.73 63.14 63.99 64.31 64.59 65.10 65.32 65.58 65.78 65.72 65.35 65.21 64.92 64.81 64.67 64.54 64.34 64.14
51.51 50.43 49.82 50.30 49.52 50.38 48.86 43.41 42.73 41.53 41.35 41.46 41.31 42.23 42.40 43.06 43.40 44.56 44.89 46.28 49.31 54.36 57.16 57.27 58.42 59.50 60.87 62.22 63.21 63.55 64.35 64.77 65.11 65.41 65.46 65.24 65.13 64.72 64.46 64.43 64.34 64.18 63.92
51.43 49.50 48.85 48.23 46.70 46.67 45.64 43.21 42.47 42.09 40.90 41.17 41.58 41.99 41.22 41.05 41.75 44.21 43.15 44.91 46.24 49.15 51.12 52.94 55.02 56.71 57.74 59.98 62.28 63.24 63.34 63.61 64.47 65.26 65.25 65.09 64.98 64.34 64.02 63.88 63.96 63.96 63.86
50.20 47.32 47.66 47.78 45.71 44.86 44.17 42.72 42.14 42.07 41.71 41.20 43.25 42.50 40.83 41.14 40.70 40.78 40.80 44.67 44.57 46.01 44.89 50.29 46.78 51.14 55.29 58.23 58.94 60.87 63.09 63.15 63.62 64.18 64.73 64.80 65.07 64.48 63.71 63.53 63.64 63.63 63.63
49.11 46.78 46.07 46.78 45.38 44.41 43.89 43.18 42.11 41.43 41.33 40.73 39.51 39.41 39.66 40.58 40.39 40.70 41.34 41.96 42.97 44.33 44.88 45.24 45.59 47.53 50.44 55.70 56.42 56.21 56.32 61.51 61.29 63.81 63.48 63.93 63.96 63.93 63.71 63.33 63.09 63.33 63.33
49.07 47.54 45.64 46.06 46.10 44.19 43.24 42.94 42.31 41.16 41.00 40.95 38.83 37.16 35.14 37.75 38.05 40.71 40.88 41.46 41.51 42.51 43.43 44.39 44.64 45.87 47.88 49.92 52.08 56.24 54.04 54.10 54.52 55.92 57.29 60.59 62.05 62.72 62.96 63.45 63.22 63.00 63.07
49.59 47.88 46.30 45.58 45.21 45.39 44.03 42.84 42.37 41.44 39.96 40.20 40.50 38.82 33.93 32.64 35.65 38.31 39.19 39.94 40.08 40.13 41.08 41.86 42.85 43.96 45.19 47.82 51.85 53.36 52.27 50.84 50.83 52.08 53.84 55.63 59.01 60.97 61.63 63.25 63.14 62.87 62.79
48.03 48.88 47.90 45.71 44.84 44.47 42.51 41.88 42.82 40.68 39.89 38.15 38.96 42.15 39.32 38.09 31.81 29.87 35.66 36.51 36.89 38.65 38.95 39.70 40.61 42.39 43.37 44.77 46.59 48.34 49.75 50.07 50.57 49.24 51.10 52.96 53.80 59.40 60.51 61.25 62.23 62.85 62.44
45.90 46.88 47.45 46.95 45.73 45.18 43.52 41.56 39.23 37.55 37.84 36.77 36.98 35.55 35.20 35.59 35.70 33.21 29.30 32.12 35.22 35.83 37.32 38.58 39.91 40.26 41.17 41.44 40.66 43.92 47.57 48.72 49.93 50.97 49.54 50.45 53.07 53.35 58.18 59.96 60.55 60.43 62.26
42.70 43.76 44.50 43.69 42.14 40.62 38.60 38.48 39.54 38.89 39.16 39.00 39.24 38.13 37.39 34.84 32.23 31.53 30.13 31.61 32.37 34.72 36.54 37.68 37.63 38.18 39.33 40.07 43.66 45.98 45.94 45.64 46.92 50.59 50.84 49.90 52.09 54.84 54.65 58.72 59.69 60.37 60.60
38.41 38.67 39.87 40.34 39.37 40.47 40.47 41.95 40.89 40.53 40.49 39.24 38.84 38.44 38.61 37.57 37.31 35.22 32.94 32.54 31.69 33.91 34.40 36.90 37.73 38.56 39.59 39.64 41.01 44.39 45.14 45.01 45.76 48.38 50.64 51.53 53.01 54.21 55.51 56.29 57.91 57.88 58.67
37.50 38.48 39.64 41.26 41.61 41.86 41.55 41.30 40.81 40.40 41.06 40.42 39.00 38.45 37.12 36.43 36.52 36.15 33.52 31.57 30.35 31.61 33.22 32.73 36.04 37.26 38.20 38.43 40.78 44.21 42.90 44.46 45.59 45.86 48.30 50.93 51.55 51.98 52.58 53.56 54.70 53.94 53.80
39.26 39.09 40.55 41.47 41.88 41.84 42.58 41.90 40.16 39.19 39.08 38.66 37.51 36.25 34.89 34.70 35.28 35.96 35.99 35.06 32.00 27.88 28.33 32.23 32.81 36.62 37.71 38.80 40.60 40.39 40.68 42.70 43.93 44.04 44.24 46.12 48.83 50.72 50.72 51.06 51.42 52.08 52.20
39.29 40.34 41.18 41.83 42.12 41.84 41.02 40.48 38.53 37.83 37.21 36.32 36.08 34.51 34.21 34.93 35.17 35.55 35.33 35.25 34.53 31.58 28.15 31.85 33.40 33.72 35.68 38.34 39.82 40.26 40.62 43.26 42.83 42.51 43.07 44.19 44.93 46.47 47.63 48.31 49.69 49.86 49.83
39.69 40.52 40.04 40.62 40.60 39.58 38.96 37.85 37.20 36.36 35.18 34.52 34.18 33.82 33.28 33.86 33.33 33.11 33.52 33.60 32.67 32.17 29.05 31.10 32.99 34.31 33.19 33.67 35.97 37.46 38.79 39.47 40.70 41.58 41.99 42.13 42.96 43.22 44.05 44.54 44.18 45.68 46.02
40.01 39.44 38.62 38.55 38.72 38.35 37.53 35.54 34.10 33.91 32.60 31.91 31.74 31.42 31.50 33.41 31.79 31.77 31.42 30.97 31.00 31.61 29.99 27.91 30.67 31.24 31.80 33.18 34.97 35.40 37.07 39.03 38.73 40.23 40.99 41.34 42.45 42.41 42.09 41.59 41.32 41.90 42.53
37.83 37.45 36.57 36.04 35.86 35.49 34.55 33.55 32.69 32.14 31.53 31.13 30.66 30.36 30.44 30.39 29.10 29.33 29.65 28.82 29.30 31.01 30.53 29.12 28.55 30.63 31.25 32.14 32.26 33.83 34.37 35.32 36.91 39.56 39.28 39.56 40.92 42.29 42.09 41.58 41.97 40.52 40.80
36.25 35.38 35.81 35.46 34.65 32.46 31.91 31.58 30.89 29.65 28.65 29.03 29.05 28.73 28.21 27.85 27.36 27.53 27.91 27.85 28.61 27.80 28.02 27.32 27.00 27.37 29.08 31.31 30.92 29.57 29.80 32.55 33.35 36.26 37.95 38.02 39.18 41.20 41.75 41.67 40.51 39.93 42.57
38.14 34.93 32.92 30.96 30.43 30.29 30.75 29.67 29.53 28.68 28.10 27.54 27.90 27.92 27.98 28.93 31.24 30.39 28.84 27.88 27.99 27.32 27.05 26.75 26.33 26.76 26.57 26.47 26.22 27.92 28.21 29.89 31.44 32.61 33.89 35.33 35.78 37.44 40.47 41.47 41.67 42.47 42.02
34.49 31.91 30.41 29.84 28.60 30.06 32.07 32.74 31.52 27.95 27.96 27.37 26.17 27.09 27.51 29.45 29.02 30.47 30.62 31.16 30.43 27.53 27.08 26.77 26.60 25.44 26.21 27.17 27.63 27.16 26.58 26.12 25.35 29.22 32.53 33.41 34.35 33.94 35.33 37.16 40.14 40.24 40.88
29.36 28.53 27.99 27.67 27.25 27.39 30.74 31.70 32.03 28.51 27.12 26.78 26.44 26.59 27.08 28.29 29.22 28.22 29.08 29.78 29.95 30.52 29.69 28.91 26.93 26.35 25.73 26.70 27.30 26.43 27.19 26.54 26.40 29.27 28.91 28.80 29.28 31.93 34.77 35.24 37.83 39.28 39.64
27.15 26.45 26.56 26.74 26.35 27.21 30.06 30.32 30.23 27.81 26.07 26.47 26.86 27.11 27.25 27.11 28.21 28.61 28.13 27.81 27.84 28.16 28.83 28.36 28.16 28.26 28.53 28.80 29.17 29.08 27.65 27.46 28.05 27.53 29.18 26.84 29.02 31.13 26.11 28.94 34.66 37.53 38.44
25.66 25.30 26.35 26.24 25.43 25.08 28.48 28.76 28.18 23.92 24.28 24.82 26.93 27.13 26.91 26.94 28.91 30.45 27.98 26.81 26.86 27.29 30.65 32.02 32.20 31.17 31.50 32.09 31.47 29.64 27.73 26.56 24.37 24.99 23.70 26.63 26.25 28.02 28.37 27.47 29.35 34.67 36.98
25.38 26.20 25.81 25.08 25.49 23.38 26.56 28.48 28.01 24.79 24.39 25.19 25.74 27.32 28.56 27.92 29.36 29.97 28.23 27.55 26.39 26.94 27.68 28.19 28.89 30.67 32.02 31.21 31.97 31.11 29.72 26.40 25.60 23.65 23.23 24.90 23.60 24.23 23.77 20.79 20.16 21.91 23.83

GFSMA_sfc_wetblb_018.txt.gz
Wetbulb
55.87 55.73 55.45 54.50 54.14 53.70 53.25 52.96 52.71 52.59 51.91 51.87 52.45 52.78 53.34 54.21 53.94 53.84 52.77 54.57 55.43 56.38 58.53 60.37 62.24 63.42 64.00 64.40 65.00 65.20 65.21 65.63 66.27 66.61 66.41 65.83 65.73 65.72 65.45 65.63 65.21 64.88 64.72
55.41 54.57 54.24 53.43 52.77 53.32 52.54 51.09 49.40 48.25 47.54 48.33 46.81 47.26 48.08 52.46 48.55 47.83 48.19 48.32 53.49 56.30 58.19 58.07 59.13 60.23 61.21 63.63 63.99 64.74 64.68 65.07 65.17 65.99 66.00 65.57 65.35 65.09 64.94 65.01 64.92 64.78 64.70
54.48 54.30 53.66 52.54 52.85 52.36 50.79 49.41 47.92 44.11 43.19 44.05 43.51 44.43 46.65 47.33 45.69 45.92 46.30 47.57 49.44 54.42 55.25 56.13 55.14 56.05 57.87 60.02 61.92 63.49 64.09 64.73 65.11 65.17 65.38 65.44 65.29 64.80 64.61 64.50 64.74 64.70 64.87
52.49 52.38 52.31 51.77 52.03 50.97 50.03 45.29 42.97 41.40 41.32 41.51 41.72 42.12 42.63 43.19 43.87 44.64 44.70 46.04 46.89 50.08 50.59 52.78 53.69 53.80 54.96 56.32 59.34 62.36 63.36 63.88 64.45 64.68 64.74 65.01 65.07 64.94 64.49 64.21 64.32 64.46 64.67
52.06 49.78 49.63 49.80 49.58 47.84 48.47 44.26 42.11 41.67 40.60 40.64 41.06 41.41 41.11 41.46 42.17 44.15 43.72 44.82 45.57 46.51 47.04 50.50 50.71 51.28 53.02 54.69 57.36 59.09 60.65 62.45 63.00 63.08 63.90 64.19 64.52 64.85 64.46 64.16 63.98 64.08 64.17
50.25 49.34 48.50 48.16 47.28 45.27 44.97 42.65 41.95 41.62 41.51 41.36 42.55 42.57 40.90 41.31 41.25 41.07 41.66 44.58 43.94 45.48 45.01 46.49 46.01 47.39 50.14 51.60 52.80 55.66 57.64 58.13 60.57 61.20 61.33 60.57 63.13 63.93 62.77 63.94 63.97 64.12 63.95
49.59 48.92 47.45 47.10 46.77 44.97 45.08 43.61 41.69 41.14 40.85 41.10 39.91 39.45 39.81 40.56 40.38 40.64 41.48 42.03 43.51 44.35 45.03 45.05 45.25 45.78 45.99 49.27 51.33 54.13 56.01 57.32 55.16 55.52 57.22 57.28 58.35 59.91 61.93 63.02 63.84 63.66 63.64
49.06 49.03 47.52 46.35 46.28 45.86 43.29 42.80 41.65 40.43 40.80 40.60 39.09 37.39 35.84 37.87 38.86 40.06 40.49 41.82 41.67 43.14 43.36 43.65 43.97 43.93 44.22 45.43 47.51 49.55 50.09 50.92 53.35 52.93 52.74 53.98 55.59 56.34 58.12 61.78 63.33 63.29 63.44
47.50 48.03 48.33 47.39 45.83 46.06 45.48 44.04 42.84 41.29 40.94 39.97 40.33 39.06 34.33 33.60 35.11 37.75 39.43 39.29 40.48 39.26 40.58 41.55 41.74 42.89 43.73 44.46 45.52 45.99 46.68 47.69 50.88 53.24 52.80 51.62 53.02 53.65 55.15 57.69 61.43 63.34 63.55
45.48 47.14 48.13 47.35 45.98 45.70 45.33 43.81 42.81 41.58 39.98 38.56 39.35 41.45 39.07 38.08 31.56 30.35 35.06 38.10 36.79 37.93 38.09 38.80 40.22 40.97 42.41 42.56 43.38 43.87 45.22 47.27 47.28 48.35 50.59 52.41 51.27 52.56 54.61 55.42 57.65 61.15 63.25
43.60 44.73 45.89 46.87 45.49 43.87 44.43 43.54 41.45 41.25 39.93 39.32 36.56 35.48 35.50 36.16 36.21 32.51 30.35 32.50 35.90 36.81 37.25 38.22 38.99 39.87 40.88 41.48 41.13 41.99 45.32 45.45 46.14 47.43 48.83 50.70 51.63 51.25 53.01 54.07 55.21 60.17 61.11
42.05 41.63 42.68 42.59 41.45 39.57 38.31 39.26 40.01 39.76 38.88 39.63 38.93 38.55 37.59 35.18 33.93 33.17 31.20 32.11 32.00 35.35 37.14 37.98 37.85 38.69 39.52 39.77 41.99 45.08 45.05 44.68 45.42 46.94 48.20 51.18 52.64 51.01 51.67 53.56 54.59 57.28 60.50
37.45 36.94 38.23 38.85 39.70 40.15 40.33 39.97 40.42 40.31 40.87 40.40 40.17 39.62 39.83 38.51 38.10 35.96 34.57 32.27 31.03 33.45 34.71 36.83 38.04 38.45 39.22 39.87 40.13 43.31 44.40 44.14 44.32 44.47 45.36 45.92 49.26 52.23 51.31 52.14 52.98 53.90 56.30
36.57 38.35 39.47 39.88 39.81 40.02 39.89 40.86 41.67 41.43 41.75 41.11 39.63 38.10 36.54 37.69 38.67 37.56 35.61 32.35 30.01 30.74 32.01 32.40 35.76 36.95 38.16 38.98 39.66 43.29 42.01 42.47 42.78 43.31 44.39 45.37 46.40 48.26 49.89 52.50 51.89 51.73 54.16
38.95 38.80 39.27 39.22 39.52 41.20 41.99 41.51 40.48 39.47 39.45 38.77 38.19 38.27 38.03 38.14 37.48 37.12 36.81 34.79 32.25 27.47 28.08 31.46 31.78 36.41 37.22 38.12 39.32 40.32 39.67 40.99 42.39 42.75 43.08 43.27 44.64 46.18 47.78 50.41 50.92 52.06 52.47
38.77 38.67 38.90 38.99 39.28 40.02 41.10 40.25 39.55 39.44 38.13 38.06 37.88 36.29 35.34 35.71 35.57 35.71 35.32 35.01 34.07 31.77 27.90 31.57 32.42 33.82 35.68 37.25 38.75 39.46 38.70 41.32 40.32 40.61 41.29 42.28 43.39 44.10 43.89 46.74 48.21 50.37 50.48
38.68 39.00 39.57 39.15 39.13 38.90 38.82 38.19 37.85 37.37 36.10 35.22 34.79 33.70 33.06 33.59 32.61 32.93 33.76 33.64 32.53 31.83 28.78 30.90 32.29 33.79 33.44 33.87 35.26 36.52 37.22 37.23 39.03 40.79 40.84 41.47 41.66 42.35 42.60 43.04 43.67 45.55 47.37
38.92 37.76 39.04 38.32 37.69 36.84 36.25 34.85 33.72 33.56 32.55 31.64 31.49 30.87 30.90 32.71 31.11 31.70 31.49 30.52 30.55 31.39 29.85 27.57 30.41 30.64 31.00 33.26 33.76 34.12 36.24 37.82 37.01 38.28 39.04 39.24 39.79 40.14 40.74 41.52 41.29 41.96 43.27
37.39 38.06 37.30 36.41 36.06 35.78 34.16 32.87 32.27 31.31 30.77 30.42 29.93 29.41 29.68 29.63 28.28 28.63 28.96 28.62 29.09 30.17 29.75 28.32 27.69 30.28 31.02 31.97 32.35 33.18 33.74 34.57 35.95 38.15 38.12 38.39 39.13 39.88 40.53 41.39 41.26 41.12 41.55
38.10 38.08 37.34 35.23 33.35 31.50 31.23 30.94 30.34 29.41 28.77 28.78 29.16 28.62 27.95 27.58 26.86 26.86 26.94 26.72 27.29 26.87 27.33 26.99 26.83 27.11 28.29 30.03 30.29 29.19 29.29 31.86 32.20 34.80 36.17 36.61 37.55 38.78 40.04 40.43 40.98 41.24 41.12
37.02 34.42 32.23 31.02 30.17 30.05 30.35 29.42 29.19 28.39 27.39 27.19 28.28 28.19 27.81 28.62 30.84 30.13 28.57 27.67 27.20 26.73 26.93 26.92 26.89 27.31 27.34 27.77 26.93 28.27 27.79 29.24 30.62 32.14 32.57 34.13 35.42 36.38 37.37 39.65 41.35 41.50 40.74
36.76 31.55 29.48 28.48 27.65 29.50 31.62 32.04 31.64 28.45 28.54 28.43 27.05 26.98 27.13 28.99 28.59 29.77 30.27 30.41 30.11 27.72 26.88 26.72 26.13 25.40 25.88 27.04 28.46 27.62 26.86 25.83 24.29 31.00 30.32 30.57 34.18 34.33 35.45 36.94 38.68 40.23 40.93
28.34 27.37 27.27 27.58 27.34 27.50 30.23 30.76 30.67 28.05 27.75 27.37 26.34 26.24 26.79 27.69 28.83 28.04 28.80 29.41 29.41 29.87 28.89 28.26 26.57 26.83 26.88 28.08 27.81 26.83 26.64 26.24 25.88 28.83 30.30 28.65 32.27 31.77 33.86 35.42 36.42 37.72 39.21
26.03 25.75 26.26 26.50 26.48 26.60 29.18 29.23 29.26 26.80 25.75 25.88 26.18 26.28 26.00 26.64 27.44 27.34 27.31 27.70 28.08 28.35 28.62 28.41 28.02 28.06 28.44 29.60 29.44 28.83 28.26 27.75 28.52 29.12 29.83 25.84 29.76 28.95 31.09 32.79 34.93 36.17 37.48
25.40 25.31 26.57 26.14 25.25 24.73 27.75 28.48 28.22 24.36 23.92 24.24 26.18 26.78 27.11 27.46 28.43 29.61 27.68 26.38 26.87 27.51 30.20 31.44 32.19 31.99 31.62 31.63 31.30 29.38 27.44 26.68 24.89 26.08 27.52 27.20 27.81 27.62 29.25 30.97 33.04 34.62 36.01
25.47 26.49 25.64 24.86 24.87 23.12 25.95 28.04 27.68 24.30 22.51 25.35 26.23 27.01 28.01 27.81 29.25 29.85 28.64 27.71 26.54 27.66 28.65 29.01 29.49 30.18 31.62 31.85 31.97 30.89 29.70 26.17 26.11 24.93 25.83 25.94 26.25 26.85 26.08 27.75 30.75 31.84 31.86

GFSMA_sfc_wetblb_021.txt.gz
Wetbulb
64.23 63.97 63.31 62.81 62.60 62.39 61.06 60.83 60.73 59.68 58.44 57.58 58.07 57.48 57.66 59.71 56.69 55.58 55.28 52.98 55.17 56.67 58.30 59.65 60.44 61.11 61.74 62.97 64.01 63.97 64.51 65.13 65.49 65.81 66.45 66.08 65.55 65.66 65.38 65.21 65.56 65.50 65.12
62.97 62.32 62.09 61.58 61.31 60.97 60.79 60.62 58.71 56.25 55.17 55.03 52.97 52.98 53.91 57.26 53.57 53.93 54.39 53.89 56.16 55.52 55.93 56.57 56.84 57.66 58.40 59.19 60.93 62.56 63.78 64.38 64.82 65.04 65.75 65.75 65.27 65.10 64.81 64.83 65.03 65.21 65.17
61.74 61.70 61.42 61.31 61.16 60.71 60.50 58.80 56.54 54.87 52.35 52.02 51.52 52.05 52.96 53.51 52.43 52.50 53.52 54.12 54.14 53.33 53.31 55.51 53.90 54.67 55.78 57.05 58.63 60.56 61.89 63.89 64.01 64.57 65.31 65.10 65.05 64.85 64.59 64.54 64.55 64.81 64.97
60.41 60.23 60.10 60.28 61.01 60.11 59.38 57.87 55.99 53.24 51.42 50.86 51.20 51.49 51.69 51.63 51.57 51.61 51.73 52.63 53.00 52.87 51.97 52.12 52.31 53.05 53.46 54.40 55.60 57.69 59.57 60.52 61.87 63.18 63.83 64.39 64.83 64.88 64.61 64.30 64.37 64.61 64.79
58.72 58.74 58.32 58.90 59.85 59.12 58.40 57.23 54.68 52.30 50.94 50.62 50.40 51.03 51.39 50.86 51.28 50.16 50.86 51.25 51.51 52.37 52.26 50.17 50.70 50.95 51.28 51.78 52.76 55.19 57.64 58.40 59.99 60.48 61.89 62.55 62.17 63.57 64.28 64.32 64.21 64.35 64.39
57.31 57.35 57.27 57.31 57.38 56.66 56.68 56.10 54.34 52.57 51.32 50.95 48.97 49.08 50.80 50.91 50.96 50.76 50.84 50.42 50.38 51.34 51.78 51.62 52.31 50.40 48.82 48.67 50.38 52.82 54.62 58.13 57.35 55.79 57.23 57.85 59.16 59.78 62.22 63.28 63.65 64.02 64.26
55.30 56.04 56.00 56.16 56.06 54.70 55.08 55.10 54.00 52.20 50.47 50.56 48.76 49.07 49.52 50.15 50.21 50.20 50.76 50.51 49.36 49.87 51.62 51.38 50.67 50.12 48.56 47.40 49.24 50.08 51.51 51.83 52.20 54.17 53.67 53.85 55.39 57.07 57.90 60.08 61.39 62.87 63.21
54.02 54.03 54.46 54.50 54.81 54.11 54.03 53.51 52.14 50.81 50.18 50.74 48.14 47.97 45.16 47.75 48.09 48.69 49.15 48.62 49.82 49.29 49.36 48.19 48.57 46.75 47.84 47.27 47.38 47.22 48.00 49.29 50.30 51.63 52.97 53.64 52.48 53.96 55.55 56.98 58.59 61.83 63.04
53.02 52.75 52.92 53.39 53.43 53.16 52.77 53.94 52.73 50.91 50.20 50.06 49.75 48.13 44.75 43.24 46.78 47.34 47.41 47.90 47.60 47.89 46.68 46.98 45.21 45.97 45.58 46.71 46.93 46.95 45.53 46.63 47.97 49.11 49.63 50.32 52.74 52.58 53.64 55.65 57.01 57.86 60.49
52.18 51.98 51.70 51.78 52.18 52.31 51.65 51.98 52.59 51.34 50.24 49.10 47.88 47.74 47.88 46.36 43.76 43.40 44.24 45.15 45.95 43.95 44.37 44.74 45.09 45.01 45.31 46.50 45.75 45.60 44.41 45.95 45.89 47.00 48.68 50.27 51.11 52.69 52.67 53.47 55.25 56.31 57.77
51.47 50.85 50.13 49.95 50.26 50.89 51.19 50.63 50.51 49.09 49.20 46.61 47.40 47.10 45.64 44.24 43.14 41.81 41.41 42.41 41.59 42.82 43.27 43.93 44.39 44.45 45.09 44.93 44.63 45.37 44.92 45.60 45.24 46.58 47.43 48.48 50.00 52.88 53.64 52.73 53.92 55.70 56.50
49.45 48.62 46.93 47.76 47.68 47.55 47.02 46.94 46.16 45.52 45.74 45.20 43.88 44.23 42.46 42.43 41.24 39.87 38.12 39.07 39.71 42.30 42.83 42.76 42.77 43.49 43.97 44.40 43.77 44.37 44.99 44.75 44.84 45.02 44.78 45.49 46.98 48.27 53.05 52.96 52.89 54.58 56.10
47.44 45.87 45.50 46.17 45.50 45.39 45.42 45.64 45.39 45.13 44.84 43.07 41.27 39.96 39.44 38.98 38.38 36.23 36.07 36.52 36.53 40.27 40.68 42.23 42.39 42.72 42.67 43.50 43.64 43.60 44.47 43.81 43.90 44.01 43.88 44.81 45.28 45.80 47.17 49.20 51.79 53.31 54.13
44.99 44.79 44.94 45.30 45.20 45.37 45.47 45.16 42.68 42.27 40.27 38.68 37.49 36.72 35.44 36.02 37.71 38.12 36.84 35.73 33.97 36.44 38.68 38.89 41.43 41.64 42.22 42.46 43.22 42.79 43.07 42.44 42.42 42.96 43.60 43.10 42.89 43.79 45.02 46.81 47.94 51.96 52.13
43.83 44.49 44.95 44.86 44.93 44.85 43.50 42.41 40.67 39.29 39.83 39.60 39.02 38.57 38.39 39.04 39.52 39.24 38.98 37.82 34.53 31.28 33.56 37.47 36.99 40.60 41.11 41.93 42.05 42.54 42.50 41.76 42.11 42.16 41.65 41.64 42.15 44.10 44.81 45.17 45.83 49.06 50.82
44.25 44.29 44.40 43.90 42.92 43.53 42.97 42.21 41.79 41.16 39.99 39.82 39.60 39.26 39.16 39.67 39.49 39.30 38.44 37.92 36.76 33.79 30.73 35.70 36.90 38.77 39.99 39.70 40.52 41.19 41.26 42.05 40.65 40.59 39.88 40.86 42.77 42.91 42.57 43.05 43.41 44.70 45.89
43.88 42.97 42.07 41.47 40.64 40.24 40.87 41.38 40.95 40.83 39.91 39.13 39.12 38.31 37.73 38.12 37.02 37.09 37.30 36.75 35.94 35.54 32.25 34.79 37.24 38.59 38.19 38.36 38.95 40.09 40.50 40.35 40.52 39.65 39.95 41.14 40.86 40.63 40.68 40.93 41.14 42.69 43.63
41.77 41.77 41.28 39.73 39.03 38.76 39.87 38.90 37.11 37.08 36.27 35.39 36.07 36.14 35.57 35.59 35.59 36.16 35.70 34.90 35.04 35.56 33.66 31.49 34.48 35.47 36.05 37.41 37.79 37.72 37.88 38.63 39.33 39.04 39.87 39.35 39.21 38.95 39.26 39.38 39.72 40.67 41.72
39.94 39.73 38.96 38.58 39.12 38.27 36.36 35.74 35.30 34.97 34.98 34.92 34.76 34.06 33.79 33.82 32.79 33.22 33.17 32.63 33.19 33.20 33.41 31.76 31.32 34.22 34.68 35.65 35.21 36.23 36.45 37.46 37.88 38.17 37.46 37.68 38.24 38.78 38.86 39.29 40.01 40.01 41.00
39.64 39.94 39.31 37.13 36.03 35.22 34.74 34.58 34.45 34.37 33.93 33.57 33.69 33.13 32.60 32.12 31.67 31.28 31.04 31.22 31.43 31.13 31.45 30.69 30.55 31.31 32.38 34.11 34.02 32.57 32.76 35.77 35.38 36.75 36.78 36.44 37.11 37.89 38.78 38.67 38.88 39.76 40.52
39.99 39.81 36.61 34.15 33.48 32.96 32.84 32.90 33.17 32.91 32.35 32.11 32.64 32.54 32.60 32.11 31.44 31.12 30.94 31.21 30.86 29.52 28.66 27.67 27.46 29.15 29.48 29.68 29.17 31.53 31.33 33.22 34.55 35.82 35.20 36.05 37.13 38.14 38.58 38.39 38.61 38.87 39.85
39.32 35.28 33.44 32.47 32.42 31.99 31.03 31.34 31.47 31.71 31.14 29.94 29.49 30.43 30.97 30.68 30.77 30.03 29.99 30.11 29.84 28.17 27.71 28.10 27.93 27.52 28.47 30.06 31.02 30.53 30.62 29.30 28.72 36.14 33.84 33.53 36.21 35.77 37.38 38.84 37.65 38.42 39.16
33.71 32.66 32.15 31.89 31.35 31.25 29.79 30.04 29.76 30.14 29.79 29.64 29.68 29.51 29.36 30.08 30.32 30.56 29.62 29.12 29.30 29.70 29.06 29.07 27.29 27.94 28.10 29.98 30.62 29.96 30.02 30.11 30.06 33.40 33.16 31.19 34.84 33.54 37.08 36.26 36.58 37.33 37.54
31.58 31.28 31.06 30.99 30.41 29.94 28.77 28.76 28.93 30.26 29.78 29.38 29.51 29.60 29.20 29.07 28.92 28.25 28.40 28.90 29.85 30.31 30.64 30.88 30.43 30.86 31.37 32.17 31.78 31.15 30.98 30.97 32.39 32.75 33.35 27.85 33.62 32.92 35.66 36.65 35.64 35.67 36.60
30.96 30.58 30.47 29.66 28.90 28.82 28.06 28.00 28.73 29.32 28.53 28.38 29.18 28.78 28.73 28.22 29.23 30.18 29.42 29.23 29.34 30.20 31.87 32.13 32.13 32.18 32.29 32.13 32.38 32.02 30.05 28.63 28.47 29.82 33.51 29.79 31.27 31.41 33.41 35.11 37.58 35.70 36.10
29.50 29.57 28.36 28.77 27.90 27.81 27.28 27.66 28.30 28.66 27.38 27.45 28.90 29.59 29.30 29.29 28.95 29.36 30.29 28.64 27.04 27.98 28.72 29.41 30.05 31.05 32.26 32.95 31.96 32.82 32.38 28.83 28.52 27.59 32.36 29.60 29.86 30.89 28.79 35.49 36.35 37.59 37.69

GFSMA_sfc_wetblb_027.txt.gz
Wetbulb
65.19 64.68 64.35 63.64 63.46 63.15 62.77 62.41 62.24 61.72 62.08 61.52 60.57 59.54 59.07 58.93 59.56 59.66 58.74 55.69 55.08 56.75 58.25 59.14 59.84 60.65 60.67 60.62 60.94 62.19 63.34 64.00 64.39 64.79 65.50 65.52 65.41 65.26 65.08 65.33 65.36 65.63 65.61
64.63 63.69 62.94 62.30 61.90 61.82 61.85 61.55 60.90 60.79 60.54 59.96 59.20 58.80 57.70 56.84 57.39 58.74 56.98 56.84 56.86 55.28 56.98 56.86 57.38 57.57 57.64 58.42 59.48 60.00 60.74 62.03 63.36 64.26 64.50 64.77 64.89 64.94 64.72 64.49 64.81 65.07 65.61
63.72 63.26 62.16 61.52 61.46 61.72 63.36 61.78 61.55 61.22 60.48 59.93 58.74 58.04 56.89 56.95 56.55 57.39 56.30 56.19 55.80 54.29 56.45 54.71 55.13 55.53 56.37 56.63 56.40 57.71 59.66 59.59 60.97 62.82 63.58 64.31 64.61 64.28 64.17 64.46 64.59 64.99 65.12
63.28 62.81 61.45 61.30 61.91 62.17 61.16 60.66 60.16 59.31 59.17 58.80 58.26 57.61 57.04 56.64 56.48 56.95 56.23 56.02 56.13 55.74 54.55 54.63 53.90 54.11 53.99 53.97 54.27 55.67 57.48 57.96 59.64 60.04 61.74 62.81 63.11 63.35 63.72 63.76 64.21 64.28 64.56
61.88 61.61 60.90 60.90 62.22 60.61 60.78 60.75 60.31 60.75 58.85 58.64 57.91 58.27 57.84 56.30 56.81 55.57 55.84 56.53 57.17 55.75 55.59 54.85 54.50 53.48 52.48 51.34 51.84 53.60 54.99 57.05 57.58 56.38 57.06 58.25 58.96 60.28 60.22 62.27 63.65 64.20 64.17
60.32 60.20 59.93 60.27 60.69 59.67 60.09 60.65 61.03 60.04 59.69 59.33 57.57 56.84 58.44 57.89 57.45 57.24 55.93 55.63 55.82 56.48 55.90 55.25 52.73 51.33 51.93 50.31 50.36 51.69 53.11 53.17 53.75 54.70 54.55 53.79 54.32 55.66 57.00 58.75 60.26 62.18 63.55
59.65 59.41 58.70 58.59 59.46 58.38 59.50 60.51 59.99 59.28 58.92 60.10 57.67 57.80 57.90 58.37 58.06 56.78 57.44 56.36 55.93 55.75 56.31 55.60 55.24 54.03 50.56 51.34 50.02 50.34 51.02 51.69 51.65 51.89 52.39 53.76 54.17 52.99 53.88 54.96 57.06 58.50 60.20
58.01 57.09 56.93 56.38 56.58 56.21 57.49 58.32 58.51 57.28 57.94 59.19 55.37 54.94 51.69 54.55 56.85 56.76 56.65 56.56 56.75 56.18 55.42 55.41 55.04 54.99 54.03 50.87 51.15 49.99 48.76 49.00 49.51 50.71 50.92 50.35 51.45 52.96 54.09 54.17 54.49 55.77 57.83
56.53 56.25 55.77 55.13 55.70 56.18 55.15 56.80 56.73 55.99 54.19 56.33 57.86 54.37 50.03 48.71 52.87 56.34 55.59 55.81 56.38 56.24 56.04 55.31 54.53 54.37 53.16 51.96 50.59 49.15 48.86 47.32 47.46 48.58 49.09 49.75 50.21 51.16 51.89 52.54 54.08 54.67 55.39
55.42 54.67 54.06 54.13 54.15 54.06 54.39 54.80 54.39 55.52 54.67 52.38 54.45 54.55 53.57 52.97 48.70 48.83 52.61 52.58 53.93 53.21 55.02 55.20 54.34 53.89 52.16 51.14 52.02 49.16 48.02 46.07 46.02 46.71 47.56 48.57 49.58 50.42 50.86 52.02 53.05 54.14 54.68
53.47 52.69 53.14 53.20 53.34 52.92 53.59 53.34 52.98 52.41 52.13 51.26 50.86 50.05 49.22 48.74 50.24 45.24 44.71 49.76 49.75 52.04 51.69 52.18 52.48 52.33 51.38 50.72 50.51 50.47 46.48 46.34 46.05 46.13 46.50 47.57 48.50 48.78 49.45 50.21 50.65 52.34 54.26
51.71 52.01 51.45 51.63 51.69 51.63 51.84 51.23 50.71 49.20 48.33 47.98 47.76 46.57 43.54 41.69 42.20 39.37 40.37 43.28 43.73 48.72 49.54 49.92 49.68 49.73 50.51 50.67 50.33 47.32 46.46 46.03 46.44 45.94 46.17 47.09 46.89 47.27 47.99 48.92 49.31 50.58 53.17
49.03 49.55 50.22 50.36 50.47 50.59 48.97 48.09 47.34 45.98 45.40 43.59 42.56 40.98 39.98 38.58 38.29 37.29 36.38 36.58 35.55 40.47 42.55 45.12 47.40 48.07 47.59 49.12 49.00 47.17 45.71 44.62 45.01 45.33 45.52 46.04 45.69 46.08 46.36 46.35 47.30 48.53 50.29
48.10 49.39 49.64 49.01 48.06 46.03 45.65 45.81 44.86 44.20 43.35 41.14 39.90 40.24 40.77 40.68 40.81 39.34 37.82 36.91 36.00 37.96 39.92 40.88 45.36 46.36 47.50 47.68 47.01 44.39 45.59 44.30 44.18 44.59 45.05 44.16 44.13 44.69 44.37 44.38 44.75 45.78 47.66
47.85 48.90 46.23 43.57 42.72 43.14 43.38 42.49 42.78 42.86 43.20 43.11 42.50 41.78 41.04 41.21 41.06 40.46 39.74 38.76 36.14 32.85 34.32 40.20 40.02 45.15 46.20 46.69 46.76 46.57 46.11 44.79 43.82 43.32 43.55 43.77 43.63 43.46 42.97 42.80 43.01 44.07 45.72
46.98 45.40 43.09 42.72 42.52 41.55 41.78 42.34 41.49 41.68 40.67 41.28 41.73 41.38 41.26 41.64 41.27 40.97 39.43 38.61 37.94 35.73 32.47 37.91 39.25 42.04 43.25 42.69 44.22 44.33 43.83 44.02 42.62 42.43 42.29 42.57 43.00 42.66 42.17 41.77 41.67 43.65 44.01
44.35 44.36 44.14 42.74 41.55 42.32 42.37 42.30 42.09 41.59 40.42 39.88 40.21 39.86 39.64 40.71 40.05 40.09 40.42 40.21 39.04 38.08 34.32 37.07 39.07 41.37 41.94 42.32 42.58 44.05 43.94 43.99 43.87 41.31 40.44 41.36 41.43 41.15 41.03 40.81 41.67 43.09 42.21
45.02 44.19 43.51 43.18 42.73 42.68 41.85 41.07 40.52 39.65 39.10 38.53 39.24 39.05 38.20 38.20 38.00 38.59 38.29 37.49 37.94 38.46 37.04 35.21 37.65 38.32 39.43 41.34 41.59 42.08 41.27 41.83 43.04 41.41 41.27 40.73 40.71 40.45 40.22 40.08 40.93 40.40 39.86
43.66 43.42 42.81 42.16 41.72 41.43 40.45 40.29 39.46 38.96 38.41 38.04 37.87 37.41 37.19 37.16 36.39 37.03 37.03 36.70 36.96 36.64 36.99 35.76 35.37 38.16 38.83 39.70 39.50 40.46 40.80 41.55 41.06 41.16 39.63 39.82 40.19 40.36 40.40 40.48 40.17 39.46 39.00
42.24 42.50 42.43 41.29 40.83 40.12 39.49 39.17 38.67 37.28 36.75 36.77 36.97 36.76 36.56 36.10 35.84 36.02 35.74 35.75 35.41 34.99 34.93 34.91 35.23 35.72 36.87 38.43 38.61 37.32 37.32 39.86 39.57 40.07 39.93 38.52 39.23 39.44 39.30 39.05 38.65 38.85 38.80
41.02 40.96 40.23 39.87 39.54 38.84 37.79 36.53 35.88 34.74 34.07 34.40 35.38 35.89 36.47 36.53 34.38 33.93 32.94 32.65 32.85 32.48 33.13 33.27 33.50 34.22 33.96 33.30 33.46 35.74 35.27 36.54 37.68 38.56 38.40 39.11 39.84 39.70 40.29 39.09 38.95 38.90 38.32
39.89 39.71 38.68 38.42 37.90 37.48 31.17 30.94 31.33 32.58 32.27 32.63 33.11 34.52 35.77 35.67 35.27 33.98 33.41 32.75 32.04 29.56 28.64 29.06 29.40 29.98 30.59 32.11 32.99 32.45 33.47 32.40 31.05 38.05 35.45 36.14 38.41 37.64 38.70 39.81 38.69 37.79 37.75
38.69 37.92 37.69 37.54 36.79 36.70 30.95 30.55 30.15 31.52 30.96 32.03 33.02 33.47 33.51 34.58 34.16 34.07 32.55 31.92 31.44 31.32 30.17 29.97 28.14 29.03 29.36 31.50 32.23 31.66 31.93 32.15 31.72 34.78 35.28 33.79 37.85 36.42 39.07 38.07 37.50 37.28 37.54
37.20 36.81 36.38 36.20 35.60 35.41 31.41 29.96 29.47 30.63 31.31 31.67 32.40 32.29 32.18 32.13 32.35 31.24 30.67 30.56 30.99 31.86 32.46 32.47 31.63 31.94 33.11 34.24 34.27 33.41 33.30 33.08 34.21 35.21 36.22 30.94 36.33 35.25 37.42 38.63 37.78 37.50 37.05
36.12 35.74 35.55 34.59 33.03 33.15 32.26 29.70 29.17 29.68 29.34 29.34 30.23 31.11 31.08 31.02 31.59 31.80 30.88 30.37 29.72 31.25 33.26 33.68 33.39 33.30 33.04 32.91 33.27 32.88 30.55 29.28 30.33 32.05 35.77 33.18 34.18 34.17 35.44 36.33 38.19 37.21 36.95
35.16 34.96 33.46 32.48 31.19 30.81 31.52 30.01 29.21 29.39 27.88 28.22 29.37 29.81 29.98 30.40 30.46 30.76 30.56 29.20 27.64 29.01 30.38 30.64 31.42 32.20 32.77 33.47 32.52 33.09 31.86 28.71 28.86 28.84 33.90 31.61 32.82 33.31 30.96 36.59 37.07 37.93 38.23

GFSMA_sfc_wetblb_033.txt.gz
Wetbulb
58.06 58.25 57.41 57.51 56.63 56.29 55.62 55.39 55.08 55.64 55.56 55.90 56.80 56.90 55.96 54.69 54.13 53.18 52.53 57.41 57.71 59.04 58.88 59.75 60.98 62.40 63.16 63.40 63.47 64.06 64.62 64.82 65.14 65.48 66.30 65.47 65.34 65.58 65.78 65.65 65.34 64.85 64.63
57.68 57.49 56.58 56.59 56.15 55.60 55.37 54.80 54.02 54.32 54.60 55.19 55.47 55.43 54.87 53.75 53.09 52.25 51.57 51.88 56.65 57.64 58.75 58.97 59.79 61.06 62.24 62.66 61.68 61.63 62.83 63.81 64.14 64.64 65.46 65.05 64.96 64.85 64.79 64.96 64.96 64.85 64.74
57.18 56.84 55.91 55.77 56.06 56.50 55.64 55.03 54.79 54.81 54.21 55.18 54.78 54.96 54.56 53.98 52.61 51.95 51.35 51.24 52.34 56.85 57.70 59.57 59.92 59.95 60.70 60.70 60.55 60.67 61.32 62.44 62.80 63.28 63.93 64.67 64.30 64.06 64.01 64.10 64.41 64.59 64.94
57.27 56.06 55.47 54.71 55.99 56.11 55.30 54.65 54.54 53.91 53.49 53.31 52.88 53.09 53.37 53.06 52.39 52.18 51.96 50.87 51.40 52.83 55.55 57.83 59.42 59.92 59.51 59.04 59.95 59.48 60.06 60.70 61.39 62.24 62.46 63.25 63.79 63.57 63.43 62.90 63.02 63.96 64.65
56.65 54.60 53.91 53.93 54.35 54.48 54.32 54.17 54.11 52.93 52.78 52.76 53.34 53.20 52.08 51.78 52.19 53.53 51.38 51.18 50.43 51.30 49.93 55.19 57.65 57.81 58.71 58.86 58.49 58.17 58.23 59.58 60.35 61.21 60.76 61.50 62.11 62.07 61.63 61.72 62.52 63.24 63.30
55.42 53.63 53.11 52.83 53.39 51.86 51.15 51.14 50.45 50.78 51.19 51.55 53.63 54.08 53.16 52.39 52.33 51.66 50.96 51.74 51.54 51.10 50.02 49.76 54.04 53.90 56.39 58.37 57.77 57.50 58.00 59.09 59.88 59.77 59.46 59.56 59.13 58.85 58.84 59.10 59.39 60.57 62.19
54.14 52.71 51.94 51.26 50.80 50.29 49.09 49.35 48.98 48.75 48.86 49.67 48.95 49.71 49.43 50.65 50.71 51.59 51.78 50.90 50.34 51.57 51.35 49.96 51.05 51.66 52.32 56.92 57.24 56.75 57.24 58.36 58.72 59.89 57.82 56.75 55.83 55.67 55.47 55.58 56.02 56.94 58.61
52.73 52.59 50.04 49.34 48.72 48.74 48.25 47.81 46.91 45.85 46.39 47.36 45.73 46.14 43.61 46.04 47.46 49.30 49.50 50.54 50.27 50.71 51.94 52.64 50.80 50.17 49.63 51.25 52.15 56.58 56.36 57.09 58.39 58.60 57.32 56.24 56.05 55.40 54.72 54.65 54.44 54.54 54.94
49.84 48.72 47.98 47.66 46.94 47.31 46.63 45.90 45.92 45.89 44.62 45.64 45.66 44.11 41.80 40.05 42.92 46.29 47.07 48.31 48.39 49.53 50.32 52.52 53.02 51.13 48.68 47.19 50.81 52.50 53.36 54.70 57.18 56.54 55.61 54.66 53.93 53.65 53.01 53.00 53.04 53.60 54.45
48.81 48.11 46.88 46.12 46.18 46.64 45.38 45.90 46.41 44.41 44.10 41.49 43.27 43.74 42.23 42.78 39.10 37.85 43.00 44.06 42.92 44.56 44.31 46.70 49.90 51.98 52.16 49.84 49.03 49.10 49.66 50.82 53.69 55.02 53.81 53.72 52.27 51.91 51.56 51.82 52.11 52.48 53.13
47.23 46.63 46.25 45.73 45.68 45.34 44.48 43.84 43.32 43.55 44.70 43.40 41.93 41.04 40.60 38.20 37.63 34.81 34.17 36.86 39.98 41.43 42.28 43.59 45.25 47.86 50.06 50.65 49.62 48.44 48.97 47.88 49.39 52.07 52.39 51.42 50.67 50.43 50.66 50.76 50.48 50.68 50.82
44.95 44.80 45.82 44.63 44.20 43.56 43.22 42.63 42.00 43.05 41.01 40.77 41.02 39.24 38.69 36.94 36.51 36.12 35.21 35.24 35.36 38.51 39.14 40.95 42.19 45.91 46.66 48.38 49.74 48.10 48.06 46.49 47.26 49.42 50.39 48.84 48.46 48.57 49.08 48.74 49.08 49.63 49.72
42.33 43.43 43.09 42.50 42.07 42.09 41.70 41.81 42.16 40.70 40.36 39.30 39.08 38.75 38.44 36.69 38.81 37.87 36.44 35.69 33.77 35.42 36.11 39.19 41.58 44.51 45.38 46.25 46.97 47.16 47.64 45.85 45.22 47.36 48.15 47.86 47.26 47.86 47.15 46.69 47.33 47.92 48.07
42.15 42.46 42.17 41.40 41.06 40.90 40.78 40.20 39.59 40.30 38.86 38.81 37.55 40.54 39.92 39.87 40.20 37.91 36.99 35.27 31.30 32.44 32.70 34.14 39.81 41.38 41.64 43.24 43.69 45.25 45.54 44.95 44.69 44.81 45.54 46.12 46.44 46.35 45.62 45.00 45.55 45.65 45.68
43.70 41.72 41.10 40.59 40.13 39.81 39.52 39.08 38.29 37.77 37.57 37.31 37.39 37.61 37.34 37.80 39.38 39.55 39.35 37.92 33.97 28.85 28.80 32.80 32.65 37.50 39.31 41.09 42.69 42.57 43.20 44.36 44.07 43.33 43.28 44.62 45.68 45.59 45.02 44.18 44.02 44.32 44.04
41.53 41.32 40.59 39.77 38.97 38.98 40.27 38.53 37.55 37.85 37.18 37.01 37.15 36.12 35.87 36.87 37.60 38.74 38.55 37.76 37.86 34.84 30.36 32.22 35.09 35.24 37.93 39.29 41.69 41.70 41.48 41.48 42.68 43.18 42.66 43.37 44.01 44.70 44.60 44.67 44.76 44.12 43.41
40.07 39.94 41.17 41.78 41.50 41.88 41.44 39.03 38.33 37.77 37.51 36.46 36.00 35.19 34.74 35.06 33.79 33.95 34.62 33.90 34.42 35.31 31.90 33.20 35.52 36.87 34.98 35.51 37.75 38.73 40.42 39.79 39.63 42.56 41.81 42.03 42.19 42.72 42.75 42.81 43.01 43.48 43.42
40.94 41.05 42.11 41.56 41.12 40.21 40.35 39.04 36.82 35.67 33.96 31.48 31.44 30.97 31.98 33.70 30.73 31.18 31.19 30.65 30.67 31.09 29.40 27.64 29.13 30.37 31.40 33.24 33.89 34.54 37.62 39.52 39.11 40.71 41.45 41.48 41.53 41.55 41.28 41.17 41.04 41.27 41.26
39.77 39.56 40.20 39.93 39.14 38.12 36.17 34.47 33.64 32.71 31.61 30.85 30.96 30.58 30.04 30.06 29.17 29.93 30.52 29.93 29.85 31.73 28.49 26.38 26.36 28.93 29.52 31.07 32.32 32.51 33.08 34.12 37.07 40.45 39.40 39.82 41.02 41.49 41.32 40.83 40.51 40.34 40.21
39.23 38.74 37.15 37.30 36.09 34.99 33.33 32.55 31.91 30.11 29.25 29.60 29.87 29.27 29.30 29.10 28.89 29.29 30.60 29.33 29.52 27.10 26.46 25.68 25.67 26.39 27.45 29.62 30.27 28.82 28.33 30.39 31.19 35.71 37.13 36.55 37.74 39.17 40.47 40.91 40.44 40.23 40.10
36.77 36.47 35.24 34.47 34.03 32.64 31.73 29.14 28.55 27.55 27.14 27.26 27.99 28.84 29.15 30.69 33.53 33.57 31.34 29.63 27.67 25.41 24.72 24.42 23.97 24.22 24.27 24.94 25.11 26.75 26.12 26.76 27.95 30.45 30.45 31.50 31.89 32.26 33.69 37.50 39.31 40.34 40.26
36.09 34.30 33.53 32.94 30.95 32.12 32.32 31.49 29.44 26.28 26.84 26.62 25.72 26.97 27.49 29.93 30.60 31.57 32.43 31.91 30.79 27.59 26.68 25.78 25.63 23.98 24.42 25.24 26.45 24.83 24.59 23.95 23.84 28.51 27.59 26.14 30.16 30.18 32.01 32.89 36.81 38.25 38.87
32.16 32.29 31.63 30.85 29.61 29.06 32.43 31.70 31.25 26.98 25.66 24.80 24.60 25.45 25.52 28.06 28.22 28.42 29.44 30.37 30.28 31.44 29.92 27.82 25.09 25.23 25.09 26.16 26.81 25.15 24.38 23.99 25.00 26.91 26.38 26.59 24.26 27.14 30.29 34.28 37.32 38.00 38.36
30.38 31.13 29.82 29.63 28.26 30.35 32.55 32.71 32.26 26.43 25.12 25.20 25.25 25.07 24.84 25.34 26.80 27.38 26.85 26.43 27.36 28.52 29.46 30.18 28.99 28.05 28.49 29.17 29.28 29.36 28.74 30.60 30.22 28.88 29.73 25.20 26.89 28.34 28.25 29.70 35.85 37.78 38.06
29.54 29.58 30.13 28.68 27.64 27.43 31.59 32.45 31.07 25.77 25.79 25.39 26.61 25.87 25.69 25.36 27.93 29.82 27.59 25.05 25.83 26.93 30.62 31.87 32.74 32.33 32.68 32.75 33.78 31.98 27.99 26.76 25.11 25.41 25.43 26.55 26.69 27.49 25.66 26.78 29.37 35.41 36.68
30.23 29.53 28.81 29.08 30.31 27.27 30.63 31.90 28.81 21.23 21.22 24.95 24.62 25.16 26.89 26.06 27.85 29.16 26.61 25.94 23.16 23.97 24.58 25.52 26.96 28.22 29.27 29.16 30.66 29.68 27.75 26.01 25.67 25.42 28.37 26.27 25.86 25.27 20.10 24.94 30.20 31.00 30.09

GFSMA_sfc_wetblb_036.txt.gz
Wetbulb
56.92 56.79 56.21 56.07 55.43 54.62 54.66 53.88 54.42 53.92 53.59 54.14 54.49 54.82 55.28 55.06 54.23 53.21 51.94 56.95 59.48 60.52 60.87 60.79 60.82 61.10 61.90 63.26 63.90 63.65 64.42 65.12 65.55 65.86 66.20 65.40 65.01 65.48 65.75 65.84 65.44 64.91 64.80
56.61 56.30 55.03 55.55 54.77 54.25 54.31 53.89 53.61 53.52 53.75 54.03 54.33 54.91 54.74 53.97 53.42 52.79 51.58 51.54 57.14 58.84 59.90 59.93 60.32 60.43 60.89 61.82 63.67 62.91 62.65 63.67 64.65 65.24 65.04 65.08 64.91 64.53 64.56 65.09 64.63 64.89 64.73
56.72 55.42 54.66 54.73 54.61 55.14 54.31 53.77 53.49 53.45 53.16 53.82 53.03 53.57 53.80 53.92 53.41 52.41 51.83 50.71 51.48 56.96 57.93 59.65 60.86 60.53 60.33 60.94 62.11 61.43 61.32 61.71 62.68 63.94 64.50 64.62 64.29 64.18 64.20 64.27 64.01 63.93 64.84
56.12 54.78 54.10 53.23 53.56 53.53 53.18 52.40 52.22 51.81 51.45 51.47 51.27 52.02 52.24 52.59 52.47 52.01 51.45 50.49 49.87 51.59 54.35 57.74 59.31 60.29 61.23 60.54 60.66 60.72 61.00 60.83 61.64 62.32 63.03 63.92 64.01 63.98 63.85 63.41 63.33 63.88 64.12
55.72 53.24 52.58 52.04 52.41 51.24 50.78 50.48 49.56 49.89 49.15 48.79 49.85 50.18 50.86 51.17 51.45 53.50 51.67 50.83 49.65 50.68 51.65 54.18 57.24 58.08 59.69 60.62 59.46 59.75 60.47 59.48 59.98 60.81 62.03 62.38 63.46 63.45 62.83 62.96 62.75 63.07 63.29
54.14 51.85 51.08 50.54 50.09 49.44 48.67 47.89 47.43 47.61 47.49 47.01 49.34 48.83 48.94 49.82 50.41 50.05 50.58 52.04 50.63 49.85 49.86 50.19 51.30 54.68 57.18 59.29 59.65 58.99 59.76 59.37 59.35 59.96 60.88 60.81 61.77 61.85 61.56 61.56 61.34 61.16 61.61
51.81 49.50 48.66 48.24 47.99 47.52 46.88 47.25 46.80 45.35 44.99 46.44 44.98 45.60 45.82 47.20 47.14 47.23 48.03 48.68 49.55 50.84 50.97 51.01 48.42 50.84 53.13 57.13 58.86 58.68 59.22 59.26 59.03 59.42 60.13 59.29 59.40 59.12 58.36 57.84 58.03 58.62 58.93
48.56 47.63 46.09 46.24 45.99 46.04 45.21 44.80 44.47 44.11 44.78 44.88 42.98 42.73 40.71 43.43 43.79 44.75 45.95 46.50 45.81 47.16 46.28 47.11 48.87 50.53 50.38 50.45 53.47 58.16 58.66 59.09 58.93 58.98 60.07 59.31 57.29 56.17 55.53 55.28 54.90 54.56 55.06
47.19 45.87 45.28 45.00 45.11 45.21 44.25 43.96 43.62 42.74 42.22 42.86 42.33 42.21 38.49 36.68 38.10 41.43 41.64 42.69 41.82 42.50 42.52 44.26 45.83 47.38 50.20 50.16 48.57 52.07 54.47 56.09 58.82 59.61 60.08 59.41 57.17 56.54 55.80 55.13 54.53 54.30 54.16
45.81 45.79 45.30 45.26 45.04 44.82 43.29 43.50 44.45 42.36 43.95 42.41 42.43 42.72 41.21 41.15 34.03 33.73 37.90 39.21 39.21 40.14 40.15 41.59 41.86 45.44 49.06 50.63 50.85 50.09 48.75 49.75 53.71 57.45 58.94 58.68 56.30 54.98 54.17 53.21 52.96 52.83 52.88
45.10 45.96 45.72 44.31 43.41 43.46 42.73 41.62 41.23 40.89 41.15 39.72 38.62 37.53 37.05 36.51 35.99 33.12 31.37 34.41 37.15 38.11 38.68 38.52 40.13 43.36 46.12 47.55 48.69 49.52 48.55 47.81 49.03 53.55 57.04 57.36 55.29 54.13 52.80 52.00 51.97 51.37 50.79
43.93 44.13 43.97 42.82 42.24 41.51 40.92 40.76 40.08 39.70 38.74 38.51 38.02 36.48 36.81 35.39 35.56 35.43 33.96 33.92 33.31 35.09 36.91 37.76 38.64 41.01 42.85 44.58 46.82 46.67 48.10 46.45 46.13 48.33 52.35 54.10 53.83 52.66 51.79 51.94 51.42 50.47 50.03
41.79 42.05 41.81 40.98 40.56 40.38 40.14 39.54 38.82 38.09 37.44 36.46 36.36 35.56 36.43 38.28 38.84 37.54 36.10 34.08 33.05 35.62 33.99 36.22 38.56 40.78 42.60 41.45 44.32 44.50 45.75 45.66 45.82 45.40 47.27 50.03 50.54 50.18 50.26 49.68 49.27 48.91 48.54
41.80 41.78 40.86 40.38 40.05 39.96 39.75 38.85 37.34 37.50 37.35 35.60 35.00 36.05 37.44 38.96 37.99 37.85 36.39 34.76 32.46 33.03 32.18 31.59 34.68 37.52 37.86 39.49 41.68 43.21 42.51 42.94 44.11 44.14 44.26 44.40 47.00 47.66 48.50 47.46 47.17 47.30 46.64
42.44 41.10 40.15 39.83 39.41 39.04 39.03 38.02 36.83 36.42 36.23 35.84 35.57 35.43 35.07 35.56 36.11 35.91 35.78 37.17 35.00 29.30 29.08 30.80 31.17 35.18 36.00 37.85 40.33 40.30 42.25 41.64 41.54 41.77 42.92 43.13 43.45 44.79 46.46 45.63 44.96 45.21 45.10
39.91 39.59 39.13 38.93 38.28 40.64 40.70 38.65 37.27 37.68 36.60 36.70 37.58 36.53 34.84 34.69 34.62 35.37 36.64 35.36 36.04 33.49 29.96 31.46 32.28 33.75 35.58 37.93 38.91 40.12 40.83 41.12 40.56 41.04 40.53 42.68 43.25 43.90 43.91 44.10 44.25 44.26 44.27
39.22 39.13 39.91 39.93 39.58 38.56 38.71 37.91 37.38 37.03 35.69 33.41 31.23 30.85 31.08 32.33 30.59 30.35 30.78 30.84 30.14 30.91 28.92 29.56 32.61 34.22 32.63 31.36 33.50 35.36 38.95 39.83 40.05 40.11 40.39 40.76 42.42 42.99 43.09 43.39 43.72 44.37 44.52
39.18 39.03 39.22 38.88 38.32 37.80 37.31 35.19 33.15 32.29 30.95 29.63 29.52 29.97 30.22 31.13 28.25 28.56 28.48 27.88 28.80 29.69 28.04 25.67 27.14 28.35 28.50 29.73 30.24 30.50 34.15 36.43 36.95 40.03 40.46 40.54 40.70 41.41 41.53 41.43 41.45 41.74 42.32
38.54 38.02 38.41 37.28 36.00 34.92 32.58 31.83 30.84 29.94 28.91 28.82 28.74 28.93 28.41 28.07 26.69 27.12 27.24 27.77 28.58 30.61 27.88 26.04 24.88 26.85 27.53 28.61 28.62 30.36 30.97 31.44 34.86 37.95 37.80 38.03 39.83 40.77 41.34 41.09 40.82 40.82 40.72
37.85 36.86 35.98 35.28 33.91 31.76 31.22 30.17 29.64 27.66 27.16 27.82 28.12 27.63 27.09 26.94 26.42 26.81 28.19 27.64 28.41 26.43 25.98 24.80 24.50 25.17 26.04 27.19 26.83 26.15 25.94 28.10 28.57 33.36 35.59 35.76 36.75 37.82 38.50 39.40 40.15 40.47 40.32
37.38 36.39 33.75 32.93 31.99 30.89 30.65 28.25 28.02 26.97 26.37 26.25 26.82 26.72 27.18 28.38 30.02 29.80 28.94 28.23 27.75 26.20 25.98 25.66 24.90 24.06 23.53 23.01 23.00 24.29 24.34 25.10 26.03 28.29 28.95 29.87 30.34 31.36 32.39 35.43 37.53 39.59 40.21
36.86 33.55 32.02 31.69 30.52 31.29 32.24 31.54 29.71 26.35 26.59 26.01 24.50 25.26 25.96 27.54 26.67 28.95 29.43 30.19 30.02 27.14 25.88 25.12 25.28 24.42 24.06 23.44 24.21 23.88 23.21 21.88 20.37 26.94 26.44 25.28 28.69 28.36 30.48 32.34 35.98 37.23 38.11
33.42 31.62 31.20 30.32 28.40 28.34 32.35 32.80 32.80 28.61 26.02 24.81 24.29 24.60 25.54 27.26 26.96 26.27 27.73 28.61 28.75 29.61 28.67 28.06 26.76 25.59 24.69 24.85 24.90 23.50 23.02 22.87 22.91 26.15 25.62 24.61 22.98 24.96 28.58 32.16 36.03 37.20 37.65
31.60 30.61 29.10 28.62 27.46 29.03 31.93 32.30 32.37 27.55 25.67 25.65 25.69 25.39 24.63 24.02 24.94 25.91 25.76 26.58 26.30 26.76 27.57 28.14 27.51 27.21 27.36 27.72 27.28 27.62 27.04 24.82 27.26 30.18 27.23 23.88 22.87 24.71 25.32 28.36 34.58 36.17 36.86
29.81 29.10 29.32 27.62 26.73 27.12 31.18 31.35 27.64 24.04 24.73 24.09 25.78 25.44 24.62 23.76 26.18 27.85 26.73 25.24 25.10 25.46 28.51 29.32 29.79 30.42 31.31 32.16 31.23 29.67 28.01 27.08 25.46 25.67 24.10 24.78 24.61 22.39 23.24 26.43 27.76 33.93 35.96
29.89 28.92 28.68 27.92 29.46 25.83 29.02 29.63 27.67 22.27 16.02 22.78 23.38 23.72 25.05 24.39 26.09 26.94 25.40 24.51 23.23 24.24 24.28 24.41 24.71 26.38 27.98 27.56 29.15 27.63 26.33 23.41 23.57 22.97 25.99 24.75 23.15 23.29 20.30 23.63 28.11 28.97 29.12

GFSMA_sfc_wetblb_039.txt.gz
Wetbulb
56.64 57.32 57.15 55.70 54.57 53.65 53.26 52.74 52.82 52.71 52.56 53.07 53.54 53.28 53.56 53.54 53.62 53.36 52.56 56.69 58.62 61.22 62.04 62.26 62.44 62.41 62.16 63.34 64.08 63.67 63.70 64.04 64.60 65.33 65.91 65.56 65.21 65.34 65.08 65.03 64.61 64.63 64.81
56.21 55.31 54.48 54.54 53.91 53.75 53.75 52.70 52.31 52.23 52.19 52.70 52.64 53.04 53.26 53.37 53.28 52.69 52.27 51.54 55.74 58.28 59.95 60.98 61.42 62.04 61.92 62.54 63.07 64.13 63.10 63.26 63.61 64.26 65.11 65.32 64.86 64.50 64.33 64.64 64.70 64.69 64.33
55.64 54.86 53.99 53.26 53.15 53.05 52.37 51.62 50.99 50.51 49.87 50.81 49.95 51.15 51.87 52.20 52.16 52.10 51.81 51.14 51.32 54.51 57.14 58.77 59.55 61.85 61.91 61.56 62.44 62.97 62.67 61.90 61.99 62.56 63.74 64.97 64.73 64.28 64.00 63.78 63.88 64.52 64.84
55.34 53.76 52.35 51.64 51.98 50.91 50.35 49.30 48.89 48.20 47.99 47.61 47.11 48.08 48.72 49.96 50.86 50.94 51.34 50.69 49.54 50.25 52.21 55.16 57.52 59.13 61.14 61.31 60.57 60.98 61.54 61.86 61.30 61.57 62.51 63.67 64.00 64.17 64.04 63.62 63.62 63.84 64.26
53.51 51.57 50.47 49.58 49.57 49.17 48.39 47.95 47.34 46.86 46.18 45.09 46.92 46.10 45.80 47.65 48.28 51.07 49.76 50.14 49.63 49.38 49.65 52.02 54.27 55.64 57.26 59.24 60.35 60.76 61.09 61.27 61.12 60.59 61.09 62.08 62.22 63.20 63.51 63.31 63.09 63.33 63.39
51.87 50.67 48.87 49.04 49.67 48.91 46.67 45.95 45.64 45.19 44.76 44.72 47.57 46.78 45.47 46.03 46.48 46.38 45.80 48.21 48.53 48.85 48.55 49.01 49.24 49.88 52.76 55.04 57.31 59.58 60.85 60.95 60.77 60.32 60.00 60.73 61.15 61.51 63.06 62.18 62.23 62.39 62.47
49.20 48.45 47.95 46.49 46.16 45.31 44.66 45.02 44.59 43.72 43.30 44.13 42.87 43.33 43.83 43.81 43.61 41.78 43.06 44.70 46.56 45.29 44.40 44.48 44.92 46.27 48.68 52.33 53.94 55.67 58.78 60.40 60.70 60.60 60.91 61.11 61.32 60.72 60.91 60.60 60.31 60.46 60.20
46.38 45.80 44.56 45.29 47.27 46.62 45.76 44.13 43.40 43.24 43.30 42.68 40.95 40.44 38.03 39.53 40.45 41.69 41.26 42.29 41.05 42.85 42.11 42.43 43.40 42.90 45.10 48.68 49.98 53.26 53.90 56.55 59.51 60.77 60.36 60.40 60.72 60.19 59.10 58.65 57.83 57.08 57.12
45.40 44.63 44.91 44.60 44.56 44.03 43.15 42.10 41.51 40.77 40.08 40.96 40.79 39.35 34.81 32.97 35.97 38.16 38.53 38.75 38.24 39.10 39.71 40.32 40.73 42.46 45.15 46.56 49.56 50.01 50.91 51.02 52.74 55.93 58.95 59.49 59.94 59.03 57.41 56.51 56.11 55.73 55.58
44.58 45.31 45.12 44.35 43.51 42.89 41.56 41.17 43.36 40.50 40.39 38.99 39.51 40.99 38.83 37.53 32.25 31.67 35.15 36.61 37.55 37.94 37.81 38.57 38.50 41.24 44.74 45.10 46.88 47.65 48.07 48.63 49.70 51.93 53.36 56.56 59.27 58.32 57.54 56.70 56.00 55.00 54.08
45.40 45.28 44.34 42.79 41.84 41.84 40.91 40.18 39.51 39.31 39.07 37.97 37.17 36.30 35.38 34.99 34.29 33.40 30.54 32.85 35.88 37.09 36.64 37.15 37.05 39.58 42.21 43.15 44.09 45.37 46.54 45.93 47.45 49.13 51.62 53.00 55.08 58.07 57.16 56.53 54.73 53.95 53.57
42.81 42.31 42.21 41.28 41.13 40.42 39.66 39.22 38.63 37.87 37.48 37.40 37.26 35.61 36.81 34.72 34.80 34.65 33.20 31.14 32.08 33.35 35.06 36.07 35.92 38.35 39.76 40.11 42.40 44.58 44.67 44.02 45.45 47.42 49.08 51.04 52.49 54.56 56.70 54.58 53.68 53.28 52.32
40.76 40.80 40.80 40.12 39.66 39.37 39.00 38.26 37.27 36.60 36.32 35.06 34.56 34.85 35.72 35.66 37.92 37.71 35.88 33.57 33.24 34.12 34.34 35.18 35.17 35.72 40.17 37.54 38.78 43.04 43.91 42.77 42.71 43.30 45.60 48.09 48.53 49.53 52.43 53.02 52.77 52.31 51.66
40.77 41.09 40.34 39.63 39.16 39.16 38.37 38.37 36.37 36.15 36.04 35.25 34.31 35.08 35.62 36.69 36.77 38.08 35.86 34.96 30.95 32.16 30.22 30.18 33.66 35.06 35.67 35.83 38.76 42.01 40.14 41.96 42.11 41.57 42.28 44.51 44.97 45.92 47.77 48.72 50.23 49.65 49.71
41.50 40.39 39.40 38.85 38.82 38.51 38.30 38.09 35.90 35.41 35.27 35.17 34.72 35.83 36.42 35.64 35.88 34.80 34.76 35.76 32.64 27.21 27.98 31.07 30.00 33.89 34.91 35.45 37.44 37.12 38.44 41.65 40.82 40.84 41.08 41.23 43.57 43.33 44.36 46.13 45.64 45.98 46.76
39.28 38.88 38.23 37.87 37.79 37.64 37.94 37.23 35.59 35.51 34.84 34.27 34.81 33.33 31.96 31.84 31.84 31.06 31.46 31.74 30.93 29.10 25.32 29.86 30.65 32.17 33.97 36.35 35.43 33.42 36.62 41.21 41.45 40.84 39.28 39.44 40.96 42.96 43.38 42.62 42.52 43.12 44.23
38.25 37.68 38.39 38.51 38.13 36.75 36.37 35.47 34.44 32.66 30.83 29.55 28.90 28.86 29.34 30.30 29.64 30.22 28.98 29.09 28.38 28.39 25.74 27.44 30.39 31.87 31.14 28.91 30.56 31.53 33.29 33.83 37.63 40.63 40.20 39.59 38.97 40.05 42.05 42.59 42.10 41.75 41.30
37.65 37.86 37.76 37.67 37.23 35.76 34.21 32.12 30.79 29.99 28.75 27.63 27.65 27.80 28.47 30.06 27.04 27.02 26.64 26.11 26.53 26.99 26.35 25.29 26.64 26.98 26.99 28.17 28.63 28.54 32.25 34.72 32.29 37.69 38.79 40.75 40.13 39.99 40.32 41.18 41.15 41.28 42.25
38.33 37.56 38.43 37.89 35.73 34.86 32.46 30.33 29.59 28.10 27.47 27.73 27.47 26.93 26.38 26.08 24.96 25.21 25.61 25.88 26.67 29.04 27.13 26.34 26.01 26.30 26.40 27.03 27.00 27.52 28.28 28.55 32.34 34.81 35.86 36.84 37.53 39.77 40.65 40.33 40.43 40.63 40.85
37.78 37.31 36.84 36.13 34.99 32.18 30.82 29.91 29.02 27.59 27.07 27.17 27.51 26.98 26.01 25.73 25.27 25.12 25.74 26.89 28.12 27.94 26.77 26.37 25.69 25.70 26.46 27.03 26.05 24.91 24.10 26.41 26.55 31.02 32.79 34.29 35.99 36.58 37.94 38.77 40.33 40.48 40.45
36.51 36.17 37.50 34.75 32.70 31.20 30.34 28.48 28.06 27.02 26.39 26.09 26.81 26.72 26.36 27.76 30.15 28.22 26.27 24.92 24.91 26.30 25.74 24.89 24.69 25.09 24.23 23.32 23.05 23.90 23.31 23.58 24.83 26.74 26.97 28.02 30.10 31.89 31.94 34.46 35.90 38.62 40.31
35.86 37.32 33.64 32.89 31.82 31.25 32.59 32.40 31.01 26.81 27.43 26.69 25.14 25.70 25.94 27.99 26.92 28.43 27.87 28.24 27.44 24.97 24.19 23.97 23.89 23.43 23.82 23.52 23.60 23.06 22.48 21.30 20.04 25.56 24.73 23.63 27.38 27.77 29.92 30.90 34.54 36.52 37.48
33.97 33.11 31.79 31.60 29.09 28.02 32.39 32.58 32.58 29.16 27.25 25.64 24.84 25.06 25.38 26.41 26.11 25.08 26.16 27.30 27.36 28.37 27.54 25.98 24.45 24.57 24.45 24.90 24.34 22.96 22.20 22.25 23.00 24.97 24.36 24.69 22.22 23.95 28.42 31.00 34.42 36.21 37.06
30.71 30.58 28.72 28.36 27.38 28.44 31.31 31.38 29.62 25.20 24.25 24.47 24.56 24.58 24.12 23.54 24.17 24.87 25.02 25.50 25.87 27.05 27.13 27.13 26.81 26.80 27.82 27.91 26.66 26.63 26.23 25.37 25.66 25.92 28.57 25.39 22.96 23.72 25.77 26.13 32.18 33.81 35.65
32.50 28.26 28.49 27.83 27.14 26.52 29.99 29.79 26.86 23.21 23.39 22.52 23.93 24.07 23.47 22.48 24.77 27.07 25.27 23.99 24.29 24.94 28.30 29.63 29.69 29.54 29.58 29.85 30.78 29.22 26.81 25.43 22.76 23.31 24.12 23.83 24.12 21.21 21.64 24.90 27.10 32.41 33.70
28.67 28.72 28.32 27.76 28.85 24.49 27.60 28.00 26.34 20.04 13.61 21.45 22.20 22.79 24.03 24.16 25.85 27.99 25.57 24.19 22.43 24.21 25.47 25.53 25.68 26.47 27.46 27.25 28.58 26.82 23.95 23.26 23.11 19.21 24.94 23.77 23.31 23.29 18.93 21.18 22.74 24.35 24.93

GFSMA_sfc_wetblb_042.txt.gz
Wetbulb
57.56 57.12 57.54 55.92 53.91 52.95 52.66 52.41 52.30 52.30 52.18 52.61 52.55 52.58 52.52 53.14 53.49 53.33 53.03 55.92 57.23 58.64 60.42 62.05 62.68 62.64 63.76 64.03 64.00 64.20 63.38 63.11 63.24 63.72 64.72 65.44 65.31 64.79 64.66 64.81 64.50 64.19 64.47
55.66 55.15 54.03 53.36 52.87 53.02 52.24 51.70 51.11 50.08 49.50 50.25 49.53 50.32 51.23 51.23 51.66 52.36 52.26 52.07 55.39 56.09 57.08 58.62 60.42 61.36 61.97 62.25 63.25 64.03 64.30 63.90 62.97 62.92 63.26 64.42 64.91 64.60 63.98 64.05 64.18 64.26 64.50
55.18 53.83 52.81 51.70 51.44 51.01 50.00 49.40 48.68 48.48 47.89 48.24 47.47 48.25 49.06 48.61 49.73 50.40 51.14 51.28 51.01 52.71 54.48 55.77 56.95 58.25 59.33 60.37 61.17 62.54 63.29 63.95 63.14 61.92 61.94 63.31 64.13 64.40 64.00 63.58 63.80 63.98 64.21
54.04 51.69 50.62 49.47 49.47 49.06 48.26 47.86 47.98 47.07 46.91 45.53 45.71 46.34 46.27 47.03 48.00 49.38 49.11 49.71 49.58 49.78 50.70 53.19 53.68 54.79 55.95 57.27 58.90 60.56 61.08 62.73 63.18 62.27 62.27 62.66 63.19 63.63 63.84 63.64 63.52 63.56 63.82
51.78 50.12 48.42 48.38 48.46 49.28 48.75 48.20 47.14 45.23 44.29 44.11 46.00 45.80 45.09 45.66 46.54 48.73 46.49 48.04 48.50 47.84 46.61 47.82 48.49 49.51 50.90 54.05 57.08 58.44 59.61 60.83 62.21 62.71 62.53 62.14 62.24 62.60 62.68 63.04 63.22 63.29 63.50
50.87 48.95 48.98 48.67 47.76 46.59 44.85 45.34 44.86 44.74 43.67 44.33 45.78 45.65 44.81 44.84 45.71 43.29 44.38 46.62 45.90 44.96 44.30 44.03 43.93 44.78 47.66 50.52 53.26 55.62 58.03 58.85 60.44 61.27 62.37 62.04 61.73 61.96 61.59 62.38 62.25 62.09 62.86
47.49 45.86 44.82 44.62 45.05 44.50 44.49 44.97 44.13 42.91 43.01 43.13 41.85 41.57 42.47 43.61 42.38 40.63 42.47 43.35 42.19 42.99 42.34 42.21 43.14 42.42 44.21 49.25 50.84 53.67 55.71 57.54 57.58 58.80 60.52 60.89 61.08 61.04 61.44 61.23 61.15 61.40 61.16
44.91 44.92 44.23 44.23 44.20 43.71 43.33 42.43 41.52 41.10 41.81 41.88 39.71 38.84 35.87 37.87 39.56 41.07 39.73 40.60 38.51 40.23 40.27 40.79 41.30 41.54 43.93 46.24 47.45 50.63 51.54 52.60 54.81 56.11 56.04 57.48 59.03 60.08 60.77 60.36 60.07 59.74 59.79
44.41 44.28 44.33 43.94 43.35 42.86 41.26 40.65 40.50 39.50 38.55 39.93 40.16 38.65 34.35 32.33 35.32 37.73 37.84 37.87 37.85 38.29 38.57 39.18 39.90 40.62 43.73 44.75 45.46 46.56 47.22 48.08 50.12 52.64 54.31 54.80 55.55 57.91 59.59 59.97 59.18 58.64 57.76
44.47 44.67 44.02 43.04 41.99 41.54 40.18 39.77 41.40 39.22 38.58 37.11 38.45 40.42 38.22 37.40 33.34 32.48 35.44 36.46 36.73 37.46 37.60 38.02 38.44 39.76 42.88 43.07 42.99 44.81 45.83 45.96 47.12 49.74 51.67 53.01 54.71 55.42 57.31 59.46 58.61 57.25 56.74
43.97 43.73 42.72 41.15 40.25 40.79 40.37 39.69 39.22 38.53 38.23 37.28 36.62 36.60 35.62 34.61 34.24 34.52 31.46 33.84 35.34 36.93 36.84 37.33 37.48 38.53 40.91 41.70 40.80 42.26 44.67 44.32 45.10 46.98 48.37 50.29 52.22 54.24 55.21 57.86 57.84 57.02 56.26
41.62 41.69 41.52 40.55 40.22 39.77 38.85 38.31 37.76 37.12 36.71 36.50 36.72 37.90 36.80 34.54 33.94 34.67 32.92 33.72 33.77 34.93 36.28 36.85 36.87 37.20 38.15 40.21 40.38 41.80 43.53 43.82 43.38 44.20 45.55 46.86 49.89 51.94 53.27 54.69 57.25 57.77 55.86
40.40 40.69 40.30 39.06 38.66 38.64 38.27 37.64 36.64 35.90 35.51 34.86 34.16 34.51 35.16 35.08 35.83 36.97 35.14 33.01 30.69 33.42 33.98 36.45 36.17 36.53 37.58 38.10 38.08 41.06 42.16 42.87 42.37 42.34 43.30 44.43 45.52 47.75 49.28 51.23 54.12 56.11 54.90
39.96 40.08 39.74 39.11 38.48 38.19 37.57 36.77 35.94 35.54 35.30 34.87 34.09 34.24 34.33 35.41 37.48 37.00 35.67 34.31 30.63 31.41 31.67 32.00 34.63 35.72 36.68 36.99 38.13 40.58 38.06 40.97 42.07 41.42 41.87 42.19 43.27 44.15 46.34 48.68 49.02 51.46 53.40
40.67 39.90 38.93 37.99 37.84 37.76 37.60 36.78 35.72 35.09 34.61 34.33 33.91 33.64 33.72 34.49 36.10 35.04 34.09 34.20 30.58 25.10 25.28 28.39 29.69 34.50 35.58 36.52 37.35 37.18 36.36 38.51 41.75 41.61 40.88 40.48 41.42 42.28 44.05 45.60 46.06 45.95 48.93
38.44 38.04 37.55 36.99 37.12 37.66 37.17 36.70 35.89 34.79 33.67 33.57 32.42 29.48 29.19 29.86 29.57 30.27 29.74 31.57 31.45 29.61 25.22 28.24 29.52 31.89 34.23 35.79 36.69 35.22 34.27 37.51 37.82 40.55 41.03 39.53 39.55 40.46 41.12 43.04 43.53 43.21 43.58
37.61 37.11 37.35 37.50 37.37 37.02 36.28 35.72 34.41 32.93 30.65 29.82 28.76 28.53 28.84 29.76 29.18 28.71 28.72 27.89 27.13 27.40 24.43 26.65 28.98 31.25 31.35 32.39 32.44 32.20 33.85 34.15 34.92 36.58 39.03 40.10 40.13 39.22 39.04 40.35 41.94 41.25 40.98
37.64 36.81 37.56 37.00 37.02 36.40 35.28 33.30 31.81 30.46 28.97 28.47 28.17 27.58 27.37 28.98 25.69 25.85 25.90 25.70 26.01 26.40 25.46 24.68 27.82 28.58 28.86 29.91 29.90 29.96 31.65 33.23 32.98 33.97 36.80 37.20 39.03 40.06 39.15 38.70 40.05 41.18 41.20
36.74 36.34 36.51 35.88 36.05 35.81 32.24 31.68 30.46 28.67 28.30 27.78 27.29 26.96 26.57 26.00 24.77 25.11 25.26 25.23 25.85 27.49 28.34 28.00 27.37 28.03 27.76 28.54 28.73 29.29 29.10 29.83 31.40 33.58 33.78 34.96 36.53 37.28 40.09 39.80 39.74 40.26 40.01
35.95 35.68 35.21 35.37 36.67 33.65 31.14 30.64 29.71 28.19 27.04 27.01 27.51 27.18 26.54 25.97 25.13 24.94 25.62 24.74 25.92 25.54 25.46 25.28 25.87 26.20 27.15 28.65 28.04 26.91 26.44 27.98 28.12 30.57 31.97 32.46 33.30 35.12 36.96 38.39 39.95 40.31 40.16
34.83 34.97 35.26 36.28 33.56 31.64 31.02 29.55 28.22 27.21 26.79 26.48 27.13 27.38 27.48 28.28 30.66 29.40 27.56 25.97 24.25 23.85 24.41 24.41 23.81 24.34 24.83 25.39 24.79 26.73 25.21 25.58 26.25 28.04 28.48 28.90 29.58 31.50 33.42 34.54 35.61 37.76 40.05
34.22 36.12 34.95 33.12 30.48 31.92 32.87 32.69 32.09 28.77 28.41 27.55 26.24 26.61 26.29 27.51 26.64 28.17 27.56 27.32 26.32 24.11 23.94 23.60 23.53 23.33 23.97 24.89 25.90 25.41 24.49 23.59 22.95 27.80 26.65 27.14 29.97 29.23 30.72 32.13 33.57 35.52 37.11
32.33 30.96 29.92 29.77 28.23 27.80 32.14 32.08 31.33 27.08 25.33 24.63 23.77 23.70 24.04 25.39 25.23 24.61 25.36 26.32 26.42 27.19 26.68 26.34 25.20 24.79 24.90 26.17 26.50 25.18 24.20 24.43 24.33 26.67 26.63 25.82 27.51 28.28 30.48 31.57 33.84 34.93 36.32
33.89 32.44 28.74 27.07 26.57 28.24 30.92 30.48 28.93 24.39 23.31 23.52 23.25 22.97 22.95 22.99 23.72 24.30 24.79 24.89 25.29 25.89 26.54 26.51 25.78 26.08 27.08 27.87 28.13 27.89 27.05 25.69 26.81 27.68 27.91 24.11 28.85 27.54 29.87 29.74 31.80 33.35 34.12
33.25 29.96 27.57 26.75 26.90 25.95 29.06 28.96 26.90 23.66 22.61 22.09 23.24 23.54 23.47 22.90 24.80 27.25 26.58 24.52 24.28 25.05 28.07 29.42 30.12 30.19 30.10 30.06 29.68 27.94 26.18 25.54 23.11 25.13 27.24 26.94 26.60 26.03 26.74 28.52 29.73 31.76 33.30
27.84 27.77 28.09 27.74 28.64 24.32 27.10 27.73 26.46 20.44 13.53 21.34 22.57 23.33 24.20 24.32 25.72 26.23 24.36 23.71 21.93 24.34 25.11 25.86 27.25 28.10 28.70 28.33 28.83 27.69 26.28 23.80 24.26 22.81 25.66 25.46 25.57 25.93 24.23 26.70 27.55 29.46 29.93

GFSMA_sfc_wetblb_045.txt.gz
Wetbulb
65.09 64.74 64.20 62.72 61.34 61.38 60.76 60.25 59.44 58.33 57.51 56.82 56.42 56.04 55.93 55.75 55.67 56.25 57.38 56.64 56.29 57.62 59.21 60.51 61.44 61.84 62.43 62.87 63.69 64.26 64.66 64.31 63.63 63.28 63.70 64.42 64.94 65.23 64.77 64.57 64.43 64.39 64.52
62.96 62.17 60.91 60.02 59.37 58.84 58.25 57.26 56.86 56.44 55.92 55.21 54.73 54.81 54.58 54.18 54.37 54.75 55.35 56.35 54.29 55.10 56.81 58.12 59.15 59.77 60.25 60.49 60.83 61.68 62.50 64.33 64.30 63.75 63.64 63.35 63.97 64.63 64.48 64.10 63.95 64.13 64.59
61.38 60.24 58.96 57.34 56.68 56.45 56.47 56.24 55.48 55.21 54.01 52.77 52.41 53.30 53.40 53.24 53.41 53.97 54.38 55.23 55.94 52.91 51.92 52.97 53.70 54.89 55.85 57.96 59.09 59.74 60.64 62.25 63.49 63.82 63.92 63.14 63.07 63.71 64.17 63.97 63.66 63.84 64.02
58.49 56.89 55.65 53.28 55.12 54.31 53.99 52.54 52.57 50.47 51.46 51.12 51.12 52.11 51.89 52.36 52.27 53.37 53.42 53.75 53.19 52.28 51.06 49.46 50.02 50.69 51.67 53.90 55.98 58.05 59.42 59.89 60.80 62.27 63.38 63.32 62.89 62.94 63.66 63.76 63.70 63.70 63.82
55.36 54.38 52.37 53.63 53.38 52.35 52.24 51.61 51.19 50.64 49.58 49.84 49.61 50.03 51.55 50.27 51.34 51.93 50.75 50.92 50.08 49.74 49.39 48.02 47.77 47.87 49.07 51.28 53.36 55.00 57.16 58.55 59.34 60.10 61.70 62.49 62.88 62.50 62.61 63.11 63.28 63.41 63.57
54.22 53.89 52.80 52.41 52.33 51.60 50.89 50.54 49.29 48.90 48.86 48.98 46.78 48.01 48.72 49.15 51.69 50.88 49.45 49.30 48.32 48.08 47.77 47.37 47.74 47.66 47.20 49.81 51.14 52.80 54.96 56.27 57.62 58.32 58.90 59.60 61.02 61.84 61.89 62.12 61.76 63.06 62.65
52.35 52.53 51.84 51.71 51.48 50.34 49.51 49.58 48.51 47.56 47.15 48.43 45.91 45.48 46.65 50.41 50.18 49.06 48.64 47.61 46.47 46.35 46.47 45.93 45.99 46.99 47.85 47.34 48.76 51.14 52.83 53.08 53.84 55.32 56.34 56.83 57.41 58.74 60.53 61.41 61.50 61.67 62.18
51.65 51.31 51.53 50.35 50.21 49.41 48.66 47.97 47.31 45.61 45.89 47.01 43.73 43.37 41.30 43.69 47.60 47.54 47.34 46.36 45.46 45.59 44.92 44.68 45.07 46.24 46.93 46.61 46.27 47.58 49.03 49.97 50.48 51.65 53.11 53.88 55.36 56.27 57.58 59.11 60.85 60.57 60.76
50.77 50.75 50.37 49.93 49.56 49.27 47.42 46.99 46.54 45.22 43.30 45.57 45.79 43.02 39.24 38.08 40.88 44.93 44.67 44.62 44.15 43.89 44.17 44.24 44.25 44.29 46.19 45.66 44.68 45.01 45.47 46.06 47.31 49.34 50.74 52.04 53.01 54.70 55.91 57.07 59.24 60.01 59.92
49.97 49.80 49.36 49.39 49.03 48.58 46.70 46.09 46.29 45.86 44.87 42.28 44.06 45.43 44.28 41.79 35.99 35.30 41.69 42.47 43.07 42.81 43.53 43.68 43.70 44.10 44.22 44.84 44.33 43.04 43.37 45.02 44.91 46.11 47.51 48.97 50.50 52.65 54.33 55.73 56.80 59.39 59.43
49.44 48.92 48.95 48.23 47.88 47.58 46.88 45.71 45.26 44.49 44.33 42.59 41.90 41.02 39.67 40.56 40.42 36.59 34.42 37.55 40.67 42.10 42.94 42.79 43.15 43.53 43.54 43.91 44.13 42.95 42.70 43.73 44.04 44.12 45.16 46.39 48.01 49.67 52.47 54.27 55.80 57.41 59.02
49.12 48.45 47.65 47.77 47.28 46.49 45.77 45.41 44.87 43.79 43.55 43.02 42.73 41.95 40.06 38.14 37.45 36.19 34.52 36.04 36.76 39.49 41.27 41.98 42.43 42.65 43.29 43.33 42.35 41.48 42.22 42.78 43.17 43.42 43.89 44.39 45.67 47.03 49.09 50.99 53.63 54.89 57.39
47.39 48.20 47.89 47.27 46.27 45.76 45.27 44.56 43.99 43.55 43.30 42.47 42.51 41.76 41.84 41.01 41.01 39.27 36.78 34.29 34.01 38.30 39.01 40.42 41.27 41.80 41.34 42.07 42.19 41.39 41.51 40.87 41.84 43.10 43.03 42.92 43.32 44.60 46.25 48.08 51.30 52.76 54.56
47.86 48.47 47.62 46.68 45.55 45.22 44.82 44.48 43.99 43.99 43.64 43.38 42.53 42.14 41.43 41.33 41.04 38.19 36.17 34.22 32.39 33.89 35.82 35.37 39.73 39.72 40.30 40.89 40.79 41.29 41.12 40.63 39.89 41.93 42.53 42.10 42.14 42.44 43.50 45.88 47.88 48.89 52.35
46.46 46.58 46.26 45.53 45.59 45.33 45.09 44.76 44.18 43.45 43.07 42.60 41.66 41.09 40.37 40.52 39.82 38.17 38.22 36.28 32.63 29.07 30.47 35.13 35.12 38.85 38.93 39.31 39.31 40.60 40.42 40.36 39.18 39.40 40.44 41.61 41.52 41.26 41.57 43.69 44.60 46.58 46.88
45.53 45.16 45.04 44.76 44.44 44.10 44.22 44.04 43.38 42.54 41.28 41.18 39.60 37.18 36.83 37.00 36.55 36.85 36.11 35.45 34.61 31.88 29.04 33.45 34.26 35.73 36.71 36.70 37.59 38.11 38.62 39.17 38.54 38.23 38.30 39.35 40.52 41.28 40.56 41.48 42.78 43.31 44.57
44.78 44.45 44.45 43.62 42.92 43.02 43.42 42.02 40.70 39.81 37.27 36.72 36.70 35.38 35.13 35.60 34.66 34.38 33.97 33.22 31.98 31.58 28.16 30.81 33.52 34.97 34.85 35.12 36.13 37.70 38.65 38.87 39.18 37.34 36.90 36.81 37.94 39.55 40.31 39.69 40.93 41.70 41.88
44.31 44.20 43.80 42.24 42.14 41.92 41.50 39.16 38.08 37.00 35.49 34.17 34.42 34.37 33.86 33.52 33.02 32.88 32.21 31.25 30.84 31.25 29.06 27.04 30.68 31.79 32.98 34.36 34.88 35.29 36.09 37.46 37.77 37.07 35.48 35.56 35.80 36.38 38.65 39.28 39.79 39.95 40.86
42.06 42.34 41.65 41.27 40.69 39.74 37.48 36.44 35.77 34.42 34.08 33.58 33.53 32.85 32.59 32.35 31.54 31.82 31.33 30.61 30.71 30.57 30.10 27.62 28.00 30.75 30.92 31.63 31.70 33.57 34.82 35.95 36.50 35.74 35.07 34.99 34.73 35.47 35.79 37.83 39.62 39.44 39.55
40.92 40.82 40.38 40.05 39.68 37.27 35.33 34.30 34.47 33.94 33.18 32.98 33.16 32.85 32.46 31.79 31.24 30.80 29.92 29.31 29.15 27.79 27.61 26.79 27.23 27.86 28.89 30.83 30.29 29.11 29.42 32.93 33.78 35.44 34.63 34.07 33.92 34.39 34.72 35.94 38.06 39.95 39.90
40.13 39.93 39.11 37.33 35.78 35.46 35.04 34.83 33.80 33.43 33.18 32.72 32.65 31.89 31.63 30.96 29.85 29.30 28.77 28.37 28.20 26.40 25.66 25.14 24.93 25.87 26.07 26.82 26.36 28.70 27.68 29.17 31.85 33.97 33.41 34.48 35.03 35.81 36.35 35.26 36.49 37.04 40.08
38.48 37.82 36.73 35.73 35.71 35.57 32.87 32.98 33.09 33.22 31.90 30.16 28.72 28.95 28.99 27.90 28.01 27.17 26.65 26.86 26.95 24.89 24.34 24.65 24.93 24.64 25.68 26.46 27.45 27.04 26.93 26.41 25.74 33.26 32.22 32.21 35.34 34.23 35.63 36.97 36.08 34.55 35.61
37.76 36.80 35.99 35.50 34.37 33.98 32.11 32.09 29.87 31.22 29.37 28.49 27.55 27.05 26.89 27.24 26.88 26.96 26.46 26.62 27.26 27.68 27.31 27.79 26.16 26.45 25.72 27.52 27.87 27.73 27.45 27.10 26.77 29.93 30.81 28.96 33.54 32.63 35.48 35.31 33.80 34.39 35.06
38.11 36.90 36.62 33.98 32.94 32.38 30.52 30.18 28.32 29.77 28.73 27.72 27.26 26.98 26.39 26.32 26.65 25.57 26.78 27.95 26.98 27.79 28.13 28.02 28.93 29.28 29.59 29.89 29.46 29.04 28.86 28.92 29.39 30.34 30.79 24.77 31.98 31.90 35.06 35.91 33.77 33.58 33.80
35.36 34.72 33.87 32.37 31.59 31.20 28.68 28.68 28.28 28.97 27.50 26.78 26.91 27.09 26.46 25.80 25.61 26.78 26.35 25.23 25.14 25.94 28.27 28.51 28.68 29.23 30.18 30.53 31.35 30.52 28.63 26.68 25.82 27.74 31.03 28.27 29.67 31.31 33.08 34.07 35.98 33.23 33.14
33.12 33.38 31.54 31.69 30.07 30.17 27.26 27.80 28.27 28.60 26.62 26.47 26.92 26.62 25.24 25.05 25.10 25.71 25.53 25.04 22.86 24.44 25.28 26.01 27.31 28.53 29.62 31.19 29.98 30.53 29.61 26.25 25.84 26.65 31.10 27.96 29.69 30.10 29.07 34.81 35.58 36.71 36.63

GFSMA_sfc_wetblb_048.txt.gz
Wetbulb
68.26 67.35 66.63 66.57 65.67 65.09 64.54 64.20 64.01 62.39 61.73 60.66 59.99 59.43 58.79 58.87 58.50 58.46 58.40 57.19 55.74 57.15 58.62 59.62 60.70 61.03 61.20 61.18 60.93 61.24 62.17 62.60 63.31 63.88 63.97 64.08 64.24 64.89 65.05 64.76 64.54 64.60 64.75
65.09 63.98 63.63 64.46 65.07 63.33 62.35 61.61 60.25 60.07 59.75 59.11 58.57 58.38 58.04 58.18 57.86 57.74 57.60 57.99 55.20 54.89 54.73 55.32 56.14 56.87 57.61 58.01 58.67 59.72 60.62 61.17 61.94 62.67 64.27 63.89 63.53 63.72 64.27 64.56 64.21 64.05 64.38
64.89 63.65 63.81 62.80 60.18 60.60 60.11 60.51 59.21 58.76 57.68 56.80 56.39 56.19 57.38 57.55 56.74 56.54 56.67 56.85 56.67 52.28 51.16 51.65 52.47 53.05 53.79 54.93 56.32 57.54 58.69 59.57 60.40 61.08 61.83 63.82 63.60 63.45 63.55 63.90 63.98 63.99 64.12
61.32 60.37 60.01 57.46 58.38 58.02 57.76 57.18 56.58 55.72 55.68 55.42 55.25 55.38 55.21 55.54 55.49 54.69 55.19 55.48 55.25 54.48 53.43 49.98 49.80 50.30 50.91 52.44 54.00 55.59 56.87 57.60 58.63 59.74 60.26 61.36 62.76 62.88 63.17 63.30 63.80 63.85 63.81
58.18 57.07 57.06 57.17 57.38 57.64 56.71 55.74 55.26 54.29 53.00 52.78 52.44 51.57 51.60 52.46 51.75 51.64 53.17 53.52 53.50 53.21 52.81 51.98 48.90 48.98 48.30 50.24 52.00 53.44 54.71 56.13 57.11 57.38 58.61 59.30 59.85 60.52 61.82 62.32 63.04 63.17 63.21
57.62 57.86 57.16 56.69 56.77 56.10 55.23 53.99 52.73 52.63 51.58 50.72 49.77 48.81 51.03 51.10 51.31 52.57 52.49 52.53 52.28 51.27 51.09 50.49 50.30 50.34 47.56 48.15 49.43 51.41 53.03 54.41 54.39 55.37 55.93 56.88 57.44 58.20 58.67 60.34 61.99 62.65 62.47
56.60 57.05 56.98 56.50 55.81 54.30 53.14 52.23 51.12 49.90 49.01 50.20 48.16 48.04 48.85 50.36 52.36 51.99 51.90 50.72 50.27 50.15 49.95 49.25 48.88 48.95 49.84 48.29 47.05 48.92 50.66 51.41 51.76 51.83 52.76 53.52 54.49 55.46 56.64 57.83 59.61 61.58 62.14
56.06 55.91 55.97 55.16 53.81 52.00 51.48 50.68 49.74 48.12 48.07 48.99 46.35 45.86 43.25 45.88 48.75 50.77 50.67 49.52 48.87 48.82 48.23 48.16 48.01 47.75 48.06 49.06 48.31 45.94 46.60 48.06 49.08 49.58 50.24 51.15 52.09 52.97 54.23 56.15 57.54 58.87 61.08
55.38 55.33 54.47 53.53 52.21 51.37 49.28 49.41 48.88 47.53 45.41 47.08 47.96 45.01 41.65 40.35 43.40 46.36 47.37 47.26 47.57 47.07 47.44 47.35 47.19 47.05 47.38 47.66 47.52 46.91 43.93 44.46 46.43 47.13 47.87 48.23 49.43 50.39 51.87 53.91 55.48 57.14 58.53
55.07 54.12 52.81 52.21 51.21 50.72 49.39 48.63 47.88 47.74 46.72 44.24 45.59 46.09 46.27 44.06 38.99 37.67 43.51 44.26 45.45 44.97 45.83 46.20 46.55 46.65 46.82 46.46 45.88 45.99 42.75 43.35 44.39 45.61 46.20 46.80 47.40 48.68 49.76 51.53 53.80 55.83 57.17
53.14 52.00 51.52 51.11 50.74 50.02 49.49 48.80 48.00 47.30 46.59 44.80 44.10 43.95 43.83 43.38 43.18 37.82 36.25 39.62 42.84 44.28 45.04 45.17 45.36 45.63 45.61 45.61 46.11 45.92 42.27 43.28 42.63 43.23 44.68 45.28 45.66 46.33 47.69 49.04 50.88 52.82 55.21
51.33 51.11 50.85 50.98 50.84 50.12 49.27 48.46 48.14 47.21 46.26 45.61 44.91 43.78 40.92 38.13 37.46 37.01 37.79 37.76 37.44 40.64 42.82 42.96 42.99 42.37 43.96 44.19 44.11 42.54 42.64 42.37 42.35 41.97 42.59 43.91 44.32 44.73 45.29 46.67 48.52 50.53 53.32
49.28 49.95 50.47 50.37 49.97 49.74 49.22 48.40 47.33 46.35 45.67 44.75 44.30 42.97 42.91 41.70 40.87 39.48 37.56 36.25 35.66 38.79 39.23 41.73 43.13 43.25 42.74 43.17 43.14 42.85 41.89 41.17 41.76 41.03 41.39 41.96 42.88 43.25 43.97 44.18 45.91 48.31 50.94
49.20 50.09 50.22 50.13 49.78 49.18 48.62 47.81 46.77 46.02 45.89 45.20 44.06 43.04 42.11 41.91 41.07 40.03 38.25 36.28 33.88 35.36 37.41 37.91 41.32 41.70 42.22 41.85 41.84 41.02 41.31 40.72 41.87 40.32 39.98 40.39 41.05 41.88 42.68 42.93 43.48 45.21 48.24
49.11 49.20 49.39 48.98 49.07 48.42 47.89 47.28 46.00 45.18 45.11 44.77 43.25 43.28 41.68 41.51 40.38 40.29 39.40 38.08 34.51 30.70 32.29 36.44 36.50 40.33 40.50 40.78 40.54 40.72 40.15 39.61 39.96 40.24 39.57 39.02 39.29 40.07 41.42 42.20 42.29 42.65 44.84
47.89 47.62 47.61 47.36 47.12 47.16 46.82 46.21 44.98 44.64 43.72 43.52 42.49 40.98 40.36 39.62 39.48 39.33 38.60 37.89 36.90 34.06 30.55 35.53 36.27 37.97 38.97 38.53 39.54 39.80 39.49 39.64 38.76 39.14 39.32 38.02 38.40 38.85 39.08 41.14 41.39 41.63 42.75
45.17 44.64 44.71 45.22 45.42 45.37 45.49 44.93 44.33 43.09 41.09 41.29 40.84 39.54 38.55 39.08 38.17 38.02 37.86 37.09 35.58 35.12 31.60 33.91 35.95 37.20 36.87 37.09 37.59 38.12 38.95 39.16 39.71 39.44 39.04 37.06 36.64 37.38 37.49 37.86 40.52 40.52 41.55
44.60 44.04 44.39 44.35 44.29 44.39 44.40 42.63 41.42 40.67 39.02 38.74 38.78 38.22 37.49 37.37 37.04 37.13 36.54 35.52 35.06 35.22 32.95 30.50 33.85 34.23 34.30 35.95 36.09 35.58 35.83 37.30 37.99 38.38 37.20 35.16 35.71 36.26 36.42 37.47 38.39 40.00 40.28
43.71 43.77 43.88 43.22 43.07 42.81 41.96 40.99 39.42 38.37 37.81 38.13 37.98 37.23 36.87 36.35 35.49 35.85 35.49 34.33 34.17 33.77 33.05 30.41 30.48 32.45 32.86 34.03 33.60 34.18 34.02 35.29 36.80 37.75 37.50 36.26 36.70 36.08 35.75 35.67 36.55 38.66 39.96
43.05 43.07 43.11 42.03 40.23 39.32 38.57 37.34 37.94 37.90 37.90 37.48 37.57 37.17 36.25 35.29 34.69 34.12 32.90 32.73 32.69 31.94 30.98 28.91 28.97 28.50 30.68 31.72 31.79 30.92 31.34 33.95 34.02 35.95 36.78 35.95 35.37 36.40 36.28 35.32 35.67 36.34 39.24
42.61 42.33 40.99 40.15 39.95 39.22 38.69 37.96 38.06 37.60 37.31 36.80 36.64 35.35 34.86 32.89 29.94 29.65 29.74 30.49 30.26 28.95 27.70 26.76 26.28 27.07 28.08 29.24 29.02 31.37 30.47 31.61 33.16 33.88 33.50 35.13 36.24 37.29 38.34 37.38 36.50 37.16 37.81
42.04 41.52 40.56 39.89 39.13 38.78 32.55 32.85 33.03 36.93 36.19 34.85 33.40 33.62 33.53 31.62 31.05 28.37 28.29 27.56 27.87 26.77 25.63 25.25 25.96 25.63 28.23 28.63 29.59 29.54 30.14 29.08 27.77 34.79 32.69 32.07 35.56 35.44 36.54 38.67 35.64 34.71 34.62
40.51 39.38 38.84 39.02 38.01 38.37 32.51 32.08 30.12 34.91 34.36 33.57 32.71 32.15 31.33 31.44 30.69 30.91 28.84 27.65 28.37 28.91 28.26 29.52 27.20 27.39 28.11 29.82 29.97 29.23 28.91 28.66 28.92 31.61 32.21 31.07 34.30 33.10 35.34 36.50 35.37 34.25 34.73
38.91 36.99 36.82 37.80 38.05 36.51 31.29 30.56 29.19 34.13 33.73 33.02 32.36 31.56 31.01 30.49 30.30 27.63 26.60 27.62 28.02 28.92 28.79 28.67 29.31 29.42 29.77 30.36 30.43 30.23 30.80 30.74 31.63 31.96 32.81 28.11 32.20 31.91 35.17 36.91 35.76 34.70 34.61
37.93 37.34 36.20 36.92 36.20 35.54 29.81 29.73 29.17 33.22 32.31 31.34 31.70 31.69 30.22 29.29 27.23 26.02 26.13 25.73 26.44 27.49 29.18 28.84 28.66 28.85 29.14 29.58 30.69 32.06 29.15 28.10 27.87 29.06 32.55 30.96 31.27 31.24 33.49 35.10 37.16 35.51 34.71
36.48 37.43 36.56 36.70 33.21 34.78 29.17 28.60 29.23 32.33 29.96 30.06 31.01 30.91 28.91 26.82 24.68 25.00 25.20 25.16 23.76 25.65 26.06 26.30 27.42 28.86 29.75 31.25 30.37 32.55 31.36 28.33 27.78 27.85 31.67 30.75 30.49 31.58 29.52 35.11 36.45 37.82 37.83

GFSMA_sfc_wetblb_051.txt.gz
Wetbulb
66.91 67.47 67.71 66.06 64.82 64.76 64.18 63.75 63.47 62.69 62.20 62.09 61.09 60.43 60.07 60.22 60.39 59.72 59.65 57.59 57.23 57.07 57.26 57.97 58.70 59.10 58.84 58.76 58.95 59.72 60.73 61.51 62.00 62.49 63.43 64.30 64.16 64.05 64.02 64.31 64.55 64.46 64.55
66.83 66.26 65.67 64.88 64.19 63.25 62.56 62.02 60.92 60.35 59.98 60.60 59.44 59.55 59.03 59.19 59.34 59.18 58.42 58.71 56.43 55.90 55.07 54.40 54.96 55.79 56.29 56.51 56.72 57.40 58.56 59.29 60.33 60.85 61.48 62.42 63.26 63.86 63.42 63.58 63.85 64.13 64.35
64.97 64.40 63.57 62.13 61.07 60.59 60.65 59.59 59.26 59.08 58.20 58.54 58.06 58.00 57.93 58.01 57.23 57.32 57.20 56.83 56.65 53.92 53.06 52.21 51.92 52.47 52.91 53.80 54.83 55.76 56.42 57.06 58.18 58.58 59.97 60.84 61.53 62.03 63.12 63.14 63.30 63.52 64.00
62.12 61.74 59.90 58.77 58.69 57.83 57.17 57.78 57.19 56.49 55.95 55.53 54.97 55.01 54.84 54.08 54.37 55.05 54.14 54.11 55.12 54.74 52.50 50.90 49.99 50.53 50.44 51.04 52.73 53.92 54.76 55.49 56.70 57.18 57.06 58.56 59.57 60.17 60.90 61.75 62.79 63.32 63.56
59.07 58.94 58.27 58.16 58.42 57.54 57.27 56.40 55.25 54.51 52.90 52.51 51.97 52.18 52.88 51.45 53.24 52.39 52.40 53.72 54.40 53.83 53.07 53.95 50.77 51.92 48.54 49.28 50.80 52.27 53.60 54.13 54.85 55.14 55.19 55.82 56.84 57.52 58.04 59.32 60.09 62.27 63.16
58.63 58.33 57.98 57.68 57.44 56.35 55.80 54.71 53.39 52.62 51.25 50.50 49.65 49.99 51.71 51.47 51.93 51.85 53.00 53.07 53.15 52.54 51.81 51.32 50.52 50.38 50.85 47.92 48.57 49.46 51.35 52.49 52.33 52.52 52.58 53.17 53.93 54.73 55.51 56.60 58.02 59.52 61.72
58.00 58.02 57.49 56.97 56.56 54.55 53.99 53.44 51.61 50.28 49.27 49.97 47.92 47.98 48.84 51.25 52.28 52.14 52.29 52.05 51.22 51.00 50.61 49.88 49.42 48.89 48.79 50.70 49.15 47.78 48.20 48.98 50.24 50.28 50.44 50.58 51.33 51.86 52.77 53.75 55.67 57.59 58.92
57.22 56.89 56.87 55.73 54.95 53.24 52.24 51.49 50.54 48.47 48.42 48.91 45.50 44.94 42.49 44.67 47.71 49.51 49.83 50.14 50.98 49.83 48.92 48.65 48.75 48.31 48.12 47.77 48.69 48.05 45.92 46.16 47.02 48.29 48.61 48.66 49.06 49.61 50.51 51.63 53.06 54.65 56.67
56.60 56.38 55.47 54.26 53.10 52.00 50.12 50.40 49.79 48.00 45.51 46.81 47.68 44.02 40.04 38.88 42.69 45.85 46.46 47.26 48.31 47.27 47.26 47.09 47.22 47.31 47.34 47.25 47.92 47.50 44.20 43.96 44.74 46.08 46.76 47.30 47.73 48.15 48.74 49.88 50.98 52.41 54.67
55.62 54.42 53.41 52.63 52.22 51.44 50.48 50.11 49.23 48.56 47.31 44.24 45.60 45.80 46.12 44.49 39.12 37.82 43.61 44.25 45.78 45.61 46.69 46.57 46.71 46.43 46.93 46.19 47.14 44.99 42.69 42.31 42.58 43.77 44.55 45.68 46.60 47.00 47.13 47.80 48.77 49.87 51.80
54.45 52.98 52.30 51.75 51.63 51.08 50.67 50.03 49.18 48.15 47.19 45.26 44.21 43.87 43.51 43.42 43.22 39.67 36.56 39.35 42.63 43.57 44.89 45.61 45.56 45.28 45.27 45.32 45.12 44.94 42.87 42.37 41.35 42.26 43.08 43.73 44.84 45.72 45.92 46.18 46.83 47.68 49.32
51.90 51.89 51.43 51.80 51.39 50.76 50.24 49.50 49.31 47.78 46.91 45.50 44.95 44.00 42.56 40.46 39.49 39.27 37.83 38.02 38.30 40.50 42.52 43.28 43.76 44.19 45.11 44.45 44.74 44.88 43.92 42.97 41.62 41.31 42.08 43.01 43.31 43.83 44.82 45.37 45.65 46.35 47.24
50.00 50.54 50.96 50.28 49.56 49.70 49.65 49.38 48.63 47.53 46.52 45.07 44.59 43.58 43.43 42.31 42.22 40.04 38.61 37.17 35.57 38.54 39.61 42.67 43.17 43.40 42.84 43.86 43.41 44.07 43.43 42.29 42.08 41.87 41.57 42.11 41.90 42.15 42.78 43.48 44.60 45.10 45.55
50.12 50.86 50.02 49.51 49.19 49.25 49.81 48.53 47.77 47.31 46.46 46.18 44.61 44.21 43.03 42.53 41.62 40.80 37.98 36.86 34.39 34.82 37.08 37.24 41.76 42.47 42.74 42.84 42.78 42.78 41.51 42.03 41.30 41.35 40.56 40.12 40.86 40.74 41.01 41.17 42.33 43.45 44.05
49.03 48.65 48.62 48.08 47.78 47.61 47.41 47.70 46.64 45.96 45.47 44.69 44.51 43.92 42.63 42.05 41.62 40.64 39.31 38.02 35.62 31.28 31.66 36.63 37.47 40.38 41.33 41.57 41.70 41.78 41.48 40.83 40.72 40.13 39.62 39.98 39.66 40.16 39.77 39.86 40.32 41.51 42.43
47.01 46.25 45.83 45.65 45.46 45.75 46.18 45.92 45.67 45.51 44.46 43.93 43.29 42.45 41.68 41.18 40.27 39.48 38.80 38.41 37.83 35.33 31.94 36.05 36.93 39.01 40.10 38.80 40.11 40.52 40.40 40.69 39.64 39.79 39.52 39.59 40.30 39.56 38.69 38.54 38.99 39.87 41.55
45.72 44.98 44.72 44.67 44.76 44.66 44.97 44.57 44.39 43.52 42.14 42.12 42.36 41.05 40.14 40.34 38.47 38.47 38.42 38.34 36.88 36.56 32.55 34.85 37.29 38.66 38.16 38.17 38.30 39.17 39.45 39.18 39.40 38.67 39.08 39.62 39.47 38.18 37.09 37.14 36.91 37.65 38.72
45.44 44.76 44.46 44.25 44.04 43.78 43.94 42.85 42.09 42.36 40.70 39.00 39.49 39.52 38.17 38.14 37.83 37.74 37.81 36.25 36.30 36.37 34.22 31.66 34.61 35.33 34.60 36.63 36.54 36.25 36.26 36.58 37.30 37.27 37.70 38.21 37.05 37.29 37.46 37.24 36.75 37.62 37.86
44.62 44.37 44.20 43.59 43.39 43.33 42.67 41.94 41.09 40.46 39.73 39.19 38.61 37.96 37.28 37.01 35.82 36.04 35.90 35.35 35.18 34.48 34.52 33.06 32.31 33.75 33.67 34.86 33.66 34.64 34.64 35.34 36.07 37.28 36.84 37.03 37.29 37.92 37.90 37.23 37.00 36.87 37.08
43.90 43.66 43.66 43.19 41.36 40.28 40.95 40.21 39.09 38.14 37.99 38.06 38.33 38.12 37.26 36.05 34.78 33.59 32.20 31.86 31.95 31.34 31.64 31.24 30.77 30.07 30.71 32.06 32.81 31.23 31.06 33.69 33.47 35.26 36.28 35.99 36.84 37.59 37.44 37.44 37.21 36.76 36.74
43.60 43.61 42.98 41.73 40.64 39.83 39.29 38.81 38.95 38.40 37.59 37.37 37.55 36.81 36.38 34.01 31.77 31.01 30.01 30.11 29.74 28.62 27.96 27.19 26.57 27.29 27.74 28.57 28.79 30.97 29.41 30.71 32.70 33.59 33.71 35.12 35.94 36.44 37.40 37.60 37.57 37.42 37.26
43.08 42.95 41.33 40.18 39.66 39.16 33.21 33.68 33.24 36.80 36.64 35.98 34.84 35.08 35.20 34.47 33.45 31.44 30.99 30.23 28.56 26.91 25.81 26.63 26.39 25.91 27.25 28.63 30.65 30.02 29.92 28.45 27.19 34.62 32.64 32.47 35.11 34.39 36.03 37.79 35.76 35.76 35.65
42.34 41.06 39.71 39.35 38.85 39.82 33.88 33.13 31.20 34.71 35.25 35.36 34.62 33.88 33.29 33.54 32.52 31.93 30.36 29.55 29.22 29.76 28.93 29.15 27.30 27.08 27.23 29.61 28.94 28.18 28.22 28.42 28.29 31.93 31.82 30.44 34.10 32.83 35.68 35.96 36.87 35.60 35.07
40.95 39.46 38.92 39.29 37.26 38.03 33.17 31.89 30.54 33.71 35.13 34.93 34.37 33.70 32.90 32.35 30.97 28.00 27.64 26.95 27.33 27.91 29.33 29.57 29.06 28.83 28.96 29.43 29.12 28.83 29.57 30.04 31.12 32.32 33.16 28.07 32.93 32.00 34.74 35.92 36.13 36.54 35.65
39.79 38.02 38.18 38.29 37.81 36.75 31.64 31.06 30.23 33.52 33.57 32.75 32.90 33.40 32.58 31.02 27.98 26.63 25.41 24.90 25.42 26.86 29.54 29.51 29.09 28.93 29.16 29.54 30.03 30.31 28.51 28.44 28.18 29.66 32.94 30.55 31.59 31.34 33.46 34.47 36.61 36.51 36.30
38.96 37.65 36.59 37.12 33.60 36.09 31.20 30.63 30.21 32.74 33.03 30.00 31.93 32.10 29.42 27.67 25.22 24.96 24.44 24.40 23.23 24.90 25.09 25.50 26.85 28.41 29.55 30.27 30.61 30.86 30.78 28.38 28.22 27.90 32.12 29.38 30.36 30.74 29.03 34.80 36.07 37.46 37.62

GFSMA_sfc_wetblb_054.txt.gz
Wetbulb
63.91 64.13 64.35 64.00 63.31 62.48 60.92 59.80 59.34 58.98 58.14 58.20 58.20 57.78 57.20 56.34 56.70 56.27 55.94 57.90 58.17 57.52 57.23 57.42 57.45 57.14 57.26 57.01 57.08 57.62 58.46 59.17 59.95 60.80 61.37 62.20 62.96 63.16 63.64 63.16 63.29 63.53 63.97
64.66 63.95 63.33 62.67 60.62 59.80 59.26 57.98 58.20 56.27 56.05 56.59 56.57 57.08 56.70 56.37 55.51 54.94 54.17 54.19 57.13 56.86 55.96 55.51 55.15 55.04 54.93 54.63 54.81 55.70 56.35 56.98 57.79 58.82 59.06 60.33 61.00 61.70 62.39 63.01 62.94 62.90 63.36
62.85 61.67 59.26 57.94 57.45 57.58 55.85 55.66 55.19 55.28 54.31 54.43 52.71 52.81 52.58 52.31 50.87 51.33 51.18 51.92 52.36 55.39 54.13 52.95 52.31 52.56 52.60 52.62 52.95 53.39 54.30 55.00 56.03 56.84 57.83 57.90 58.64 59.13 59.78 60.38 61.62 62.83 63.14
60.03 59.15 57.86 56.02 56.17 55.36 54.67 54.06 53.25 51.56 50.85 49.97 49.26 49.14 49.48 49.46 49.14 49.42 50.25 49.54 50.36 52.04 52.11 51.86 51.15 52.14 52.15 50.85 52.01 52.50 53.56 54.11 54.32 55.05 55.03 55.25 56.10 56.98 57.40 57.98 58.81 59.96 61.41
58.25 56.73 56.29 55.96 56.02 54.83 54.54 52.62 51.04 49.88 47.75 47.26 47.24 46.31 47.36 47.25 48.23 49.80 48.93 49.83 50.40 50.12 49.72 53.72 53.56 52.69 50.01 49.50 51.22 51.15 51.94 52.65 52.55 52.57 52.50 52.40 52.77 54.23 55.40 55.74 56.58 57.77 59.00
57.67 56.67 55.93 54.93 54.92 53.29 52.37 51.08 49.33 48.46 47.14 46.18 47.59 46.49 45.63 46.73 46.85 47.18 47.98 50.42 49.41 49.97 49.31 47.93 46.24 46.69 51.75 50.23 50.49 49.40 50.19 50.49 50.53 50.85 50.91 50.99 50.83 50.97 51.58 52.39 53.44 55.17 56.68
56.69 55.94 55.34 54.43 53.55 51.63 50.26 49.37 47.55 46.05 45.16 45.69 42.93 42.79 42.96 44.26 43.91 44.86 44.71 44.75 46.25 48.37 48.99 48.07 47.00 45.10 44.75 50.72 48.60 48.50 48.20 48.98 49.19 48.92 48.91 49.16 49.30 49.48 49.84 50.60 51.63 52.21 54.50
55.62 55.42 54.19 52.53 51.81 49.85 48.92 48.16 46.57 44.71 43.89 44.65 41.26 40.72 37.36 39.62 42.10 43.79 43.43 43.99 43.52 43.73 45.14 45.18 44.39 44.41 43.41 43.39 45.75 49.16 46.85 47.23 47.54 47.61 47.24 47.04 47.73 48.25 48.65 48.97 49.82 50.78 51.78
55.35 53.86 52.87 51.47 49.76 48.66 46.95 46.62 45.88 44.57 41.65 42.84 43.51 39.53 36.36 34.17 38.39 40.89 41.70 41.64 41.51 41.03 43.26 43.96 43.13 43.50 43.81 44.20 44.29 45.55 43.99 43.26 44.46 45.89 46.00 45.75 46.11 46.77 47.42 47.89 48.27 48.82 49.88
53.91 53.02 51.45 49.90 49.13 48.63 47.28 46.69 46.37 44.48 43.19 40.79 41.74 44.22 41.13 39.34 35.51 34.33 38.59 40.62 40.67 41.24 40.01 40.16 41.76 43.03 42.58 41.94 45.10 45.05 44.44 42.98 41.71 42.73 44.19 45.17 45.40 45.61 46.07 46.75 47.22 47.69 48.11
53.48 52.23 50.69 49.65 48.39 48.45 47.65 46.99 46.82 45.28 43.50 41.49 40.44 39.55 39.06 38.90 38.63 35.93 33.09 35.17 38.52 39.07 39.62 39.23 38.79 38.76 40.29 40.51 39.99 43.25 44.66 43.48 41.80 41.69 42.80 43.62 44.35 44.71 44.93 45.59 46.25 46.71 47.18
49.88 49.76 49.82 48.96 48.46 47.66 46.94 47.12 45.17 44.55 43.65 42.59 41.65 40.72 39.33 37.70 36.78 35.72 34.03 33.41 33.60 36.01 37.16 37.46 37.29 37.84 38.99 39.87 43.98 45.30 44.53 42.35 42.33 41.89 42.26 42.06 42.77 43.53 43.95 44.39 45.08 45.65 46.11
47.90 47.93 48.35 47.36 46.59 46.48 46.28 46.18 45.44 44.05 43.56 41.87 40.99 40.56 40.68 39.74 39.69 38.58 36.55 33.08 31.73 33.41 33.85 35.71 36.44 36.87 39.56 38.56 40.74 43.75 44.31 43.40 43.21 43.07 41.09 41.12 40.95 41.52 42.14 42.82 43.58 44.11 44.45
47.78 48.39 47.28 46.62 46.05 46.05 45.23 44.65 44.64 43.75 43.45 42.03 41.86 40.77 40.77 40.72 39.52 38.23 35.90 31.64 27.97 30.77 32.30 32.04 34.71 35.84 35.66 35.96 39.05 43.00 39.75 41.56 41.74 42.00 41.78 40.62 40.46 40.67 40.69 40.98 41.70 42.16 42.55
46.57 45.18 44.50 44.11 43.78 43.60 43.60 43.26 42.03 42.81 41.65 40.96 40.27 40.66 40.19 40.17 39.53 37.95 36.09 34.51 30.47 26.67 28.28 31.65 31.26 34.29 34.95 35.06 36.99 36.23 35.30 39.84 41.39 40.40 40.35 40.83 40.76 40.73 40.71 40.86 40.85 40.82 40.90
44.84 43.91 43.15 42.87 42.67 42.68 42.57 41.87 40.91 41.75 40.61 40.47 40.51 39.20 38.19 38.16 37.34 36.76 34.28 33.98 32.81 30.43 27.54 31.18 32.16 32.62 34.34 36.78 37.32 35.01 35.32 39.59 39.10 39.72 39.54 39.46 40.21 39.92 40.87 40.31 40.09 39.61 39.41
43.61 43.13 42.98 42.46 42.23 41.88 41.79 40.95 40.91 40.18 39.35 38.89 37.59 37.49 37.23 37.50 35.95 34.85 34.41 33.53 32.53 32.35 28.45 30.61 32.52 33.11 31.75 31.75 32.71 33.32 34.75 33.65 34.11 37.77 38.49 38.44 38.62 38.64 39.05 39.60 38.99 38.32 38.20
43.65 42.93 42.88 42.55 42.30 41.93 41.52 40.29 39.07 38.77 37.95 36.41 36.85 36.94 36.11 37.78 34.84 33.94 32.85 31.81 30.49 30.36 28.44 26.08 29.11 30.05 29.85 30.62 30.21 30.25 33.05 34.53 33.40 36.34 37.18 37.79 37.95 37.92 38.13 38.04 37.91 38.06 37.83
42.58 42.32 42.32 41.67 41.47 40.09 38.96 38.66 37.87 37.87 36.59 37.35 37.24 36.12 35.48 33.93 32.43 31.52 29.40 28.39 28.34 30.29 28.48 26.71 26.04 28.79 28.64 28.54 28.22 29.21 30.23 30.48 33.94 36.47 36.65 37.04 37.39 37.48 37.52 37.78 37.86 37.74 37.51
42.00 41.74 41.96 41.79 40.67 38.58 39.04 38.50 38.37 37.24 35.70 35.64 36.27 35.75 35.41 33.75 29.14 27.86 28.00 25.70 27.44 25.61 25.83 24.98 24.80 25.38 25.97 27.43 27.69 26.76 27.06 28.79 29.01 33.32 34.70 34.68 36.05 36.82 37.11 37.68 37.74 37.75 37.72
42.11 42.08 41.37 40.13 39.72 39.18 39.36 36.49 36.85 34.67 35.52 35.10 35.81 35.31 33.49 32.62 33.98 29.23 27.34 25.07 25.14 24.09 23.92 23.04 22.84 23.81 24.18 25.01 25.12 27.00 26.41 27.63 28.29 29.57 29.92 30.46 31.22 32.34 32.98 35.75 36.78 37.89 38.13
41.43 41.21 39.94 38.91 38.11 39.14 35.20 34.54 33.28 32.70 33.76 33.16 31.65 31.38 31.47 33.50 31.45 31.33 31.58 30.51 28.20 23.21 22.80 22.73 23.19 23.61 24.39 24.46 26.49 27.81 26.26 24.20 22.34 28.57 27.98 27.55 30.09 30.06 32.20 33.41 36.26 35.66 35.73
40.37 39.80 38.00 37.62 37.09 37.47 34.97 33.75 31.92 31.41 31.10 30.95 30.26 29.66 30.46 32.70 30.18 27.58 28.68 28.74 27.26 28.74 27.73 25.79 23.92 24.83 26.15 26.08 26.08 23.92 23.19 22.91 22.85 26.59 27.19 25.58 28.74 28.19 30.97 33.73 35.59 36.49 36.81
38.55 37.84 35.72 36.59 36.52 36.61 34.77 33.21 31.76 29.92 30.06 30.77 30.08 29.57 28.67 28.12 25.21 25.62 24.68 23.50 23.74 25.02 25.94 27.07 25.85 26.08 25.62 25.88 25.79 25.84 25.13 25.28 26.40 27.31 29.45 25.12 27.99 27.42 28.10 29.14 35.48 36.43 36.61
37.50 36.66 36.06 35.20 34.88 33.74 33.47 32.66 30.53 28.91 29.31 29.01 29.67 29.37 29.57 27.17 26.55 27.02 23.85 22.01 22.46 23.66 28.16 28.64 27.53 27.92 28.76 29.52 29.37 27.41 24.83 24.50 22.71 26.62 29.79 29.07 26.74 27.06 28.00 28.14 29.76 35.82 36.03
36.51 36.00 34.81 34.33 34.38 33.71 32.98 31.90 30.39 27.95 26.47 28.14 28.19 28.81 27.69 25.49 25.95 25.73 20.30 18.78 19.24 22.15 22.11 22.17 23.29 25.75 27.65 27.48 29.72 29.13 28.57 25.62 25.15 22.59 27.78 27.31 28.37 27.94 25.38 28.84 31.14 31.09 30.02

GFSMA_sfc_wetblb_057.txt.gz
Wetbulb
61.44 62.19 61.24 58.83 57.82 57.96 56.50 55.49 55.55 54.04 54.43 54.97 54.40 54.50 54.30 54.00 54.07 53.73 52.29 57.87 58.61 58.33 58.19 58.30 57.22 56.47 55.70 54.93 54.93 55.49 56.13 57.09 57.73 58.67 58.80 59.38 60.09 60.84 61.42 61.74 62.68 62.91 62.73
60.75 60.00 58.31 57.33 56.55 55.53 53.44 53.38 52.27 52.49 51.98 51.56 51.18 50.82 50.44 50.30 48.59 48.44 48.73 48.95 57.28 57.57 56.37 55.58 54.62 54.29 54.08 53.70 53.21 53.50 54.39 55.06 56.19 56.97 57.65 57.51 57.72 58.16 58.81 59.42 60.02 61.11 62.20
58.34 56.61 55.52 53.94 53.31 52.43 52.31 52.12 50.27 49.47 48.74 49.29 48.00 48.07 48.36 47.50 47.29 47.35 47.96 48.22 54.13 55.72 55.14 53.41 52.81 52.88 52.68 52.56 52.55 52.79 53.63 53.69 53.69 54.58 54.53 54.78 55.12 55.64 56.73 57.04 57.64 58.73 59.84
56.31 54.76 52.56 52.14 52.68 52.25 52.09 49.93 48.55 47.38 46.23 45.52 44.51 44.16 45.15 45.57 45.94 46.77 46.73 46.63 47.07 51.38 53.51 53.97 52.75 52.16 51.33 51.62 51.71 51.52 51.76 52.52 52.04 52.06 52.25 52.15 52.29 52.68 53.79 54.57 55.01 55.90 57.28
55.03 53.32 52.72 51.99 52.44 51.52 49.89 49.36 47.34 45.57 43.89 43.48 44.46 43.08 42.77 43.16 43.98 46.36 45.67 46.33 47.65 47.79 47.77 53.44 53.50 52.94 51.08 49.44 51.02 50.40 50.89 50.87 50.53 50.46 50.60 50.70 50.76 50.92 51.07 51.61 52.09 53.14 54.06
54.74 53.58 52.40 51.63 51.02 49.12 48.01 47.29 44.97 44.71 43.54 42.62 45.46 43.21 41.36 42.04 41.89 41.43 42.60 44.50 43.79 44.43 46.36 47.03 46.48 47.66 51.52 49.55 49.56 48.97 49.56 49.93 49.84 49.66 49.35 49.23 49.21 49.39 49.65 50.16 50.68 51.49 52.16
53.63 52.07 51.27 50.06 48.94 47.46 46.01 45.84 43.97 42.97 42.05 41.99 39.19 39.21 39.85 40.20 40.85 40.18 41.42 40.96 42.23 43.56 44.82 44.46 44.57 43.93 43.59 48.57 49.44 50.16 49.40 48.59 49.22 48.83 48.07 47.56 47.67 47.85 48.30 48.89 49.27 49.80 50.46
52.54 52.46 49.84 48.25 47.37 45.66 44.96 43.77 42.92 41.46 41.06 41.45 38.13 37.35 34.28 37.33 38.70 40.95 39.68 41.19 39.38 42.03 43.73 43.97 42.52 42.63 41.55 41.68 43.53 46.71 46.38 46.05 46.46 46.90 46.71 46.20 46.16 46.54 46.74 47.40 48.15 48.62 49.32
51.77 50.11 48.71 47.35 46.00 45.18 43.56 42.82 42.52 41.52 39.36 40.19 40.47 37.60 34.17 31.82 34.86 38.04 38.90 38.60 38.32 38.38 38.75 40.28 42.06 42.53 42.54 41.64 42.89 44.21 45.70 45.07 44.95 45.23 45.50 45.71 45.99 46.09 45.90 46.16 46.61 47.40 48.07
50.88 50.12 48.26 46.72 46.17 45.96 44.45 43.63 44.40 41.86 40.82 39.02 39.54 42.11 38.24 36.63 32.81 32.21 36.22 37.97 37.93 38.68 37.26 37.22 37.98 38.91 39.12 38.52 41.81 44.62 45.21 44.79 43.72 43.48 43.80 44.66 45.10 45.19 45.13 45.34 45.61 46.32 47.24
51.69 49.66 48.00 46.18 45.63 45.32 44.40 43.84 43.68 42.11 40.92 39.29 38.47 37.85 36.87 36.67 36.08 33.29 32.07 33.34 35.91 36.54 37.17 36.53 35.49 35.77 37.62 37.73 37.09 40.07 45.42 44.20 43.32 42.65 42.96 43.53 44.22 44.09 44.43 44.35 44.63 45.18 46.17
46.70 46.48 46.50 44.96 44.37 43.50 42.84 42.52 42.35 41.66 41.24 40.68 39.74 38.76 37.92 37.23 36.25 35.18 31.88 31.20 31.93 34.00 35.21 34.93 34.65 35.25 35.71 36.18 41.52 44.87 44.23 43.16 43.11 43.21 43.17 43.26 42.64 43.13 43.23 43.55 43.97 44.12 44.79
45.63 44.82 44.50 43.32 42.76 42.79 42.79 42.40 41.64 41.69 41.50 40.08 39.14 38.85 39.47 39.89 39.41 38.88 37.58 33.78 30.71 31.46 31.91 33.06 33.95 34.15 36.65 34.84 35.57 42.75 43.72 43.17 43.21 43.21 41.78 41.65 41.77 41.70 42.10 42.63 43.00 43.22 43.42
45.19 42.15 41.31 41.32 41.09 41.01 40.35 40.14 39.50 39.27 40.47 39.49 38.33 38.48 38.42 39.13 40.39 40.05 36.96 34.81 27.73 27.68 29.13 29.91 32.56 33.23 33.44 33.19 36.24 41.16 35.22 39.44 41.09 41.95 40.96 40.32 40.31 40.59 40.92 41.26 41.93 42.10 42.24
43.32 40.59 40.18 39.75 39.80 39.79 39.71 39.30 38.33 37.96 38.65 38.44 37.93 38.55 38.35 38.70 39.54 38.99 35.75 34.51 31.33 23.89 26.47 28.20 28.41 32.16 32.38 32.87 34.88 34.22 32.74 37.38 39.97 39.54 39.52 39.33 39.17 39.42 39.86 40.11 40.25 40.70 41.42
40.74 40.12 39.50 39.40 39.38 39.35 39.40 38.56 37.78 38.33 37.45 36.83 37.06 35.89 36.53 36.65 35.37 34.24 33.46 34.42 32.71 30.60 26.88 28.55 28.79 29.60 31.46 34.47 35.54 32.77 32.54 37.11 36.57 37.57 37.85 39.00 39.35 38.52 38.44 38.66 38.70 39.15 40.16
40.16 40.06 40.15 39.72 39.65 39.10 39.24 38.05 37.50 37.31 36.51 35.38 35.18 35.25 35.05 34.75 34.10 33.56 34.36 33.70 30.52 27.79 24.05 25.69 27.56 28.94 27.98 28.71 30.66 30.68 32.24 31.05 31.25 36.18 37.00 37.69 37.82 38.13 38.66 38.62 38.59 38.87 39.23
40.14 39.93 40.31 39.80 39.94 39.27 37.99 36.88 36.26 36.02 35.17 33.89 34.32 34.43 35.79 36.41 33.09 32.55 29.31 26.60 25.49 25.41 24.02 22.89 24.35 25.75 25.66 27.17 27.40 27.10 30.80 32.72 31.07 34.54 36.49 37.26 37.50 37.50 37.57 37.46 37.98 38.14 38.17
39.48 39.71 40.39 39.85 39.60 37.89 36.71 36.73 36.66 36.16 34.86 34.31 34.41 33.21 33.12 32.39 29.05 26.48 26.12 24.75 24.53 27.31 24.08 22.84 23.09 24.31 25.15 25.50 25.69 26.48 27.03 27.95 31.81 34.74 35.11 35.35 35.70 36.36 36.90 36.94 36.97 37.40 37.45
40.09 39.75 39.87 40.08 38.96 36.69 37.17 37.18 36.43 34.49 34.01 34.51 34.17 33.97 33.66 30.59 27.36 25.94 25.85 23.77 25.02 23.12 23.13 22.25 22.76 22.60 23.46 25.00 24.90 24.37 24.83 26.09 27.36 31.35 32.45 33.36 34.75 34.93 35.52 35.87 36.51 37.07 37.57
40.15 39.81 39.55 38.49 37.85 37.56 37.94 35.37 35.57 34.81 32.63 32.27 32.16 33.02 31.79 31.69 34.31 28.52 26.11 23.62 23.67 22.38 21.72 21.56 21.42 22.02 22.53 23.06 23.37 24.25 25.86 25.48 25.29 26.32 26.88 27.82 28.68 29.64 30.70 33.54 34.80 36.25 36.67
39.30 38.94 37.61 37.18 36.31 37.73 35.76 34.81 32.81 31.42 33.33 31.79 29.39 29.66 29.13 31.92 31.16 31.48 30.51 29.66 26.99 22.18 20.70 20.40 21.28 21.54 21.76 23.29 27.19 24.29 22.53 20.90 19.12 25.20 24.01 24.41 27.34 27.00 29.08 30.77 34.09 35.45 36.51
37.69 36.69 36.07 35.85 35.17 35.49 35.14 34.39 33.10 30.12 30.66 30.53 28.57 27.34 28.57 30.48 28.45 26.17 26.91 26.80 25.70 26.68 25.53 23.17 21.72 22.58 23.82 24.29 23.65 22.09 21.90 21.66 21.95 24.62 24.64 23.47 26.98 26.10 28.83 31.46 34.21 35.40 35.76
35.59 34.72 34.53 34.28 33.89 35.41 35.31 34.42 32.84 30.06 28.06 28.37 27.69 26.96 26.30 25.41 25.49 25.18 23.99 22.68 22.85 23.02 23.96 24.80 24.07 23.14 23.25 24.05 24.06 25.08 24.62 24.34 25.30 25.69 27.09 23.76 25.15 26.45 28.32 27.99 32.71 34.51 35.67
34.39 33.64 33.82 32.62 32.58 32.49 34.59 33.75 32.08 26.52 27.38 27.60 28.05 27.43 27.85 24.67 27.05 26.98 23.54 21.13 21.65 22.09 25.94 27.58 27.05 27.26 28.16 28.70 28.82 26.69 24.54 24.41 22.58 23.84 25.34 24.39 23.65 25.70 26.38 28.90 29.06 33.10 34.84
34.44 34.11 33.14 32.35 33.26 31.07 34.23 33.87 31.64 25.85 24.09 26.85 26.97 27.39 28.02 25.06 26.16 26.02 20.10 16.99 16.65 20.25 22.12 22.15 22.53 23.94 25.78 25.65 28.35 27.41 25.89 22.70 22.39 21.14 23.96 21.10 24.38 24.05 24.33 26.48 29.13 30.83 31.04

GFSMA_sfc_wetblb_060.txt.gz
Wetbulb
60.73 58.91 57.69 57.29 55.73 54.90 53.44 52.20 52.11 51.63 50.73 50.18 49.82 49.08 49.21 48.03 47.11 47.40 46.94 54.02 57.85 57.93 58.05 57.75 56.52 55.84 55.07 54.33 54.01 54.69 54.98 55.64 56.03 57.81 57.02 56.75 56.66 57.34 57.92 58.30 58.73 59.52 60.38
58.71 57.02 56.04 55.03 53.84 52.61 51.83 50.32 48.86 47.83 46.88 47.26 46.97 46.83 46.96 45.79 45.54 46.08 45.60 46.31 57.08 58.04 56.82 55.54 54.68 54.25 53.67 53.54 53.38 53.86 54.12 54.02 54.08 54.64 54.44 54.55 54.86 55.09 55.47 56.01 56.20 56.69 57.82
56.20 54.40 53.33 52.00 51.37 51.19 49.51 48.54 47.44 46.43 45.38 46.07 44.51 44.51 44.87 44.54 45.03 44.88 45.31 45.17 50.71 56.06 55.97 53.70 52.66 53.36 52.17 52.40 52.56 52.54 52.97 52.62 52.32 52.32 52.34 52.12 52.34 52.28 52.70 53.34 53.61 54.02 55.12
54.12 51.92 51.12 50.81 51.41 50.38 48.68 47.55 46.09 44.45 43.46 43.02 41.95 41.48 41.70 42.92 43.02 43.63 43.61 44.38 45.89 50.22 52.78 54.05 52.50 51.90 51.06 50.64 52.35 51.47 50.90 51.02 50.19 50.61 50.87 51.08 50.98 51.24 51.19 51.49 51.95 52.54 53.30
53.42 51.58 50.87 50.53 50.69 49.04 47.97 47.65 44.69 43.46 41.99 41.61 42.69 40.92 40.42 40.66 40.74 43.93 42.35 42.34 42.41 43.91 45.81 50.24 51.32 51.75 50.66 50.01 50.24 49.44 49.75 49.88 49.48 49.40 49.13 49.12 49.48 49.40 49.42 49.76 50.36 50.88 51.53
53.80 52.06 50.60 49.25 48.52 46.83 46.27 44.69 42.86 42.54 41.55 40.77 43.45 41.43 39.62 39.62 39.23 39.54 40.35 42.52 41.83 42.02 42.39 42.85 44.10 46.58 50.44 50.57 50.53 50.18 50.71 49.76 49.40 48.91 48.22 47.60 47.70 47.81 48.09 48.52 49.09 49.69 50.20
52.13 50.36 49.35 47.87 46.71 45.38 44.66 43.80 42.52 41.18 40.31 39.88 37.93 37.98 38.20 38.56 38.94 38.61 39.58 39.08 40.30 41.41 41.61 42.80 43.15 40.99 42.66 47.36 47.15 47.34 47.94 47.67 48.22 47.66 46.99 46.63 46.42 46.63 46.76 47.21 47.64 48.32 48.87
51.17 49.68 47.81 46.50 45.39 44.38 43.36 42.52 41.65 40.25 39.91 39.72 37.65 35.82 34.01 35.69 37.76 39.73 38.11 39.59 37.42 39.18 40.19 40.81 40.58 40.91 39.41 40.10 43.54 46.30 47.06 47.38 47.32 47.02 46.59 46.28 46.17 46.30 46.40 46.65 46.67 47.00 47.60
50.56 49.23 47.92 46.28 44.62 43.98 42.81 41.73 41.26 40.41 38.31 38.99 38.87 37.34 33.62 31.24 33.60 36.51 37.21 37.40 37.10 36.97 37.22 37.77 39.01 38.46 38.24 37.33 39.80 41.62 46.93 47.00 46.36 46.28 45.77 45.54 45.62 46.05 46.04 45.86 45.90 46.07 46.42
49.30 48.54 47.17 45.75 44.57 44.22 42.82 42.25 42.99 40.56 39.76 38.31 38.50 40.47 37.61 36.06 32.48 31.42 35.50 37.29 37.21 37.58 35.91 35.74 36.09 36.63 37.02 36.40 39.50 41.80 44.11 46.41 45.42 45.11 45.06 44.91 45.04 45.44 45.34 45.21 45.12 45.31 45.52
48.97 48.19 46.13 44.51 43.91 43.93 42.49 41.81 41.94 40.58 39.79 38.47 37.56 37.18 35.95 35.52 34.74 32.54 32.27 32.66 34.88 35.71 36.16 35.41 33.98 34.02 35.85 35.50 35.14 39.15 44.76 45.18 44.95 44.55 44.11 44.13 44.56 44.72 44.33 44.51 44.64 44.81 45.04
46.97 45.95 44.73 43.22 42.39 41.78 41.40 40.85 40.37 40.10 39.74 39.41 38.94 37.82 37.00 35.53 34.44 33.41 33.59 32.58 31.23 33.58 34.89 34.18 33.44 33.75 34.07 34.11 39.00 41.85 43.61 43.59 44.47 43.38 43.11 43.10 43.68 43.50 43.69 44.06 44.17 44.68 44.87
45.44 44.63 44.05 41.23 40.60 40.25 39.78 39.19 38.35 37.75 38.33 38.44 37.94 37.73 37.99 37.81 37.83 37.28 36.80 36.88 34.20 31.33 31.31 31.90 32.84 33.04 35.37 33.04 33.70 39.93 40.20 40.39 40.75 40.82 41.17 41.10 41.35 41.91 42.15 42.75 43.38 43.72 43.99
43.55 43.02 41.32 39.60 38.93 38.78 38.35 37.93 37.05 36.53 37.43 37.67 37.12 37.06 37.29 37.73 38.10 38.28 37.15 35.78 33.47 27.35 27.50 28.91 31.14 32.07 32.01 31.84 34.97 39.54 33.90 38.42 39.48 40.31 38.61 38.92 39.33 39.81 40.24 41.00 41.46 41.91 42.27
42.81 40.66 39.30 38.24 38.23 38.34 38.15 38.17 36.58 36.51 36.38 36.26 35.99 35.87 36.30 36.81 37.00 37.27 36.94 35.67 31.05 24.15 24.93 26.63 27.29 29.89 30.23 31.21 33.13 32.92 31.58 35.86 39.04 37.82 37.45 37.27 37.69 38.18 38.97 39.41 39.80 40.20 40.42
41.39 39.32 38.17 38.23 38.07 38.13 38.87 37.90 36.27 36.43 35.59 34.78 35.34 34.23 34.69 35.26 34.50 33.20 34.32 34.05 33.33 32.15 26.56 26.59 26.41 27.12 28.65 31.01 32.26 30.90 30.65 35.33 35.30 36.21 37.38 36.81 36.63 37.00 37.19 37.53 38.01 38.50 38.84
39.41 38.83 38.90 38.45 38.53 38.67 39.10 36.85 36.21 35.97 34.98 33.95 33.84 34.21 34.79 34.69 33.34 35.33 34.76 34.16 29.66 28.49 23.75 24.07 25.41 26.07 24.71 25.16 27.44 28.38 29.89 29.06 29.60 34.46 35.71 36.21 36.96 37.25 37.17 37.15 37.58 37.44 37.80
38.93 38.76 38.90 38.93 39.30 39.42 38.09 36.51 35.57 35.80 35.02 33.75 33.32 33.44 33.80 35.86 31.28 29.57 27.20 25.89 24.97 24.36 23.39 21.39 22.57 22.94 23.42 23.90 24.86 24.71 28.36 30.68 28.93 32.64 34.36 34.70 34.88 35.06 35.88 36.22 36.72 37.57 37.52
38.05 38.02 39.12 38.98 39.16 39.21 36.71 35.47 35.87 35.92 34.91 33.48 33.69 32.85 32.69 31.66 29.52 26.30 25.68 24.56 24.11 26.69 23.49 22.20 21.95 22.81 22.50 23.15 24.22 25.29 26.02 26.41 29.50 33.00 32.51 32.75 32.98 33.39 34.08 35.16 36.53 36.45 36.85
38.56 39.54 39.55 39.39 39.21 37.25 36.55 36.92 36.51 34.47 33.04 33.55 33.90 32.89 32.58 31.35 28.07 25.93 25.48 23.62 24.25 22.82 22.53 21.59 21.77 21.92 21.73 23.80 23.59 23.25 23.86 25.26 26.31 28.78 29.52 30.10 31.28 32.09 33.51 33.76 33.39 34.14 35.61
39.21 38.86 38.60 38.04 37.51 37.09 36.90 35.51 34.85 33.90 31.73 31.33 31.98 32.50 31.63 30.73 32.53 28.71 25.32 23.32 23.33 21.92 21.14 20.64 20.20 20.95 21.53 21.63 21.30 24.19 23.73 23.16 23.62 24.68 24.15 25.01 26.34 26.91 27.67 30.73 32.18 33.59 34.27
38.67 37.82 37.28 36.13 35.61 36.70 36.91 35.99 33.84 30.69 31.96 32.44 32.35 31.60 30.34 31.76 31.77 31.86 30.82 28.93 25.83 21.62 20.25 18.94 19.36 19.35 20.45 22.25 24.19 21.82 20.92 20.45 19.35 23.43 22.36 23.51 25.95 25.31 27.04 28.17 31.55 32.94 34.10
36.47 35.46 35.17 34.71 34.19 34.49 36.25 35.32 34.01 30.99 30.25 28.80 28.91 28.01 27.98 29.78 29.32 27.46 28.55 27.47 25.86 26.48 24.66 20.67 18.80 19.85 21.10 21.53 21.69 20.85 21.34 21.85 21.88 24.16 25.31 23.07 24.72 24.46 27.50 30.19 32.62 33.45 34.08
34.63 33.78 33.46 33.84 32.81 33.93 35.84 35.32 34.30 28.64 28.78 28.37 27.42 27.14 26.73 25.79 25.69 25.48 24.07 23.29 23.61 23.17 23.24 23.72 22.19 21.92 21.73 22.92 23.32 24.99 25.76 24.97 25.57 25.09 24.95 21.53 24.14 24.32 26.64 27.73 31.90 33.53 34.14
33.83 33.28 33.55 32.74 32.01 31.00 34.73 34.88 32.85 28.83 27.02 26.95 28.62 28.07 26.88 25.66 27.11 28.66 24.78 22.33 22.75 22.09 25.05 26.72 26.84 27.10 27.62 27.30 27.09 25.23 22.54 21.99 19.90 21.60 23.75 22.84 22.61 23.52 25.12 26.33 28.26 32.78 34.25
32.63 32.34 32.01 31.36 32.18 30.46 33.25 34.74 33.66 26.32 27.16 27.06 27.64 27.40 29.49 25.82 27.71 27.28 22.06 19.77 18.29 20.41 20.77 22.38 22.59 23.39 24.83 24.20 26.14 24.44 23.52 20.87 21.31 20.58 22.53 23.17 23.99 24.26 22.77 23.64 26.65 27.87 27.82

GFSMA_sfc_wetblb_063.txt.gz
Wetbulb
57.80 57.00 55.80 54.59 53.28 52.62 51.14 50.08 48.96 48.33 47.39 47.04 46.86 46.13 45.24 44.71 44.69 44.85 44.14 51.66 57.22 57.34 56.67 57.03 56.03 55.47 54.91 54.28 54.30 54.50 54.86 55.13 55.09 55.19 55.11 54.97 54.80 54.56 54.79 55.25 55.21 55.40 56.40
57.04 55.57 54.18 53.08 52.22 50.70 49.18 47.86 46.39 45.49 44.46 44.42 43.84 44.23 43.82 43.54 43.20 42.91 43.29 43.46 52.34 57.79 56.56 55.39 54.34 54.15 53.69 53.43 53.42 53.35 53.57 53.57 53.17 53.14 52.77 52.58 52.93 53.00 52.70 52.90 53.23 53.84 54.90
54.97 53.15 51.77 50.53 50.23 49.12 47.76 46.39 44.99 44.04 43.37 43.98 42.00 42.22 42.25 42.49 42.52 42.35 42.42 45.31 48.95 54.29 55.63 53.55 52.55 52.71 51.98 51.82 51.86 51.58 52.26 51.39 51.28 51.50 51.48 51.53 51.57 51.29 51.13 51.44 51.68 52.06 52.70
52.95 51.34 50.72 50.43 49.75 48.08 46.80 45.24 43.90 42.73 42.13 41.71 40.05 39.90 40.12 40.92 41.25 41.47 41.42 41.41 44.19 47.00 47.66 51.72 52.24 51.11 50.08 50.15 51.09 50.48 50.44 49.53 49.85 49.63 49.76 50.07 49.71 49.80 49.40 49.44 49.89 50.69 51.13
51.82 50.36 50.28 49.31 48.53 47.72 47.21 45.51 43.39 42.31 40.72 40.40 40.73 39.60 38.70 38.59 39.60 42.17 40.89 40.84 41.30 41.56 41.52 47.80 49.47 50.81 49.84 49.79 49.64 49.40 49.53 49.47 49.03 48.82 48.23 47.79 47.95 48.32 48.42 48.62 48.79 49.21 49.91
52.36 50.34 49.43 48.67 47.81 46.20 44.48 42.95 41.82 41.64 40.40 39.70 42.51 40.60 38.20 37.86 38.43 38.70 39.15 41.41 40.47 40.43 40.20 41.10 41.29 44.68 49.54 48.61 49.07 49.58 49.78 49.92 49.19 48.53 47.74 47.27 47.12 47.18 47.14 47.59 47.80 48.15 48.57
51.86 49.81 47.82 46.51 45.33 44.69 43.20 42.58 41.54 40.15 39.41 39.07 37.27 37.58 37.13 37.31 37.71 37.56 38.51 38.18 39.22 39.95 39.75 39.41 39.43 38.73 39.86 46.66 47.96 48.08 48.79 49.31 49.48 49.40 48.64 47.94 46.61 46.72 46.83 47.06 47.30 47.36 47.55
49.68 48.80 46.91 45.39 44.55 43.71 42.52 41.77 40.95 39.61 39.13 38.72 36.90 34.74 33.88 35.62 36.61 38.19 37.15 38.44 36.80 37.85 38.85 39.24 38.64 38.26 36.92 36.51 40.63 45.83 47.00 48.76 48.99 48.71 47.94 47.21 46.69 46.54 46.54 46.38 46.77 46.81 46.89
49.64 48.36 46.75 45.14 43.53 43.04 41.64 40.64 40.21 39.45 38.01 38.21 38.24 37.12 33.02 31.25 32.83 35.73 36.29 36.60 36.56 36.39 36.52 36.84 37.99 36.84 36.45 35.56 37.30 39.56 43.78 45.36 47.14 47.04 47.28 46.63 46.35 46.16 46.27 46.25 46.04 46.10 46.16
49.06 47.84 45.92 44.51 43.55 42.90 41.82 41.97 41.99 39.57 38.84 37.69 37.72 39.50 36.86 35.55 32.45 30.96 34.48 35.96 36.14 37.00 35.48 35.57 35.72 35.36 35.65 34.87 37.89 40.57 44.20 45.08 45.57 46.61 46.33 46.24 46.02 45.85 45.68 45.70 45.83 45.70 45.97
47.33 46.38 45.02 43.58 43.10 42.19 41.60 40.66 40.17 39.42 38.84 37.51 36.72 36.33 35.33 34.47 33.62 32.17 29.36 31.87 34.86 36.12 35.78 35.36 34.47 33.32 34.57 34.19 33.22 37.50 44.22 43.68 45.38 44.46 44.18 44.52 44.58 45.26 45.56 45.36 45.09 45.61 45.83
44.90 44.99 44.65 42.69 42.37 43.10 40.69 39.21 38.15 37.80 37.79 37.73 37.71 37.03 36.35 34.81 33.81 32.26 29.96 31.34 30.61 33.83 34.87 34.94 33.66 33.36 32.98 32.74 37.01 40.34 42.04 40.86 41.53 41.95 42.35 43.16 43.33 43.75 44.11 44.49 44.88 45.01 45.24
44.12 44.16 44.14 43.78 42.01 38.96 38.26 38.26 36.93 35.86 35.83 35.73 35.95 36.49 36.71 36.87 36.63 35.70 33.72 32.64 35.05 35.18 33.32 31.59 32.07 31.60 33.22 30.98 32.84 38.38 38.95 38.97 39.83 39.92 40.05 40.28 40.63 41.11 41.89 42.51 43.09 43.65 44.19
43.13 44.12 43.78 41.78 40.07 38.58 37.54 36.79 35.79 35.90 36.26 35.59 35.20 35.13 35.64 36.46 36.87 36.64 35.25 32.30 31.19 32.61 27.14 28.47 29.95 30.05 29.39 30.32 32.93 36.60 32.12 36.06 37.56 38.54 38.76 38.55 38.78 39.11 39.37 39.82 40.39 41.18 41.96
45.37 42.83 41.18 38.93 37.92 37.68 37.67 36.79 35.82 35.26 35.13 35.24 34.20 34.08 34.32 35.77 35.61 35.69 36.41 35.84 34.52 28.92 24.37 26.13 26.80 29.29 29.74 29.26 30.79 30.04 29.49 33.52 35.90 36.09 35.92 36.32 37.01 37.53 37.79 38.13 38.65 39.23 40.01
42.63 40.77 39.41 38.48 37.81 37.63 37.54 37.84 36.22 35.64 34.94 33.95 34.35 33.25 33.21 33.64 33.42 32.42 32.48 32.28 32.29 30.81 27.82 28.70 27.17 27.07 27.63 29.58 29.91 27.95 27.60 33.22 33.20 33.64 34.18 34.77 35.43 36.17 36.40 36.87 37.28 37.80 38.40
40.78 39.87 38.95 37.34 37.38 37.74 38.05 36.59 35.42 35.39 34.28 33.65 33.24 32.56 33.06 34.04 32.79 33.26 34.29 33.71 32.88 29.37 25.78 24.20 25.22 25.16 23.85 24.15 25.31 25.06 27.14 26.73 27.43 32.48 33.19 33.77 34.47 35.32 35.73 35.75 35.96 36.25 36.47
39.99 38.66 38.07 37.99 38.04 37.81 37.24 35.87 34.42 35.02 33.82 32.83 32.97 32.41 33.12 35.18 31.94 30.17 28.19 26.47 25.27 24.23 23.39 21.36 22.22 22.74 22.94 23.47 23.27 23.34 26.60 28.84 27.08 30.97 32.61 33.43 33.32 33.56 33.99 34.12 34.61 35.29 36.10
38.22 37.28 37.52 37.39 37.44 37.34 37.08 35.76 34.84 34.58 34.54 33.84 33.12 31.94 32.29 31.73 29.90 27.85 25.97 24.94 23.94 26.14 23.42 22.04 21.55 22.41 22.28 22.40 22.78 24.12 24.70 25.52 27.94 31.53 30.75 30.96 31.33 31.77 32.32 32.72 33.39 34.32 35.38
37.37 38.04 37.63 37.79 37.66 37.43 36.96 35.99 35.94 35.00 33.38 33.04 32.79 32.42 31.82 31.03 29.89 29.48 26.68 25.00 24.48 23.16 22.48 21.40 20.97 21.03 20.89 22.72 22.61 21.91 22.71 24.43 24.24 27.11 28.29 28.70 29.71 30.86 31.74 32.11 32.36 33.00 33.50
37.39 37.48 37.22 37.00 37.20 36.90 36.24 35.40 34.93 34.01 32.67 31.19 30.49 31.80 31.83 32.91 33.93 30.55 27.03 24.78 22.97 21.86 21.26 20.49 19.94 19.19 19.55 19.96 20.18 23.07 21.75 21.59 22.45 24.07 23.68 24.01 24.81 26.16 26.94 29.51 30.91 32.33 32.95
36.93 36.09 35.44 35.49 35.14 36.23 36.46 36.72 34.78 31.45 31.00 30.45 29.80 30.84 32.56 32.07 31.50 34.03 32.08 29.26 25.54 21.93 20.37 18.94 18.59 17.70 18.55 20.19 19.77 20.51 20.02 19.45 18.79 23.12 22.29 23.39 25.42 24.76 26.17 27.13 30.28 32.01 33.28
35.26 34.38 33.59 33.38 33.20 33.52 35.68 36.85 35.44 30.75 29.96 29.64 28.94 28.54 28.28 28.97 29.39 28.22 30.69 30.07 28.70 27.63 25.41 20.86 17.70 18.78 17.23 20.33 20.68 20.43 20.83 21.49 21.80 23.99 23.60 22.47 24.53 23.52 26.05 27.86 31.08 32.29 33.02
34.07 33.04 32.21 32.22 31.79 32.81 35.34 35.97 35.15 30.56 28.76 28.65 30.67 28.29 26.74 26.13 26.80 26.57 24.62 23.61 23.41 23.90 24.14 23.06 21.05 21.42 21.81 22.24 22.34 23.34 23.70 23.71 23.68 23.93 23.75 20.28 23.38 23.02 25.42 26.25 30.52 31.98 33.00
32.20 31.41 31.75 31.37 30.60 30.48 33.91 34.77 33.76 29.44 28.23 28.41 28.73 28.30 27.85 26.20 28.54 30.34 25.02 23.27 23.33 23.60 25.81 26.44 27.11 27.38 27.39 27.72 26.05 19.55 18.64 19.39 17.78 20.19 23.15 21.85 21.15 22.75 24.78 25.46 26.93 31.01 33.01
31.30 30.19 29.54 30.08 31.49 29.92 32.34 34.04 33.84 29.29 29.03 27.74 26.72 28.19 30.52 28.74 28.58 29.14 23.00 20.11 19.13 21.59 21.48 21.57 22.42 23.76 24.55 24.02 25.57 22.69 19.27 18.51 19.06 17.55 22.01 20.41 21.95 23.82 21.47 23.46 24.26 25.50 27.12

GFSMA_sfc_wetblb_066.txt.gz
Wetbulb
56.21 55.80 53.94 52.76 51.62 50.39 49.05 47.58 46.67 46.19 45.48 45.27 44.75 44.31 43.92 43.53 43.48 43.75 44.21 51.19 53.93 57.89 56.08 56.82 56.40 55.41 54.80 54.42 54.26 54.51 54.53 54.51 54.56 54.19 53.56 53.43 53.79 53.39 53.33 53.41 53.49 53.78 54.50
55.72 53.91 52.53 51.44 49.96 48.55 47.03 45.94 44.74 43.68 42.91 43.15 42.64 43.12 42.88 42.57 42.18 42.33 43.23 46.64 55.67 56.42 56.63 55.61 54.55 54.15 53.70 53.35 53.11 53.14 53.34 52.89 52.48 52.79 52.53 52.50 52.22 51.56 51.14 51.26 51.65 52.10 52.69
54.63 52.13 50.88 49.03 48.26 48.70 47.34 45.85 43.85 43.04 42.31 42.73 41.23 41.34 41.80 41.91 41.92 41.79 41.81 45.42 48.74 51.16 53.28 53.96 52.87 52.30 51.67 51.74 51.69 51.43 51.20 50.66 50.59 50.81 50.92 51.12 50.45 50.25 49.92 49.96 50.31 50.82 51.25
52.28 51.27 51.13 50.22 50.07 48.67 47.23 45.70 43.53 41.67 41.10 40.70 39.93 39.35 40.03 40.95 41.64 41.71 41.61 42.18 43.42 43.73 47.10 52.65 52.52 51.66 50.25 50.58 51.28 50.95 50.82 49.82 49.46 49.20 49.34 49.19 49.15 49.37 49.35 49.39 49.52 49.66 49.97
51.49 52.42 50.48 48.63 48.78 47.66 46.96 46.28 43.74 41.92 40.23 40.30 41.05 39.51 38.97 39.22 40.59 41.96 41.20 41.23 42.01 41.62 41.85 47.22 50.13 51.04 50.62 50.46 50.44 50.61 50.60 49.85 49.55 49.08 48.70 47.99 48.41 48.93 48.72 48.48 48.46 48.96 49.04
50.91 50.23 49.63 47.97 47.70 45.99 43.48 42.53 41.64 41.22 40.43 39.69 41.82 40.00 38.39 38.40 38.93 39.44 40.02 41.35 41.33 41.13 40.97 41.54 41.20 41.94 47.31 49.27 49.55 50.16 50.34 50.88 51.16 50.54 49.29 48.45 47.95 47.72 47.70 47.84 48.04 48.29 48.41
50.17 49.03 47.30 45.73 45.49 44.13 42.33 42.00 41.14 40.20 39.70 38.92 37.88 38.23 37.45 37.98 38.17 38.43 39.24 39.51 40.02 40.46 40.83 40.57 40.37 40.00 39.67 44.39 45.47 48.07 49.92 50.64 50.88 50.99 50.58 50.15 49.03 47.06 47.00 46.84 47.28 47.62 47.94
49.90 48.18 46.28 44.82 44.21 42.65 41.99 41.56 40.69 39.69 39.06 38.97 37.26 35.38 34.13 36.31 36.92 38.50 37.81 39.28 38.58 38.96 39.63 40.42 39.27 39.28 38.08 37.72 40.73 44.31 45.43 46.79 48.26 49.12 49.17 48.53 48.24 47.41 47.20 46.97 47.05 46.75 47.02
49.33 47.42 45.93 44.16 42.93 42.52 41.28 40.49 40.30 39.81 38.13 38.61 38.53 37.29 33.27 31.67 33.53 36.64 37.29 37.42 37.84 37.86 38.02 38.03 38.56 38.61 37.67 37.45 37.78 39.45 43.34 44.76 46.46 47.02 47.78 47.69 47.95 47.26 47.09 46.80 46.56 46.74 47.10
47.96 47.10 45.35 43.58 42.91 42.57 42.67 41.32 43.06 39.68 39.19 37.92 38.55 39.35 37.05 35.99 33.44 32.00 35.29 36.42 37.04 37.58 37.14 37.24 37.29 37.47 36.81 36.26 37.76 39.79 42.30 44.15 44.02 44.88 45.75 46.44 46.73 46.59 46.74 46.55 46.87 46.65 46.89
46.25 45.24 44.11 43.42 44.74 42.80 42.16 41.24 40.07 39.22 38.88 37.77 36.96 36.53 35.71 34.82 34.05 32.87 30.48 33.30 35.74 36.93 37.85 36.83 36.82 35.97 35.52 35.08 34.78 37.38 42.14 42.52 41.32 43.21 44.36 44.93 45.43 45.91 45.93 46.34 46.50 46.41 46.77
44.11 44.45 45.33 44.44 41.92 43.30 42.04 39.10 37.83 37.50 37.30 37.14 37.25 36.64 36.24 35.26 34.03 32.72 30.62 31.17 31.70 34.52 36.06 36.61 35.43 34.65 33.81 33.12 36.65 39.27 39.46 39.08 39.72 40.93 41.24 41.62 42.53 43.18 43.82 44.25 44.63 45.32 45.58
42.52 43.18 44.24 44.28 42.79 41.44 40.04 37.43 36.60 35.90 35.64 35.14 35.37 36.12 36.69 36.66 36.79 35.81 34.01 33.20 32.50 33.29 33.70 34.12 33.43 32.22 32.88 32.21 33.46 36.96 36.45 36.27 37.07 38.62 39.79 40.61 41.09 41.30 41.65 41.87 42.53 43.24 43.70
44.03 45.09 45.31 43.93 41.35 40.22 37.70 37.72 36.02 35.67 36.06 35.94 35.73 35.68 35.93 36.30 36.60 36.43 35.32 34.81 33.18 33.06 32.80 31.35 31.61 30.85 30.65 31.34 32.60 35.14 31.35 33.10 34.39 35.96 37.27 38.47 39.02 39.25 39.56 39.94 40.49 40.96 41.43
45.48 45.27 44.12 41.63 39.74 39.33 38.91 36.53 35.65 35.71 35.46 35.13 34.96 35.22 34.61 34.95 35.41 36.11 36.56 36.37 35.56 30.41 28.93 28.86 28.92 31.53 31.44 31.02 31.10 31.41 29.26 31.29 33.60 34.32 34.87 35.27 36.14 37.01 37.45 37.98 38.46 38.86 39.21
45.24 44.45 41.86 39.79 39.38 38.68 37.88 36.35 35.55 35.22 35.25 34.83 34.50 33.70 33.63 33.87 34.28 33.49 33.46 33.81 33.71 31.20 28.85 29.29 29.13 29.55 28.93 29.98 30.25 29.75 27.96 31.89 31.36 32.16 32.69 33.53 34.42 35.02 35.52 36.13 36.85 37.45 38.11
44.65 41.50 40.24 39.31 38.91 36.58 37.93 37.25 36.16 36.14 35.08 34.14 34.10 33.34 33.32 33.53 33.43 32.59 32.78 32.64 31.66 32.90 29.12 28.15 27.25 27.14 26.57 26.56 27.23 27.08 27.86 27.57 28.23 30.90 31.98 32.84 33.29 34.16 34.62 34.84 34.97 35.55 36.22
41.40 38.52 38.71 39.15 38.29 37.51 37.29 36.88 35.76 35.76 34.34 33.45 33.64 32.67 32.41 34.48 32.26 31.72 30.58 30.00 29.56 28.94 25.73 22.91 24.18 24.75 24.75 25.69 25.27 24.63 26.50 28.28 28.21 30.04 31.70 32.75 32.39 32.21 32.66 32.78 32.98 33.42 34.04
37.82 38.63 38.81 38.76 37.43 37.58 36.93 36.28 35.50 34.58 34.04 33.89 33.69 32.59 31.71 31.28 30.33 29.80 28.75 27.18 26.47 26.95 25.29 23.69 23.08 24.21 24.21 24.38 23.77 25.05 25.46 26.42 28.01 29.78 29.60 30.12 30.49 31.23 31.65 32.01 32.44 32.77 33.20
38.54 38.55 38.23 37.76 37.48 36.88 36.53 36.65 35.42 34.14 33.75 33.28 32.69 31.95 31.59 31.17 30.38 29.93 29.67 28.08 26.67 24.68 24.11 23.04 22.50 22.37 22.60 23.51 23.77 22.61 22.69 25.35 24.46 26.30 27.88 28.42 29.63 30.41 31.10 31.34 31.74 32.52 33.18
38.25 37.93 36.80 36.23 35.96 36.43 36.40 34.94 34.40 33.80 32.40 31.84 31.54 31.16 31.04 31.62 33.41 31.11 28.60 27.04 25.47 23.07 22.75 21.95 21.17 20.99 20.85 20.13 20.31 22.90 21.90 22.41 23.30 24.80 24.92 25.60 26.75 27.67 28.06 29.47 30.31 31.21 31.52
37.25 35.97 34.91 34.64 34.62 35.48 36.32 36.73 35.47 32.36 31.80 31.15 30.09 30.34 30.65 33.62 32.55 33.85 34.04 32.01 26.64 23.73 22.08 20.50 20.62 19.82 19.93 20.20 21.75 21.40 20.77 20.20 18.73 25.63 24.34 24.43 26.79 26.10 27.49 28.32 29.61 30.88 32.16
36.27 34.79 34.09 33.14 32.41 32.59 35.12 36.48 36.08 32.42 30.81 29.99 29.34 29.74 30.35 30.39 30.31 28.18 30.15 31.31 29.79 28.98 25.56 23.40 20.93 20.84 18.95 21.53 22.15 21.02 21.27 21.30 21.31 24.36 24.56 22.32 25.87 24.37 27.19 28.07 29.89 30.89 31.81
34.26 33.38 32.21 31.71 30.97 31.77 34.58 35.27 35.34 32.08 30.15 30.07 29.45 29.05 28.67 28.06 27.69 27.61 27.08 26.16 25.39 25.33 25.78 25.26 23.54 22.27 22.17 23.84 23.18 23.63 23.00 22.88 23.32 24.00 24.90 19.56 24.40 24.01 26.86 27.68 29.80 31.18 32.14
32.12 31.22 31.02 29.81 29.27 29.81 33.15 33.86 33.47 30.29 29.75 29.26 29.97 29.19 28.26 27.48 28.91 31.03 27.24 24.30 24.24 24.25 27.20 28.77 28.19 27.02 27.62 27.91 27.11 23.04 20.02 19.09 17.70 20.19 24.16 21.62 23.73 23.28 25.54 26.69 28.98 30.64 32.13
30.10 29.86 29.23 29.23 30.84 29.86 31.98 33.42 33.11 28.20 30.62 30.43 30.43 28.72 30.38 29.03 29.64 30.49 27.19 23.70 20.65 22.89 23.74 23.03 22.58 24.36 26.24 25.20 26.13 24.45 21.41 18.03 18.17 17.43 23.83 20.99 21.39 23.20 21.53 27.19 27.81 30.14 30.46

GFSMA_sfc_wetblb_069.txt.gz
Wetbulb
60.53 59.20 58.34 57.93 56.83 55.72 54.85 54.33 53.47 52.56 51.89 51.43 51.27 50.71 50.47 50.76 51.53 52.41 53.85 56.58 57.57 57.76 56.56 57.79 56.83 55.99 55.13 54.48 54.28 54.03 54.19 53.99 53.88 53.89 53.50 53.36 52.85 52.15 51.71 52.08 52.31 52.73 53.35
59.82 58.66 57.33 56.29 55.15 54.81 53.94 53.32 52.51 51.25 50.47 50.71 50.14 49.96 49.69 49.82 50.30 52.19 54.40 55.81 54.46 55.42 56.24 56.08 55.26 54.59 54.00 53.14 52.68 52.90 52.70 52.39 52.15 52.60 52.22 51.91 51.52 51.23 50.93 51.04 51.38 51.69 52.02
59.56 58.32 56.60 55.40 54.47 53.90 53.20 51.90 51.20 51.35 50.32 49.49 49.27 49.13 49.37 49.72 49.60 49.85 51.77 53.98 54.20 53.02 54.23 54.36 54.19 52.71 52.00 51.93 51.90 51.77 51.82 50.66 50.40 50.48 50.68 50.29 50.05 50.13 50.16 49.86 50.21 50.50 50.60
58.77 57.24 55.74 55.09 54.77 53.95 51.88 51.79 51.33 49.83 49.59 49.56 49.42 48.82 49.27 49.58 49.10 49.20 49.24 49.90 50.09 50.36 51.60 52.17 52.65 52.66 51.91 51.73 52.12 52.26 51.96 51.37 50.42 50.32 49.82 49.38 49.32 49.35 49.39 49.39 49.34 49.62 49.81
57.48 57.22 55.27 55.26 55.04 53.50 53.01 51.54 50.44 50.68 49.61 49.56 49.17 49.34 49.42 49.13 49.06 48.58 48.20 48.73 49.25 49.04 49.40 47.31 47.97 48.79 50.08 51.62 51.88 52.32 52.25 50.81 51.09 51.02 50.47 49.66 49.01 48.88 48.94 48.75 48.83 49.08 49.12
56.69 55.70 55.58 54.67 54.46 52.21 50.92 50.88 50.31 50.17 50.18 50.13 47.97 48.24 48.84 48.20 49.33 49.63 49.04 48.69 48.88 49.05 49.20 48.35 48.33 48.37 46.09 47.65 48.80 50.65 51.75 51.77 51.94 52.09 52.00 51.34 50.19 49.59 48.62 48.18 48.04 48.07 48.38
55.05 56.30 54.76 53.79 52.87 52.01 51.15 51.13 50.44 49.91 49.31 49.70 48.58 48.21 47.32 46.92 46.79 47.93 48.74 48.41 48.17 48.40 48.25 47.88 47.57 47.57 47.19 44.53 44.90 47.17 48.73 50.33 51.15 51.55 51.71 51.19 50.87 50.27 48.44 47.80 48.00 47.47 47.94
55.48 55.12 53.67 52.48 52.45 51.00 50.77 51.02 50.60 49.23 49.39 49.08 47.62 45.91 43.61 44.53 45.76 46.61 47.17 46.82 47.60 48.14 47.06 46.72 46.86 46.48 46.19 45.67 44.54 44.14 45.25 46.58 47.86 48.29 48.67 48.93 49.56 49.22 48.19 48.74 47.86 47.67 47.53
55.07 53.96 53.23 52.59 51.85 51.65 50.48 50.15 49.71 48.92 47.63 47.81 47.12 45.62 41.36 39.42 42.04 46.76 45.83 46.20 46.43 46.79 46.94 46.50 46.16 45.77 45.64 44.79 43.57 43.35 42.65 43.86 45.07 46.27 46.59 47.05 47.92 48.31 48.76 48.17 48.31 48.67 47.85
54.12 53.19 52.19 52.09 51.81 50.87 50.21 50.07 49.57 48.91 48.48 46.62 47.23 46.53 46.37 44.86 39.49 38.31 45.03 45.53 45.75 45.29 46.18 46.14 45.02 44.99 45.43 44.11 41.67 40.19 41.86 42.60 42.65 44.03 44.99 45.83 46.52 47.09 47.77 47.76 47.62 47.40 48.06
53.47 52.20 52.13 51.58 50.83 50.15 49.50 49.47 48.72 47.82 48.59 46.29 44.73 44.96 44.61 44.39 43.99 40.56 37.58 40.75 43.86 44.96 45.47 45.26 44.42 44.18 43.70 42.38 42.48 41.96 40.31 39.72 40.37 41.77 42.97 43.79 44.68 45.60 46.14 46.56 46.52 47.05 46.72
52.22 51.84 50.83 50.40 49.21 48.73 46.32 46.34 46.53 45.41 46.03 45.96 45.44 44.63 43.03 41.27 40.77 40.67 39.18 39.19 39.41 41.60 43.86 44.02 43.40 43.13 43.15 42.15 39.02 38.15 38.24 37.32 37.88 39.00 40.54 42.00 43.15 43.74 44.11 44.46 45.06 45.56 45.62
50.49 49.96 49.88 48.18 48.54 44.33 43.36 43.61 44.87 44.90 44.78 44.39 44.14 43.83 44.67 44.04 43.59 41.63 39.93 38.41 38.06 40.49 41.17 42.68 43.07 42.40 40.22 41.11 40.08 36.86 36.29 34.97 35.27 36.27 37.51 38.86 40.25 41.68 42.39 42.75 43.22 43.68 43.94
50.65 49.75 49.10 46.94 44.62 43.67 43.33 43.09 43.58 45.05 45.03 44.86 44.68 44.53 44.24 43.44 43.08 41.72 39.56 38.47 35.94 37.29 37.71 38.65 41.20 40.49 39.62 39.67 37.54 35.74 37.48 34.42 33.93 34.53 35.56 36.31 37.35 38.26 38.85 39.82 40.75 41.33 41.89
48.83 49.52 49.44 45.29 44.52 42.92 44.07 44.69 44.83 44.51 44.66 44.57 44.34 44.03 42.64 42.63 42.25 41.42 41.11 40.71 37.66 33.47 34.28 37.14 36.99 39.60 40.04 40.18 38.12 37.69 36.83 34.51 33.36 33.44 33.37 34.09 35.10 35.91 36.42 37.15 37.97 38.68 39.48
49.37 49.45 46.12 44.42 43.29 44.57 44.62 44.22 44.14 43.96 43.46 43.72 42.97 42.17 41.79 41.61 41.07 40.85 40.36 40.30 39.80 36.85 33.12 37.39 37.76 38.68 39.02 36.97 36.32 35.84 35.36 32.73 32.58 32.12 32.23 32.97 33.77 34.63 35.13 35.56 36.10 36.88 37.72
46.45 46.03 45.27 44.61 44.54 44.27 43.98 43.74 43.77 43.32 42.30 42.56 41.98 41.20 40.94 41.15 39.97 40.10 40.24 39.69 38.60 38.07 33.65 36.19 37.49 37.53 35.62 35.09 35.17 35.40 34.17 33.36 33.83 31.94 31.64 32.36 33.00 33.79 34.41 34.38 34.35 34.80 35.51
47.78 44.99 44.54 44.63 43.83 43.28 43.72 43.09 42.77 42.26 41.86 41.26 41.05 40.64 39.72 39.48 39.42 39.99 39.36 38.58 38.15 38.20 35.73 33.52 36.30 34.23 33.42 34.74 33.92 32.81 31.97 32.21 32.96 31.76 31.29 31.30 31.60 31.99 32.16 32.31 32.57 32.98 33.48
46.19 44.92 44.10 42.97 43.21 43.27 42.92 42.90 42.58 42.07 41.67 41.26 40.94 40.50 39.96 39.62 38.74 38.99 38.58 37.70 37.69 36.29 35.33 33.31 32.54 33.64 33.06 33.26 32.39 32.39 31.24 31.54 31.94 31.30 30.57 30.46 30.68 31.10 31.77 31.88 32.36 32.78 33.04
42.83 42.26 42.77 43.15 43.03 42.44 42.14 42.18 42.04 41.77 41.13 40.58 40.78 40.35 39.86 39.01 38.39 38.21 37.82 37.42 35.09 33.24 34.60 32.34 31.51 31.60 31.80 32.48 31.01 28.87 28.36 30.64 30.05 30.98 30.80 30.34 30.11 30.90 31.25 31.40 31.49 31.92 32.35
42.83 42.52 42.18 42.18 42.18 41.46 40.81 41.47 41.19 41.06 40.53 40.28 40.50 39.67 39.52 38.91 37.10 36.43 35.54 35.81 35.10 33.95 33.04 31.23 30.38 30.46 30.23 29.95 28.52 28.93 27.21 28.47 29.40 30.79 30.53 31.24 31.35 31.74 32.45 31.77 31.75 31.79 31.91
41.32 41.29 41.24 40.86 40.25 39.29 36.57 36.56 37.47 40.19 39.96 39.46 38.82 39.47 39.03 36.30 36.52 35.48 35.34 35.00 34.97 34.17 32.20 31.06 30.28 29.13 29.56 29.68 29.09 27.21 26.61 25.50 23.92 31.60 29.06 28.44 30.91 30.15 31.59 32.63 31.28 31.05 31.65
41.32 40.51 40.25 39.88 39.63 39.81 35.49 35.84 35.81 38.70 38.93 38.88 38.77 38.19 37.10 36.27 35.43 35.97 33.92 31.78 32.52 31.05 29.55 32.05 29.87 30.04 29.13 29.48 27.88 26.49 26.51 26.10 25.50 28.58 27.87 25.68 29.76 28.61 31.65 32.02 31.28 31.21 31.56
39.92 39.99 39.93 39.28 38.76 38.18 34.57 34.77 34.69 37.85 38.32 38.47 38.04 37.67 36.89 36.33 36.08 34.72 33.47 32.57 32.80 33.21 32.55 30.97 31.48 31.41 31.23 30.13 28.58 28.17 27.54 27.19 27.79 28.64 29.05 23.63 28.78 28.00 30.88 31.92 31.69 31.93 32.23
39.48 38.92 38.33 38.21 37.66 37.73 34.39 33.78 34.28 37.02 36.40 36.53 36.96 36.97 36.47 35.99 34.40 32.85 31.71 30.60 31.43 31.82 31.31 30.25 29.89 29.60 28.75 27.18 28.66 28.71 25.82 25.28 23.93 25.50 28.47 26.07 27.45 26.59 29.05 30.63 33.56 31.59 32.08
37.79 37.97 37.22 37.77 36.24 36.51 35.16 34.03 34.44 36.54 35.38 34.87 35.46 35.00 33.05 32.94 32.79 31.13 31.99 31.55 29.66 30.52 30.98 29.90 29.97 29.62 28.97 29.56 28.16 28.85 28.05 24.64 24.09 23.17 28.85 24.35 25.11 25.92 24.10 30.14 31.95 32.67 33.85

GFSMA_sfc_wetblb_072.txt.gz
Wetbulb
66.63 65.77 63.90 61.51 61.81 60.86 61.36 60.19 59.07 57.81 56.15 55.17 54.71 53.99 53.53 53.91 53.89 54.93 57.04 56.36 57.43 58.17 57.36 58.42 57.15 56.25 55.23 54.67 54.11 53.81 54.08 53.72 53.55 53.66 53.40 52.73 52.24 51.96 51.90 52.01 52.24 52.53 52.78
65.38 62.15 61.94 62.15 61.09 61.46 60.63 59.16 57.32 55.63 54.82 54.56 53.66 53.33 53.06 52.94 53.20 54.27 55.57 56.03 54.73 55.72 56.20 56.30 55.64 55.09 54.10 53.23 52.77 52.93 53.00 52.33 52.13 52.24 52.13 51.29 51.11 51.02 51.03 50.67 50.83 51.11 51.56
63.65 63.69 62.55 61.66 60.60 59.56 58.29 56.93 55.78 55.13 54.21 53.48 52.62 52.89 53.59 53.26 52.68 52.27 52.77 54.69 55.09 53.51 53.82 54.37 54.79 53.72 53.03 52.58 52.38 52.81 52.81 52.60 51.58 51.23 51.05 50.51 49.95 49.77 49.82 49.93 50.08 50.13 50.37
64.13 63.16 61.65 60.37 59.32 58.29 57.17 56.21 55.17 53.82 54.09 54.26 54.07 53.62 54.06 53.80 52.76 52.02 52.03 52.41 51.94 51.49 52.38 50.98 51.76 52.45 52.71 53.28 53.06 53.27 53.17 52.91 52.27 51.47 51.25 51.12 50.47 49.75 49.25 49.07 48.93 49.32 49.74
63.52 62.47 61.08 59.52 59.14 57.59 57.28 55.40 54.86 56.03 54.12 55.03 53.74 54.11 54.18 53.60 53.38 52.03 52.16 52.35 52.10 50.85 50.62 48.50 47.62 47.55 48.32 49.73 51.41 52.55 52.55 52.80 52.37 52.89 52.27 51.86 51.56 50.78 49.79 49.43 49.02 48.49 48.50
62.11 61.74 60.61 59.70 58.87 57.36 55.69 54.71 54.47 55.25 55.31 54.33 51.89 51.94 53.26 52.30 52.31 52.06 51.50 50.70 51.58 50.53 50.73 50.37 50.39 50.27 47.16 46.60 47.77 49.23 50.40 51.41 52.40 53.23 52.74 52.49 52.51 52.25 51.45 50.27 49.26 48.70 48.35
60.95 61.82 60.02 58.77 58.07 56.63 55.51 55.61 55.24 54.18 54.82 55.29 52.29 53.01 52.71 51.53 50.96 50.83 51.32 50.54 50.39 50.20 50.28 50.09 49.66 49.19 49.02 46.85 47.03 46.58 48.48 49.20 49.90 50.15 50.43 50.36 50.12 50.11 50.39 50.66 49.33 49.23 48.66
60.23 59.05 59.18 57.98 57.49 56.18 55.18 54.97 54.73 54.87 55.33 54.95 50.81 50.01 47.62 49.22 49.61 49.95 50.45 49.79 50.06 50.32 49.20 49.40 49.42 48.68 48.55 48.25 47.64 44.48 44.80 46.03 47.06 47.75 48.03 48.17 48.42 48.76 49.75 49.85 49.85 49.44 49.35
58.55 59.12 58.67 58.05 57.37 56.27 54.86 55.09 54.49 53.47 53.14 53.19 51.43 48.80 44.51 43.23 45.04 49.42 48.94 49.31 49.22 49.25 49.21 49.21 48.85 48.26 47.92 47.95 47.42 46.90 42.38 43.56 44.47 45.23 45.91 46.54 47.00 47.36 48.01 48.70 49.20 49.23 49.38
58.59 58.61 58.11 57.90 57.06 55.88 55.08 54.80 54.46 54.15 52.33 50.75 52.00 49.71 48.74 46.84 42.09 41.03 47.47 47.64 48.40 47.96 48.73 48.85 48.59 47.95 47.37 47.56 46.45 42.06 42.03 41.54 42.08 43.42 44.51 45.02 45.71 46.34 46.98 47.42 48.20 48.53 48.41
58.63 57.78 57.52 57.33 56.38 55.40 54.93 53.70 53.20 52.47 52.30 49.73 47.86 47.20 46.73 46.55 46.33 43.29 41.36 44.07 46.32 47.16 47.64 47.66 47.93 47.23 46.95 46.75 46.27 43.82 39.68 38.74 39.10 40.42 41.91 43.25 44.11 45.10 45.59 45.71 46.23 46.71 46.83
57.95 57.43 57.02 56.90 56.21 54.24 53.64 52.91 50.38 48.90 49.27 48.76 47.87 46.85 45.29 43.64 43.34 43.14 41.84 42.05 41.95 43.90 45.87 46.80 46.71 46.58 46.44 45.55 41.80 37.82 37.76 36.70 37.04 38.00 39.06 40.31 41.54 42.86 43.86 44.81 45.54 45.85 46.08
56.04 56.49 56.57 55.79 54.05 53.51 48.17 45.58 46.35 49.50 48.89 47.93 47.28 46.15 46.78 45.88 45.63 44.19 42.48 41.35 40.33 42.68 43.58 45.74 45.76 45.68 44.85 44.70 43.73 36.76 39.02 35.38 35.27 36.08 36.58 37.52 38.44 39.43 40.44 41.78 43.18 43.91 44.41
57.07 57.20 55.81 54.74 53.55 45.54 45.51 46.16 47.81 49.04 49.11 48.07 47.08 46.72 46.27 46.21 45.81 44.73 42.49 40.66 38.34 40.02 41.50 42.30 45.16 45.08 44.23 43.68 42.50 36.23 41.40 37.70 35.81 35.17 35.34 35.77 36.10 36.83 37.49 38.29 39.28 40.26 41.03
57.19 55.55 54.60 52.47 47.73 46.03 46.23 46.41 48.19 48.70 48.27 47.90 47.37 47.20 46.31 45.97 46.02 45.30 44.25 42.64 39.62 35.81 37.25 41.14 41.00 43.87 43.53 42.55 42.12 42.44 41.05 39.72 35.83 34.96 34.28 34.24 34.85 35.52 36.24 36.90 37.64 38.26 38.92
55.03 53.73 51.42 48.18 46.01 45.56 47.04 48.68 48.49 48.43 47.36 47.27 46.81 46.29 45.96 45.64 45.33 45.20 44.06 43.20 42.07 39.38 35.99 40.65 41.29 42.52 42.67 41.62 41.97 40.50 39.73 37.58 36.66 35.59 34.01 33.31 33.76 34.55 35.18 35.56 36.08 36.50 37.27
51.79 49.89 47.79 47.88 51.08 48.64 48.75 48.35 47.93 47.39 46.31 46.30 46.54 45.68 45.03 45.60 44.69 44.31 43.85 42.98 41.44 40.80 37.21 39.43 41.34 42.07 40.68 39.75 39.60 40.38 39.93 38.76 38.06 36.20 34.06 33.25 33.06 33.31 33.27 33.38 33.83 34.66 34.97
49.35 49.03 49.22 49.46 48.09 48.15 48.28 47.41 46.65 46.27 45.71 45.14 45.29 45.18 44.39 43.98 44.03 43.88 42.88 41.75 41.28 41.33 38.80 35.86 39.30 39.45 39.31 39.38 37.82 38.19 37.58 37.32 36.80 35.95 34.29 32.84 32.73 32.16 32.12 32.42 32.71 32.93 33.23
49.37 47.13 47.64 47.53 47.41 47.14 46.88 47.05 46.36 45.80 45.46 45.12 44.99 44.54 44.12 44.03 42.90 42.76 42.25 41.23 41.06 40.24 39.89 36.84 36.30 38.74 37.36 37.76 36.16 37.52 36.92 36.81 36.18 35.44 34.32 33.02 32.86 32.10 32.01 32.19 32.33 32.64 32.83
44.01 43.77 45.65 46.22 45.96 46.64 46.21 45.82 45.24 44.74 44.76 44.38 44.46 44.31 43.97 43.49 42.56 42.08 41.11 40.61 40.01 39.15 37.93 35.50 34.45 34.51 35.55 37.24 36.58 34.58 33.84 35.52 34.50 35.40 35.26 34.21 32.81 32.95 32.58 32.55 32.56 32.61 32.53
43.46 43.82 46.01 45.72 46.33 45.93 44.70 44.54 43.79 43.50 43.20 42.94 43.46 43.46 43.71 42.68 40.45 39.44 39.64 39.46 39.20 36.56 34.56 33.35 33.09 33.35 33.80 34.19 33.10 35.10 33.05 33.19 34.02 34.96 34.50 35.11 35.25 35.32 35.64 34.81 34.31 33.29 32.76
43.40 45.72 45.90 46.61 45.43 43.58 38.23 37.10 37.69 41.88 41.81 41.48 41.44 42.24 42.66 40.67 39.05 35.75 35.56 35.08 35.92 35.56 34.25 35.10 33.57 32.04 33.55 33.94 34.36 33.36 32.40 30.03 28.26 35.64 33.23 32.34 34.43 33.54 34.97 35.60 34.20 32.02 32.04
46.27 46.68 45.67 44.16 43.40 43.77 37.52 36.57 35.99 40.13 40.34 40.69 40.83 40.80 40.60 40.68 38.87 39.85 37.12 34.63 34.19 34.03 32.82 35.74 33.95 33.27 32.39 34.07 33.45 32.24 31.32 30.61 30.12 33.15 32.08 29.42 33.27 32.09 34.78 34.77 34.16 32.91 32.45
44.92 44.18 43.70 43.66 42.86 42.41 36.74 35.86 35.08 39.58 40.13 40.51 40.76 40.80 40.41 40.40 40.38 39.37 39.03 37.39 36.53 36.20 35.35 34.49 34.98 35.12 34.49 34.54 33.67 32.85 31.52 31.05 31.16 32.05 33.52 27.80 32.12 31.15 33.90 34.52 33.81 33.40 32.82
43.38 42.68 42.47 42.11 41.67 41.86 36.54 35.11 35.22 39.56 39.23 39.63 40.23 40.53 40.28 39.81 37.43 36.79 36.84 35.10 34.67 34.57 35.07 33.73 33.06 32.57 30.92 29.92 30.06 31.59 28.48 27.42 26.67 29.51 32.98 30.10 30.41 30.04 31.51 32.60 35.26 33.49 32.42
41.23 41.61 40.85 41.45 39.30 40.49 37.45 35.74 35.95 38.19 37.20 37.96 38.86 39.01 36.12 36.45 34.39 33.38 35.45 35.41 33.52 33.25 34.02 34.24 33.51 31.97 31.19 32.21 29.74 30.50 29.86 26.67 26.63 26.82 31.60 27.92 28.84 28.85 26.79 31.73 32.85 33.54 34.83

GFSMA_sfc_wetblb_075.txt.gz
Wetbulb
66.13 66.01 65.84 63.98 63.60 63.04 62.13 61.86 61.27 60.01 57.59 56.52 56.00 55.05 54.38 54.56 54.99 55.43 57.59 56.53 57.52 58.33 58.27 58.56 57.58 56.63 55.62 54.76 54.04 53.88 53.92 53.36 53.27 53.19 52.93 52.33 52.12 51.70 51.65 51.50 51.66 51.86 51.93
66.12 65.91 63.87 63.08 62.19 62.76 62.84 61.99 60.01 57.58 56.29 56.03 54.81 54.12 53.99 54.09 54.20 54.53 55.57 55.66 56.57 56.59 56.71 56.75 55.86 55.36 54.33 53.46 52.99 52.88 53.22 52.89 52.62 52.11 51.63 51.41 50.95 50.94 50.87 50.73 50.56 50.64 50.90
65.72 65.04 63.50 63.13 63.03 62.86 61.70 59.61 57.47 56.77 55.35 54.74 54.19 54.17 54.32 54.13 53.59 53.01 53.23 54.82 54.95 55.28 55.06 55.04 55.14 54.86 54.33 53.74 53.30 53.46 53.80 52.77 53.42 52.33 51.76 51.87 51.42 50.84 50.33 49.98 49.86 49.95 49.99
65.43 64.97 63.88 63.07 62.34 60.91 59.69 57.86 56.79 55.24 55.58 55.87 55.52 55.16 54.40 53.73 53.40 52.98 52.87 52.67 52.18 51.36 53.14 52.05 50.49 49.69 50.18 51.43 53.00 53.77 53.80 53.39 53.65 52.92 52.80 52.78 52.29 51.79 51.12 50.36 49.83 49.46 49.43
65.35 64.70 63.63 62.61 61.74 59.76 58.59 57.30 56.53 56.95 55.43 55.47 54.63 54.80 55.26 53.53 53.26 52.27 52.34 52.09 52.47 52.02 50.86 50.47 49.31 49.39 48.34 47.70 48.62 50.25 51.26 51.69 52.60 53.24 53.27 53.36 53.31 53.34 52.83 51.49 51.04 50.39 49.74
64.91 64.45 63.21 61.84 60.86 58.94 57.52 56.84 56.52 56.28 56.59 56.03 54.46 54.44 55.14 54.43 53.55 52.69 52.27 51.97 51.90 51.94 51.42 51.23 50.92 50.76 49.30 47.75 46.95 48.09 49.18 50.62 51.60 51.89 52.43 52.31 51.75 51.33 51.07 51.60 52.18 51.27 50.26
64.47 64.15 62.78 61.29 60.36 58.35 57.32 57.16 56.60 55.94 55.22 56.47 53.83 54.53 54.29 53.91 52.77 52.28 52.49 51.95 51.40 51.50 51.57 50.76 50.55 50.04 49.52 48.63 49.43 46.76 47.08 48.35 49.70 50.13 49.95 49.97 49.79 49.66 49.63 50.09 50.68 51.24 50.71
61.51 63.57 62.38 60.48 59.24 57.80 57.06 56.98 56.48 55.20 56.06 55.75 52.58 51.45 49.13 51.14 51.49 51.86 51.86 51.39 51.52 50.98 50.82 50.54 50.42 49.95 49.54 49.02 48.71 45.77 45.98 45.57 46.62 47.80 47.90 47.76 47.80 48.05 48.32 48.81 49.42 50.15 50.41
63.01 62.75 61.56 60.21 58.86 58.15 56.31 56.85 56.65 55.86 54.27 54.95 53.52 50.73 46.70 45.67 46.98 50.14 50.16 50.10 50.68 50.25 50.84 50.27 50.18 49.81 49.47 48.65 48.73 48.22 43.83 43.55 44.13 45.18 45.99 46.19 46.29 46.83 47.34 47.82 48.40 48.76 49.39
59.86 60.72 60.65 59.71 59.10 57.95 57.24 56.79 56.53 56.40 54.84 52.48 53.43 51.71 50.98 48.98 44.37 43.37 48.42 48.91 49.64 49.19 49.86 49.43 49.35 49.46 49.35 48.08 48.57 45.28 42.39 41.33 41.01 42.40 43.71 44.61 45.26 45.58 46.29 46.71 47.25 47.36 47.88
58.95 60.02 59.72 59.02 58.54 57.41 57.31 56.77 55.37 54.16 53.56 49.92 47.44 49.05 49.08 47.96 47.65 44.30 42.04 45.18 48.20 48.14 47.95 47.62 48.21 48.26 48.58 48.04 47.32 43.96 40.40 38.95 38.61 39.69 41.10 42.45 43.41 43.94 44.70 45.43 46.05 46.64 47.04
57.80 59.74 58.55 58.57 58.34 57.49 56.09 54.94 54.06 52.83 48.60 49.77 50.15 49.05 46.70 45.08 44.41 44.36 43.09 43.81 43.00 44.75 46.19 46.66 47.18 47.61 47.57 47.47 46.00 41.42 39.67 37.77 37.12 38.22 39.16 40.08 40.80 41.65 42.29 43.32 44.11 45.14 45.71
57.62 58.95 58.57 58.34 57.54 56.29 55.14 53.16 50.30 48.48 49.15 50.07 49.48 48.09 47.49 46.91 47.15 45.86 43.89 42.04 41.29 43.17 43.54 46.39 46.49 47.04 46.42 46.54 45.87 40.95 41.59 39.18 38.54 37.78 37.66 38.25 38.58 39.04 39.64 40.26 41.17 42.01 42.88
59.44 59.77 58.45 58.22 56.66 55.07 52.27 49.99 48.87 47.54 49.40 50.32 49.14 48.31 47.34 47.25 47.35 46.19 43.77 41.79 39.43 40.13 41.95 42.68 45.69 46.30 46.52 46.01 43.04 40.58 42.36 42.21 39.79 36.93 36.55 37.19 37.02 37.09 37.41 38.05 39.00 39.71 40.49
58.99 58.54 58.56 56.87 55.13 52.57 49.22 47.26 45.94 48.32 49.65 49.63 49.03 48.67 47.44 47.49 47.15 46.24 45.47 44.25 40.93 36.40 37.45 41.34 41.53 45.53 45.88 45.55 44.71 43.97 43.20 42.77 38.64 37.91 37.82 36.26 35.89 36.01 36.48 36.92 37.32 37.95 38.53
58.85 57.81 56.57 54.33 50.63 47.31 46.90 46.15 47.86 49.58 49.43 49.25 48.34 47.55 47.31 47.20 46.46 46.07 45.30 44.58 43.32 40.67 37.53 40.92 41.81 44.54 45.30 43.43 44.36 43.11 42.47 42.04 40.20 39.29 38.47 36.91 35.43 35.15 35.34 35.52 35.68 35.99 36.64
55.78 54.12 50.14 47.91 47.65 48.33 49.12 48.04 49.07 49.09 48.34 47.94 47.75 47.04 46.63 46.78 45.38 45.30 45.14 44.48 42.82 42.70 39.22 41.52 43.02 44.27 43.53 43.31 43.10 43.22 42.56 41.03 41.37 39.35 38.52 35.99 34.67 34.51 34.11 34.04 34.10 34.24 34.62
51.12 48.99 48.39 49.61 50.83 49.84 48.64 48.29 48.04 48.04 47.16 46.26 46.83 46.72 45.79 45.36 45.27 45.20 44.89 43.96 43.48 43.37 41.09 39.02 41.64 41.79 42.13 42.61 41.82 41.06 39.63 39.73 40.04 38.80 38.08 35.02 34.63 34.39 33.71 33.28 33.08 33.14 33.43
48.95 49.91 49.04 47.18 46.77 47.31 48.23 48.38 47.86 47.64 47.09 46.86 46.47 45.30 44.83 44.68 44.41 44.96 44.66 43.63 43.50 42.15 42.25 40.42 39.53 41.81 41.07 41.06 40.14 39.82 39.02 39.54 38.89 39.05 37.60 36.13 36.17 35.22 34.01 33.83 33.52 33.29 33.38
46.43 45.70 46.33 46.56 46.59 47.45 47.26 47.45 47.60 46.76 45.94 45.26 45.14 44.76 44.28 43.84 43.33 43.96 43.50 43.59 42.65 41.74 41.03 39.50 38.78 37.80 37.76 38.87 38.72 36.70 35.85 37.64 36.53 37.48 37.07 35.87 36.32 36.62 36.42 35.67 35.02 34.09 33.83
45.01 46.34 45.22 45.18 46.93 46.96 47.07 47.41 46.21 44.67 43.49 43.18 43.63 43.65 44.17 43.24 41.45 41.22 41.79 42.02 41.29 39.64 38.90 37.82 36.44 35.48 35.88 35.68 34.86 36.31 34.75 35.56 36.18 36.18 35.15 36.27 36.44 36.07 36.46 36.78 36.60 36.54 34.82
44.16 44.38 45.44 46.78 47.02 47.28 38.06 38.55 37.76 41.50 41.52 41.21 40.98 41.78 42.54 41.21 40.78 37.59 37.50 36.56 37.62 37.95 36.86 35.71 35.11 34.14 34.86 35.96 36.38 34.77 33.74 32.33 30.12 36.87 34.05 33.73 35.42 33.88 35.37 36.28 35.75 33.73 33.06
44.56 46.14 46.84 47.35 46.31 45.54 38.96 37.78 36.54 40.34 39.97 40.14 40.39 40.85 40.46 41.06 40.18 42.04 38.84 35.37 35.14 34.58 33.00 36.75 34.45 34.47 34.73 36.03 35.35 33.44 32.58 32.13 31.12 33.55 33.43 30.68 34.00 33.12 35.32 35.07 35.71 34.68 34.16
46.81 47.47 46.10 45.09 44.47 43.77 38.78 37.27 36.01 39.87 40.01 40.44 40.86 41.00 41.58 41.79 42.06 40.47 40.41 39.85 39.83 39.32 37.73 36.58 35.95 36.00 36.72 36.97 35.76 34.56 33.39 32.30 32.41 32.61 32.98 28.62 33.12 32.26 34.87 35.29 34.86 35.75 35.23
45.26 44.81 44.22 42.99 42.30 42.39 36.66 35.83 35.73 40.09 39.64 39.47 40.15 40.02 39.93 39.92 38.08 36.65 37.46 37.54 37.28 37.57 38.00 35.69 35.68 35.61 33.75 31.83 30.81 32.76 30.92 29.52 28.56 28.97 32.68 30.68 31.69 30.40 32.07 32.65 34.87 33.22 32.89
43.18 42.62 41.78 41.99 39.02 40.95 35.99 35.41 35.60 36.78 35.52 35.78 36.38 36.58 34.43 34.75 32.89 33.74 35.63 35.40 34.10 34.17 34.55 35.84 36.30 34.65 33.44 33.68 31.17 31.65 31.51 28.58 27.80 27.22 31.35 29.68 29.39 29.59 26.97 31.88 32.62 33.87 34.35

GFSMA_sfc_wetblb_078.txt.gz
Wetbulb
61.83 62.02 61.96 61.02 60.16 60.48 60.27 59.00 58.55 57.38 54.68 53.77 52.61 52.15 51.72 51.18 51.33 53.43 52.72 57.87 58.88 59.45 60.30 58.99 58.14 57.19 56.02 54.83 54.04 53.95 53.97 53.57 53.44 52.90 52.51 52.05 51.78 51.55 51.61 51.09 51.04 51.10 51.32
63.50 63.32 62.29 61.67 60.20 60.47 59.96 59.41 57.82 55.01 53.55 52.70 51.52 51.37 50.93 50.48 50.24 50.50 52.25 54.13 57.55 58.14 57.61 57.03 56.46 55.82 54.65 53.73 53.19 52.70 53.25 53.74 52.86 52.71 52.18 51.85 51.69 51.25 50.96 50.60 50.47 50.37 50.49
63.65 63.02 61.50 60.54 59.72 61.13 59.72 57.32 54.58 53.26 51.67 52.03 51.11 50.72 51.14 50.24 50.33 49.38 50.10 52.06 53.89 56.49 56.89 56.35 56.02 55.18 54.75 54.48 54.38 54.31 54.29 53.72 53.73 52.82 52.46 52.77 52.72 52.20 51.61 50.84 50.31 50.21 50.21
63.40 62.48 61.54 60.81 61.00 58.45 56.89 54.82 53.30 52.00 51.66 51.51 50.47 49.99 49.84 49.76 49.28 48.76 48.82 48.62 49.08 50.99 54.43 54.82 53.56 51.75 50.75 50.56 50.65 51.55 52.62 52.84 52.73 53.10 53.04 53.38 54.19 53.48 53.52 52.99 51.78 51.11 50.39
64.20 63.08 62.33 61.03 59.40 58.22 56.34 54.67 52.81 52.53 51.10 50.74 51.37 50.33 50.22 49.07 48.94 50.25 48.64 48.19 48.04 47.80 47.83 52.70 52.26 51.68 50.19 48.90 48.00 48.62 49.78 50.65 51.27 51.87 52.51 53.15 52.75 52.31 52.00 51.65 52.05 52.89 52.40
64.21 62.63 62.08 59.58 59.04 56.51 55.34 53.74 52.60 52.34 52.27 51.30 53.32 52.13 50.30 50.01 48.82 47.59 48.04 49.36 48.13 48.14 47.43 47.38 46.55 47.88 51.34 48.98 49.08 48.27 48.21 49.19 50.21 50.96 51.34 51.18 51.15 50.92 50.70 50.67 50.85 51.47 51.82
63.50 62.64 60.88 59.36 58.65 55.96 54.03 54.61 53.32 51.71 50.79 51.58 49.34 50.31 50.60 50.28 48.45 47.45 48.19 47.61 47.93 47.96 47.41 46.44 46.06 45.26 46.28 49.73 49.90 48.70 48.00 48.41 48.58 48.76 49.14 49.21 49.00 48.84 48.86 49.12 49.41 49.79 50.52
63.08 62.17 60.43 58.87 58.07 55.65 54.32 53.89 52.96 52.14 52.25 51.59 48.33 47.14 44.50 46.23 47.28 48.62 47.44 47.75 46.73 46.98 47.23 47.97 46.47 46.10 45.19 44.47 45.49 47.25 48.72 46.58 46.22 46.82 47.36 47.69 47.50 47.77 47.98 48.14 48.47 49.08 49.37
60.96 60.74 61.22 58.85 57.04 55.61 53.76 53.92 53.01 52.17 50.46 51.49 50.00 46.76 42.61 40.50 41.68 45.64 46.72 45.85 45.36 45.30 45.94 46.50 46.88 46.93 45.93 44.46 46.48 45.65 45.80 44.83 44.06 44.67 45.55 45.91 46.32 46.44 46.69 47.21 47.62 47.96 48.42
60.32 61.40 60.93 58.75 56.47 55.73 54.17 54.13 54.72 52.72 50.76 48.72 50.72 51.30 47.74 44.62 39.73 38.07 43.34 43.76 45.87 45.87 45.04 45.24 44.92 45.98 45.84 44.29 47.32 45.71 44.07 42.50 41.63 41.98 43.10 43.79 44.76 45.20 45.61 45.80 46.01 46.51 47.10
58.65 59.39 59.01 58.41 56.93 56.34 55.71 54.06 53.45 51.52 50.69 48.58 45.86 45.69 46.10 44.39 43.79 39.95 36.20 39.44 42.73 43.74 42.94 42.31 42.66 43.35 44.77 44.48 42.42 42.64 42.37 41.12 40.56 39.81 40.09 41.70 43.32 43.95 44.23 44.51 44.92 45.24 45.80
57.80 57.77 58.27 57.56 56.78 56.09 55.26 53.38 52.50 51.10 48.25 47.04 47.26 46.71 43.57 41.38 39.87 38.94 37.23 38.27 38.01 39.63 41.21 41.55 41.08 41.91 43.19 42.71 46.38 44.05 42.40 40.37 39.85 40.01 40.08 40.90 41.54 42.19 42.27 42.88 43.24 43.56 44.02
56.46 56.36 56.91 55.93 55.80 55.65 53.60 52.10 50.16 48.12 47.36 46.38 46.35 46.06 45.06 42.68 42.96 41.83 39.65 37.69 36.26 38.14 38.25 39.86 40.71 41.37 43.77 42.09 42.26 42.36 42.11 40.97 40.59 40.76 39.80 38.90 39.68 40.37 40.72 40.75 40.85 41.64 42.12
56.45 56.49 56.94 56.39 55.94 53.94 51.09 49.66 48.43 47.98 47.00 46.62 46.41 45.12 44.42 44.88 43.54 42.43 40.26 37.15 33.97 35.21 36.20 36.77 39.85 40.30 40.65 41.34 42.31 43.87 40.91 41.88 41.74 40.51 39.08 38.72 39.19 39.20 37.91 38.18 38.90 39.54 40.26
57.86 57.60 56.74 55.53 53.82 50.97 49.08 48.97 46.18 45.88 46.22 46.87 47.26 45.97 45.08 44.87 43.99 42.95 41.52 39.96 36.37 31.40 32.91 35.44 35.87 39.46 39.97 39.97 40.46 38.38 38.06 42.80 42.39 39.91 38.84 38.84 39.35 38.31 37.53 36.96 37.45 37.75 38.43
57.44 55.96 55.05 51.62 49.47 48.65 47.00 46.34 45.97 46.45 46.61 47.24 46.41 45.53 44.51 43.94 43.27 42.10 40.97 40.54 39.34 36.35 33.60 36.18 36.48 37.92 39.60 41.96 41.47 40.34 39.74 43.05 41.08 39.50 39.06 40.09 40.00 38.07 36.87 36.60 36.37 36.46 36.89
53.16 49.91 49.69 48.57 47.81 47.50 47.70 46.55 46.79 46.87 46.90 46.41 45.79 45.04 44.02 45.32 42.40 41.61 41.14 40.29 39.02 37.76 34.66 36.43 37.20 37.81 37.06 37.14 38.70 38.47 40.39 37.58 38.61 40.86 40.50 40.08 39.43 37.54 36.32 35.76 35.35 35.23 35.29
50.15 49.15 48.96 48.52 48.54 49.64 50.01 47.64 46.22 46.46 45.79 45.44 44.98 44.59 44.47 45.20 41.55 41.43 40.48 39.09 38.54 38.09 36.45 34.83 36.15 35.65 35.71 36.48 36.77 36.29 38.79 40.07 36.97 39.66 39.68 38.93 38.11 36.96 36.74 35.78 35.23 34.93 34.68
49.54 49.14 48.94 48.84 48.34 47.73 47.09 46.60 46.28 46.18 45.45 45.27 43.98 42.86 42.14 41.57 40.01 39.75 39.63 38.66 38.26 40.49 36.65 33.74 34.94 34.86 34.45 34.97 33.16 33.53 34.99 35.16 38.13 40.42 39.32 38.23 37.57 37.50 37.25 36.71 35.90 35.78 35.41
49.14 48.46 48.19 47.45 47.09 46.93 46.76 46.96 46.64 45.15 43.68 42.78 42.75 41.65 41.14 40.91 39.58 38.82 39.21 37.61 38.34 35.41 34.21 32.84 32.62 32.26 31.59 32.44 31.71 30.29 31.33 32.90 33.44 37.59 37.62 36.12 36.66 37.67 38.30 37.30 36.57 36.17 36.14
47.11 46.61 46.63 46.77 46.76 46.37 46.68 45.02 44.53 41.45 39.11 38.97 39.93 41.19 40.54 40.99 40.81 38.85 38.09 35.93 35.59 35.56 34.83 33.38 32.58 31.87 30.56 30.17 29.38 30.50 32.21 30.65 31.57 32.84 31.12 29.98 29.82 30.65 32.06 35.51 36.51 37.37 36.74
45.28 45.44 45.42 45.43 44.47 45.51 37.29 38.23 39.32 37.98 38.50 38.19 37.32 38.01 38.62 39.23 38.63 37.67 36.74 36.50 36.04 34.39 33.76 33.52 33.62 32.14 30.55 29.26 29.94 29.96 32.69 30.41 25.77 31.08 30.44 26.63 28.86 27.60 29.62 30.38 35.46 34.82 34.91
43.47 43.35 43.79 43.87 44.56 44.02 38.47 38.20 36.46 37.83 37.02 36.62 36.08 36.29 37.48 39.72 37.94 38.34 37.11 36.03 34.69 35.02 33.19 34.70 33.11 32.11 31.79 30.79 29.86 28.94 29.43 27.63 25.95 27.84 26.55 24.23 26.83 25.60 29.10 33.72 35.45 35.43 35.22
42.80 43.32 44.78 44.50 42.33 41.84 38.76 37.36 35.86 36.59 35.90 36.55 37.06 37.07 36.42 35.80 35.95 34.83 32.98 31.78 33.20 34.84 35.58 34.94 33.56 33.31 34.31 33.43 30.57 30.24 29.19 28.19 27.34 27.38 27.99 21.60 25.49 26.12 28.76 29.45 35.01 35.44 35.12
45.23 43.53 43.02 41.86 39.96 37.36 36.04 34.73 35.91 36.01 36.00 34.32 35.55 34.84 34.52 32.19 33.99 34.58 30.29 29.50 30.16 31.67 35.67 36.67 36.66 36.11 36.10 35.67 31.87 28.34 24.71 24.11 22.60 25.55 26.76 24.45 25.67 26.18 26.08 25.84 28.05 34.67 34.19
44.10 42.64 40.28 40.06 37.74 34.96 34.62 33.91 33.55 31.59 29.92 29.66 31.16 32.33 32.82 32.03 32.51 32.70 29.91 29.33 28.46 29.50 30.55 32.85 32.61 34.16 35.33 33.89 32.43 29.29 27.74 25.10 25.09 22.54 26.44 23.87 24.59 25.96 22.51 25.88 26.02 26.93 27.27

GFSMA_sfc_wetblb_081.txt.gz
Wetbulb
59.67 59.67 58.22 58.21 57.65 57.00 57.05 56.03 55.65 54.23 51.36 50.87 49.63 49.54 49.17 48.40 51.15 51.27 52.64 58.81 59.84 61.72 60.31 59.14 58.36 57.21 56.25 55.21 54.45 54.09 53.89 53.33 53.51 52.68 52.31 52.40 51.74 51.54 51.44 51.10 50.96 51.04 51.10
60.54 60.44 58.86 58.82 58.28 58.10 57.54 56.49 55.99 51.97 50.47 49.73 48.67 49.17 48.39 47.83 49.15 50.36 51.44 54.19 58.32 59.31 59.06 57.75 57.36 56.38 55.09 54.27 53.49 52.78 53.49 54.20 52.91 53.22 52.20 52.36 52.33 51.62 51.31 50.70 50.51 50.49 50.81
61.53 61.16 59.56 57.64 57.76 57.82 57.52 56.68 53.66 51.10 49.42 50.16 48.58 48.67 48.30 47.59 47.24 47.78 50.34 51.84 53.76 57.04 57.76 57.16 56.60 55.91 55.16 54.70 54.08 53.95 54.07 54.11 54.09 53.67 53.08 53.08 54.31 54.09 53.25 52.96 52.38 51.06 51.03
61.90 60.07 59.22 57.54 58.12 56.27 53.93 51.52 50.04 48.74 47.75 47.26 46.93 46.20 47.13 46.84 46.78 46.55 48.20 49.87 49.19 51.78 55.19 56.55 55.16 53.93 52.64 51.32 49.96 50.00 50.70 51.05 51.38 51.78 52.45 52.95 52.94 52.81 52.58 51.99 52.30 52.92 53.17
61.91 60.66 59.59 58.61 57.03 55.17 53.11 52.16 50.68 49.21 48.61 47.97 48.06 47.16 46.88 46.54 46.48 48.38 46.25 45.90 45.48 48.67 48.00 54.42 54.06 53.33 51.06 49.19 48.46 48.93 49.98 50.07 50.55 51.30 51.80 51.79 52.24 51.84 51.48 51.23 50.62 51.07 51.86
61.75 61.44 60.55 58.03 57.43 54.97 52.81 51.19 49.76 49.99 48.61 48.52 51.65 49.03 46.81 46.88 46.30 45.11 45.59 46.87 45.55 45.65 46.07 46.08 45.99 46.57 51.93 50.28 49.58 49.26 48.58 48.90 49.36 49.48 49.71 50.11 50.14 49.71 49.52 49.58 49.83 50.13 50.30
61.66 60.92 58.86 57.90 55.98 53.40 51.71 51.27 49.59 48.50 47.97 48.32 47.36 47.24 48.09 47.55 45.99 45.28 45.49 45.15 45.87 45.95 45.09 44.44 43.66 43.77 47.52 51.58 50.77 50.36 49.57 49.56 49.45 48.73 48.44 48.25 48.26 48.12 48.34 48.46 48.61 48.75 49.27
60.96 60.34 57.91 56.88 56.26 53.55 51.43 50.70 49.89 48.98 49.17 48.43 46.56 44.64 42.62 44.46 45.78 46.44 45.36 45.81 44.52 44.94 45.69 45.63 44.68 43.99 42.87 43.81 45.23 49.93 49.72 48.60 47.00 46.56 46.31 46.72 46.74 46.99 46.91 47.24 47.36 47.75 47.99
60.82 60.54 58.58 57.20 55.68 53.13 50.80 50.36 50.21 49.74 47.69 48.27 47.86 45.49 41.25 39.36 40.40 43.08 44.62 44.12 43.79 43.04 43.60 44.83 45.59 44.90 44.00 42.56 46.01 48.47 49.13 47.99 46.93 45.63 45.03 44.97 45.12 45.28 45.95 46.31 46.55 46.61 46.85
59.25 59.44 59.17 57.77 55.97 53.62 51.96 51.54 52.07 50.20 48.69 47.15 47.16 48.75 45.63 43.25 38.76 37.39 40.48 41.24 42.44 43.57 42.70 42.88 43.47 44.24 44.34 42.57 44.33 45.28 46.70 46.23 45.60 45.60 44.94 44.04 43.46 43.72 44.52 45.17 45.32 45.64 45.87
58.39 58.70 58.27 56.52 55.05 52.88 52.11 52.49 51.16 49.84 48.78 46.00 44.29 43.82 44.86 43.04 41.47 38.61 36.50 38.32 41.15 41.74 41.53 41.45 41.44 41.16 43.04 42.49 41.19 43.92 45.83 44.29 44.70 45.03 44.65 43.32 42.90 43.28 43.22 43.37 43.86 44.30 44.48
56.31 57.04 57.81 56.49 54.85 54.12 52.98 52.86 50.64 48.33 46.99 46.29 45.43 44.89 44.06 40.35 40.64 37.72 35.86 35.94 36.65 38.58 39.09 38.46 38.17 38.62 39.95 40.94 43.59 45.17 45.26 43.66 43.74 43.92 43.32 43.20 42.82 42.51 42.29 42.70 42.87 42.80 42.99
55.43 56.17 56.61 55.50 55.35 54.41 52.73 52.15 50.73 48.20 46.08 44.68 44.68 44.72 45.26 43.18 41.70 40.04 38.41 37.62 36.46 36.82 36.62 37.68 38.51 38.42 41.00 39.18 40.42 44.89 45.27 43.16 42.82 42.74 42.89 42.52 42.21 41.75 41.49 41.67 40.94 40.61 40.90
55.94 55.49 55.37 54.54 54.58 53.14 51.81 50.56 49.11 47.44 46.84 45.57 45.01 44.91 44.62 44.59 44.28 42.27 39.97 37.09 33.73 34.88 34.42 35.31 37.34 38.30 37.90 38.05 40.08 45.27 41.52 42.68 42.30 42.73 42.83 42.09 41.67 41.29 40.67 40.13 39.70 39.28 39.66
55.91 54.52 55.45 54.75 52.35 50.53 50.42 48.91 47.73 46.36 46.20 46.25 45.26 45.93 45.76 44.65 44.09 43.62 42.20 39.37 36.49 30.28 31.18 34.04 34.64 37.96 37.89 37.87 39.19 40.54 37.63 42.17 42.38 42.39 42.06 41.61 41.34 41.21 40.73 39.94 38.98 38.41 38.23
56.17 55.37 53.76 50.98 49.31 48.39 47.73 46.94 46.26 46.75 46.15 45.90 47.02 46.50 44.67 44.09 43.87 43.28 41.74 40.29 37.66 35.22 33.64 34.75 35.21 36.24 37.46 40.22 39.92 38.99 37.03 41.43 42.69 42.00 41.08 40.87 41.12 41.02 40.90 39.67 38.36 37.65 37.48
54.91 52.95 49.44 47.95 48.08 49.01 48.29 47.03 46.73 46.89 46.41 46.19 46.46 45.22 43.95 43.30 42.49 41.20 39.97 39.24 38.02 36.70 34.00 35.02 35.13 36.04 34.63 35.29 37.20 36.93 37.53 37.70 38.28 41.52 40.24 40.36 40.47 40.47 40.65 39.35 37.87 37.10 36.83
50.56 49.64 49.20 49.67 49.25 48.14 48.02 47.55 47.03 47.64 46.29 45.06 44.84 44.39 42.90 43.75 40.96 40.35 39.17 38.13 37.11 37.02 35.66 35.20 34.96 33.63 34.63 36.79 36.58 34.60 38.06 39.66 36.99 39.60 40.49 40.65 40.54 40.08 39.08 38.16 37.30 37.21 36.37
49.95 50.06 49.64 48.67 48.44 49.06 48.99 48.04 46.98 46.78 45.55 45.23 43.87 41.71 41.55 40.23 37.86 37.51 37.43 36.82 36.78 38.61 35.26 32.53 31.96 32.42 32.30 32.69 31.85 32.44 33.04 33.65 37.16 40.05 39.60 39.11 39.89 39.75 38.93 37.73 37.58 37.08 36.95
49.35 49.29 49.16 49.03 48.74 48.71 47.87 47.46 46.66 45.26 44.20 42.76 41.84 40.18 39.48 38.48 37.40 36.53 36.50 35.42 36.22 34.12 33.18 31.16 30.34 29.96 30.03 30.87 30.09 29.05 28.74 29.81 30.75 36.23 37.54 36.32 36.58 38.31 39.04 38.46 37.92 37.94 37.40
49.13 48.62 47.87 47.62 47.69 47.26 46.99 45.92 45.90 41.80 37.46 36.70 37.14 37.99 37.69 38.32 39.70 37.57 35.90 33.18 32.28 30.75 30.10 29.85 31.36 28.25 27.79 27.53 27.73 28.41 28.76 28.92 29.35 31.18 31.67 33.28 29.43 28.96 29.66 33.55 35.30 37.79 37.44
46.93 47.09 47.14 47.10 45.86 46.54 42.00 39.94 38.31 36.13 36.71 35.80 34.53 34.84 35.17 37.25 36.63 36.58 36.16 35.38 33.58 30.31 28.91 27.89 30.12 29.89 30.59 28.86 29.47 29.05 27.56 28.55 24.92 30.22 28.40 26.11 27.37 26.12 27.88 28.30 33.81 35.53 36.51
45.84 45.66 45.53 45.23 44.38 43.61 37.49 37.71 36.62 35.65 34.65 33.76 32.98 33.06 34.65 37.76 35.67 34.30 33.40 33.04 32.05 33.90 31.56 30.07 29.95 30.62 30.85 30.00 30.46 31.74 29.19 28.62 27.27 27.55 26.21 23.46 25.15 24.41 27.08 31.24 34.66 35.59 35.79
43.84 43.70 43.28 43.57 42.30 38.80 37.01 36.36 35.56 34.14 33.51 34.30 34.19 33.44 32.12 31.48 31.70 32.30 30.31 28.01 28.13 29.30 30.98 31.95 30.43 31.46 32.18 33.80 33.74 33.06 32.18 28.54 26.96 26.64 26.27 19.79 23.70 23.88 25.48 26.99 33.05 35.19 35.74
42.09 42.44 43.14 41.09 36.90 35.58 34.82 34.90 34.75 32.93 32.14 31.10 32.94 32.19 31.69 29.56 32.03 33.94 29.72 27.96 28.49 28.94 33.26 34.38 34.60 34.84 35.68 35.67 35.72 33.86 29.71 27.71 20.57 23.93 25.95 23.48 24.81 23.56 24.97 25.02 27.62 33.06 33.87
43.32 40.26 38.17 36.49 34.31 31.95 33.67 33.96 32.26 29.52 28.58 28.12 28.82 29.84 30.71 30.60 31.75 32.15 29.11 27.61 26.16 27.19 28.10 28.90 29.98 30.65 31.93 31.94 33.71 33.66 32.07 27.75 24.73 20.20 25.88 24.05 23.34 23.21 19.79 24.28 25.10 25.77 24.93

GFSMA_sfc_wetblb_084.txt.gz
Wetbulb
58.07 57.96 57.10 55.83 55.46 55.99 55.57 55.47 53.16 51.19 49.92 49.06 48.42 47.87 48.27 49.39 49.48 51.05 53.31 59.43 61.44 61.33 59.79 58.93 58.52 57.58 56.25 54.99 54.43 54.25 53.71 53.98 53.78 53.09 52.71 52.82 52.36 51.92 51.73 51.50 51.29 51.45 51.64
58.66 57.30 56.31 55.69 55.68 56.20 55.74 55.02 52.52 49.58 48.78 48.05 47.36 47.77 47.44 49.74 49.19 50.15 51.80 54.48 59.30 59.97 59.70 58.22 58.06 56.96 55.61 54.85 53.62 53.89 54.43 54.36 53.80 53.95 52.84 52.90 53.88 53.48 52.53 52.50 51.80 51.16 51.48
59.53 57.53 56.94 56.31 56.64 56.22 55.80 54.85 51.39 49.99 48.41 48.60 47.62 47.20 46.83 47.67 49.40 49.14 51.06 52.24 54.42 57.21 57.97 57.86 56.70 56.09 55.39 54.91 54.01 51.81 51.07 51.90 52.31 52.29 52.65 53.22 53.80 53.43 53.31 52.34 52.21 52.78 53.50
60.27 58.54 57.77 56.77 56.81 56.49 55.57 53.26 50.13 48.38 47.62 46.71 45.66 46.04 46.05 45.88 45.38 48.69 49.54 50.20 49.58 52.42 56.14 57.45 55.85 53.60 53.11 51.79 49.39 50.08 50.61 50.49 50.34 51.08 51.83 52.41 52.89 52.56 52.18 51.66 51.27 50.88 51.06
60.51 59.05 57.57 56.70 56.35 54.54 53.36 50.89 48.41 47.74 45.81 45.80 45.97 44.84 44.80 44.65 44.83 48.06 48.34 48.09 47.56 49.18 49.04 55.58 55.11 54.19 52.40 50.61 48.94 48.89 49.74 49.82 50.19 49.93 50.26 50.68 50.76 50.51 50.05 49.76 49.85 50.19 50.24
60.48 58.89 58.05 57.19 54.98 52.99 50.99 49.47 48.66 48.11 47.07 46.69 49.21 47.19 44.54 44.68 44.13 43.73 45.04 45.95 44.77 47.02 46.18 47.53 47.35 47.28 52.90 51.30 50.37 49.71 49.24 48.48 48.63 48.76 48.92 48.68 48.60 48.35 48.47 48.41 48.77 48.83 49.00
59.57 59.61 58.85 56.55 55.13 53.15 51.26 49.84 48.15 48.02 46.62 47.19 46.43 46.05 46.32 46.56 44.46 42.98 43.49 43.43 43.98 45.06 44.65 44.27 42.70 42.77 46.42 53.12 51.61 51.68 51.24 50.01 49.35 48.30 47.58 46.88 46.69 46.62 46.68 47.09 47.20 47.55 48.04
60.16 60.34 58.44 57.48 55.74 53.31 50.45 49.72 49.01 47.67 47.21 47.13 45.59 43.90 42.22 44.05 45.25 44.84 43.82 44.10 42.85 44.11 44.51 44.37 42.96 43.29 43.47 45.03 46.19 52.39 51.70 51.59 49.69 49.14 48.44 46.96 45.82 45.29 45.17 45.67 46.28 46.58 46.95
59.69 60.51 58.30 57.77 55.79 53.80 51.15 49.72 48.53 48.57 47.28 46.76 46.68 44.97 40.11 39.14 39.28 41.78 43.08 43.52 43.36 43.09 43.00 43.49 44.38 43.97 42.90 41.97 46.14 49.57 51.34 50.90 50.55 50.02 49.06 47.90 46.54 45.17 44.61 44.88 45.44 45.75 45.70
59.85 60.71 59.14 57.15 55.85 53.42 51.06 50.30 50.61 48.84 48.14 46.15 45.98 46.98 43.66 41.92 38.51 37.42 40.39 40.38 41.55 42.38 41.86 41.91 42.47 43.22 43.10 41.57 44.14 46.51 48.59 49.15 50.02 49.64 49.20 48.35 46.57 45.20 44.30 44.30 44.28 44.41 44.87
59.35 59.83 58.51 57.01 55.17 53.27 51.42 50.85 50.02 49.70 48.32 46.96 45.82 45.04 43.17 42.16 40.57 38.27 36.14 38.09 39.72 39.67 39.50 40.39 39.29 38.85 40.74 41.40 40.40 43.24 47.71 47.04 47.75 48.61 48.73 48.09 46.85 45.51 44.59 43.74 43.81 44.37 43.99
58.47 58.01 58.63 56.68 55.60 53.58 52.53 52.55 51.67 49.46 47.60 46.33 45.14 44.68 42.54 40.60 39.36 38.26 37.79 36.90 37.15 39.11 38.66 38.01 38.01 37.69 38.15 38.58 42.63 45.18 46.74 45.91 45.93 47.26 47.49 47.22 46.30 45.61 44.96 44.31 44.44 43.79 43.25
56.44 56.98 57.33 55.41 54.24 53.73 52.38 52.76 51.67 49.43 47.72 45.88 45.12 44.54 43.43 42.57 42.52 41.02 39.05 36.65 35.50 36.21 37.39 38.30 39.36 38.13 39.25 37.57 38.66 45.14 46.53 45.49 44.85 45.87 46.31 45.70 45.42 45.11 44.63 44.30 44.14 43.13 42.75
57.95 58.36 57.28 55.49 53.83 53.17 52.99 51.65 48.95 48.02 47.37 47.17 46.20 45.50 44.86 44.42 44.31 43.12 40.97 37.03 32.78 33.06 33.73 36.00 36.83 37.90 38.37 37.94 38.97 43.75 41.97 45.10 44.06 44.18 44.92 45.13 44.79 44.22 43.62 43.53 42.64 42.23 41.55
58.37 55.80 56.22 54.75 52.73 51.56 50.17 49.13 48.12 47.10 47.28 46.61 46.33 46.33 45.92 46.12 45.73 43.98 42.74 38.68 35.31 30.82 30.95 33.98 34.48 38.40 38.52 38.03 39.08 38.20 40.10 42.71 44.12 43.05 42.88 43.66 44.61 43.67 43.20 42.73 42.03 41.83 40.80
56.95 55.22 55.36 52.87 49.73 48.95 48.36 48.34 47.65 46.94 47.35 46.79 46.49 45.94 46.42 45.87 44.76 44.62 41.90 39.68 37.19 34.97 31.51 34.74 35.77 36.41 37.44 39.25 39.45 39.13 38.10 42.31 42.86 42.56 41.83 42.40 42.93 43.25 42.94 42.41 42.03 41.47 40.31
55.84 55.24 53.72 51.01 49.39 49.10 49.31 49.21 48.33 47.30 46.58 45.89 46.90 46.63 46.21 45.56 44.59 41.98 40.35 38.74 37.35 36.02 33.31 35.12 35.15 35.72 34.11 34.68 36.35 37.00 37.01 36.01 36.83 41.15 41.75 41.88 41.46 41.56 41.26 41.46 41.40 41.37 39.56
55.16 52.90 51.77 50.35 49.54 49.55 49.25 48.27 47.06 46.83 46.00 46.19 46.28 45.76 45.30 45.46 42.46 40.78 38.69 37.55 36.54 36.05 33.79 32.98 33.74 33.25 33.30 34.43 34.22 34.14 37.12 38.32 36.49 39.96 41.67 41.72 41.48 41.09 40.52 40.10 39.88 39.95 38.65
52.48 51.88 50.91 50.28 49.09 48.68 48.72 48.04 47.89 47.52 46.83 46.21 45.46 44.73 43.72 42.26 38.85 36.73 36.42 35.85 35.36 37.26 34.69 31.82 31.77 31.88 31.96 31.66 31.60 31.91 31.90 32.13 34.75 39.34 39.63 39.94 40.61 40.72 40.72 39.65 39.48 38.58 37.90
51.36 50.94 51.30 50.19 49.29 49.33 49.05 48.57 47.77 46.90 46.28 45.51 44.35 42.62 40.88 38.24 36.17 34.83 34.58 33.54 34.06 32.02 31.51 29.78 28.65 29.16 29.24 30.31 29.18 28.79 28.86 29.01 29.84 34.57 36.94 36.14 36.95 37.94 39.66 39.46 39.06 38.48 38.28
51.24 50.60 49.71 49.30 49.47 49.16 48.75 47.86 47.13 45.39 43.62 40.53 38.71 37.03 36.33 37.43 38.63 36.01 34.00 30.91 29.86 28.32 27.82 27.02 27.34 26.93 26.83 26.84 26.91 28.71 28.12 28.34 28.32 29.91 31.28 31.81 31.63 31.62 33.56 36.82 37.15 38.18 37.92
49.44 49.04 48.41 47.83 47.28 47.85 41.79 42.91 42.83 41.49 39.38 36.63 34.15 33.71 35.61 35.99 36.06 35.42 34.71 34.44 31.83 27.97 26.58 25.72 26.27 26.64 27.55 27.64 27.79 28.42 31.31 29.95 29.73 29.34 31.34 29.42 27.95 26.75 28.36 27.70 32.73 34.93 35.92
47.57 47.06 47.13 46.99 45.99 44.65 40.53 39.54 36.96 36.36 35.14 33.33 32.02 33.24 34.70 34.60 32.93 31.26 31.72 31.92 31.08 32.49 30.30 28.31 26.39 26.52 27.41 27.66 27.96 29.32 30.66 30.55 30.21 30.31 28.32 24.55 24.73 24.53 27.60 29.75 34.00 35.08 35.60
46.06 45.70 45.32 45.04 44.47 40.88 36.88 36.60 35.09 32.97 33.60 34.28 33.39 31.69 30.47 28.97 29.87 31.11 29.69 28.43 29.14 29.40 30.33 30.44 29.58 29.29 29.20 29.43 29.02 30.90 31.14 31.99 32.58 28.40 28.54 26.27 23.65 23.79 24.95 25.94 31.82 33.74 34.87
44.73 44.01 43.83 41.80 37.97 36.22 35.45 35.23 34.71 33.32 31.59 30.32 30.97 30.91 29.92 28.52 31.41 32.44 29.05 27.85 27.19 27.77 31.37 33.37 33.81 33.88 34.04 33.86 33.91 31.90 29.48 27.61 26.67 26.82 27.40 27.65 24.03 23.55 24.12 24.50 26.61 32.95 34.02
41.62 39.66 37.59 36.66 34.60 33.98 34.31 33.77 32.28 29.75 28.08 27.39 28.38 29.13 29.93 29.04 30.19 30.82 27.55 26.47 25.65 26.83 27.41 28.45 30.05 30.57 32.46 31.91 31.88 30.99 30.71 26.83 26.40 26.27 28.08 26.95 25.19 22.93 19.47 24.09 24.33 24.97 24.73

GFSMA_sfc_wetblb_087.txt.gz
Wetbulb
60.94 60.39 57.05 56.10 56.02 54.58 54.44 51.68 49.88 49.40 48.51 47.91 47.92 48.08 48.15 48.55 49.61 51.19 53.66 60.21 60.81 60.70 59.42 59.31 58.34 57.06 56.06 55.45 54.70 54.17 54.86 54.18 53.96 53.47 53.13 53.23 53.12 52.36 52.41 52.11 51.94 51.97 51.99
59.39 58.64 55.37 54.63 54.51 54.19 54.14 52.15 49.40 48.34 47.24 47.09 46.47 48.34 48.45 47.89 48.64 50.79 53.46 57.41 59.67 60.37 59.96 58.78 58.39 57.22 56.19 54.79 53.99 54.43 53.76 54.14 53.87 53.43 52.94 53.14 54.57 54.03 53.79 53.05 52.38 52.56 53.21
58.70 57.94 55.17 54.96 54.77 54.67 54.08 51.29 48.83 47.47 46.48 47.05 46.21 46.68 48.21 48.15 48.49 49.54 51.84 53.28 54.75 57.29 57.90 58.65 56.76 55.94 54.76 55.13 54.00 50.46 50.62 51.06 51.37 51.30 52.01 54.09 53.58 53.16 52.12 51.69 51.63 51.05 51.12
57.69 56.98 55.82 54.89 55.29 54.79 54.30 51.08 48.86 47.11 46.00 45.40 44.75 44.79 45.04 46.49 47.44 48.25 49.77 50.80 50.64 52.84 56.56 57.97 56.71 54.35 53.92 53.24 50.65 50.53 50.72 50.46 50.65 51.64 51.40 51.65 51.61 51.20 50.84 50.28 50.13 49.93 50.12
58.57 57.71 56.35 55.40 55.48 54.56 53.40 51.43 47.98 47.40 45.15 44.42 44.47 43.70 43.57 42.80 44.71 49.00 48.23 48.54 47.94 49.64 50.16 56.64 55.88 54.94 53.66 52.01 50.75 50.43 50.67 50.54 50.29 49.81 49.57 49.24 49.31 48.77 48.57 48.42 48.61 48.79 48.77
59.93 57.76 56.26 55.50 55.03 53.54 51.33 49.14 47.51 46.56 45.57 45.04 47.28 45.13 43.15 43.19 42.46 44.35 46.64 47.91 46.13 47.54 47.28 49.24 49.22 49.02 53.77 52.37 51.27 50.77 50.73 50.18 49.62 49.64 49.35 48.55 47.54 46.65 46.48 46.52 46.79 47.14 47.79
59.89 57.97 56.70 55.36 53.81 53.30 51.63 48.78 47.15 46.55 45.53 45.93 44.93 44.26 44.79 44.64 43.29 42.50 42.91 43.51 44.00 45.64 44.75 45.09 44.44 42.87 46.19 53.62 52.23 52.07 52.25 51.48 51.16 50.24 49.27 48.46 47.46 46.20 45.24 45.12 45.78 46.32 46.68
58.66 58.78 57.45 56.02 53.97 52.05 50.10 48.38 48.00 46.81 46.45 46.23 44.33 43.03 41.64 43.38 43.96 43.64 42.03 42.69 41.59 43.01 43.92 44.00 42.80 42.18 42.45 44.96 47.29 52.94 52.90 53.29 52.72 51.40 50.00 49.09 47.96 47.07 45.92 45.11 45.19 45.50 45.74
57.94 59.37 58.62 57.50 55.77 53.95 51.15 49.00 48.17 48.11 46.39 45.76 45.80 44.49 40.07 39.52 39.89 41.07 42.50 42.56 42.22 41.37 42.13 42.73 42.97 42.62 42.16 41.83 46.26 49.88 52.89 52.89 52.39 52.03 51.05 50.20 49.12 47.91 46.26 45.46 45.21 44.98 44.74
57.81 58.83 58.86 57.60 55.36 53.42 50.79 50.24 49.27 47.90 47.47 45.78 45.46 45.98 42.96 41.65 38.80 38.20 39.85 39.64 40.93 42.49 41.65 41.25 41.91 42.72 42.29 41.75 44.01 45.80 47.11 49.80 51.25 51.80 51.55 50.83 49.80 48.65 47.12 46.00 45.56 44.74 44.93
58.68 59.10 59.11 57.26 55.68 54.00 52.60 50.80 49.02 49.16 49.79 48.27 46.68 45.49 43.47 41.02 39.17 37.58 35.86 38.10 38.67 39.71 39.52 40.93 40.90 40.34 40.47 41.17 40.32 42.25 47.20 47.44 48.50 50.91 50.74 50.58 50.38 49.40 47.77 46.87 46.25 45.62 45.59
56.97 57.59 58.13 56.57 56.35 54.93 52.32 51.43 51.63 51.55 50.33 48.91 47.40 45.96 44.41 42.95 41.07 39.11 37.63 38.19 36.95 38.97 38.71 38.33 37.39 37.49 38.12 38.05 41.62 45.16 45.76 46.24 47.23 48.74 49.57 49.45 49.87 49.61 48.55 47.78 47.09 46.63 46.29
55.62 56.36 56.42 55.80 55.54 54.89 53.12 52.85 51.88 50.96 50.10 47.58 46.37 44.10 44.81 43.61 43.35 42.15 40.44 38.25 36.51 38.33 38.69 39.52 38.63 37.80 38.81 37.49 38.32 44.21 46.20 45.50 46.08 47.12 48.00 48.26 48.53 48.55 48.11 47.75 47.32 46.74 45.99
56.89 56.76 56.66 57.41 55.82 53.93 52.86 51.01 50.25 49.20 48.62 47.91 46.54 46.48 45.53 45.60 45.12 43.90 41.51 38.88 35.93 36.26 36.15 37.90 37.78 37.44 37.14 37.16 38.06 42.66 40.44 44.72 45.32 45.68 46.03 47.24 47.66 47.88 47.09 46.45 45.81 45.50 44.95
57.95 57.39 57.09 56.44 54.87 53.18 52.34 50.19 48.54 48.54 47.94 48.15 47.45 46.32 46.20 45.98 45.51 44.94 43.43 41.19 38.92 34.64 33.51 35.57 34.59 37.22 37.60 37.44 38.79 37.39 37.32 42.10 44.38 44.79 44.44 44.96 46.15 46.56 46.41 45.11 44.67 44.26 43.68
57.76 56.73 55.44 55.24 53.50 51.56 50.64 49.95 49.20 48.79 48.36 47.74 47.36 46.05 46.59 46.27 45.90 45.67 43.64 42.20 39.59 38.18 32.32 34.56 34.89 35.92 36.55 38.41 38.84 38.42 36.84 41.76 42.92 43.22 43.40 43.31 43.81 44.35 44.81 44.62 43.72 43.24 43.30
56.22 55.34 55.10 54.80 52.48 50.87 50.58 49.87 48.93 48.69 48.00 47.25 46.93 46.36 45.95 46.13 45.52 44.48 43.80 41.87 39.55 36.65 32.59 33.94 34.54 34.93 33.99 34.60 36.06 35.71 36.56 35.92 36.18 40.96 41.56 42.42 42.20 42.16 42.49 42.50 42.25 42.69 42.71
55.92 55.62 54.47 53.07 52.00 50.91 50.33 49.86 48.27 48.14 48.12 46.89 46.66 45.85 45.55 46.11 44.51 43.86 41.96 40.12 38.65 35.51 33.91 31.55 33.19 32.84 32.65 34.05 33.73 33.39 35.88 36.70 35.20 38.97 40.53 41.18 41.80 41.63 41.27 41.02 40.74 40.82 40.93
55.68 54.47 54.15 53.11 51.39 51.13 50.30 50.11 49.17 48.40 47.68 47.00 46.33 46.02 45.67 45.15 43.01 41.30 39.94 38.64 35.53 36.55 33.54 31.28 30.40 30.97 31.37 31.39 30.76 31.41 31.17 31.25 33.61 38.26 39.41 40.17 41.28 41.69 41.56 41.07 40.71 40.42 40.15
56.16 54.86 53.31 52.51 51.41 50.83 50.46 49.04 48.52 47.64 47.61 46.86 46.27 45.63 44.77 42.98 41.77 38.87 36.38 33.86 33.27 31.35 30.28 28.61 27.41 27.97 28.66 29.74 28.69 27.84 28.23 29.02 29.56 33.94 36.34 36.80 37.24 38.72 39.97 39.86 39.83 39.64 38.48
56.38 53.86 52.81 51.67 51.27 50.00 49.46 48.69 48.33 47.25 46.98 44.77 43.73 42.65 41.50 40.05 38.31 36.11 33.54 30.83 29.84 28.36 27.50 26.60 26.11 25.76 25.92 26.61 26.97 27.81 27.19 29.47 28.36 29.54 30.37 30.70 32.11 32.37 32.74 36.68 37.63 38.66 38.41
51.41 52.16 51.63 50.20 49.16 49.47 42.69 42.86 45.26 45.11 43.92 41.13 37.78 36.19 36.24 37.43 36.00 35.26 34.80 33.42 30.96 27.57 26.69 24.95 25.21 25.15 24.99 26.02 26.55 26.48 26.49 26.13 25.00 29.02 27.40 29.02 30.09 30.62 30.88 28.53 33.37 35.76 36.15
49.75 49.49 49.24 48.73 48.34 47.90 43.46 41.93 39.23 40.92 38.86 36.89 35.08 34.26 34.54 34.04 33.00 32.01 32.10 31.63 30.91 32.01 29.56 27.81 25.19 25.09 24.58 26.34 27.05 26.18 25.32 26.56 27.47 29.62 29.48 29.09 27.33 27.44 29.53 29.90 33.34 34.78 35.43
47.72 47.33 47.00 47.09 45.43 44.11 39.49 38.38 36.49 36.17 35.01 34.54 33.93 33.31 31.52 30.22 31.83 31.47 29.52 28.72 29.14 29.57 29.92 29.44 27.53 26.85 27.21 28.15 28.44 28.91 29.34 30.20 30.82 30.88 31.96 27.09 27.06 26.45 26.98 27.77 32.21 33.95 34.75
45.52 45.47 45.29 43.06 40.97 38.10 35.71 35.19 35.35 33.97 32.30 31.30 31.35 31.22 30.20 28.99 30.49 31.03 28.20 27.01 26.80 27.76 30.58 31.59 32.13 32.71 32.96 33.37 33.37 31.55 28.92 28.07 26.20 26.84 28.90 28.52 27.83 24.96 24.93 25.51 26.86 32.49 33.73
42.56 40.49 37.22 37.17 35.90 35.03 34.90 34.60 33.26 31.63 29.51 28.28 28.81 28.23 29.01 28.09 29.17 28.98 27.30 26.81 25.81 27.31 28.14 28.83 29.36 29.80 31.46 31.38 32.45 31.78 30.24 26.72 26.72 25.55 27.50 25.67 26.35 26.37 25.01 24.34 25.23 26.56 26.92

GFSMA_sfc_wetblb_090.txt.gz
Wetbulb
61.07 59.54 57.41 56.11 55.76 53.63 52.49 49.43 49.16 48.59 47.85 48.54 47.81 47.90 48.63 50.21 51.84 53.49 56.01 59.99 60.13 60.26 59.70 59.15 58.36 57.31 56.49 55.67 55.20 55.40 55.26 54.39 54.78 54.04 53.68 54.61 53.89 53.92 54.03 53.54 53.08 52.61 53.65
60.68 58.46 56.39 55.79 55.02 54.46 51.51 50.01 48.71 47.50 46.83 47.79 47.18 48.21 48.41 48.83 50.78 53.76 56.25 58.59 59.73 60.38 59.90 58.99 58.62 57.47 56.03 55.13 54.88 54.32 54.54 54.51 54.03 53.53 53.15 54.73 54.13 53.13 52.39 52.11 51.62 51.39 51.46
59.49 57.16 55.89 55.46 54.98 54.42 51.38 49.51 47.46 46.49 45.73 46.70 47.12 48.35 48.22 48.22 49.73 52.96 55.28 55.93 57.29 58.74 59.30 59.87 58.27 56.66 56.40 55.62 53.76 51.39 51.55 52.18 51.74 51.81 54.39 53.75 53.35 52.56 51.90 51.14 50.41 50.37 50.38
58.66 56.17 55.17 55.00 55.37 54.12 51.33 48.83 47.46 45.91 45.45 45.44 44.85 46.22 47.69 48.18 48.72 50.40 52.61 52.78 52.32 53.42 56.98 57.99 57.71 55.67 55.22 54.84 52.05 51.96 51.68 51.46 51.79 52.26 51.85 51.64 51.11 50.79 50.11 49.38 49.07 48.91 49.05
57.68 56.61 55.55 55.13 55.70 54.33 51.61 49.54 47.47 46.83 45.15 44.73 44.71 44.54 44.84 45.83 47.18 49.15 49.63 50.44 50.27 51.52 52.36 57.37 56.65 55.75 54.98 53.14 52.10 51.92 52.01 52.01 51.90 50.93 50.55 49.80 49.44 48.54 47.77 47.36 47.16 47.39 47.73
58.17 57.13 55.58 55.45 55.52 53.75 51.33 49.09 47.24 46.62 46.00 45.22 46.33 44.96 43.63 43.31 43.83 46.93 47.81 48.90 47.79 49.40 49.71 51.68 52.08 51.45 54.38 53.56 52.16 51.89 51.97 51.80 50.90 50.85 50.21 49.40 48.57 47.49 46.66 45.98 45.88 46.08 46.36
58.37 57.04 55.83 55.54 54.31 53.82 52.03 49.11 47.17 47.10 45.89 45.75 44.75 44.53 44.88 44.12 43.35 42.77 45.53 46.60 46.42 46.97 47.35 47.44 47.74 46.75 49.43 54.94 53.03 52.63 53.28 52.86 51.67 51.42 50.91 49.55 48.71 47.89 46.94 46.26 45.69 45.40 45.37
59.33 57.83 56.58 55.24 54.30 52.95 50.86 48.98 48.15 46.52 46.31 46.14 44.24 43.29 42.14 44.26 44.86 44.48 42.68 43.87 43.85 44.25 45.56 45.50 45.62 44.84 43.91 46.16 49.39 53.71 53.60 53.87 53.72 53.27 51.92 50.68 49.90 48.52 47.61 46.89 46.43 45.82 45.57
58.88 58.79 57.17 56.13 54.43 53.45 51.82 49.40 48.32 47.73 45.96 45.59 45.88 44.94 40.29 40.66 41.56 42.50 43.14 42.20 42.78 42.06 43.28 44.00 44.38 44.14 43.13 43.51 46.98 49.86 52.67 53.88 53.31 52.71 52.11 51.76 51.14 50.17 49.04 48.04 47.18 46.54 45.97
57.33 58.11 57.97 56.67 55.42 53.70 51.43 50.50 50.07 49.47 48.04 45.53 45.55 46.07 43.83 43.51 41.05 39.90 41.19 41.83 42.98 42.95 42.81 42.68 43.20 43.65 43.58 43.08 44.86 45.93 47.06 48.75 51.41 53.02 52.51 51.57 51.18 51.04 50.39 49.24 48.21 47.50 46.78
57.19 56.96 57.49 56.75 55.48 55.14 53.96 52.16 50.82 48.97 49.48 48.05 46.75 45.83 44.50 42.75 40.88 39.86 38.34 39.54 40.21 40.81 42.01 42.44 42.29 42.76 43.52 43.35 43.11 43.77 46.45 46.89 48.00 50.20 51.83 51.78 50.76 50.73 50.61 50.33 49.21 48.44 47.55
54.82 56.11 57.47 57.25 57.53 55.76 54.12 52.91 51.77 50.67 49.77 49.07 49.30 47.74 45.91 44.12 42.06 41.36 39.78 39.36 39.35 41.29 40.98 40.24 40.92 41.06 40.97 41.54 43.00 44.97 45.77 45.86 46.93 48.50 49.61 50.28 50.41 50.19 50.35 50.23 49.74 49.08 48.62
53.94 54.86 55.49 55.33 55.38 55.26 54.43 53.17 51.62 52.04 50.49 49.72 49.70 48.21 46.59 45.63 44.96 43.95 43.18 41.31 41.44 40.85 39.89 40.97 40.82 39.99 39.72 40.03 40.58 45.21 46.25 45.31 45.60 47.16 48.54 48.72 48.87 49.07 49.36 49.28 48.98 48.80 48.43
54.98 54.90 55.08 56.27 56.11 55.46 54.92 53.38 53.11 52.27 51.22 50.86 48.46 47.17 46.52 46.02 45.71 45.35 44.04 41.09 37.26 37.76 37.71 39.23 40.22 40.56 39.69 39.91 39.99 42.75 42.04 43.94 45.08 45.59 46.95 47.99 48.50 48.96 49.22 48.85 48.43 47.69 47.63
55.85 54.58 55.02 55.40 55.74 55.44 54.51 53.23 52.56 51.13 50.09 49.70 48.21 47.90 47.19 46.09 46.08 46.22 44.42 42.29 41.49 36.42 35.49 37.99 38.18 39.96 39.78 39.29 39.99 40.11 40.12 41.63 43.49 44.30 44.89 45.76 46.86 47.58 47.82 48.15 47.99 47.10 46.47
55.14 55.34 54.96 55.90 55.20 53.51 52.58 52.10 51.40 50.45 49.89 49.41 49.24 47.70 47.97 47.03 46.53 45.99 44.49 42.32 41.45 40.35 37.28 38.86 38.16 38.80 38.99 39.15 39.78 40.62 39.06 41.28 42.28 42.49 42.66 43.90 44.77 45.71 46.01 46.33 46.25 46.32 45.62
55.87 55.87 55.87 55.20 54.40 52.46 51.71 51.28 50.58 50.08 49.87 49.11 48.86 48.62 47.94 48.07 46.59 45.90 44.78 43.36 41.09 39.87 37.77 37.95 37.46 37.61 36.70 37.09 38.24 38.58 38.46 37.82 38.49 40.54 41.49 42.27 42.91 43.17 43.47 43.64 43.62 44.27 44.53
56.06 56.07 55.70 55.48 55.19 53.17 51.87 51.69 51.16 51.10 49.68 48.79 48.52 48.38 48.06 47.09 46.07 45.35 44.28 41.99 41.46 39.61 37.36 35.95 36.35 35.02 35.04 36.33 36.37 35.57 37.17 37.59 37.21 38.36 39.87 40.83 41.50 41.95 42.02 41.63 41.51 41.80 41.97
56.37 55.66 56.47 55.89 55.68 54.10 53.15 52.97 53.46 51.92 49.96 49.81 49.35 48.44 47.68 45.68 44.84 43.81 43.10 41.70 40.01 39.39 37.18 34.79 34.07 33.12 33.58 33.61 33.59 33.73 33.92 34.49 34.68 37.60 38.35 38.75 39.53 40.71 41.61 41.51 41.31 41.08 40.93
56.96 56.15 55.75 55.51 54.70 53.84 53.21 52.18 51.54 50.91 50.04 50.07 49.02 47.91 47.30 46.02 45.27 42.97 41.60 40.12 38.09 36.52 33.32 31.41 30.35 30.89 31.13 32.36 31.32 30.82 30.40 31.95 31.88 34.35 36.31 36.30 36.95 37.89 39.11 39.67 40.11 40.53 40.19
56.99 56.93 56.41 55.29 53.57 52.82 51.86 51.15 50.39 49.64 48.49 47.36 46.12 45.43 44.34 43.47 41.49 40.43 38.79 36.12 34.38 31.70 30.66 29.47 28.85 28.60 28.61 29.29 29.50 29.96 28.87 29.41 30.41 31.81 32.15 32.30 33.17 33.90 34.77 35.56 37.02 38.68 38.75
55.81 56.13 53.26 52.67 51.44 51.71 46.18 43.97 47.20 48.40 47.07 44.72 41.23 39.18 38.61 38.08 36.83 35.78 34.96 34.06 33.53 31.54 29.82 28.71 28.23 27.77 28.09 28.83 29.40 28.52 27.68 26.58 25.91 30.70 29.44 29.45 32.70 32.19 33.06 33.93 34.61 35.53 37.17
52.47 51.71 51.55 51.37 51.10 50.76 42.37 42.72 42.01 45.97 44.47 40.00 36.72 35.95 35.97 35.23 33.85 32.68 32.53 32.08 31.42 32.03 29.70 29.68 27.68 27.56 27.54 28.18 28.41 27.42 27.35 27.03 27.18 30.12 29.82 28.54 31.39 30.38 32.61 33.01 34.33 35.13 35.73
48.91 47.83 47.10 46.54 44.85 41.77 38.83 38.35 38.08 38.62 36.88 36.26 36.02 34.45 32.25 31.36 31.83 31.73 30.82 30.23 29.86 29.75 29.91 29.35 28.99 28.52 28.86 29.38 29.17 29.48 29.31 29.78 30.42 31.01 32.15 27.12 30.52 29.10 31.40 31.76 32.88 34.56 35.69
45.35 43.85 42.88 41.59 39.05 36.60 35.95 35.85 35.91 34.57 32.67 31.43 31.49 31.34 30.61 30.22 31.33 31.60 28.79 27.39 27.03 28.01 30.58 31.18 31.65 32.10 32.41 32.89 32.87 31.57 28.59 28.67 26.69 27.67 30.21 28.79 29.28 28.49 29.72 29.60 30.61 32.52 34.70
40.65 38.58 36.34 36.10 35.12 34.36 34.79 34.32 33.24 31.16 28.95 28.34 28.69 28.79 29.46 28.88 28.92 28.49 27.56 26.97 26.10 27.30 27.15 27.23 27.09 27.59 28.54 28.93 28.92 30.08 30.04 27.54 26.88 26.15 29.46 27.54 27.75 27.40 26.27 28.30 28.26 29.60 32.18

GFSMA_sfc_wetblb_093.txt.gz
Wetbulb
63.15 63.17 62.00 60.77 59.79 59.96 60.14 60.11 59.78 58.32 57.41 57.05 57.18 58.11 59.69 60.55 61.08 60.98 60.65 60.12 60.71 60.58 60.18 59.36 58.71 58.28 57.08 56.29 56.22 55.92 55.34 55.51 55.15 54.41 55.14 54.67 54.72 54.50 53.31 52.71 52.41 52.33 52.41
62.73 62.14 61.09 59.81 58.54 58.97 59.41 58.73 57.99 56.66 54.85 54.53 54.13 54.90 55.73 58.41 60.45 61.31 60.78 60.17 59.71 60.59 60.13 59.32 58.51 57.73 57.15 56.06 55.67 55.34 55.33 55.16 55.04 53.94 55.66 54.82 53.61 53.05 52.78 52.03 51.62 51.41 51.61
62.31 61.89 60.16 59.43 58.64 57.00 56.36 56.47 55.46 54.93 54.38 53.89 53.85 54.33 54.85 56.06 58.40 60.66 60.85 60.37 59.22 59.21 59.73 60.23 58.75 57.84 56.88 56.49 54.55 53.62 53.97 53.41 53.19 54.98 55.16 54.40 53.39 52.76 51.62 50.83 50.36 49.97 50.09
62.15 61.38 60.08 59.69 59.43 56.98 56.09 54.63 54.02 53.67 53.61 53.76 53.64 53.78 53.96 54.45 57.68 59.85 60.49 60.08 59.74 58.96 58.92 59.59 59.45 57.36 57.10 56.46 53.60 53.47 53.02 52.94 53.21 53.69 53.53 52.85 52.12 51.23 50.07 49.14 48.68 48.47 48.64
61.41 59.74 59.89 59.04 59.05 56.74 55.11 54.31 53.24 53.73 52.60 53.49 53.26 53.35 53.54 53.45 54.62 57.23 58.49 58.46 59.01 58.21 57.36 57.92 57.41 56.94 56.96 55.27 53.83 54.14 53.53 53.14 53.56 52.84 52.07 51.23 50.57 49.67 48.56 47.86 47.39 47.21 47.42
60.94 60.08 59.43 59.48 59.01 57.12 55.22 54.33 53.72 53.59 53.43 52.69 50.88 51.00 51.99 51.84 51.95 53.15 56.11 57.09 56.42 56.19 56.52 56.20 55.73 54.55 55.82 54.95 53.80 53.91 54.32 54.08 53.32 52.54 51.83 51.12 50.41 49.39 48.36 47.42 46.96 46.42 46.11
60.40 60.06 59.18 59.30 59.03 57.34 56.13 55.16 54.00 53.19 51.51 52.37 50.44 49.80 49.85 50.39 50.38 51.37 53.72 53.98 53.88 54.68 55.04 55.34 55.25 53.81 53.89 55.90 54.64 53.83 54.46 54.48 53.49 53.23 52.55 51.27 50.44 49.39 48.31 47.54 47.01 46.67 46.17
59.99 58.94 59.02 58.84 58.94 57.94 56.51 54.80 53.98 52.33 52.59 52.55 50.75 50.40 47.89 49.49 50.67 50.70 50.61 52.58 53.66 53.08 52.52 53.10 54.05 53.55 53.00 53.54 54.40 54.78 54.39 54.70 54.50 53.70 53.60 52.61 51.29 49.95 49.25 48.34 47.87 47.62 47.20
58.84 59.16 59.30 58.84 58.85 58.50 57.32 55.48 54.36 53.64 52.33 51.72 53.19 52.50 47.77 47.77 49.76 51.04 50.59 50.29 51.58 52.31 52.61 52.81 52.61 52.71 52.50 52.09 52.41 53.29 53.50 54.71 54.81 54.75 54.18 53.61 52.49 51.71 50.89 50.03 49.24 48.71 48.24
59.52 59.38 58.72 59.20 59.11 59.01 57.73 57.22 56.42 55.45 54.85 51.61 51.41 51.46 51.23 51.83 49.19 48.29 49.57 51.00 50.54 50.32 51.60 51.54 51.37 51.88 51.99 51.49 51.33 50.12 48.94 50.09 52.17 53.62 53.93 53.43 52.92 52.82 52.52 51.74 51.00 50.01 49.06
58.01 58.20 59.63 59.08 59.89 59.00 59.46 58.03 56.44 55.11 55.90 55.07 52.69 51.77 50.01 50.01 49.74 49.61 49.75 48.54 48.11 45.84 48.23 51.42 51.40 51.09 49.50 50.80 50.88 49.84 48.01 47.46 48.30 50.21 51.34 52.76 53.22 52.28 51.49 51.56 51.87 51.58 50.09
58.00 58.35 58.42 59.52 60.42 60.25 59.52 58.24 57.97 56.43 56.05 55.33 54.63 52.68 50.01 49.73 47.92 46.19 47.26 42.87 44.54 48.54 49.01 44.94 45.71 46.34 46.90 47.68 48.15 47.48 46.65 46.30 47.00 48.78 49.87 50.64 51.68 51.86 51.41 51.17 51.11 51.38 51.46
57.20 58.37 59.69 60.06 60.19 60.75 60.34 60.12 58.80 57.30 56.46 55.80 55.64 52.27 51.13 52.31 51.09 47.90 50.89 46.35 45.06 47.44 44.70 43.42 42.78 43.57 43.58 43.82 44.04 46.29 46.96 45.71 45.98 47.39 48.97 49.76 49.68 49.29 49.62 49.89 49.95 50.05 50.23
58.02 58.71 59.08 59.78 60.25 60.56 60.38 60.06 59.20 58.43 57.46 54.76 52.75 51.19 53.06 52.71 52.54 52.14 48.56 46.03 41.68 43.41 40.79 43.07 42.91 41.76 42.09 42.22 42.28 44.46 46.42 45.06 45.59 45.96 46.72 47.95 48.54 49.16 49.46 49.60 48.98 48.28 48.60
58.05 58.58 59.33 59.26 59.61 59.77 59.84 59.69 59.28 58.90 58.21 57.37 55.43 53.47 53.86 54.86 54.07 53.21 51.60 48.17 47.95 43.47 39.33 41.17 43.53 46.78 43.37 43.08 42.91 44.67 46.77 45.77 43.82 44.14 44.72 45.79 47.21 48.05 48.57 48.82 49.10 48.55 48.20
58.12 58.37 58.83 58.96 59.21 59.44 59.37 59.08 58.55 58.77 56.59 56.41 54.98 52.61 52.18 53.59 52.63 52.81 51.11 47.51 49.58 48.02 45.44 44.71 43.33 46.64 43.82 41.82 43.44 44.67 47.22 45.17 43.06 42.51 42.67 43.55 44.45 45.77 46.56 46.94 47.43 47.41 47.79
57.86 58.04 58.37 58.68 58.94 59.14 58.46 57.52 57.10 56.31 52.87 52.52 51.52 51.32 50.52 51.12 49.70 48.24 48.46 47.02 46.29 47.35 46.91 46.44 48.38 47.11 40.72 41.42 42.20 44.60 46.66 46.15 46.56 41.62 41.40 42.02 42.30 42.82 43.72 44.17 44.41 44.98 45.72
58.54 58.66 58.34 58.53 58.60 58.29 56.40 53.99 53.59 53.86 52.14 52.07 51.11 50.34 49.89 50.24 48.79 48.61 49.50 46.87 47.95 45.36 43.01 43.13 43.75 38.83 38.92 42.13 44.61 44.91 44.02 43.61 44.74 41.58 39.64 40.25 40.91 41.31 41.46 41.50 41.75 42.07 42.58
57.48 57.91 58.16 58.15 57.79 57.00 55.29 56.45 55.67 54.64 52.86 52.51 52.47 50.74 50.74 50.07 49.02 48.92 49.25 49.10 47.98 42.80 42.80 40.80 38.98 38.00 38.95 41.05 41.54 42.20 41.77 42.05 41.05 39.92 38.57 38.68 39.13 39.97 40.25 40.42 40.73 41.10 41.28
57.41 58.03 58.71 58.51 58.46 58.06 57.17 56.39 55.10 54.10 53.55 53.90 54.52 52.35 50.94 50.48 48.77 49.21 47.70 45.26 43.56 40.47 38.18 37.30 35.74 36.11 38.07 40.24 39.49 38.86 37.63 39.59 38.92 38.62 37.66 36.64 37.19 37.60 38.17 38.81 38.89 39.48 40.55
58.97 59.28 59.20 58.73 58.11 57.41 56.21 54.97 54.31 54.05 53.58 52.34 51.20 50.90 49.55 49.19 46.65 46.33 45.02 41.64 39.89 36.72 34.78 33.86 33.33 33.85 36.47 34.44 35.32 37.92 36.44 37.24 36.77 36.43 35.73 36.22 36.27 36.70 37.14 37.51 37.76 37.54 37.84
58.97 58.89 57.79 57.02 56.65 55.41 47.95 44.86 48.67 51.80 51.66 50.14 47.35 41.63 42.07 40.97 39.41 37.26 37.38 36.81 37.59 35.28 33.28 33.11 34.57 33.03 33.59 33.56 35.16 34.77 33.72 31.72 30.27 36.38 34.44 34.24 35.92 34.21 35.03 36.43 36.64 36.46 36.05
58.15 57.06 56.39 55.41 53.64 51.27 43.60 42.69 40.70 46.86 44.83 40.99 38.39 37.95 36.69 35.86 35.18 34.10 33.44 32.96 32.65 32.55 31.74 34.82 34.03 32.39 33.10 33.21 33.00 31.68 31.28 30.96 31.02 34.64 33.89 31.39 34.47 33.23 35.96 36.25 35.82 35.66 35.68
49.52 47.87 46.23 45.27 41.87 38.43 37.90 38.60 37.88 38.99 37.13 36.37 35.91 34.86 33.73 32.84 32.87 32.46 31.92 31.56 31.34 31.77 32.77 31.98 32.60 31.95 32.31 32.93 33.29 32.97 32.66 32.17 33.21 33.72 34.17 28.98 33.45 33.01 35.62 36.41 35.57 34.77 34.71
42.52 40.92 40.08 38.22 36.48 35.09 35.28 35.50 35.64 33.96 31.44 31.08 31.72 31.74 31.52 31.07 31.63 32.68 30.55 29.51 28.86 29.61 31.43 31.70 31.84 31.42 31.17 30.87 31.32 31.89 30.14 29.35 28.38 30.42 33.46 31.22 32.17 32.10 33.83 34.12 35.68 35.09 34.93
36.99 35.39 33.90 34.05 33.92 33.73 34.22 33.63 32.79 31.11 29.27 28.32 28.67 28.46 29.19 28.83 29.09 29.02 28.51 28.40 27.27 28.57 28.53 28.30 28.96 28.29 27.90 29.10 27.21 28.82 28.93 26.60 27.36 27.20 32.58 30.48 31.07 31.04 28.82 33.41 34.81 35.70 35.98

GFSMA_sfc_wetblb_096.txt.gz
Wetbulb
64.13 64.88 65.25 66.03 66.00 66.20 65.81 64.99 64.66 63.45 62.79 61.91 61.92 62.13 61.75 62.24 62.60 62.22 61.89 60.68 60.83 61.15 60.34 60.11 59.39 58.42 57.70 57.08 56.74 56.31 56.37 55.90 55.47 55.76 55.50 55.24 55.20 53.86 53.35 52.90 52.63 52.69 52.47
63.40 63.19 64.32 64.28 65.39 66.15 65.81 65.03 63.85 61.89 60.99 60.73 60.61 61.00 61.18 61.59 62.15 62.48 61.97 61.39 60.16 60.79 60.38 59.57 59.32 58.49 57.84 57.06 56.67 55.88 56.22 55.90 55.13 56.26 55.76 55.37 53.82 53.46 52.79 52.00 51.74 51.42 51.40
62.81 62.83 63.58 63.05 63.19 64.48 64.54 63.94 62.69 61.02 59.12 58.35 57.73 58.24 59.30 60.71 61.50 61.85 61.92 61.57 60.82 59.32 59.80 60.20 58.83 58.14 57.36 56.93 55.86 56.04 55.81 55.49 55.04 55.66 55.47 54.55 53.74 53.15 51.55 51.06 50.39 50.27 50.17
62.23 63.95 62.84 62.25 62.80 63.02 62.72 61.36 60.36 58.90 58.21 57.62 57.26 57.62 57.75 58.57 60.15 61.48 61.60 61.18 60.68 60.24 59.50 60.01 59.55 58.21 57.24 57.22 55.14 54.83 54.71 54.21 53.95 56.05 55.18 54.15 53.13 52.23 50.89 49.62 49.08 49.02 48.95
62.16 63.33 62.80 62.07 62.04 60.83 60.37 59.73 59.07 59.21 58.17 57.71 56.95 57.45 57.70 57.41 58.91 59.57 60.65 61.07 60.90 59.88 59.55 59.34 59.21 58.76 58.79 57.34 55.14 55.23 54.97 54.19 54.44 54.58 54.12 52.98 51.92 50.60 49.56 48.71 48.14 47.94 47.71
61.97 62.45 62.17 62.15 61.30 60.08 59.47 59.59 59.25 59.47 59.25 58.38 56.09 55.76 56.87 56.96 56.87 58.40 59.71 59.98 59.67 59.06 58.68 59.02 58.49 56.72 57.13 57.55 55.31 55.46 55.40 54.79 54.98 54.30 53.20 52.27 51.25 50.35 49.41 48.79 48.26 47.78 47.21
61.62 62.64 61.57 61.63 61.68 60.30 60.12 59.71 59.13 58.45 57.78 57.36 55.10 54.80 54.65 55.04 55.21 55.60 56.76 58.07 58.11 58.24 57.65 57.48 57.24 56.27 55.65 57.05 56.18 55.41 56.21 56.04 55.45 54.62 53.40 52.57 51.74 50.71 49.89 49.25 48.78 48.12 47.43
62.31 61.83 61.64 61.40 61.59 60.41 60.17 59.39 58.72 57.34 56.91 55.77 53.50 53.27 49.94 52.15 53.55 54.18 55.58 56.07 57.17 56.64 55.95 56.53 57.11 56.87 56.45 55.50 55.24 55.81 55.76 56.13 55.99 55.13 54.56 53.61 52.62 51.69 50.79 50.15 49.55 48.94 48.55
62.14 62.14 61.72 61.38 61.95 61.57 59.74 59.51 58.27 58.00 55.71 54.33 55.95 54.27 51.72 50.99 54.36 54.93 54.39 54.84 55.84 56.06 56.24 56.18 56.22 56.63 56.38 56.00 55.96 54.93 54.39 55.64 56.06 56.04 55.06 54.77 54.20 52.98 51.93 51.29 50.62 50.12 49.57
60.00 61.26 61.84 61.86 61.91 61.48 60.58 59.89 58.79 58.83 58.04 54.80 54.82 55.39 56.95 56.22 52.75 51.33 54.47 54.64 55.12 54.09 56.47 56.38 55.98 55.11 55.52 55.92 54.79 53.07 51.25 51.56 54.18 55.78 55.77 55.62 54.84 54.35 53.70 53.12 52.67 52.04 51.27
60.31 59.62 59.99 59.58 60.82 60.99 60.92 60.99 59.82 59.45 59.25 58.46 56.25 55.65 55.22 55.09 55.47 51.54 51.77 52.77 54.42 54.74 55.64 55.89 54.65 52.63 54.49 54.76 53.30 53.27 49.49 48.78 50.28 52.98 54.47 54.60 54.42 54.34 54.08 53.98 53.92 53.32 52.91
61.64 60.64 59.81 59.94 60.56 61.48 61.41 61.81 62.03 61.15 60.06 59.47 59.59 58.15 56.72 55.34 54.64 53.99 48.97 49.26 51.51 53.42 52.59 49.71 51.43 53.47 54.17 50.73 51.63 50.09 49.38 47.42 47.77 49.85 51.49 52.22 52.59 53.15 53.88 53.49 52.88 52.47 52.46
58.16 58.74 59.99 59.86 60.23 61.49 62.17 62.38 62.24 61.77 61.63 59.84 59.68 58.76 56.30 56.33 56.45 54.89 51.39 50.01 48.15 50.08 50.06 51.23 51.26 54.02 50.84 49.79 49.71 48.96 48.74 46.51 46.72 48.47 50.07 50.86 51.37 51.89 52.24 52.18 51.90 51.62 51.33
59.28 60.79 60.51 60.27 60.09 59.67 62.10 62.71 62.79 62.19 62.24 61.51 60.95 60.34 59.46 59.62 55.47 52.20 50.93 49.11 47.52 48.59 51.96 46.10 51.57 48.61 49.45 50.18 48.19 46.98 48.79 45.85 45.70 46.55 47.80 48.88 49.73 49.99 49.67 50.00 49.33 49.31 49.11
59.91 60.67 61.35 61.50 61.71 61.61 61.72 62.21 61.64 61.56 62.14 61.70 61.46 61.06 58.75 56.42 55.14 56.50 53.36 51.38 49.70 46.75 47.52 50.57 48.50 49.95 50.32 49.73 49.35 50.19 50.46 46.16 45.28 45.05 45.35 46.49 47.84 48.32 48.36 48.64 49.24 49.58 49.47
59.99 60.12 60.66 61.04 60.85 61.03 61.27 61.21 61.15 61.54 60.95 61.60 61.25 60.64 60.20 58.57 58.23 57.72 54.73 52.01 51.53 49.38 46.86 51.64 49.95 52.69 53.12 50.78 50.32 49.56 49.27 47.50 44.68 43.64 43.50 44.09 45.05 46.35 46.94 47.09 47.33 47.93 48.44
59.93 59.64 59.80 60.14 60.26 60.48 60.86 61.09 60.96 60.59 60.06 60.43 61.07 59.83 58.95 58.21 56.46 54.31 52.89 52.07 49.74 49.50 47.58 50.39 52.83 55.13 52.74 51.19 49.74 48.09 49.65 48.61 46.72 42.79 42.11 42.50 42.88 43.20 43.75 44.09 44.57 45.41 46.22
60.22 60.03 60.03 59.82 60.03 60.16 60.97 61.25 60.30 59.89 59.30 58.78 57.41 56.23 54.73 54.25 53.49 53.03 51.17 50.28 49.67 49.69 48.60 47.36 50.66 44.61 50.11 44.94 43.93 46.25 44.24 45.53 47.12 44.95 42.39 41.71 41.60 41.36 41.43 41.35 41.43 41.53 42.33
59.79 59.99 60.03 59.72 59.68 60.26 60.12 60.52 60.23 58.23 56.94 57.93 58.05 55.75 54.57 53.12 51.74 51.55 50.88 49.76 50.54 50.02 48.73 47.56 47.91 44.33 42.56 41.08 40.40 42.40 43.05 44.56 46.03 43.71 39.84 39.32 39.82 40.42 40.53 40.41 40.33 40.41 40.40
59.34 59.31 59.62 59.61 59.84 59.92 59.92 59.93 59.08 58.57 59.75 59.71 58.64 54.78 54.35 53.32 51.61 51.37 50.70 49.53 49.18 48.15 47.72 44.54 41.48 36.89 37.69 38.95 39.70 39.26 39.26 42.01 42.92 43.29 40.78 38.62 39.02 39.42 39.47 39.18 38.59 38.88 39.02
59.46 59.28 59.64 59.86 60.56 60.74 60.41 60.33 59.32 58.35 56.73 55.44 54.60 53.50 53.90 51.71 47.04 47.15 49.88 49.09 47.18 42.80 38.81 38.25 35.63 34.66 35.58 34.72 34.91 38.42 37.30 39.27 39.87 40.66 39.94 39.55 39.28 39.36 39.47 38.32 37.67 38.52 38.61
60.16 60.41 60.40 60.43 60.17 58.57 48.34 45.51 49.50 55.15 52.70 51.14 50.35 42.68 40.71 40.06 37.62 36.98 36.36 34.95 37.97 37.64 35.03 34.69 33.80 33.52 32.79 32.98 34.18 34.98 35.46 35.74 33.59 40.46 36.37 35.81 38.62 37.00 37.71 38.63 37.42 37.20 37.32
59.32 58.44 57.33 55.34 47.43 41.65 38.81 42.61 40.62 45.88 41.86 39.81 38.66 37.98 36.29 35.42 35.74 34.47 33.59 33.50 33.05 33.05 32.00 34.96 33.53 32.81 33.01 33.85 35.26 35.37 34.01 32.29 30.93 35.46 35.38 33.82 37.73 36.33 38.21 37.79 37.05 36.85 36.70
49.22 45.98 42.88 40.77 38.25 36.73 36.73 37.39 36.57 36.42 34.59 33.99 33.98 33.99 32.55 32.30 33.23 33.28 32.55 31.13 30.91 31.19 32.27 33.22 33.65 33.98 34.16 34.45 33.83 33.09 32.63 33.13 34.23 34.85 35.51 31.73 35.96 35.20 37.69 38.12 37.46 37.54 36.89
38.57 37.19 37.02 36.21 34.74 33.92 34.32 34.60 34.63 32.34 30.48 29.97 30.95 31.17 30.48 29.74 31.00 32.61 30.86 29.89 30.23 30.63 32.62 32.75 32.31 31.83 31.49 31.17 31.46 33.12 31.79 30.61 30.26 31.82 35.26 32.93 33.60 33.61 35.84 36.44 38.15 37.16 36.61
34.84 34.02 32.97 33.68 33.92 33.62 33.96 33.86 33.11 31.42 29.32 28.74 28.64 28.72 29.10 28.91 29.15 29.68 30.11 29.97 28.67 30.04 30.76 30.88 31.27 29.83 28.92 30.48 27.43 29.20 29.44 27.99 28.04 27.70 32.63 30.85 31.78 32.45 31.11 35.12 36.25 37.42 37.42

GFSMA_sfc_wetblb_099.txt.gz
Wetbulb
66.35 65.71 66.44 66.81 66.08 66.10 64.46 64.15 63.18 63.92 63.90 62.72 62.57 62.46 62.36 62.56 62.53 61.92 61.25 61.01 61.34 61.39 60.67 60.23 59.53 58.95 58.51 57.88 57.26 57.26 56.83 56.58 56.49 56.45 55.64 55.42 55.20 54.05 53.55 53.15 52.98 52.75 52.58
66.59 63.86 65.77 66.68 66.55 66.52 65.46 64.77 64.46 63.87 63.24 62.13 61.69 62.24 61.74 62.25 62.47 62.40 61.45 60.64 60.30 61.06 61.08 59.99 59.37 58.81 58.47 57.75 56.93 56.90 56.85 55.88 55.85 56.76 55.77 55.83 54.06 53.87 52.76 52.26 51.91 51.54 51.42
65.87 64.51 64.59 66.09 65.67 66.49 67.29 65.86 65.04 63.69 61.85 60.96 60.62 61.08 61.33 61.84 62.00 62.25 61.58 61.05 60.13 59.72 60.10 60.86 60.08 58.74 58.17 57.85 57.24 56.36 57.06 56.28 55.49 56.76 56.03 55.02 54.19 53.51 52.19 51.37 50.94 50.59 50.44
65.39 64.50 62.97 62.43 65.64 65.08 66.00 64.74 63.47 61.06 59.97 59.08 58.43 58.85 59.65 61.09 61.55 61.90 61.81 61.57 60.50 59.94 59.41 59.84 60.20 59.36 58.14 57.66 56.95 57.32 56.88 56.22 55.83 56.53 55.92 54.94 54.34 53.54 52.21 50.72 50.21 49.89 49.43
61.51 60.92 60.86 61.73 65.40 65.19 64.80 64.13 62.67 61.56 59.46 58.76 58.10 58.26 58.75 58.80 60.25 61.07 61.36 61.69 61.06 60.39 59.75 59.14 59.27 59.01 58.84 58.30 57.50 56.88 56.93 56.04 55.64 56.99 56.05 55.12 53.93 52.66 51.10 50.12 49.89 49.42 48.84
61.34 60.59 60.42 61.86 63.85 63.32 63.19 62.29 61.38 61.02 60.28 59.51 57.63 57.38 58.46 58.73 59.28 59.95 60.63 60.80 60.63 60.78 60.18 60.27 59.06 58.23 58.46 58.93 58.16 56.52 56.79 56.59 55.77 56.64 55.67 54.36 53.25 51.99 50.77 50.00 49.59 49.21 48.61
61.01 60.92 60.07 62.12 62.74 61.41 60.60 60.55 61.37 61.32 59.94 60.80 57.74 56.82 57.25 57.71 57.74 58.09 59.66 60.00 59.63 59.53 60.34 59.28 59.77 58.14 57.42 58.67 58.52 56.79 57.48 57.23 56.70 56.43 55.40 53.98 53.14 52.16 51.00 50.51 50.05 49.69 48.92
60.60 60.21 60.54 61.54 61.58 60.09 60.53 61.20 61.81 59.29 59.71 59.86 56.25 55.72 52.20 53.44 55.23 55.91 56.87 58.21 60.19 59.09 58.31 58.64 58.74 58.82 57.76 55.88 56.43 57.26 57.05 57.78 57.46 56.95 55.74 54.30 53.64 52.85 51.84 51.29 50.79 50.41 49.84
59.28 59.42 60.35 61.16 61.33 61.39 60.45 61.16 61.61 60.47 57.67 57.72 59.51 56.06 52.00 51.16 54.19 55.55 55.52 56.19 57.29 58.19 58.55 58.09 58.07 58.42 58.47 57.74 55.91 55.17 54.63 56.09 57.77 57.33 56.41 55.39 54.62 53.98 53.31 52.59 52.12 51.43 51.03
59.61 60.08 60.77 61.47 61.77 62.39 60.95 60.83 60.91 60.98 60.59 56.38 56.54 56.99 58.54 57.21 54.22 52.62 54.65 55.01 55.41 56.84 58.16 58.18 57.54 57.84 58.42 58.38 56.93 54.44 51.59 52.20 54.88 57.56 57.97 56.68 56.16 55.43 54.71 53.81 53.27 52.74 52.31
60.12 60.23 61.00 62.19 63.07 61.97 62.79 62.43 61.44 60.43 60.11 59.41 56.93 56.37 56.13 56.36 56.97 53.52 52.17 52.71 55.98 56.52 56.95 58.52 57.26 58.63 58.11 57.65 57.04 53.88 51.05 49.93 51.01 54.47 56.70 57.91 57.86 57.62 56.55 55.36 54.72 54.26 53.77
59.59 59.98 60.15 61.77 62.38 62.53 62.14 61.80 61.72 60.70 60.74 61.16 60.26 59.52 57.09 55.66 54.42 53.76 52.78 53.62 52.29 54.08 54.06 53.67 54.42 57.42 58.29 55.87 54.61 52.71 50.41 49.14 49.66 51.86 54.07 55.56 56.62 57.06 56.50 55.61 55.33 55.40 55.20
58.38 58.27 58.87 59.36 60.44 61.99 62.01 61.94 60.92 61.62 61.74 60.77 60.69 60.24 60.53 59.48 59.64 56.81 53.55 51.69 52.01 53.34 51.71 52.53 54.30 54.05 55.61 56.39 55.45 52.05 50.90 47.86 47.87 49.80 51.36 52.47 53.52 54.50 55.12 55.09 54.73 54.98 54.98
60.61 59.27 58.37 58.24 58.90 60.46 59.92 61.73 62.68 61.21 61.50 61.88 62.03 62.06 61.15 60.81 60.45 58.72 56.45 51.88 49.84 52.81 53.33 52.28 53.99 53.25 53.03 55.33 54.87 49.94 51.82 47.17 46.96 47.43 48.51 49.54 50.30 51.03 51.80 52.53 53.33 53.96 54.10
60.97 61.14 60.92 60.04 60.32 60.10 60.81 59.43 60.53 60.67 61.44 61.99 62.53 62.46 61.39 61.70 61.71 61.38 60.08 56.05 52.28 48.70 49.96 53.50 53.13 53.66 52.16 51.23 50.88 51.73 51.27 49.61 46.41 46.15 46.21 47.45 48.92 49.63 49.95 50.50 50.60 50.38 50.41
60.98 61.04 61.21 60.91 60.83 60.67 60.99 61.37 61.34 61.87 61.28 61.53 61.64 61.56 61.33 61.51 60.83 60.46 58.64 56.58 54.39 51.73 49.28 53.32 51.57 53.01 51.18 50.24 49.40 49.36 49.86 49.09 46.17 44.94 44.58 45.17 45.98 47.27 47.63 47.59 47.93 48.52 48.81
61.50 61.02 61.16 61.16 61.23 61.21 61.68 61.83 61.59 61.40 60.84 61.02 61.77 61.21 60.99 61.82 60.83 60.28 57.68 56.39 54.49 53.12 50.20 52.82 53.40 53.15 50.29 48.92 50.27 49.82 50.15 50.39 49.90 43.80 43.21 43.45 43.68 44.46 44.94 45.13 45.46 45.95 46.52
61.94 61.42 61.19 60.37 60.55 60.82 61.52 61.34 61.11 61.11 60.87 60.63 61.05 61.13 60.60 59.21 56.93 57.18 58.30 55.20 53.83 53.52 50.40 48.72 51.19 51.23 51.53 51.45 51.99 49.93 49.44 49.27 50.02 45.33 43.20 42.72 42.87 42.79 42.72 42.42 42.51 42.58 43.15
61.01 61.23 61.06 61.05 60.80 61.21 61.23 61.61 61.69 61.27 61.26 61.27 61.37 60.78 59.15 56.33 55.83 56.52 55.68 53.26 53.17 51.99 51.01 48.92 48.67 50.23 50.30 44.83 46.75 43.92 45.09 43.59 44.91 44.46 42.19 41.38 41.69 41.56 41.46 41.11 40.95 40.89 40.94
60.69 60.33 61.33 61.25 61.75 60.68 60.58 60.97 60.73 61.19 61.10 60.76 60.36 58.35 57.78 57.37 55.68 54.46 53.85 52.24 51.33 50.20 49.21 47.59 46.98 41.70 38.28 38.91 39.30 38.25 38.45 41.29 41.06 44.84 43.74 40.65 39.76 39.71 40.09 40.14 39.90 39.79 39.65
60.68 60.82 60.49 60.34 60.43 60.55 59.95 60.43 59.68 58.48 58.12 57.74 57.59 51.81 41.05 39.97 38.12 38.27 44.38 47.43 48.11 47.34 45.57 42.72 36.08 35.32 35.53 34.97 35.45 37.30 36.01 36.04 39.02 40.68 39.91 40.62 40.52 39.77 39.29 39.18 38.73 38.89 38.46
60.40 60.21 59.64 59.82 59.62 51.22 38.28 41.03 47.46 52.89 46.69 44.61 42.34 38.47 37.25 36.52 35.30 34.70 34.17 33.75 33.25 36.33 36.41 36.06 34.07 34.05 33.00 33.36 34.04 33.53 32.82 32.30 33.01 38.80 37.60 36.63 38.00 36.57 37.39 38.47 38.49 38.31 37.99
58.67 50.07 46.03 43.20 39.97 39.36 37.93 38.35 38.47 39.01 36.60 35.95 35.14 34.64 33.93 34.39 35.03 34.62 32.79 32.54 32.14 32.57 30.86 33.74 32.06 31.52 31.79 32.33 33.77 33.44 33.60 33.87 34.04 35.68 34.77 32.51 36.34 34.80 37.02 37.81 37.95 37.99 37.64
41.47 39.65 37.37 36.48 35.37 35.47 35.45 35.27 34.54 34.00 32.66 32.11 31.93 32.12 32.09 32.39 33.17 33.23 32.49 31.54 31.26 31.41 32.08 33.04 32.74 33.60 34.08 34.75 34.44 34.34 33.96 33.62 33.93 34.57 35.31 30.38 35.05 33.48 36.07 37.89 38.71 38.55 37.99
35.70 35.24 35.47 34.73 33.93 33.58 34.02 33.99 32.96 31.49 30.27 30.00 30.72 31.46 30.87 30.09 30.60 32.44 32.18 31.26 30.96 30.92 32.16 32.12 32.22 31.84 31.60 31.80 31.93 32.16 31.16 30.75 29.77 31.37 34.36 32.55 33.36 33.41 34.90 36.13 38.06 38.24 37.45
33.57 33.02 32.51 33.14 33.29 32.72 33.97 33.81 33.04 31.64 29.96 29.26 29.49 29.55 29.34 29.07 29.16 29.62 30.67 30.96 30.45 30.86 31.43 31.85 32.72 32.00 30.94 32.05 29.17 29.46 29.11 26.43 26.97 26.60 31.56 29.32 30.60 31.50 29.84 35.37 36.15 36.75 37.06

GFSMA_sfc_wetblb_102.txt.gz
Wetbulb
65.30 65.41 64.63 63.94 60.59 61.11 60.10 58.62 58.46 60.38 59.65 58.68 59.61 59.49 59.57 60.44 59.20 58.79 58.50 60.60 61.14 61.53 60.99 60.67 60.04 59.31 58.75 58.37 57.65 57.35 57.19 57.10 57.05 56.81 56.14 55.97 55.48 54.45 53.96 53.71 53.41 53.06 52.92
65.43 64.73 63.94 63.78 62.30 61.64 61.27 59.78 59.31 61.28 60.12 58.92 59.13 59.39 59.12 59.04 59.02 58.73 58.47 58.54 60.30 61.01 61.13 60.34 60.13 59.55 59.17 58.41 57.83 57.67 57.26 57.15 56.98 56.54 56.08 55.93 54.85 54.10 53.34 52.83 52.73 52.46 52.17
64.96 63.42 63.17 63.34 62.97 62.32 61.95 61.22 61.32 60.75 59.32 58.78 58.12 58.81 58.48 58.90 59.86 58.55 58.13 57.82 57.98 59.82 60.16 60.87 60.21 59.36 59.18 58.69 57.97 57.75 57.36 56.57 56.39 57.13 56.35 56.00 54.62 53.86 52.67 52.14 51.91 51.64 51.42
64.27 62.81 62.70 62.59 63.57 62.86 62.75 61.59 61.41 59.10 57.69 56.84 56.03 56.39 57.05 57.68 58.65 58.30 57.98 57.59 57.16 57.72 58.70 60.01 60.60 60.57 59.37 58.87 58.69 57.72 57.70 57.22 56.25 57.47 56.66 56.06 55.12 54.41 53.07 52.06 51.63 51.36 51.09
62.15 62.23 62.50 62.68 63.70 62.74 62.33 62.21 59.72 58.07 55.83 55.00 55.02 55.09 55.30 56.14 57.40 58.46 58.23 57.91 57.13 57.10 56.79 58.72 59.19 59.65 59.68 58.85 58.55 58.30 58.46 57.77 57.27 56.86 57.12 56.29 55.39 54.85 53.43 51.87 51.19 50.91 50.35
61.38 60.42 60.90 61.76 62.24 61.86 61.61 60.87 59.23 58.31 55.90 55.19 55.49 55.06 54.20 54.59 55.68 56.36 56.83 58.93 57.86 57.02 56.66 56.41 56.82 56.82 58.37 59.42 58.68 58.60 58.76 58.53 57.56 57.26 57.75 56.81 55.78 54.76 53.42 51.82 51.22 50.68 50.29
60.81 59.24 59.65 59.88 59.96 60.76 60.16 60.31 58.61 56.75 56.29 57.78 54.05 53.13 52.98 54.01 54.38 54.67 56.11 56.07 56.57 57.02 56.36 56.63 56.15 55.78 56.00 58.71 59.08 59.01 58.48 58.55 58.37 57.38 57.72 57.16 55.81 54.52 53.04 51.89 51.31 50.81 50.29
60.34 58.13 58.98 58.79 58.70 58.79 59.19 58.66 57.29 56.10 56.97 57.40 53.63 51.34 48.13 50.16 52.02 53.29 52.93 55.30 55.90 56.08 56.01 56.43 56.57 56.25 55.60 55.73 56.18 59.13 58.57 58.65 58.81 58.18 57.22 57.45 55.84 54.59 53.38 52.50 51.86 51.54 51.14
60.07 59.25 59.43 59.28 58.45 58.42 58.04 57.71 58.03 57.08 55.47 55.16 54.49 52.79 49.33 47.19 48.21 50.95 51.58 52.21 53.17 55.16 55.10 55.33 55.24 55.44 55.76 54.03 55.50 56.39 56.09 56.47 58.90 58.85 58.21 58.19 56.93 55.01 54.25 53.39 52.86 52.63 52.21
59.36 59.24 59.73 59.55 58.71 58.71 57.88 57.87 58.89 57.84 56.44 53.26 53.96 55.11 54.10 53.50 50.01 46.60 50.00 50.88 51.69 52.94 54.02 54.34 55.00 55.02 54.97 54.63 53.97 53.18 52.36 52.93 54.96 58.40 59.35 59.02 58.25 56.47 55.09 54.66 54.25 53.84 53.22
58.42 58.14 59.05 59.12 58.73 58.97 58.95 58.41 57.77 57.59 57.56 55.26 53.79 53.13 52.62 52.67 53.16 50.30 48.50 47.95 50.86 52.43 53.98 54.75 55.05 53.86 54.23 54.28 55.20 54.24 51.35 50.55 51.61 55.02 57.52 58.97 58.91 58.19 57.29 56.57 55.62 55.04 54.55
57.71 57.86 57.73 58.88 58.98 58.97 58.72 58.58 58.61 57.43 57.91 56.86 55.74 54.61 52.99 51.10 50.33 50.19 49.14 49.67 49.35 51.14 52.91 52.82 53.43 54.77 55.04 54.52 55.24 53.53 51.22 49.91 50.14 52.34 54.54 56.49 58.15 58.47 58.11 58.01 57.94 56.59 55.73
56.78 57.17 57.76 58.47 58.55 58.46 58.74 59.11 58.75 58.00 57.72 57.55 57.48 56.75 55.72 54.59 55.08 53.37 51.85 50.16 50.10 50.51 50.45 51.42 51.66 52.37 53.40 53.96 54.55 52.79 52.33 48.60 49.26 50.66 51.90 53.42 54.81 56.36 57.41 57.73 57.86 57.84 57.52
57.28 57.98 57.97 58.47 58.70 58.73 58.83 58.98 58.94 59.17 58.96 58.38 57.53 57.02 56.90 56.96 56.66 55.70 53.48 51.08 49.68 50.69 50.65 50.05 52.48 53.85 53.72 53.86 53.72 51.31 52.94 48.55 48.00 48.56 49.86 50.99 52.05 52.93 53.88 55.07 56.09 56.48 56.53
58.85 58.40 58.24 58.28 58.28 58.40 58.41 58.20 58.21 57.97 57.91 57.65 56.81 57.45 57.15 58.13 57.58 57.33 56.41 55.15 52.46 49.41 49.12 51.27 51.98 54.89 54.25 54.69 54.07 53.42 52.66 51.00 47.47 46.87 47.12 48.72 50.11 51.16 51.52 52.10 52.77 53.45 54.10
58.62 58.56 57.73 57.63 57.13 57.16 57.92 57.92 57.40 57.19 57.31 56.97 57.53 57.25 57.83 58.21 58.35 58.39 58.18 57.55 55.72 53.34 50.58 53.58 53.17 55.08 54.64 53.43 53.29 52.46 52.71 50.55 47.71 46.72 46.33 46.68 47.49 48.68 49.28 49.30 49.57 50.25 51.16
59.04 59.18 58.71 58.20 57.73 57.50 57.97 57.24 56.67 56.69 56.63 56.91 57.54 57.49 57.30 58.14 57.81 58.03 58.08 57.69 55.75 54.18 51.76 53.22 54.70 54.88 53.82 52.06 51.85 50.94 50.53 50.75 51.05 46.85 45.74 45.85 45.89 45.89 46.32 46.67 47.03 47.74 48.17
58.97 58.49 59.04 58.51 58.16 57.90 57.79 57.29 57.13 57.76 57.59 56.89 57.02 57.25 56.95 57.47 56.69 57.37 57.35 56.40 55.73 55.34 53.60 52.06 53.68 52.91 51.87 51.75 50.82 49.79 49.89 50.36 49.81 48.55 46.08 45.44 45.15 44.54 44.39 43.53 43.45 43.64 44.17
58.86 58.55 58.52 57.90 57.96 58.12 58.04 57.94 57.88 57.56 57.27 57.46 57.22 56.70 56.48 56.03 55.90 54.75 55.11 55.33 55.89 55.11 53.36 51.59 51.00 51.74 49.50 44.80 45.87 45.43 43.92 45.21 45.68 44.25 42.15 41.97 42.44 42.74 42.46 42.06 41.93 41.69 41.72
58.68 58.62 58.40 58.44 58.23 58.01 58.13 58.17 58.10 57.78 57.56 57.67 56.18 46.56 41.80 40.33 40.48 41.74 46.99 46.59 48.67 50.08 50.57 49.46 48.63 46.88 39.84 39.71 39.62 38.51 39.08 40.38 40.97 44.89 43.79 41.50 40.85 40.19 40.14 40.13 40.08 40.18 40.27
58.72 58.72 58.66 58.74 58.77 58.51 53.41 50.30 55.99 56.27 51.27 44.72 41.06 39.24 37.80 37.23 36.34 35.67 37.06 35.66 38.20 40.50 41.20 39.95 37.29 35.39 34.91 34.81 34.59 36.38 36.23 34.79 36.54 39.21 39.48 39.44 39.75 39.90 39.89 40.14 39.84 39.64 39.37
59.27 58.93 57.31 50.88 44.86 42.23 38.29 40.81 45.54 42.75 41.46 40.01 36.84 36.02 35.83 36.55 34.93 34.40 33.79 33.67 33.35 33.98 33.64 33.68 32.96 32.60 31.83 32.10 32.96 32.10 32.10 32.09 32.07 36.19 35.24 33.10 37.49 35.73 36.99 36.98 38.34 38.35 38.41
47.51 42.90 40.71 39.50 37.15 36.52 36.55 36.94 37.90 36.45 35.22 34.64 34.19 34.02 33.73 34.04 34.36 33.80 33.31 32.99 32.55 33.02 30.93 33.01 30.90 30.59 30.94 31.48 32.22 32.04 31.87 31.90 31.90 34.94 32.98 31.23 34.13 33.91 36.33 37.72 38.25 38.26 38.27
38.29 36.86 35.80 35.45 34.53 34.25 34.43 34.53 34.02 33.08 32.24 32.05 31.98 31.62 30.97 30.80 32.01 33.37 32.90 31.94 30.64 30.97 31.45 31.93 31.02 31.08 31.44 32.24 32.03 31.85 30.91 31.21 31.75 32.74 34.26 28.68 31.00 31.93 33.87 35.21 37.78 38.46 38.43
35.08 34.34 34.08 33.44 32.95 33.04 33.83 33.55 32.47 30.91 29.61 29.41 30.19 30.50 29.91 29.13 30.77 32.47 31.43 30.03 29.91 30.80 32.48 32.03 31.90 31.79 31.64 31.59 31.13 29.30 27.69 25.71 24.86 27.86 31.09 28.06 30.96 29.94 32.11 33.23 34.94 37.24 37.59
32.69 32.29 31.55 32.10 32.69 32.26 33.95 33.64 32.82 31.03 29.56 29.12 29.38 29.03 29.45 28.86 30.19 31.16 28.57 27.07 25.09 25.69 29.35 28.92 29.87 30.77 31.61 31.58 30.44 29.17 27.66 24.11 24.19 24.78 27.60 23.50 24.91 25.71 23.36 28.50 28.36 30.11 31.44

GFSMA_sfc_wetblb_108.txt.gz
Wetbulb
63.85 63.63 62.69 61.83 60.24 58.29 56.54 54.27 54.59 53.83 54.11 55.23 56.99 56.83 56.43 56.35 56.95 58.03 58.28 60.85 61.47 61.71 61.58 61.53 60.97 60.49 59.78 59.31 58.94 58.61 58.18 58.00 57.73 57.48 57.03 56.56 56.56 56.50 55.48 54.87 54.74 54.12 53.88
63.85 62.61 61.43 59.63 58.07 57.56 55.58 53.85 53.62 52.55 53.48 54.71 55.74 56.44 56.35 56.37 56.87 56.99 57.61 58.36 60.26 61.34 61.56 61.11 60.92 60.56 60.11 59.36 58.57 58.34 58.17 58.05 57.64 57.25 56.83 56.65 56.30 56.08 54.49 54.10 53.85 53.36 53.40
63.39 61.75 59.92 57.77 57.43 56.03 53.20 53.37 54.37 53.84 54.60 55.06 55.48 56.07 56.35 55.98 56.51 56.78 56.65 56.42 58.07 59.67 60.57 61.30 60.94 60.32 60.06 59.54 58.66 58.22 58.23 58.07 57.86 57.51 56.91 56.59 55.78 54.86 54.30 53.77 53.47 53.31 52.84
63.62 61.16 58.47 56.98 57.54 56.41 54.44 54.68 54.79 55.22 54.66 54.54 54.00 54.99 55.50 55.55 55.79 56.21 56.45 56.19 56.03 57.22 59.11 60.50 60.87 60.91 59.97 59.71 59.51 58.99 58.63 58.16 58.06 57.89 57.42 57.01 56.51 55.47 54.68 53.91 53.47 53.17 52.98
63.28 60.60 58.03 57.32 57.27 56.61 54.42 55.92 55.90 56.26 54.46 53.32 54.36 52.90 54.53 54.92 55.18 56.45 55.80 55.50 55.12 55.35 55.48 59.40 59.78 59.94 60.41 60.50 59.94 59.78 59.76 59.00 58.44 57.93 58.06 57.62 57.43 56.34 55.58 54.49 53.87 53.45 53.27
63.20 61.34 58.30 58.09 57.40 57.37 54.35 56.90 56.67 56.07 55.22 53.47 55.51 53.39 53.88 55.14 55.72 55.23 55.32 56.02 55.23 54.90 54.63 55.08 56.86 56.90 58.99 60.28 59.88 60.11 60.33 59.96 59.93 59.46 58.37 58.40 58.26 57.50 56.39 55.75 54.85 53.91 53.47
63.01 62.09 59.52 59.32 58.30 58.13 55.30 57.66 57.46 55.09 51.91 52.37 51.18 49.90 50.39 52.45 53.81 54.90 55.36 54.86 54.30 54.49 53.85 54.38 54.97 55.03 56.35 59.63 60.46 59.99 60.72 61.18 60.94 60.49 59.87 58.82 58.67 58.85 58.19 56.82 56.02 54.95 53.92
62.40 62.32 60.87 59.89 58.96 57.92 58.16 57.71 56.63 53.44 52.60 51.99 50.26 48.75 46.63 48.49 50.07 51.23 53.62 54.30 53.42 54.37 54.19 54.02 54.02 54.38 54.37 55.51 56.67 59.94 60.24 60.54 60.97 60.82 61.31 60.34 59.78 59.49 59.15 57.85 56.73 56.02 54.85
61.95 62.13 61.74 60.74 60.47 59.30 58.84 57.99 56.82 55.68 53.55 52.20 52.26 49.55 45.49 44.85 46.35 49.32 49.47 51.80 52.77 52.24 53.73 54.11 53.97 54.36 54.23 54.05 55.88 56.84 56.76 57.92 60.35 61.40 61.62 61.02 60.31 59.72 59.53 59.39 58.11 56.75 55.96
61.29 61.50 61.50 61.30 61.24 60.42 59.47 58.51 57.11 55.35 54.46 52.30 51.41 52.61 51.06 50.11 47.65 45.60 47.97 49.11 49.31 52.00 52.77 53.05 54.20 54.39 54.53 54.17 54.60 54.05 53.03 53.97 56.27 59.24 60.79 61.16 60.88 60.68 59.74 59.71 59.47 58.58 57.26
60.77 59.79 59.93 60.27 60.72 60.16 59.33 57.78 56.22 56.42 54.83 53.30 51.76 51.02 50.80 50.78 50.27 46.61 44.49 46.63 47.46 48.92 50.10 52.80 53.36 54.00 54.69 54.69 54.25 54.03 52.27 51.39 52.60 55.94 58.16 59.58 60.53 60.72 60.69 59.96 59.92 59.52 58.58
60.10 59.11 58.89 59.32 60.25 59.63 58.16 57.58 57.25 56.60 55.84 55.18 54.39 52.75 51.72 50.52 49.80 49.10 46.05 46.58 45.91 47.62 48.43 49.56 50.64 52.99 53.50 53.82 55.21 53.78 51.91 50.80 51.33 53.52 55.64 57.47 58.78 59.41 59.89 60.37 60.10 60.18 59.58
59.00 57.88 58.24 58.07 58.58 59.22 59.00 58.51 57.73 56.98 56.62 55.80 54.67 53.87 53.34 51.84 51.97 50.48 49.04 47.31 46.56 47.72 48.70 49.24 50.69 52.12 52.90 53.13 53.27 52.45 52.56 49.59 49.94 51.51 53.13 54.47 55.74 56.93 57.65 58.38 59.04 59.67 59.73
58.75 58.23 58.24 58.25 58.08 58.24 58.20 58.03 57.20 56.72 56.64 56.28 55.72 54.93 54.79 52.90 53.61 52.57 50.98 49.41 47.19 48.07 48.36 49.31 50.16 51.00 51.17 52.36 53.32 51.07 52.62 49.34 48.79 48.80 49.98 51.31 52.49 53.54 54.19 55.10 55.90 56.82 58.26
58.99 58.17 58.09 57.90 58.07 57.81 57.67 57.30 56.78 56.22 56.28 56.16 56.32 56.30 55.92 55.64 55.52 55.30 54.54 53.32 51.61 48.75 48.46 49.75 49.70 52.34 53.24 52.93 52.26 52.78 53.02 50.62 48.62 48.04 48.00 48.69 50.16 51.45 52.01 52.66 53.21 53.89 55.02
57.67 57.16 57.53 57.55 57.62 57.68 57.54 57.06 56.40 56.56 56.02 56.29 56.44 56.02 55.84 56.27 56.14 56.08 56.05 55.44 54.37 53.03 50.29 52.95 52.22 51.95 52.99 53.67 53.40 52.86 52.95 51.05 49.27 47.85 47.17 47.04 47.79 49.01 49.99 50.33 50.86 51.51 52.27
57.17 56.44 56.34 56.44 56.87 57.42 57.49 56.86 56.36 56.30 55.85 55.47 55.24 54.98 55.38 55.94 55.64 55.74 55.66 55.62 54.65 53.79 52.02 53.56 54.72 55.88 51.03 52.13 52.71 53.32 53.67 54.15 53.37 46.79 44.54 45.11 45.38 45.56 45.94 46.35 46.92 48.04 49.10
56.71 56.39 56.00 55.66 55.87 56.58 56.67 56.46 56.00 56.18 55.67 55.09 55.37 55.05 54.99 55.73 55.21 55.85 54.68 53.56 54.44 54.89 53.92 52.88 55.20 53.98 51.89 48.94 45.79 45.81 44.92 45.79 45.30 45.29 44.02 43.29 43.30 43.25 43.19 43.52 43.78 44.15 44.73
56.13 56.27 55.91 55.30 55.52 55.96 56.14 56.17 55.93 55.42 54.91 55.35 54.92 54.12 52.60 49.74 51.69 47.01 47.39 46.72 46.56 47.91 48.06 46.66 46.88 43.16 42.91 40.09 39.30 41.34 40.57 41.67 41.38 42.82 42.61 42.77 41.82 41.87 41.75 41.25 41.27 41.54 42.07
56.39 56.27 56.07 56.17 55.88 55.90 55.51 55.34 55.07 54.46 54.38 48.69 43.81 41.00 39.11 38.35 39.36 41.47 39.72 39.65 41.42 41.90 41.27 40.56 39.03 37.64 36.45 37.46 36.25 33.72 33.91 34.73 35.19 38.41 38.26 38.05 38.09 38.79 40.18 40.57 40.66 40.93 41.02
56.39 56.84 56.37 56.22 55.99 55.87 53.90 55.09 54.93 54.24 43.92 39.38 38.49 37.35 36.98 36.82 36.22 35.92 35.81 35.04 36.61 36.28 36.64 34.15 32.79 32.10 31.12 30.74 29.99 32.04 31.77 31.14 31.63 35.23 31.42 33.00 33.80 34.52 35.33 36.14 37.04 38.09 39.08
55.44 52.06 49.59 45.23 41.91 41.59 38.96 41.49 44.08 41.43 39.28 37.08 35.25 34.59 34.59 34.78 34.05 33.75 33.35 33.00 32.49 32.67 31.75 31.45 29.88 29.72 28.23 28.94 29.04 27.89 27.11 26.30 26.27 31.33 29.08 29.00 30.49 30.79 31.10 30.67 32.49 34.07 35.91
42.80 40.47 39.15 38.14 36.53 36.99 37.66 38.06 37.30 36.73 34.94 34.06 33.38 33.09 33.08 33.23 33.38 32.51 32.47 32.22 32.07 32.13 29.98 30.53 27.69 27.40 27.23 27.81 27.86 25.54 25.11 24.46 22.58 26.22 23.22 22.86 26.47 23.61 24.53 27.38 29.38 32.55 31.39
37.78 36.27 35.03 34.63 33.97 34.29 34.91 34.79 33.85 32.65 31.39 31.09 31.40 31.58 31.41 31.27 32.00 31.80 30.20 29.22 29.84 30.48 30.74 30.10 29.06 28.45 26.99 26.13 24.56 23.41 21.31 21.08 22.09 23.39 22.45 16.68 21.82 20.15 22.04 23.60 27.92 29.00 28.25
34.74 34.00 33.73 32.91 32.19 32.16 33.23 33.08 31.80 30.56 29.73 29.87 30.43 29.22 28.68 28.51 29.99 31.10 28.79 26.77 25.75 25.89 30.05 29.59 28.44 27.05 26.30 25.98 24.50 20.46 18.02 16.90 15.60 18.53 20.72 16.73 18.66 18.72 19.16 20.16 22.38 25.68 26.10
33.14 32.97 32.36 32.69 32.78 31.89 32.83 32.28 30.87 29.43 28.29 28.46 28.79 28.80 29.73 29.07 29.44 28.84 26.58 23.76 22.02 22.58 23.15 21.28 20.55 21.22 21.87 21.49 22.06 19.55 17.27 13.36 13.64 12.28 17.67 13.63 15.37 15.06 12.24 18.78 18.89 20.28 21.00

GFSMA_sfc_wetblb_111.txt.gz
Wetbulb
62.89 63.40 64.12 63.31 61.41 58.52 58.67 56.03 54.35 55.21 54.91 55.72 56.02 56.49 55.90 55.69 56.40 56.89 57.52 60.88 61.59 62.10 61.93 61.86 61.38 60.91 60.18 59.69 59.29 58.88 58.18 58.12 58.09 57.89 57.57 57.25 56.92 56.67 56.31 55.65 55.30 54.75 54.53
63.06 63.70 63.17 62.17 59.69 58.52 55.97 55.93 54.87 53.84 54.10 55.38 55.17 55.85 55.43 55.61 56.05 56.20 56.78 58.29 60.38 61.41 61.76 61.50 61.17 60.72 60.18 59.45 58.87 58.65 58.20 57.97 57.91 57.76 57.19 56.57 56.51 56.50 55.37 54.91 54.59 53.93 54.03
63.31 63.30 62.48 60.18 58.34 55.97 53.36 53.01 52.89 52.33 53.64 55.19 54.63 55.34 55.68 55.69 56.09 56.15 56.10 56.36 58.09 59.68 60.62 61.48 61.12 60.48 60.02 59.54 58.87 58.45 58.25 58.06 57.80 57.62 57.09 56.84 56.71 56.30 55.11 54.32 54.22 53.75 53.79
63.65 62.09 60.64 58.74 57.12 54.18 53.19 53.32 53.22 52.44 52.37 54.90 54.02 54.72 54.38 55.10 55.50 55.58 55.56 55.64 55.64 56.67 59.08 60.62 60.98 60.81 60.02 59.61 59.33 59.02 58.69 58.27 58.05 57.98 57.59 57.18 56.96 55.98 55.42 54.77 54.40 54.09 53.84
62.26 61.19 59.56 57.14 55.95 54.00 53.07 53.10 52.71 53.29 52.53 54.05 54.82 53.75 53.42 53.60 54.63 56.35 55.24 54.93 55.01 55.26 55.30 59.14 59.66 59.86 60.53 60.12 59.93 59.81 59.75 59.11 58.68 58.55 58.29 58.01 57.51 57.22 56.23 55.46 54.73 54.25 53.92
61.75 60.84 58.55 56.55 55.59 53.55 52.32 53.01 54.02 53.36 52.49 54.10 55.30 53.46 52.78 53.32 53.93 54.73 55.55 55.72 54.71 54.63 54.59 55.05 56.49 56.44 58.84 60.75 60.19 60.42 60.62 60.63 60.28 59.57 59.01 58.79 58.56 58.10 57.58 56.76 55.84 54.85 54.33
61.66 59.29 57.53 56.71 55.35 52.92 52.25 54.14 54.07 53.55 51.34 52.97 50.97 50.49 50.35 53.04 53.17 53.56 53.79 53.87 53.88 54.30 54.12 54.03 54.06 54.24 55.32 59.80 60.79 60.39 61.06 61.36 61.31 60.88 60.39 59.94 59.11 59.63 59.31 58.50 57.20 56.53 55.61
61.74 59.83 57.35 56.63 55.06 53.23 52.71 54.72 55.25 52.34 51.86 52.67 50.84 49.16 45.94 48.04 51.36 52.64 53.18 54.10 53.10 53.52 53.73 53.59 53.32 53.93 53.57 53.95 56.37 60.06 60.51 61.14 61.71 61.57 61.96 61.34 60.89 60.17 59.87 59.74 58.56 57.54 57.08
62.09 60.62 58.02 57.34 55.75 55.30 53.40 55.51 55.71 55.16 52.51 50.64 52.53 49.50 45.89 45.17 47.35 48.55 51.56 53.05 53.10 52.39 53.11 53.37 53.37 54.00 53.98 53.92 55.37 56.43 56.96 58.19 60.70 61.34 62.09 61.64 61.49 61.13 60.45 60.15 60.04 59.50 58.56
62.47 62.01 59.31 58.18 56.59 56.59 54.63 55.94 57.07 55.92 53.35 51.29 50.41 51.11 50.58 49.51 46.52 45.27 48.18 49.06 52.74 52.79 52.27 52.27 53.40 53.57 54.07 54.00 54.70 54.14 53.20 53.86 56.53 59.47 60.83 61.28 61.55 61.66 61.56 61.12 60.45 60.25 60.06
62.14 62.01 61.28 59.14 58.15 57.46 57.73 56.48 57.03 54.88 54.53 53.13 51.82 50.65 50.65 50.54 49.29 46.99 44.64 46.04 48.26 49.90 52.62 53.05 53.32 53.34 53.82 54.03 53.92 53.44 52.10 51.47 52.40 55.89 58.29 59.82 60.45 60.81 61.19 61.24 61.22 60.84 60.36
61.24 61.31 61.58 60.54 60.20 59.35 58.81 57.96 56.87 55.28 54.41 53.28 53.07 52.10 51.35 50.41 49.59 48.80 47.15 46.32 46.75 48.50 50.27 51.05 51.66 52.85 53.52 53.83 54.59 53.55 51.95 50.67 51.16 53.30 55.42 57.17 58.80 59.71 60.23 60.70 61.00 60.96 60.81
60.00 60.24 60.41 60.34 60.59 60.34 58.58 57.32 56.71 55.91 55.43 54.02 54.30 53.30 52.91 52.30 52.03 51.34 50.63 49.17 48.22 49.42 49.26 49.49 50.45 51.45 52.53 52.91 53.55 52.64 53.15 50.25 50.03 51.61 53.11 54.41 55.54 56.78 57.82 58.73 59.50 60.13 60.33
59.89 59.39 59.20 59.99 60.42 59.06 57.87 57.62 57.00 56.67 56.62 55.96 55.39 54.84 54.72 53.96 53.22 51.96 50.70 50.39 47.20 47.86 49.38 49.33 51.06 50.33 50.77 51.15 52.06 50.83 52.39 49.52 48.94 49.32 50.41 51.76 52.58 53.34 53.67 54.59 55.61 56.29 57.50
59.58 59.29 58.94 59.09 59.41 58.95 58.46 57.89 57.11 56.80 56.80 56.74 56.46 55.59 55.21 55.45 54.62 54.41 53.57 52.26 50.84 48.43 49.46 50.94 49.46 51.81 51.57 51.08 51.00 52.42 52.72 50.86 48.74 48.23 47.27 48.09 49.66 50.91 51.13 51.75 52.24 53.07 53.91
58.59 58.59 58.37 58.52 58.65 58.61 58.39 58.03 57.30 56.88 56.15 56.03 55.97 55.43 55.40 56.10 55.88 55.48 55.16 54.81 53.89 52.21 50.23 52.56 51.46 51.20 52.50 52.98 52.58 51.45 52.63 51.30 47.40 44.78 44.43 45.24 45.57 46.13 46.41 46.84 47.64 48.46 49.23
58.19 57.82 57.77 57.65 57.47 57.40 57.67 57.28 56.84 56.52 55.62 55.19 55.59 55.46 55.05 55.77 55.70 55.64 55.23 55.18 54.51 53.98 51.55 53.47 53.03 53.05 50.20 49.46 46.98 47.02 46.57 46.15 46.00 43.00 43.56 43.40 42.77 42.55 42.56 42.62 42.70 43.10 43.81
57.13 57.26 57.38 57.49 56.97 56.77 56.44 56.18 55.74 56.34 55.54 54.75 54.82 54.52 54.28 54.55 54.33 54.66 54.23 53.90 53.69 53.68 53.39 52.13 52.98 45.95 41.55 42.08 42.87 40.54 41.59 40.82 40.91 41.38 40.91 39.13 39.39 39.51 40.68 40.49 40.85 41.11 41.37
56.55 56.43 56.31 56.22 56.40 56.40 56.48 56.28 56.06 55.58 55.52 55.26 54.45 53.97 49.53 48.75 49.62 47.38 47.22 46.76 46.17 46.82 46.06 46.36 43.49 40.78 39.62 36.72 37.62 36.82 37.37 36.52 37.52 39.66 36.85 36.89 36.82 37.28 37.60 37.37 37.50 37.35 37.38
55.84 55.68 55.89 56.05 56.19 56.59 56.69 56.17 55.99 54.67 52.02 45.80 42.45 40.45 39.23 39.43 40.85 41.51 40.24 40.24 41.46 41.24 40.01 39.21 37.33 34.60 33.82 34.02 34.25 30.56 31.09 31.49 32.15 34.79 33.55 34.19 34.06 35.80 35.42 33.79 33.44 33.42 35.82
55.14 55.44 55.20 55.16 55.06 54.99 54.27 54.11 54.05 51.39 42.88 38.89 37.77 36.84 36.60 36.69 36.24 36.21 35.90 35.21 36.45 35.87 34.79 33.71 31.99 30.97 29.39 28.82 27.18 28.37 27.61 28.08 30.54 28.90 27.65 27.56 29.89 30.28 28.29 28.03 29.40 30.60 32.50
54.60 54.33 51.64 48.73 45.89 44.11 39.65 44.01 45.99 42.80 39.51 36.67 34.82 34.69 34.59 34.62 33.95 33.85 33.21 32.55 32.25 32.01 30.52 29.35 28.51 27.14 26.39 27.04 27.67 25.60 24.19 22.46 21.99 27.77 23.38 22.48 26.89 24.34 23.61 24.21 27.61 28.58 30.95
45.50 42.49 41.01 40.05 38.24 38.82 38.85 39.18 38.25 37.52 35.66 34.57 33.77 33.13 32.82 33.20 32.76 31.88 31.92 31.73 31.72 31.41 29.82 29.29 24.75 24.56 21.89 22.20 23.23 21.31 20.32 20.03 18.88 22.70 20.34 19.09 21.93 20.76 21.81 23.82 25.68 28.29 28.41
39.52 37.44 36.23 35.92 35.25 35.55 36.27 35.58 34.32 33.22 32.29 32.20 32.17 32.01 31.76 30.86 30.88 30.10 28.60 28.29 28.91 28.40 27.59 26.90 24.84 23.91 23.21 22.05 20.95 20.48 19.07 18.64 19.23 21.00 18.34 12.60 18.49 17.26 18.62 20.04 24.38 26.60 26.05
35.59 34.48 34.25 33.62 32.84 32.93 34.04 33.77 32.80 30.86 29.33 28.56 28.78 29.47 29.85 30.21 31.36 30.75 26.85 25.54 25.24 24.64 25.98 26.17 25.37 24.39 23.51 22.70 20.86 16.85 14.09 12.22 10.96 14.68 17.01 13.10 14.97 14.88 16.30 16.98 20.14 23.36 23.46
33.34 32.94 32.14 32.49 32.58 31.70 33.21 33.24 31.81 29.38 27.46 27.40 28.52 29.02 29.69 28.31 28.06 27.24 25.37 23.51 19.92 19.30 20.03 19.38 18.96 18.99 19.20 19.00 19.56 17.42 14.61 10.50 10.62 7.83 14.91 11.84 13.46 13.18 10.48 16.94 16.79 17.95 16.63

GFSMA_sfc_wetblb_114.txt.gz
Wetbulb
62.13 63.62 63.61 63.67 63.23 62.83 61.88 57.72 54.97 55.12 55.36 55.88 56.79 56.82 56.64 56.87 57.17 57.70 58.88 61.05 61.96 62.77 62.26 62.33 61.78 61.45 60.63 60.05 59.74 59.25 58.54 58.66 58.31 58.11 57.96 57.44 57.24 57.05 56.70 56.15 56.03 55.46 54.93
62.61 62.65 62.91 62.77 61.67 61.38 60.30 57.01 54.58 54.13 55.23 55.81 55.53 56.09 56.02 56.22 56.55 56.83 57.82 59.16 60.55 61.71 62.23 62.00 61.60 61.13 60.70 60.20 59.40 58.85 58.70 58.41 58.17 57.91 57.55 57.17 56.99 56.81 56.11 55.41 55.35 54.77 54.56
62.79 62.55 62.92 61.99 60.49 59.31 57.56 55.25 53.05 52.68 54.44 54.86 54.65 54.81 55.39 55.82 56.21 56.55 56.92 57.57 58.92 59.84 60.79 62.05 61.57 60.81 60.49 60.06 59.32 58.88 58.42 58.19 58.00 57.88 57.33 56.92 56.70 56.83 56.11 55.17 55.15 54.58 54.34
63.10 62.66 62.71 60.84 59.57 57.47 56.53 55.59 53.28 51.86 53.17 54.06 53.47 53.91 54.63 55.42 55.80 56.11 56.17 56.47 56.82 57.46 59.37 60.62 61.19 61.25 60.62 60.15 59.71 59.32 58.81 58.22 58.08 58.03 57.71 57.26 57.29 56.75 56.51 55.71 55.15 54.71 54.62
63.16 62.75 62.49 60.60 57.48 56.00 55.65 54.92 52.87 53.51 53.12 53.25 54.00 53.46 53.64 54.72 55.16 56.12 55.60 55.68 55.99 56.28 56.72 59.53 59.79 59.88 60.55 60.24 60.00 59.89 59.75 59.19 58.69 58.59 58.41 58.15 57.88 57.66 57.01 56.21 55.71 55.42 55.12
62.25 62.87 61.14 57.94 57.32 54.90 53.82 54.54 52.85 52.46 52.92 53.69 54.85 52.98 52.81 53.56 54.40 54.50 55.12 55.81 55.65 55.79 55.71 56.34 57.79 57.57 59.01 60.88 60.32 60.26 60.39 60.35 59.77 59.44 59.24 59.07 59.12 58.58 58.28 57.88 57.22 56.57 55.88
61.39 61.08 58.66 57.28 56.03 54.07 53.09 53.40 53.60 52.82 51.30 52.93 51.55 50.66 50.64 53.15 52.93 53.53 54.33 54.67 55.10 55.20 54.97 54.98 55.64 56.11 56.54 59.75 60.84 60.35 60.89 61.29 61.22 61.08 60.60 60.26 60.20 59.75 59.82 59.67 58.71 57.86 57.33
60.24 59.38 58.03 57.04 55.06 53.09 52.29 52.76 53.62 51.78 51.33 53.46 50.71 49.63 48.41 50.11 51.88 52.86 53.23 53.94 53.87 54.85 54.67 54.94 54.79 55.14 55.16 55.22 56.83 59.81 60.55 61.07 61.59 61.97 62.22 61.94 61.49 61.26 60.43 60.12 60.42 59.89 58.73
59.88 58.62 57.95 56.83 55.00 52.66 51.90 52.55 53.67 53.56 51.31 51.03 54.09 50.42 46.22 47.17 48.93 49.65 51.90 53.66 53.80 53.48 54.70 54.59 54.51 54.65 54.90 54.71 55.49 56.44 56.59 58.17 60.17 60.81 62.07 62.06 62.08 61.93 61.72 61.33 60.92 60.81 60.55
60.37 58.75 57.78 56.80 54.92 52.92 51.84 52.82 54.25 54.18 52.55 50.95 50.63 50.95 50.62 49.30 47.62 45.67 49.02 51.32 53.09 52.96 53.51 53.53 54.45 54.62 54.87 55.03 54.90 54.08 52.77 53.47 56.06 59.11 60.34 61.29 61.54 61.76 62.09 61.87 61.77 61.31 60.99
61.02 59.69 58.12 57.24 55.36 54.45 52.64 53.48 54.31 54.33 53.17 53.29 51.09 50.40 50.36 50.48 49.18 47.15 45.73 47.64 48.87 52.04 53.71 53.71 53.87 54.06 54.63 54.80 54.69 53.87 52.13 51.29 52.31 55.80 58.19 59.64 60.79 61.01 61.22 61.37 61.53 61.70 61.44
61.36 60.88 58.91 57.98 56.33 55.48 54.05 53.87 55.87 55.02 54.00 54.51 52.51 51.49 50.93 50.30 49.66 48.56 47.10 47.07 47.64 49.70 50.51 52.60 53.39 53.94 54.24 54.14 54.52 53.13 51.88 50.55 51.02 53.08 55.17 56.93 58.50 59.66 60.20 60.81 61.10 61.25 61.09
60.47 60.76 60.55 58.60 57.95 56.21 57.07 55.51 56.41 55.14 53.94 53.61 52.44 52.29 52.70 52.14 52.29 51.33 50.64 48.97 48.89 50.45 50.91 51.26 50.94 52.10 53.11 53.51 54.10 52.59 53.06 50.09 49.97 51.28 52.76 54.16 55.28 56.21 56.90 57.40 57.64 57.94 58.29
60.54 61.14 61.37 60.06 59.00 57.66 58.29 57.28 56.43 56.08 54.93 54.31 53.96 54.23 53.89 53.33 53.10 52.19 51.10 50.23 48.53 48.76 49.68 50.76 52.16 51.16 51.57 52.35 52.55 50.40 52.74 48.67 47.94 48.12 49.12 50.35 51.17 51.59 52.04 52.51 52.92 53.47 53.94
59.61 60.40 61.17 60.93 59.84 59.16 58.23 57.44 56.32 55.72 55.16 55.08 55.10 55.31 54.96 55.17 54.79 54.53 53.28 52.23 50.33 47.30 48.77 51.30 51.09 52.51 52.66 51.92 51.33 52.19 52.19 44.86 44.87 45.01 45.12 45.62 46.21 46.25 46.30 46.43 46.76 47.06 47.85
59.59 59.66 59.79 60.45 60.28 59.62 58.50 57.68 56.59 56.43 55.81 55.70 55.80 55.64 55.43 55.53 55.31 55.01 54.46 53.93 53.17 51.83 49.96 52.60 53.14 52.97 51.10 51.49 47.07 47.50 46.77 44.65 42.75 42.14 41.96 41.80 41.67 42.60 42.63 42.68 43.05 43.37 43.78
58.96 59.21 59.15 59.35 59.09 58.44 58.19 57.54 57.05 56.90 56.07 56.21 56.18 55.48 55.36 55.81 55.33 55.39 55.15 55.07 54.35 54.17 51.70 53.21 53.88 47.77 43.90 43.91 41.85 43.39 42.07 41.50 41.01 39.02 38.47 38.55 38.71 39.13 39.07 39.09 38.24 38.33 38.78
58.04 58.25 58.37 58.69 58.53 58.41 58.01 57.69 56.71 56.73 56.27 55.53 55.37 55.21 54.83 55.17 54.57 55.05 54.51 54.03 54.23 54.24 53.20 51.73 47.23 41.85 37.76 40.64 38.91 38.39 37.92 37.52 40.42 37.45 36.90 35.43 36.67 37.49 36.75 35.94 35.02 34.47 36.59
56.84 57.18 57.32 57.14 57.46 57.60 57.63 57.47 57.07 56.55 55.98 55.64 55.25 54.91 54.37 53.89 53.24 50.60 50.12 50.02 47.88 47.02 45.75 46.76 39.24 38.25 36.42 35.00 35.46 35.25 34.20 33.69 36.95 35.47 34.08 32.35 34.77 35.45 33.36 32.25 32.22 32.00 31.93
56.13 56.29 56.53 56.37 56.29 56.49 56.65 56.67 56.31 55.63 51.70 46.91 44.12 43.25 43.09 44.80 45.23 44.24 42.56 41.75 42.56 40.57 40.14 39.18 35.58 33.62 32.84 32.47 31.83 29.01 29.53 30.54 31.57 30.30 30.22 29.50 31.56 31.34 30.07 29.16 28.94 29.60 30.09
55.96 55.88 55.94 56.11 56.27 56.27 55.89 55.89 54.30 47.34 41.39 38.54 37.61 37.17 37.45 38.26 37.84 38.11 37.90 37.69 37.91 36.13 34.85 33.13 31.05 29.65 28.38 27.80 25.78 26.71 25.23 26.46 28.71 26.36 25.67 25.96 28.00 27.13 26.20 25.53 26.24 27.92 29.64
55.30 54.94 52.95 51.34 49.02 47.18 42.92 44.55 45.92 42.36 39.52 36.75 34.64 34.42 34.45 34.47 33.73 33.82 33.28 32.83 33.68 33.06 30.34 29.50 27.97 23.72 23.02 24.03 24.14 22.44 21.52 20.90 20.22 26.29 22.06 21.86 25.22 22.73 23.26 22.85 25.37 26.52 28.96
47.81 44.90 43.52 44.01 41.50 41.68 40.38 40.34 39.21 39.02 36.81 34.87 33.52 32.88 32.36 32.76 32.23 31.67 31.15 30.42 29.67 29.06 27.76 26.63 23.45 22.60 19.83 20.83 21.82 19.48 18.29 18.32 18.15 21.25 18.91 18.08 21.40 19.18 20.88 22.21 23.74 26.14 26.86
40.62 38.98 37.39 37.17 36.39 36.57 37.72 36.84 35.95 35.06 33.85 33.29 32.86 32.26 31.08 30.22 30.71 29.56 27.82 25.81 25.19 25.15 25.22 25.09 22.99 22.10 21.36 19.93 19.61 18.48 17.21 16.82 19.08 20.54 17.66 12.81 17.71 16.45 18.80 20.38 23.00 24.89 24.75
36.22 34.95 34.88 34.39 33.59 33.52 34.62 34.31 32.83 31.16 29.94 29.96 30.82 30.89 30.49 29.60 30.77 30.38 25.82 23.25 22.47 23.30 25.61 24.94 23.88 23.36 22.47 21.32 19.71 16.95 14.37 12.74 11.62 14.85 16.56 13.56 15.41 14.85 16.60 18.69 21.01 22.15 21.97
33.61 33.28 32.20 32.78 33.20 32.53 33.56 33.01 31.97 30.52 28.68 27.76 28.01 28.34 29.04 28.08 28.09 26.87 24.16 22.28 19.75 19.61 19.21 18.32 18.25 18.54 18.92 18.37 18.71 16.62 14.90 10.90 10.52 8.99 15.64 11.99 13.05 12.88 9.81 16.11 17.30 18.18 18.21

GFSMA_sfc_wetblb_117.txt.gz
Wetbulb
65.86 63.85 64.48 65.41 65.87 65.28 65.67 64.11 63.09 62.28 63.09 62.55 62.34 62.36 61.85 62.15 61.92 62.00 62.93 61.38 62.22 63.13 62.79 62.46 62.01 61.43 60.81 60.46 60.12 59.74 59.37 59.07 58.81 58.51 57.93 57.72 57.81 57.53 57.19 56.86 56.34 55.51 55.27
65.46 64.50 63.79 64.30 64.48 64.27 64.91 62.76 61.45 60.43 61.87 62.24 61.94 61.80 61.70 61.91 61.90 62.36 62.15 62.26 60.95 61.82 62.69 62.23 61.97 61.47 61.19 60.53 59.91 59.27 58.90 58.81 58.86 58.66 58.33 57.65 57.31 57.14 56.71 55.90 55.76 55.15 54.64
63.50 64.17 63.18 63.31 63.43 63.19 61.72 60.94 60.88 60.73 61.28 61.84 61.45 61.17 60.93 61.10 61.49 62.07 62.49 62.43 61.48 60.14 60.91 62.24 62.16 61.40 61.03 60.47 59.68 59.26 58.91 58.68 58.66 58.35 57.89 57.61 57.24 57.04 56.76 55.81 55.54 55.21 54.73
63.85 63.21 62.83 62.70 62.33 61.32 60.53 58.78 60.68 59.62 60.49 60.83 60.26 60.31 60.04 60.70 61.26 61.91 62.08 62.13 61.89 61.60 60.27 61.07 61.55 61.84 61.28 60.55 60.03 59.66 59.42 58.76 58.62 58.34 58.07 57.82 57.41 57.40 57.39 56.32 55.52 55.54 55.29
64.13 63.54 62.64 62.29 60.48 59.53 59.25 60.04 60.28 60.35 59.30 59.86 59.86 59.74 60.17 60.05 60.77 60.94 61.37 61.63 61.76 61.53 61.37 60.19 60.10 60.26 60.87 60.92 60.27 60.08 59.87 59.58 59.09 58.90 58.64 58.43 58.05 57.74 57.58 57.20 56.72 56.23 55.98
63.43 62.94 62.74 61.10 59.77 58.67 58.78 59.31 59.52 59.92 59.72 59.49 58.24 58.18 59.53 59.95 60.44 60.58 60.74 60.89 61.16 61.35 61.40 61.19 61.00 60.05 59.40 61.01 60.56 60.35 60.46 60.52 60.22 59.74 59.57 59.40 59.04 58.97 58.49 58.43 58.07 57.46 56.99
62.82 62.83 62.48 59.86 59.70 57.87 59.37 60.72 59.17 58.56 58.54 59.84 57.48 57.01 57.79 58.85 59.40 59.62 60.65 60.42 60.37 60.44 60.79 60.60 60.78 60.50 59.97 60.31 61.07 60.78 61.13 61.47 61.36 61.31 61.22 60.87 60.78 60.50 60.49 60.10 59.74 59.40 58.71
61.59 62.02 61.60 59.35 58.55 57.77 57.55 57.94 58.74 58.06 58.24 58.95 57.46 56.62 53.09 55.18 57.42 58.31 59.15 59.55 59.76 60.08 59.56 60.07 60.28 60.49 60.38 60.27 60.11 60.66 60.95 61.42 61.72 61.94 62.74 62.34 62.05 61.83 61.18 60.79 60.73 60.62 60.51
61.60 60.43 60.12 59.35 57.91 56.37 55.78 58.43 58.96 58.56 56.21 57.97 59.40 57.66 53.45 53.21 54.40 57.10 57.73 58.73 59.26 59.19 59.42 58.23 59.15 59.63 60.14 60.45 59.25 58.65 57.02 58.53 60.43 60.96 61.70 62.05 62.15 62.48 62.42 62.12 61.79 61.42 61.31
59.69 59.58 59.43 57.91 56.56 56.22 55.61 58.28 57.83 57.89 57.31 56.45 57.86 57.18 59.58 57.36 54.38 51.18 55.46 57.46 58.78 58.23 57.97 57.52 58.86 59.14 59.50 59.25 58.59 55.95 53.43 53.71 56.23 59.12 59.89 60.75 61.66 61.81 61.92 61.92 62.18 62.05 61.86
59.34 59.15 58.15 57.10 55.27 55.39 57.12 57.04 58.47 59.03 59.61 58.59 57.49 56.06 56.14 56.06 56.87 54.91 52.95 54.05 56.45 58.04 58.08 58.66 59.65 59.28 57.73 56.88 57.96 57.71 52.95 51.51 52.21 55.52 57.96 59.15 60.30 60.99 61.34 61.49 61.79 61.77 61.66
60.02 59.41 57.84 56.86 55.37 55.12 55.63 56.53 57.29 58.49 58.85 59.42 59.49 57.81 56.36 55.23 54.40 54.47 53.80 54.93 55.72 56.21 58.17 57.89 58.52 58.67 58.98 59.14 57.95 53.81 52.39 50.47 50.77 52.96 54.82 56.17 57.09 57.82 58.26 58.79 59.01 59.12 59.42
60.81 59.46 59.08 57.30 56.55 56.35 55.79 56.24 57.31 57.88 58.48 58.48 58.75 57.92 58.06 57.55 57.11 56.61 55.62 53.03 52.45 55.08 55.37 55.54 56.13 57.37 57.01 57.31 58.49 53.17 52.04 48.93 49.11 50.62 51.93 52.81 53.38 53.78 54.42 54.73 55.29 55.93 56.33
60.52 61.28 60.23 59.68 57.86 56.78 55.41 56.51 57.60 57.47 58.41 58.92 58.58 58.45 57.94 56.61 57.12 56.48 54.48 54.37 52.21 53.96 54.63 55.30 54.73 55.40 55.53 56.18 52.21 51.43 46.73 45.73 45.62 46.39 47.49 48.26 48.27 48.16 48.23 48.60 49.21 49.42 49.69
61.65 61.27 60.42 60.13 59.80 57.27 57.83 57.47 58.19 57.87 58.69 58.48 57.61 57.81 57.11 57.23 57.50 56.81 56.38 55.35 53.36 49.88 50.98 55.15 53.99 54.69 54.92 50.52 50.77 46.80 45.45 43.55 43.01 42.33 42.44 43.31 44.31 44.51 44.72 44.79 44.67 44.83 45.23
60.26 60.66 61.00 60.53 59.34 58.56 57.80 56.87 56.85 58.16 57.06 57.21 56.81 56.44 56.65 56.86 56.74 56.06 55.33 55.37 54.04 52.51 50.05 55.47 53.83 50.31 49.56 46.44 45.52 45.28 43.53 41.53 40.17 39.53 39.47 40.04 40.43 40.59 40.19 39.24 38.85 39.70 40.42
60.94 60.52 60.65 60.45 59.61 58.59 57.80 57.03 56.71 56.55 55.35 55.31 55.47 55.03 55.33 55.95 55.72 55.12 55.50 55.08 54.26 53.68 51.90 53.91 53.38 46.15 42.77 41.74 41.73 41.58 41.35 40.30 38.74 36.20 36.59 37.86 38.30 36.68 36.13 35.77 35.17 35.03 36.59
60.07 59.98 59.68 59.53 59.43 59.55 58.26 57.13 55.96 55.66 55.11 54.72 55.05 55.27 55.11 55.57 55.39 55.43 55.05 54.69 54.87 55.25 53.75 52.21 46.89 39.56 38.74 38.23 38.24 35.65 36.21 38.95 37.00 34.95 33.32 35.08 35.68 33.78 32.67 32.15 31.94 31.87 31.86
58.18 58.17 58.46 58.21 58.11 59.31 58.28 57.63 56.75 55.88 55.73 55.25 55.43 55.23 55.37 55.13 54.65 54.73 54.95 54.54 53.98 50.65 50.57 50.27 38.95 38.55 34.34 35.61 34.36 34.46 32.99 34.87 34.38 33.21 31.33 30.51 32.59 31.59 30.65 29.69 29.32 29.67 30.22
56.84 56.94 57.10 57.33 57.65 58.09 57.96 57.72 57.08 56.46 56.28 55.91 55.27 55.05 54.38 54.51 54.35 52.33 49.53 47.57 45.22 44.25 43.31 39.89 35.94 32.87 33.12 32.09 30.85 28.53 28.43 30.40 30.22 29.27 28.93 28.51 30.11 29.60 29.09 27.82 27.78 28.67 29.36
57.09 56.82 56.48 56.14 56.48 56.50 56.91 56.60 54.18 47.64 44.02 40.79 39.74 39.13 39.33 39.59 38.56 39.21 41.87 41.27 40.90 38.82 36.78 34.44 31.28 29.32 27.86 25.83 24.83 25.21 25.06 26.39 27.42 26.31 25.97 28.26 30.70 29.56 29.44 27.92 27.70 27.45 28.93
56.03 55.23 54.46 53.09 51.32 49.20 42.24 42.44 45.30 42.64 39.76 37.29 34.74 34.29 34.57 34.54 33.41 33.02 32.09 31.55 33.56 34.12 31.45 28.62 25.33 23.30 23.23 23.93 23.16 21.94 21.73 22.31 22.54 28.36 25.61 26.19 28.08 26.71 27.19 27.46 25.78 26.26 27.69
49.33 46.71 45.37 44.96 42.19 42.39 40.43 39.79 38.77 38.63 36.12 34.64 33.38 32.60 32.07 32.05 31.22 29.53 29.12 28.68 28.09 27.55 27.11 26.28 22.97 21.40 18.92 20.72 21.73 20.62 21.25 22.04 24.10 25.61 23.74 23.94 26.11 24.29 26.12 26.10 25.43 25.45 26.23
43.69 41.48 39.02 38.25 37.49 37.36 37.48 36.83 35.89 34.89 33.51 32.97 32.50 31.84 30.84 29.73 29.19 27.96 26.24 24.35 23.87 24.10 24.07 23.85 22.54 21.54 20.68 20.64 21.96 21.41 21.29 22.67 25.91 25.07 22.55 19.05 23.93 22.44 24.38 25.88 25.03 24.94 24.71
37.49 36.23 36.14 35.46 34.34 34.08 35.16 34.99 33.81 32.29 30.87 30.35 30.53 30.88 30.00 28.59 29.18 29.22 24.69 22.98 21.92 22.34 25.01 24.65 23.72 22.93 22.06 21.34 20.99 21.38 19.83 19.46 19.21 20.58 21.33 18.55 21.08 20.38 21.95 23.32 25.33 23.98 23.59
34.13 33.60 32.93 33.33 33.48 32.91 34.10 34.05 33.15 31.59 29.10 27.87 28.13 28.91 29.01 27.74 27.32 26.63 24.11 22.10 19.37 18.88 19.16 19.12 19.13 19.15 19.59 19.53 19.69 19.18 18.03 15.31 15.33 17.57 19.87 15.64 17.95 18.52 15.99 22.33 22.74 23.41 23.93

GFSMA_sfc_wetblb_120.txt.gz
Wetbulb
68.09 67.64 66.62 67.51 66.87 68.12 68.13 66.08 65.54 65.55 65.78 65.04 64.87 65.85 65.04 64.59 63.90 63.34 63.63 62.24 62.66 63.79 63.15 63.15 62.51 61.80 61.43 60.68 60.34 60.59 60.34 59.77 59.47 59.28 58.97 58.38 58.21 57.94 57.57 57.15 56.32 55.76 55.10
67.30 65.50 65.17 68.37 65.54 66.71 66.87 64.96 65.47 65.36 65.61 65.52 65.02 65.36 64.75 63.84 63.38 63.57 63.83 63.07 61.28 62.62 63.26 62.78 62.61 61.68 61.29 61.31 60.56 60.14 59.73 59.66 59.29 59.07 58.33 58.32 57.91 57.65 57.06 56.62 56.27 55.25 54.86
68.18 66.39 64.94 65.45 65.34 64.82 64.63 64.23 64.82 64.78 64.60 64.66 64.68 64.95 64.21 63.32 62.52 62.95 62.58 62.29 62.41 60.81 61.69 62.91 62.91 61.83 61.41 60.97 60.41 59.74 59.53 59.44 59.19 59.13 58.78 58.25 57.62 57.58 57.27 56.21 55.82 55.63 55.22
67.06 65.75 65.01 64.16 65.40 64.07 63.12 62.26 63.64 63.44 63.98 63.67 63.42 64.16 63.24 63.00 63.21 62.90 63.07 63.07 62.84 62.37 60.99 61.75 62.13 62.18 61.90 60.90 60.35 60.12 59.65 59.35 59.12 58.89 58.48 58.13 57.78 57.49 57.65 57.11 56.39 55.97 55.93
66.62 64.74 64.63 63.58 64.87 62.70 61.43 60.70 62.19 63.86 63.15 63.20 63.08 63.14 62.57 62.57 63.06 62.29 62.29 62.76 62.97 62.68 62.36 60.80 60.76 60.89 61.54 61.36 60.58 60.40 60.49 59.71 59.35 59.11 58.85 58.68 58.41 58.13 58.09 57.78 57.60 57.26 56.73
64.78 64.54 63.92 63.30 63.30 61.60 60.27 60.36 60.57 63.49 63.58 63.52 61.71 60.75 62.33 62.77 63.06 62.38 61.48 62.01 62.38 62.52 62.56 62.30 61.97 61.09 60.00 61.60 60.74 60.70 60.78 60.62 60.03 59.74 59.50 59.31 59.33 59.30 58.95 58.78 58.77 58.49 58.06
64.74 63.80 63.27 62.67 61.59 60.51 60.05 60.82 60.78 63.10 62.13 63.19 61.05 59.94 60.45 62.42 62.55 61.14 61.78 62.20 61.60 61.95 62.12 62.35 62.11 61.95 60.93 60.54 61.28 60.97 61.38 61.36 61.87 61.77 61.26 60.80 61.12 60.75 60.68 60.57 60.18 59.92 59.52
64.87 63.67 63.20 62.00 61.06 60.06 59.64 59.85 60.45 61.56 61.99 63.28 59.54 59.28 54.88 57.27 60.11 60.72 61.35 61.59 61.75 61.93 61.56 61.88 62.12 61.81 61.78 61.66 61.00 60.81 61.49 61.86 62.14 62.23 62.96 62.73 62.31 61.97 61.59 61.39 61.33 61.22 61.04
65.42 64.39 63.21 61.49 60.40 60.01 58.39 58.83 60.10 59.66 60.34 61.73 62.86 59.15 55.52 54.19 57.40 60.30 60.60 61.37 61.66 61.51 61.84 61.96 62.16 62.19 62.10 62.57 61.36 60.24 57.95 59.11 61.34 61.84 62.58 62.54 62.62 62.39 62.52 62.63 62.28 62.02 61.85
64.51 62.96 62.15 61.65 60.23 59.96 59.03 58.45 59.49 60.50 62.80 60.40 61.95 61.30 61.54 60.40 56.24 54.75 58.99 60.73 61.61 60.92 61.83 61.75 61.61 60.28 62.16 62.93 60.78 57.26 53.60 54.32 56.75 59.71 60.35 60.84 61.76 61.89 62.09 62.07 62.28 62.28 62.22
62.27 63.00 61.63 59.62 59.75 59.37 59.36 58.90 59.31 62.54 62.99 61.64 61.39 60.18 60.69 60.87 60.59 57.86 54.87 57.38 60.14 61.27 61.82 61.70 61.03 60.99 62.80 62.80 62.80 59.59 53.21 51.66 52.58 55.32 57.14 58.29 58.99 59.34 59.58 59.94 60.40 60.59 60.85
60.12 60.25 58.90 58.37 57.99 58.25 58.20 58.35 58.91 61.48 62.50 62.79 61.66 61.39 59.95 58.59 58.61 58.43 57.18 57.27 57.46 59.62 60.98 60.87 61.39 62.21 63.00 62.70 60.13 54.69 51.73 50.74 50.77 52.82 54.12 55.32 56.07 56.84 57.19 57.51 57.93 58.31 58.62
58.86 58.18 58.31 56.96 56.72 57.02 57.35 58.30 58.31 61.90 62.02 62.47 62.27 61.73 61.09 60.14 60.18 59.31 58.35 57.72 56.73 58.18 58.78 60.86 62.01 62.17 61.31 61.59 58.88 52.34 48.07 47.68 48.91 50.55 51.29 51.59 51.89 52.25 52.76 53.23 53.64 53.73 53.66
60.69 60.00 58.58 57.47 55.92 55.88 56.59 57.03 57.86 60.81 62.49 62.99 62.71 62.58 61.29 60.96 60.92 60.04 58.75 57.73 55.43 55.15 55.90 56.91 58.62 57.48 57.01 57.66 49.59 46.94 45.85 44.46 44.76 45.75 46.94 47.40 47.43 47.41 47.20 47.08 47.11 47.14 47.31
61.49 61.57 60.69 58.67 57.46 55.86 55.50 56.72 58.01 59.21 60.26 62.48 62.77 63.25 61.73 61.19 61.48 61.14 59.83 58.85 56.22 52.07 52.47 55.88 54.39 56.52 50.51 49.18 48.36 45.85 44.28 41.88 41.52 41.85 42.31 42.70 43.33 42.37 41.77 41.40 41.81 42.46 43.43
62.15 61.11 60.09 59.73 58.66 58.06 56.63 56.47 57.12 58.26 59.21 59.65 62.02 62.03 62.02 60.67 60.32 60.48 59.75 59.21 58.69 56.12 52.70 56.06 53.90 49.28 47.64 44.98 44.83 42.92 41.37 39.39 39.02 39.28 40.01 39.50 38.67 38.50 37.84 37.27 36.99 36.90 37.04
60.69 60.35 60.63 59.93 59.27 58.59 58.62 57.43 56.43 57.27 58.67 59.36 60.74 60.82 60.01 59.38 58.55 58.62 58.50 57.50 56.89 56.41 52.38 53.87 49.87 45.22 42.58 41.33 40.24 41.69 40.27 37.19 35.69 36.21 37.69 36.49 35.17 34.22 33.61 33.27 32.82 32.87 33.41
62.57 62.28 60.93 60.45 59.79 57.83 57.98 57.62 56.58 57.99 59.67 59.00 58.74 58.17 57.79 57.39 57.59 57.08 56.95 57.05 55.50 55.86 53.58 52.21 45.97 39.14 38.39 38.23 36.66 35.95 38.55 37.42 34.66 33.08 32.52 34.06 33.27 32.23 31.12 30.53 30.25 30.83 31.30
60.11 60.02 60.30 59.91 59.70 59.51 58.28 57.93 57.40 56.34 56.47 56.48 56.74 56.61 56.96 55.43 54.95 55.31 54.95 54.81 54.67 54.08 54.50 52.99 39.91 37.57 35.07 36.09 34.24 33.46 33.52 34.32 33.48 31.53 30.16 31.19 31.14 30.69 30.03 29.20 29.25 29.65 30.07
59.42 58.76 59.30 59.26 58.92 58.58 59.05 58.31 57.71 56.51 55.77 55.40 55.20 54.93 54.91 54.71 54.87 54.87 54.41 54.30 53.02 49.73 46.09 39.71 34.72 33.17 32.05 30.78 29.76 29.20 28.15 31.12 30.39 28.95 29.22 29.31 30.15 29.77 29.28 29.39 29.33 28.69 29.20
58.63 58.40 58.72 58.33 56.82 57.28 57.34 57.62 56.96 55.94 54.36 48.53 43.85 42.19 41.17 42.49 41.64 44.43 48.28 45.26 45.00 40.94 37.41 34.34 31.34 28.89 27.41 25.46 24.48 25.40 25.36 27.55 26.49 26.01 26.96 29.18 30.25 31.46 33.19 31.67 30.16 27.90 28.10
57.48 57.11 57.13 54.04 50.87 46.53 40.85 42.66 45.80 43.84 40.66 38.14 35.55 34.78 34.66 34.91 33.68 33.47 33.29 33.07 36.09 36.50 32.98 29.37 27.04 24.74 23.76 23.67 23.83 22.62 23.58 24.75 24.50 26.78 25.89 29.04 31.39 31.77 31.71 30.70 27.74 27.07 26.91
52.33 47.90 46.38 45.16 42.22 40.89 38.89 39.22 38.73 38.62 36.78 35.67 34.18 32.81 31.55 31.55 30.52 29.20 29.15 28.62 28.21 28.50 28.87 27.97 23.88 22.46 21.59 22.86 23.31 22.54 23.47 25.39 24.56 24.68 25.11 26.26 29.85 27.81 28.70 27.81 27.80 27.13 26.81
46.17 42.53 39.89 39.82 38.33 37.37 36.56 35.93 35.23 34.35 33.29 32.89 32.25 31.48 29.88 28.90 28.90 27.35 25.23 23.73 23.20 23.75 24.26 23.86 22.03 21.86 22.52 23.57 23.73 24.13 23.90 24.94 27.39 28.20 24.86 21.88 25.26 23.47 25.78 27.16 27.57 27.26 26.61
40.18 38.79 37.86 37.07 36.10 35.60 35.28 34.71 33.99 32.34 31.10 30.22 30.21 30.06 29.40 28.40 29.40 29.73 25.32 23.14 22.66 23.01 25.15 25.10 24.52 23.87 23.55 23.42 24.07 24.13 22.96 25.20 24.06 25.65 25.09 22.43 24.90 24.60 26.20 27.29 28.75 27.13 26.70
35.95 35.85 34.66 35.12 34.84 34.61 34.79 34.49 33.69 31.82 29.70 28.20 27.86 28.09 28.57 27.37 27.03 26.34 23.76 22.42 19.55 19.44 19.52 19.57 19.78 20.95 21.41 21.46 22.93 24.52 23.90 21.84 22.13 23.22 23.63 20.98 22.56 22.92 20.68 26.42 26.88 27.42 27.60

GFSMA_sfc_wetblb_123.txt.gz
Wetbulb
69.98 69.88 69.52 67.44 67.63 68.90 67.01 67.14 66.43 66.89 66.20 64.91 64.53 64.88 65.12 64.77 64.21 63.86 63.03 62.53 63.25 64.39 63.69 63.80 62.93 62.48 62.12 61.86 61.61 61.10 60.36 60.24 59.62 59.25 59.01 59.08 58.88 58.50 57.84 56.84 56.34 55.92 55.59
70.83 68.97 68.87 69.07 68.07 68.48 67.10 65.44 66.84 63.81 64.63 65.08 64.49 63.77 64.66 64.29 63.48 63.73 63.09 62.93 62.00 63.06 63.80 63.69 63.00 62.45 61.77 61.00 60.53 60.11 60.24 59.81 59.55 59.25 59.06 58.59 58.15 57.87 57.10 56.59 56.16 55.47 55.19
70.74 69.61 68.10 68.57 67.43 66.32 64.84 64.54 66.51 63.29 63.15 64.18 63.86 63.81 64.17 63.84 62.64 63.03 63.08 63.24 62.02 61.20 62.24 63.11 63.36 62.41 61.65 61.51 60.54 60.36 59.85 59.94 59.41 59.15 58.75 58.37 57.91 57.81 57.35 56.55 56.14 56.00 55.94
70.57 69.84 68.10 67.50 66.87 65.15 64.07 63.30 63.01 62.53 63.28 64.14 63.77 62.45 63.26 62.68 62.23 62.89 62.76 62.36 62.12 62.09 61.28 62.13 62.41 62.42 62.02 61.07 60.80 60.36 60.01 59.56 59.35 59.30 58.98 58.49 58.16 57.81 57.78 57.62 57.09 56.37 56.31
69.98 68.71 67.47 66.02 66.37 66.15 63.60 62.65 62.08 61.81 63.19 62.97 63.35 62.58 63.61 62.09 62.13 61.66 62.12 62.72 62.92 61.88 61.64 60.86 60.96 61.07 61.87 61.99 60.83 60.65 60.55 59.99 59.57 59.42 59.33 58.86 58.61 58.28 58.35 58.25 58.19 58.07 57.77
69.30 68.44 66.52 65.54 66.39 64.08 62.82 61.86 60.88 61.87 63.76 63.63 62.25 61.21 61.60 61.92 62.46 62.28 61.59 61.83 62.16 62.95 62.09 61.66 61.05 60.48 60.49 62.09 61.59 61.16 61.05 60.93 60.27 59.80 59.50 59.13 59.38 59.44 59.43 59.03 58.94 58.86 58.77
68.65 66.39 66.21 64.79 63.81 62.29 61.27 61.26 60.62 59.97 62.04 62.93 61.30 59.14 60.46 61.56 62.23 61.57 61.59 61.03 61.43 61.70 62.60 62.00 61.19 60.94 60.48 61.09 61.89 61.23 61.49 61.65 61.70 61.16 60.88 60.50 61.07 61.09 60.84 60.79 60.66 60.38 60.45
66.61 66.35 65.58 63.33 63.65 61.83 60.82 60.39 60.13 59.01 59.52 62.63 59.88 57.39 54.76 57.01 59.41 60.95 61.27 61.20 62.69 60.81 61.12 61.71 61.46 61.30 61.32 60.45 60.16 61.42 61.76 62.03 62.22 62.50 62.77 62.53 62.15 61.89 61.57 61.68 61.66 61.44 61.37
66.77 66.22 64.90 63.26 62.42 61.95 60.36 60.17 60.24 59.05 57.83 60.45 61.87 59.32 54.91 53.92 56.47 59.18 60.87 60.92 62.29 61.05 61.32 61.15 61.29 61.56 61.77 61.61 60.22 59.57 58.16 59.67 62.04 62.20 63.01 62.60 62.57 62.44 62.29 62.42 62.49 62.62 62.46
65.69 65.59 65.68 63.75 61.78 61.76 60.40 60.26 60.70 59.98 59.09 58.62 61.09 62.04 62.04 60.38 56.02 54.24 58.76 59.51 61.29 60.68 62.45 61.38 61.07 61.66 62.20 62.21 61.36 56.90 54.99 54.74 57.45 60.41 60.92 60.74 61.07 61.53 61.68 61.68 61.75 61.79 62.05
65.76 65.98 65.68 63.91 61.75 60.92 60.50 60.24 60.19 59.54 59.79 59.80 60.68 60.24 61.22 61.59 60.90 57.59 54.84 56.68 58.31 60.65 61.23 61.87 62.23 61.92 61.87 61.50 63.35 56.88 52.75 51.55 52.65 55.74 57.08 57.71 58.12 58.51 58.71 58.81 59.03 59.24 59.45
65.02 64.94 64.63 63.16 62.43 60.55 59.81 59.90 60.15 59.21 59.41 60.26 61.18 62.06 61.07 59.73 57.92 59.42 57.48 57.89 57.33 60.01 61.16 61.75 61.98 61.65 62.31 62.90 57.02 50.18 49.78 49.33 50.49 52.61 53.66 54.23 54.79 54.91 55.31 55.94 56.37 56.71 56.22
61.49 62.01 62.11 60.71 60.30 60.28 59.69 59.45 59.40 59.12 58.99 59.50 59.65 61.43 62.41 61.05 62.24 61.37 59.81 57.94 57.15 58.39 58.83 62.18 61.75 62.14 61.67 57.66 52.77 49.77 47.61 47.59 49.40 50.86 51.55 51.74 51.84 51.80 51.74 51.74 51.59 51.44 51.33
61.42 61.47 60.11 59.05 59.01 58.46 58.60 59.22 59.30 59.21 59.25 59.38 59.39 61.81 62.48 61.78 62.47 61.29 60.13 57.82 56.11 57.05 58.63 58.55 58.99 57.70 57.35 52.80 47.50 46.38 44.53 44.41 45.02 46.04 46.69 46.43 45.78 45.08 45.03 45.53 46.02 46.77 46.07
62.82 61.23 59.95 58.18 57.51 57.32 57.80 58.26 58.34 58.84 59.41 59.72 59.72 61.76 60.58 61.75 62.25 61.88 61.79 61.22 58.34 54.21 53.88 55.87 54.55 53.13 52.40 49.35 46.92 43.77 42.68 42.06 42.09 42.48 42.03 41.83 41.61 40.93 40.14 39.72 39.25 39.06 39.24
63.16 61.05 60.23 58.39 56.34 56.28 56.64 56.98 57.72 58.37 58.71 59.33 59.90 60.73 61.16 62.04 61.40 62.25 62.13 61.91 60.83 57.10 53.49 56.29 51.82 49.08 46.84 44.63 42.92 40.78 40.14 40.33 40.41 38.48 37.53 37.25 36.75 36.65 35.82 35.11 34.84 35.28 35.74
63.53 62.51 60.16 58.53 56.84 55.61 56.22 56.28 56.88 57.58 57.89 58.43 59.87 60.42 60.56 60.97 61.26 62.03 62.53 61.91 59.82 58.75 55.51 52.75 47.96 44.36 43.00 41.74 41.27 39.13 37.45 35.68 35.97 36.88 35.92 34.91 33.94 33.01 32.45 32.22 32.22 32.93 33.46
63.85 62.10 60.40 59.70 57.93 56.80 55.85 55.69 55.55 56.48 56.80 57.71 58.68 59.35 59.95 59.75 60.61 61.15 60.36 58.22 58.16 58.68 56.57 52.17 43.22 40.58 38.40 38.41 38.17 38.54 36.69 35.12 33.49 32.91 33.70 33.35 32.74 31.81 30.86 30.52 30.54 31.04 31.70
62.45 61.97 61.69 61.21 59.68 58.06 56.56 56.48 56.39 56.26 56.04 56.84 57.71 59.42 59.96 60.30 59.73 58.86 57.95 57.38 57.71 54.57 54.70 50.69 40.58 36.88 35.80 35.62 33.52 34.13 34.16 33.42 32.25 31.31 30.29 31.45 30.91 30.42 30.08 30.07 30.07 29.91 30.08
61.65 61.55 61.49 61.98 61.79 59.62 58.38 57.78 57.30 56.92 56.65 56.33 56.52 57.28 58.38 58.88 58.26 57.02 55.45 54.89 53.28 52.55 50.60 42.43 36.20 33.50 31.99 30.84 31.69 30.43 29.06 31.15 28.59 28.88 29.24 29.53 30.49 31.08 30.19 30.30 29.72 29.35 29.11
60.30 60.17 59.80 59.48 59.74 59.43 59.29 58.39 57.53 56.94 56.62 56.31 53.32 52.02 52.39 51.53 44.92 46.13 52.67 52.65 52.29 44.64 41.55 38.02 32.75 30.86 28.58 27.67 27.41 27.28 26.95 28.39 26.61 26.77 27.51 29.91 30.81 32.01 32.57 32.48 30.94 29.33 28.54
59.50 58.69 58.31 55.83 52.42 48.42 41.01 44.28 51.67 53.25 49.48 42.35 38.22 37.13 39.09 38.12 35.99 35.23 34.40 33.47 39.53 41.52 36.63 34.12 30.53 27.85 25.19 25.00 25.35 24.90 26.33 27.99 25.13 26.89 25.94 29.22 30.89 29.74 30.71 30.74 28.90 28.44 28.19
56.02 51.05 48.46 47.21 43.89 42.08 39.14 39.78 39.28 39.56 37.68 36.12 34.86 34.01 32.99 33.46 33.47 31.08 30.22 29.41 29.53 30.52 30.70 31.31 26.98 24.91 23.63 24.33 25.40 25.04 26.19 27.01 24.86 23.61 24.86 26.40 28.87 28.16 29.12 29.26 28.60 28.39 28.11
47.12 43.45 41.51 40.77 39.42 37.76 36.95 36.43 35.76 35.25 33.41 32.66 32.57 32.48 32.09 31.10 30.94 28.84 26.41 23.90 23.57 23.97 24.63 24.93 23.88 23.88 24.59 25.39 25.72 25.80 26.40 26.74 26.09 24.74 25.95 23.38 27.47 26.17 28.40 30.08 28.97 28.67 28.96
41.92 39.61 38.88 37.63 36.93 36.15 35.38 35.07 34.54 32.95 31.24 30.61 30.91 30.77 30.68 29.43 30.38 30.65 25.34 23.03 22.59 23.41 26.56 26.92 26.90 26.49 26.45 26.39 26.56 26.92 25.81 26.07 24.84 26.11 25.06 24.06 26.62 25.50 27.06 28.54 29.29 29.30 29.60
37.96 36.85 35.70 36.11 35.58 35.34 35.24 35.00 34.26 32.19 29.44 27.67 28.01 28.32 29.24 28.24 28.24 27.32 24.12 22.43 19.85 20.74 21.36 21.43 21.90 22.78 23.36 24.06 25.34 26.29 26.14 24.11 24.39 24.28 22.95 22.78 24.31 23.93 22.14 27.55 27.57 28.64 29.29

GFSMA_sfc_wetblb_126.txt.gz
Wetbulb
68.52 67.96 67.44 66.94 66.32 66.22 65.90 65.36 65.08 64.50 64.75 64.94 64.26 61.73 62.74 62.40 62.04 61.24 61.40 62.68 63.30 64.15 63.93 63.55 63.29 63.40 62.99 62.38 61.88 61.14 60.80 60.35 60.21 59.96 59.81 59.74 59.40 58.70 57.95 57.47 57.16 56.62 56.12
68.77 68.03 67.64 66.83 65.87 65.89 65.96 65.54 64.76 64.13 63.63 63.71 61.86 61.54 62.03 61.76 61.79 60.58 60.89 60.71 62.04 63.21 63.86 63.67 63.19 63.03 62.62 62.21 61.55 60.90 60.69 60.04 59.72 59.81 59.43 59.15 58.70 58.09 57.69 57.25 56.82 56.03 55.16
69.60 68.03 67.18 66.50 65.80 65.67 65.36 64.95 63.42 63.65 62.80 63.15 61.98 61.67 62.01 61.50 60.19 60.58 60.70 60.28 60.69 61.50 62.39 63.52 63.56 62.72 62.20 61.47 60.78 60.66 60.57 60.16 60.00 59.53 59.10 58.70 58.28 57.90 57.33 56.36 55.98 55.77 55.62
69.52 68.17 67.02 66.43 66.38 65.34 64.08 63.45 62.69 61.71 61.65 61.29 61.41 60.45 61.63 60.36 59.82 60.50 60.64 60.30 59.95 60.50 61.06 62.07 62.53 62.84 62.40 61.35 61.21 60.79 60.46 60.25 59.93 59.56 59.33 58.75 58.31 57.77 57.61 57.36 57.00 56.62 56.41
69.40 68.22 66.99 66.50 66.16 64.44 63.13 62.41 62.25 61.91 60.73 60.83 61.28 61.16 60.05 58.81 58.63 61.03 60.26 59.74 59.42 59.58 59.82 60.87 61.02 61.17 61.59 61.97 61.28 61.16 60.90 60.35 59.86 59.69 59.52 58.94 58.42 58.07 58.03 58.15 58.21 58.28 57.98
69.33 68.23 67.18 66.40 65.83 63.89 62.78 62.23 61.53 61.71 61.43 61.22 61.42 60.14 59.18 58.87 58.13 57.75 59.17 59.83 59.16 59.40 59.52 59.19 58.83 58.44 59.95 61.89 61.69 61.18 61.28 60.72 60.21 59.96 59.42 59.46 59.11 59.07 59.69 59.30 58.98 59.17 59.20
68.34 68.18 66.63 65.54 65.27 63.50 62.46 62.23 61.59 60.25 59.92 61.15 59.49 57.43 58.74 59.21 59.05 57.62 59.55 58.82 58.84 59.15 59.22 58.97 58.36 57.72 58.50 61.22 61.86 61.38 61.73 61.78 61.23 60.41 60.15 60.00 60.71 60.78 60.92 60.83 60.63 60.55 60.40
68.10 67.35 65.85 64.66 64.72 63.22 62.19 61.78 60.95 59.40 59.51 60.21 57.84 56.52 52.80 55.89 57.96 58.53 57.44 57.55 57.47 58.47 59.13 58.89 58.34 58.06 57.82 58.13 58.55 61.76 61.74 62.27 61.96 61.91 62.16 61.94 61.93 61.68 61.76 61.74 61.78 61.76 61.65
66.65 66.34 65.99 64.26 63.77 62.79 61.32 61.18 60.53 59.35 57.17 58.74 59.66 56.23 52.10 51.03 54.61 57.15 56.12 56.31 56.48 55.60 58.18 58.93 58.40 58.33 57.98 57.90 58.51 58.88 58.31 59.59 62.41 62.83 62.97 62.84 62.48 62.33 62.26 62.15 62.26 62.35 62.28
65.32 65.41 65.03 63.85 63.04 62.74 61.23 61.05 61.00 60.00 58.48 56.92 59.29 58.93 57.06 56.04 52.66 51.73 55.79 55.92 58.60 56.55 56.23 56.29 57.20 57.97 58.10 58.33 57.99 57.51 55.08 55.31 57.83 61.04 61.48 61.04 60.81 60.51 60.20 60.07 60.16 59.90 60.22
64.32 64.50 64.50 63.84 62.56 62.56 61.37 60.94 60.72 60.08 59.22 57.80 58.22 57.65 57.13 57.23 56.23 53.40 51.87 53.68 56.92 56.24 57.49 56.84 56.88 57.11 59.24 58.56 57.95 54.31 53.76 51.94 53.32 55.57 56.49 57.04 57.31 57.75 57.26 57.40 58.03 58.47 58.43
63.75 63.71 63.56 63.92 62.65 61.99 61.42 60.71 60.75 60.36 59.31 58.54 59.00 58.56 57.45 56.11 54.98 54.10 52.48 53.07 52.75 55.37 56.27 57.05 58.45 58.03 58.38 52.06 52.09 50.57 50.03 50.05 51.64 53.62 54.57 54.96 55.06 55.01 55.44 56.30 56.06 55.38 54.66
62.90 62.96 63.49 63.54 62.32 61.40 61.18 60.89 60.42 60.40 59.13 58.59 58.92 58.45 58.81 58.11 58.19 56.97 55.12 54.12 53.07 54.15 54.64 57.35 57.93 58.31 54.49 50.00 48.66 48.78 48.68 47.97 49.43 50.94 51.88 51.70 51.43 51.19 51.12 51.53 51.72 50.79 49.38
62.01 61.79 61.69 61.69 61.75 61.19 60.69 60.36 60.14 60.14 59.63 58.78 59.22 59.11 59.04 58.60 59.06 58.29 56.65 55.15 52.69 53.48 55.21 55.36 54.71 51.35 49.50 46.29 46.09 45.89 44.88 45.69 46.09 46.32 46.32 46.15 46.01 45.45 45.31 44.94 44.28 43.65 43.37
61.85 61.39 60.17 59.31 59.20 59.64 59.71 59.27 59.33 59.27 59.16 58.87 59.29 59.11 58.94 59.63 59.23 58.99 58.16 58.05 55.04 51.49 52.02 53.60 51.16 50.42 48.47 45.86 44.47 42.58 42.48 43.31 42.81 42.73 42.16 41.84 41.46 40.56 39.49 38.91 38.67 38.81 39.15
61.73 60.99 59.41 58.78 58.25 58.34 58.25 58.47 58.65 59.14 58.12 58.02 59.16 58.91 58.92 59.35 58.66 58.13 57.58 57.94 57.28 55.08 51.76 53.01 47.38 46.64 44.00 42.28 42.01 41.25 41.06 40.18 39.20 38.34 37.87 37.47 36.98 36.24 35.67 35.56 35.93 36.32 37.23
62.14 60.93 59.02 57.89 57.37 56.79 57.31 57.47 57.57 58.59 58.37 57.37 59.05 58.66 58.36 58.51 57.72 57.94 58.12 57.83 56.97 56.22 50.97 46.42 45.11 43.38 41.70 39.31 38.19 37.37 37.12 36.84 36.72 36.18 35.60 34.77 33.57 33.21 33.01 33.22 33.30 34.01 34.91
62.34 60.91 60.06 58.24 56.91 56.51 56.41 56.37 56.71 57.66 57.85 57.73 57.86 57.89 57.50 58.39 57.91 57.98 57.99 57.00 56.11 55.85 51.98 44.89 42.15 39.36 38.60 39.15 37.48 35.63 35.25 34.06 33.40 34.71 34.13 33.44 32.68 31.93 31.61 31.69 31.56 31.63 32.38
61.90 61.65 60.47 58.45 57.09 56.23 55.83 56.11 56.57 57.04 57.48 57.79 58.04 57.69 57.30 57.48 56.92 56.85 56.35 55.73 55.34 54.74 51.95 45.36 39.24 37.79 35.98 35.86 34.59 34.45 32.79 32.35 32.29 31.94 31.94 31.96 31.28 31.01 31.10 31.31 30.67 30.53 30.82
60.52 61.32 60.90 60.04 58.40 56.93 56.05 55.83 56.07 56.15 56.76 57.22 57.64 58.14 57.87 57.58 56.98 56.73 56.15 55.32 53.86 52.52 47.95 41.62 36.53 33.67 32.44 33.37 32.95 30.89 29.75 30.26 27.85 29.40 29.45 29.94 31.41 31.64 31.16 31.41 30.80 30.20 29.61
59.56 59.98 59.70 60.16 59.94 57.86 56.77 55.91 55.71 55.68 55.40 55.34 55.11 55.35 54.19 54.54 51.06 54.25 55.71 53.24 52.37 48.17 44.51 39.15 33.20 30.76 29.15 29.30 29.44 29.62 28.96 26.65 26.38 27.09 27.59 29.19 30.16 31.46 31.23 31.36 29.69 29.64 29.18
58.51 58.53 57.99 56.37 53.05 50.90 40.40 46.20 52.66 55.48 54.88 54.19 53.40 45.45 44.23 41.79 39.64 38.60 37.50 37.58 44.63 44.61 39.44 38.09 32.69 31.65 27.72 26.60 28.15 27.72 27.69 26.49 24.42 26.79 26.27 27.63 28.81 28.37 29.06 28.78 29.27 28.72 28.69
55.15 50.90 48.80 46.93 43.58 41.74 39.46 40.87 40.13 41.51 39.87 39.72 41.10 39.62 35.49 35.65 35.61 33.27 32.68 32.37 32.29 33.11 33.24 34.94 33.42 28.99 26.14 26.13 26.93 26.93 27.14 27.37 23.47 23.50 26.16 26.24 26.83 26.01 28.23 28.87 29.09 28.59 29.22
48.12 44.73 42.38 41.06 38.59 37.36 37.46 36.97 36.09 35.42 33.75 33.52 33.97 34.23 33.99 32.18 32.72 32.15 29.97 27.96 26.63 27.01 28.74 28.78 27.83 26.69 26.95 27.35 27.81 28.01 27.47 24.29 23.98 24.15 26.32 24.18 26.04 24.76 26.63 27.18 29.96 29.70 30.04
41.95 39.62 38.93 37.61 36.00 35.16 35.51 35.49 35.05 33.58 32.35 31.79 32.10 32.22 32.81 32.45 33.20 34.25 29.40 26.06 25.16 25.73 29.32 29.63 29.14 28.70 28.56 28.61 28.21 26.97 24.96 24.52 24.36 23.07 23.26 23.59 24.44 22.20 23.14 23.91 25.90 29.68 30.10
38.06 37.13 35.78 36.12 35.44 34.51 35.39 35.37 34.71 32.51 29.27 28.18 29.13 29.59 31.09 30.43 31.39 31.22 27.97 25.31 22.12 22.98 23.92 24.42 24.84 26.13 26.86 27.61 27.49 27.27 27.76 25.17 24.37 21.31 21.43 21.08 21.55 21.42 20.51 24.83 24.44 25.29 25.77